South Armidale Weather

South Armidale Weather


This Months Observations
Date Time Temperature Humidity Dewpoint Wind Speed High Gust Wind Bearing Rainfall Rate Total Rainfall Pressure Gust Wind Chill Heat Index UV Index
01/01/19 00:00 21.6 52 11.3 0.0 0.0 0 0.0 0.0 1017.0 0.0 0.0 21.6 0.0
01/01/19 00:03 21.5 53 11.5 0.0 0.0 0 0.0 0.0 1017.0 0.0 0.0 21.5 0.0
01/01/19 00:04 21.5 52 11.2 0.0 0.0 0 0.0 0.0 1017.0 0.0 0.0 21.5 0.0
01/01/19 00:05 21.5 52 11.2 0.0 0.0 0 0.0 0.0 1017.0 0.0 0.0 21.5 0.0
01/01/19 00:06 21.5 52 11.2 0.0 0.0 0 0.0 0.0 1017.0 0.0 0.0 21.5 0.0
01/01/19 00:07 21.5 52 11.2 0.0 0.0 0 0.0 0.0 1017.0 0.0 0.0 21.5 0.0
01/01/19 00:08 21.5 52 11.2 0.0 0.0 0 0.0 0.0 1016.0 0.0 0.0 21.5 0.0
01/01/19 00:09 21.5 52 11.2 0.0 0.0 0 0.0 0.0 1016.0 0.0 0.0 21.5 0.0
01/01/19 00:10 21.5 52 11.2 0.0 0.0 0 0.0 0.0 1016.0 0.0 0.0 21.5 0.0
01/01/19 00:11 21.5 52 11.2 0.0 0.0 0 0.0 0.0 1016.0 0.0 0.0 21.5 0.0
01/01/19 00:12 21.5 52 11.2 0.0 0.0 0 0.0 0.0 1016.0 0.0 0.0 21.5 0.0
01/01/19 00:13 21.5 52 11.2 0.0 0.0 0 0.0 0.0 1016.0 0.0 0.0 21.5 0.0
01/01/19 00:14 21.5 52 11.2 0.0 0.0 0 0.0 0.0 1016.0 0.0 0.0 21.5 0.0
01/01/19 00:15 21.5 52 11.2 0.0 0.0 0 0.0 0.0 1016.0 0.0 0.0 21.5 0.0
01/01/19 00:18 21.5 52 11.2 0.0 0.0 0 0.0 0.0 1016.0 0.0 0.0 21.5 0.0
01/01/19 00:19 21.4 52 11.1 0.0 0.0 0 0.0 0.0 1016.0 0.0 0.0 21.4 0.0
01/01/19 00:20 21.4 52 11.1 0.0 0.0 0 0.0 0.0 1016.0 0.0 0.0 21.4 0.0
01/01/19 00:21 21.4 52 11.1 0.0 0.0 0 0.0 0.0 1016.0 0.0 0.0 21.4 0.0
01/01/19 00:22 21.4 52 11.1 0.0 0.0 0 0.0 0.0 1016.0 0.0 0.0 21.4 0.0
01/01/19 00:23 21.4 52 11.1 0.0 0.0 0 0.0 0.0 1016.0 0.0 0.0 21.4 0.0
01/01/19 00:24 21.4 52 11.1 0.0 0.0 0 0.0 0.0 1016.0 0.0 0.0 21.4 0.0
01/01/19 00:25 21.4 52 11.1 0.0 0.0 0 0.0 0.0 1016.0 0.0 0.0 21.4 0.0
01/01/19 00:26 21.4 52 11.1 0.0 0.0 0 0.0 0.0 1016.0 0.0 0.0 21.4 0.0
01/01/19 00:27 21.4 52 11.1 0.0 0.0 0 0.0 0.0 1016.0 0.0 0.0 21.4 0.0
01/01/19 00:28 21.4 53 11.4 0.0 0.0 0 0.0 0.0 1016.0 0.0 0.0 21.4 0.0
01/01/19 00:29 21.4 53 11.4 0.0 0.0 0 0.0 0.0 1016.0 0.0 0.0 21.4 0.0
01/01/19 00:30 21.4 53 11.4 0.0 0.0 0 0.0 0.0 1016.0 0.0 0.0 21.4 0.0
01/01/19 00:33 21.4 53 11.4 0.0 0.0 0 0.0 0.0 1016.0 0.0 0.0 21.4 0.0
01/01/19 00:34 21.4 53 11.4 0.0 0.0 0 0.0 0.0 1016.0 0.0 0.0 21.4 0.0
01/01/19 00:35 21.4 53 11.4 0.0 0.0 0 0.0 0.0 1016.0 0.0 0.0 21.4 0.0
01/01/19 00:36 21.4 53 11.4 0.0 0.0 0 0.0 0.0 1016.0 0.0 0.0 21.4 0.0
01/01/19 00:37 21.4 52 11.1 0.0 0.0 0 0.0 0.0 1016.0 0.0 0.0 21.4 0.0
01/01/19 00:38 21.3 52 11.0 0.0 0.0 0 0.0 0.0 1016.0 0.0 0.0 21.3 0.0
01/01/19 00:39 21.3 52 11.0 0.0 0.0 0 0.0 0.0 1016.0 0.0 0.0 21.3 0.0
01/01/19 00:40 21.3 52 11.0 0.0 0.0 0 0.0 0.0 1016.0 0.0 0.0 21.3 0.0
01/01/19 00:41 21.2 53 11.2 0.0 0.0 0 0.0 0.0 1016.0 0.0 0.0 21.2 0.0
01/01/19 00:42 21.2 53 11.2 0.0 0.0 0 0.0 0.0 1016.0 0.0 0.0 21.2 0.0
01/01/19 00:43 21.3 53 11.3 0.0 0.0 0 0.0 0.0 1016.0 0.0 0.0 21.3 0.0
01/01/19 00:44 21.3 53 11.3 0.0 0.0 0 0.0 0.0 1016.0 0.0 0.0 21.3 0.0
01/01/19 00:48 21.2 53 11.2 0.0 0.0 0 0.0 0.0 1016.0 0.0 0.0 21.2 0.0
01/01/19 00:49 21.1 54 11.4 0.0 0.0 0 0.0 0.0 1016.0 0.0 0.0 21.1 0.0
01/01/19 00:50 21.1 54 11.4 0.0 0.0 0 0.0 0.0 1016.0 0.0 0.0 21.1 0.0
01/01/19 00:51 21.0 54 11.3 0.0 0.0 0 0.0 0.0 1016.0 0.0 0.0 21.0 0.0
01/01/19 00:52 21.0 54 11.3 0.0 0.0 0 0.0 0.0 1016.0 0.0 0.0 21.0 0.0
01/01/19 00:53 20.9 54 11.2 0.0 0.0 0 0.0 0.0 1015.0 0.0 0.0 20.9 0.0
01/01/19 00:54 20.9 55 11.5 0.0 0.0 0 0.0 0.0 1015.0 0.0 0.0 20.9 0.0
01/01/19 00:55 20.9 54 11.2 0.0 0.0 0 0.0 0.0 1015.0 0.0 0.0 20.9 0.0
01/01/19 00:56 20.8 55 11.4 0.0 0.0 0 0.0 0.0 1015.0 0.0 0.0 20.8 0.0
01/01/19 00:57 20.8 55 11.4 0.0 0.0 0 0.0 0.0 1015.0 0.0 0.0 20.8 0.0
01/01/19 00:58 20.8 55 11.4 0.0 0.0 0 0.0 0.0 1015.0 0.0 0.0 20.8 0.0
01/01/19 00:59 20.8 55 11.4 0.0 0.0 0 0.0 0.0 1015.0 0.0 0.0 20.8 0.0
01/01/19 01:00 20.7 55 11.3 0.0 0.0 0 0.0 0.0 1015.0 0.0 0.0 20.7 0.0
01/01/19 01:03 20.7 56 11.6 0.0 0.0 0 0.0 0.0 1015.0 0.0 0.0 20.7 0.0
01/01/19 01:04 20.6 56 11.5 0.0 0.0 0 0.0 0.0 1015.0 0.0 0.0 20.6 0.0
01/01/19 01:05 20.6 56 11.5 0.0 0.0 0 0.0 0.0 1015.0 0.0 0.0 20.6 0.0
01/01/19 01:35 19.9 58 11.4 0.0 0.0 0 0.0 0.0 1015.0 0.0 0.0 19.9 0.0
01/01/19 01:36 19.9 58 11.4 0.0 0.0 0 0.0 0.0 1015.0 0.0 0.0 19.9 0.0
01/01/19 01:37 19.9 58 11.4 0.0 0.0 0 0.0 0.0 1015.0 0.0 0.0 19.9 0.0
01/01/19 01:38 19.8 58 11.3 0.0 0.0 0 0.0 0.0 1015.0 0.0 0.0 19.8 0.0
01/01/19 01:39 19.8 58 11.3 0.0 0.0 0 0.0 0.0 1015.0 0.0 0.0 19.8 0.0
01/01/19 01:40 19.8 58 11.3 0.0 0.0 0 0.0 0.0 1015.0 0.0 0.0 19.8 0.0
01/01/19 01:41 19.9 58 11.4 0.0 0.0 0 0.0 0.0 1015.0 0.0 0.0 19.9 0.0
01/01/19 01:42 19.8 58 11.3 0.0 0.0 0 0.0 0.0 1015.0 0.0 0.0 19.8 0.0
01/01/19 01:43 19.8 58 11.3 0.0 0.0 0 0.0 0.0 1015.0 0.0 0.0 19.8 0.0
01/01/19 01:44 19.8 58 11.3 0.0 0.0 0 0.0 0.0 1015.0 0.0 0.0 19.8 0.0
01/01/19 01:45 19.9 58 11.4 0.0 0.0 0 0.0 0.0 1015.0 0.0 0.0 19.9 0.0
01/01/19 01:48 19.9 59 11.6 0.0 0.0 0 0.0 0.0 1015.0 0.0 0.0 19.9 0.0
01/01/19 01:49 19.9 59 11.6 0.0 0.0 0 0.0 0.0 1015.0 0.0 0.0 19.9 0.0
01/01/19 01:50 19.9 59 11.6 0.0 0.0 0 0.0 0.0 1015.0 0.0 0.0 19.9 0.0
01/01/19 01:51 19.9 59 11.6 0.0 0.0 0 0.0 0.0 1015.0 0.0 0.0 19.9 0.0
01/01/19 01:52 19.9 59 11.6 0.0 0.0 0 0.0 0.0 1015.0 0.0 0.0 19.9 0.0
01/01/19 01:53 19.9 59 11.6 0.0 0.0 0 0.0 0.0 1014.0 0.0 0.0 19.9 0.0
01/01/19 01:54 19.9 59 11.6 0.0 0.0 0 0.0 0.0 1014.0 0.0 0.0 19.9 0.0
01/01/19 02:03 20.0 57 11.2 0.0 0.0 0 0.0 0.0 1014.0 0.0 0.0 20.0 0.0
01/01/19 02:04 19.9 57 11.1 0.0 0.0 0 0.0 0.0 1014.0 0.0 0.0 19.9 0.0
01/01/19 02:05 19.9 57 11.1 0.0 0.0 0 0.0 0.0 1014.0 0.0 0.0 19.9 0.0
01/01/19 02:06 19.9 57 11.1 0.0 0.0 0 0.0 0.0 1014.0 0.0 0.0 19.9 0.0
01/01/19 02:07 19.9 57 11.1 0.0 0.0 0 0.0 0.0 1014.0 0.0 0.0 19.9 0.0
01/01/19 02:08 19.9 57 11.1 0.0 0.0 0 0.0 0.0 1015.0 0.0 0.0 19.9 0.0
01/01/19 02:09 19.9 57 11.1 0.0 0.0 0 0.0 0.0 1015.0 0.0 0.0 19.9 0.0
01/01/19 02:10 19.8 57 11.0 0.0 0.0 0 0.0 0.0 1015.0 0.0 0.0 19.8 0.0
01/01/19 02:11 19.8 56 10.8 0.0 0.0 0 0.0 0.0 1015.0 0.0 0.0 19.8 0.0
01/01/19 02:12 19.8 56 10.8 0.0 0.0 0 0.0 0.0 1015.0 0.0 0.0 19.8 0.0
01/01/19 02:13 19.8 56 10.8 0.0 0.0 0 0.0 0.0 1015.0 0.0 0.0 19.8 0.0
01/01/19 02:14 19.7 56 10.7 0.0 0.0 0 0.0 0.0 1015.0 0.0 0.0 19.7 0.0
01/01/19 02:15 19.7 56 10.7 0.0 0.0 0 0.0 0.0 1015.0 0.0 0.0 19.7 0.0
01/01/19 02:18 19.7 56 10.7 0.0 0.0 0 0.0 0.0 1015.0 0.0 0.0 19.7 0.0
01/01/19 02:19 19.7 55 10.4 0.0 0.0 0 0.0 0.0 1015.0 0.0 0.0 19.7 0.0
01/01/19 02:20 19.6 55 10.3 0.0 0.0 0 0.0 0.0 1015.0 0.0 0.0 19.6 0.0
01/01/19 02:21 19.6 55 10.3 0.0 0.0 0 0.0 0.0 1015.0 0.0 0.0 19.6 0.0
01/01/19 02:22 19.6 55 10.3 0.0 0.0 0 0.0 0.0 1015.0 0.0 0.0 19.6 0.0
01/01/19 02:23 19.6 55 10.3 0.0 0.0 0 0.0 0.0 1015.0 0.0 0.0 19.6 0.0
01/01/19 02:24 19.6 55 10.3 0.0 0.0 0 0.0 0.0 1015.0 0.0 0.0 19.6 0.0
01/01/19 02:25 19.5 55 10.2 0.0 0.0 0 0.0 0.0 1015.0 0.0 0.0 19.5 0.0
01/01/19 02:26 19.5 55 10.2 0.0 0.0 0 0.0 0.0 1015.0 0.0 0.0 19.5 0.0
01/01/19 02:27 19.5 55 10.2 0.0 0.0 0 0.0 0.0 1015.0 0.0 0.0 19.5 0.0
01/01/19 02:28 19.5 55 10.2 0.0 0.0 0 0.0 0.0 1015.0 0.0 0.0 19.5 0.0
01/01/19 02:29 19.4 55 10.1 0.0 0.0 0 0.0 0.0 1015.0 0.0 0.0 19.4 0.0
01/01/19 02:30 19.4 55 10.1 0.0 0.0 0 0.0 0.0 1015.0 0.0 0.0 19.4 0.0
01/01/19 02:33 19.4 55 10.1 0.0 0.0 0 0.0 0.0 1015.0 0.0 0.0 19.4 0.0
01/01/19 02:34 19.4 55 10.1 0.0 0.0 0 0.0 0.0 1015.0 0.0 0.0 19.4 0.0
01/01/19 02:35 19.4 55 10.1 0.0 0.0 0 0.0 0.0 1015.0 0.0 0.0 19.4 0.0
01/01/19 02:36 19.4 55 10.1 0.0 0.0 0 0.0 0.0 1015.0 0.0 0.0 19.4 0.0
01/01/19 02:37 19.3 55 10.0 0.0 0.0 0 0.0 0.0 1015.0 0.0 0.0 19.3 0.0
01/01/19 02:38 19.3 55 10.0 0.0 0.0 0 0.0 0.0 1015.0 0.0 0.0 19.3 0.0
01/01/19 02:39 19.3 55 10.0 0.0 0.0 0 0.0 0.0 1015.0 0.0 0.0 19.3 0.0
01/01/19 02:40 19.3 56 10.3 0.0 0.0 0 0.0 0.0 1015.0 0.0 0.0 19.3 0.0
01/01/19 02:41 19.2 55 9.9 0.0 0.0 0 0.0 0.0 1015.0 0.0 0.0 19.2 0.0
01/01/19 02:42 19.2 55 9.9 0.0 0.0 0 0.0 0.0 1015.0 0.0 0.0 19.2 0.0
01/01/19 02:43 19.2 55 9.9 0.0 0.0 0 0.0 0.0 1015.0 0.0 0.0 19.2 0.0
01/01/19 02:44 19.2 56 10.2 0.0 0.0 0 0.0 0.0 1015.0 0.0 0.0 19.2 0.0
01/01/19 02:48 19.2 56 10.2 0.0 0.0 0 0.0 0.0 1015.0 0.0 0.0 19.2 0.0
01/01/19 02:49 19.2 56 10.2 0.0 0.0 0 0.0 0.0 1015.0 0.0 0.0 19.2 0.0
01/01/19 02:50 19.2 56 10.2 0.0 0.0 0 0.0 0.0 1015.0 0.0 0.0 19.2 0.0
01/01/19 02:51 19.2 57 10.5 0.0 0.0 0 0.0 0.0 1015.0 0.0 0.0 19.2 0.0
01/01/19 02:52 19.2 56 10.2 0.0 0.0 0 0.0 0.0 1015.0 0.0 0.0 19.2 0.0
01/01/19 02:53 19.1 57 10.4 0.0 0.0 0 0.0 0.0 1015.0 0.0 0.0 19.1 0.0
01/01/19 02:54 19.1 56 10.1 0.0 0.0 0 0.0 0.0 1015.0 0.0 0.0 19.1 0.0
01/01/19 02:55 19.1 57 10.4 0.0 0.0 0 0.0 0.0 1015.0 0.0 0.0 19.1 0.0
01/01/19 02:56 19.1 57 10.4 0.0 0.0 0 0.0 0.0 1015.0 0.0 0.0 19.1 0.0
01/01/19 02:57 19.0 57 10.3 0.0 0.0 0 0.0 0.0 1015.0 0.0 0.0 19.0 0.0
01/01/19 02:58 19.0 57 10.3 0.0 0.0 0 0.0 0.0 1015.0 0.0 0.0 19.0 0.0
01/01/19 02:59 18.9 57 10.2 0.0 0.0 0 0.0 0.0 1015.0 0.0 0.0 18.9 0.0
01/01/19 03:00 18.9 57 10.2 0.0 0.0 0 0.0 0.0 1015.0 0.0 0.0 18.9 0.0
01/01/19 03:03 18.8 57 10.1 0.0 0.0 0 0.0 0.0 1015.0 0.0 0.0 18.8 0.0
01/01/19 03:04 18.8 58 10.4 0.0 0.0 0 0.0 0.0 1015.0 0.0 0.0 18.8 0.0
01/01/19 03:05 18.8 58 10.4 0.0 0.0 0 0.0 0.0 1015.0 0.0 0.0 18.8 0.0
01/01/19 03:06 18.8 58 10.4 0.0 0.0 0 0.0 0.0 1015.0 0.0 0.0 18.8 0.0
01/01/19 03:07 18.8 58 10.4 0.0 0.0 0 0.0 0.0 1015.0 0.0 0.0 18.8 0.0
01/01/19 03:08 18.8 58 10.4 0.0 0.0 0 0.0 0.0 1015.0 0.0 0.0 18.8 0.0
01/01/19 03:09 18.8 59 10.6 0.0 0.0 0 0.0 0.0 1015.0 0.0 0.0 18.8 0.0
01/01/19 03:10 18.8 59 10.6 0.0 0.0 0 0.0 0.0 1015.0 0.0 0.0 18.8 0.0
01/01/19 03:11 18.8 59 10.6 0.0 0.0 0 0.0 0.0 1015.0 0.0 0.0 18.8 0.0
01/01/19 03:12 18.8 60 10.9 0.0 0.0 0 0.0 0.0 1015.0 0.0 0.0 18.8 0.0
01/01/19 03:13 18.8 60 10.9 0.0 0.0 0 0.0 0.0 1015.0 0.0 0.0 18.8 0.0
01/01/19 03:14 18.8 60 10.9 0.0 0.0 0 0.0 0.0 1015.0 0.0 0.0 18.8 0.0
01/01/19 03:18 18.8 61 11.1 0.0 0.0 0 0.0 0.0 1015.0 0.0 0.0 18.8 0.0
01/01/19 03:19 18.8 62 11.4 0.0 0.0 0 0.0 0.0 1015.0 0.0 0.0 18.8 0.0
01/01/19 03:20 18.8 62 11.4 0.0 0.0 0 0.0 0.0 1015.0 0.0 0.0 18.8 0.0
01/01/19 03:21 18.8 63 11.6 0.0 0.0 0 0.0 0.0 1015.0 0.0 0.0 18.8 0.0
01/01/19 03:22 18.8 62 11.4 0.0 0.0 0 0.0 0.0 1015.0 0.0 0.0 18.8 0.0
01/01/19 03:23 18.8 63 11.6 0.0 0.0 0 0.0 0.0 1015.0 0.0 0.0 18.8 0.0
01/01/19 03:24 18.8 62 11.4 0.0 0.0 0 0.0 0.0 1015.0 0.0 0.0 18.8 0.0
01/01/19 03:25 18.8 63 11.6 0.0 0.0 0 0.0 0.0 1015.0 0.0 0.0 18.8 0.0
01/01/19 03:26 18.7 63 11.5 0.0 0.0 0 0.0 0.0 1015.0 0.0 0.0 18.7 0.0
01/01/19 03:27 18.7 63 11.5 0.0 0.0 0 0.0 0.0 1015.0 0.0 0.0 18.7 0.0
01/01/19 03:28 18.7 63 11.5 0.0 0.0 0 0.0 0.0 1015.0 0.0 0.0 18.7 0.0
01/01/19 03:29 18.8 63 11.6 0.0 0.0 0 0.0 0.0 1015.0 0.0 0.0 18.8 0.0
01/01/19 03:30 18.8 63 11.6 0.0 0.0 0 0.0 0.0 1015.0 0.0 0.0 18.8 0.0
01/01/19 03:33 18.8 63 11.6 0.0 0.0 0 0.0 0.0 1015.0 0.0 0.0 18.8 0.0
01/01/19 03:34 18.7 63 11.5 0.0 0.0 0 0.0 0.0 1015.0 0.0 0.0 18.7 0.0
01/01/19 03:35 18.7 63 11.5 0.0 0.0 0 0.0 0.0 1015.0 0.0 0.0 18.7 0.0
01/01/19 03:36 18.7 63 11.5 0.0 0.0 0 0.0 0.0 1015.0 0.0 0.0 18.7 0.0
01/01/19 03:37 18.7 63 11.5 0.0 0.0 0 0.0 0.0 1015.0 0.0 0.0 18.7 0.0
01/01/19 03:38 18.7 64 11.7 0.0 0.0 0 0.0 0.0 1014.0 0.0 0.0 18.7 0.0
01/01/19 03:39 18.7 65 12.0 0.0 0.0 0 0.0 0.0 1014.0 0.0 0.0 18.7 0.0
01/01/19 03:40 18.7 64 11.7 0.0 0.0 0 0.0 0.0 1014.0 0.0 0.0 18.7 0.0
01/01/19 03:41 18.7 64 11.7 0.0 0.0 0 0.0 0.0 1014.0 0.0 0.0 18.7 0.0
01/01/19 03:42 18.7 65 12.0 0.0 0.0 0 0.0 0.0 1014.0 0.0 0.0 18.7 0.0
01/01/19 03:43 18.8 65 12.1 0.0 0.0 0 0.0 0.0 1014.0 0.0 0.0 18.8 0.0
01/01/19 03:44 18.7 64 11.7 0.0 0.0 0 0.0 0.0 1014.0 0.0 0.0 18.7 0.0
01/01/19 03:45 18.7 64 11.7 0.0 0.0 0 0.0 0.0 1014.0 0.0 0.0 18.7 0.0
01/01/19 03:48 18.6 65 11.9 0.0 0.0 0 0.0 0.0 1014.0 0.0 0.0 18.6 0.0
01/01/19 03:49 18.6 65 11.9 0.0 0.0 0 0.0 0.0 1014.0 0.0 0.0 18.6 0.0
01/01/19 03:50 18.6 65 11.9 0.0 0.0 0 0.0 0.0 1014.0 0.0 0.0 18.6 0.0
01/01/19 03:51 18.6 65 11.9 0.0 0.0 0 0.0 0.0 1014.0 0.0 0.0 18.6 0.0
01/01/19 03:52 18.6 66 12.1 0.0 0.0 0 0.0 0.0 1014.0 0.0 0.0 18.6 0.0
01/01/19 03:53 18.6 66 12.1 0.0 0.0 0 0.0 0.0 1015.0 0.0 0.0 18.6 0.0
01/01/19 03:54 18.6 66 12.1 0.0 0.0 0 0.0 0.0 1015.0 0.0 0.0 18.6 0.0
01/01/19 03:55 18.6 66 12.1 0.0 0.0 0 0.0 0.0 1015.0 0.0 0.0 18.6 0.0
01/01/19 03:56 18.6 66 12.1 0.0 0.0 0 0.0 0.0 1015.0 0.0 0.0 18.6 0.0
01/01/19 03:57 18.6 66 12.1 0.0 0.0 0 0.0 0.0 1015.0 0.0 0.0 18.6 0.0
01/01/19 03:58 18.5 66 12.0 0.0 0.0 0 0.0 0.0 1015.0 0.0 0.0 18.5 0.0
01/01/19 03:59 18.5 66 12.0 0.0 0.0 0 0.0 0.0 1015.0 0.0 0.0 18.5 0.0
01/01/19 04:00 18.4 67 12.2 0.0 0.0 0 0.0 0.0 1015.0 0.0 0.0 18.4 0.0
01/01/19 04:03 18.4 67 12.2 0.0 0.0 0 0.0 0.0 1015.0 0.0 0.0 18.4 0.0
01/01/19 04:04 18.3 67 12.1 0.0 0.0 0 0.0 0.0 1015.0 0.0 0.0 18.3 0.0
01/01/19 04:05 18.3 67 12.1 0.0 0.0 0 0.0 0.0 1015.0 0.0 0.0 18.3 0.0
01/01/19 04:06 18.2 67 12.0 0.0 0.0 0 0.0 0.0 1015.0 0.0 0.0 18.2 0.0
01/01/19 04:07 18.2 67 12.0 0.0 0.0 0 0.0 0.0 1015.0 0.0 0.0 18.2 0.0
01/01/19 04:08 18.3 68 12.3 0.0 0.0 0 0.0 0.0 1014.0 0.0 0.0 18.3 0.0
01/01/19 04:09 18.3 68 12.3 0.0 0.0 0 0.0 0.0 1014.0 0.0 0.0 18.3 0.0
01/01/19 04:10 18.3 69 12.5 0.0 0.0 0 0.0 0.0 1014.0 0.0 0.0 18.3 0.0
01/01/19 04:11 18.3 69 12.5 0.0 0.0 0 0.0 0.0 1014.0 0.0 0.0 18.3 0.0
01/01/19 04:12 18.3 69 12.5 0.0 0.0 0 0.0 0.0 1014.0 0.0 0.0 18.3 0.0
01/01/19 04:13 18.3 68 12.3 0.0 0.0 0 0.0 0.0 1014.0 0.0 0.0 18.3 0.0
01/01/19 04:14 18.3 68 12.3 0.0 0.0 0 0.0 0.0 1014.0 0.0 0.0 18.3 0.0
01/01/19 04:15 18.3 68 12.3 0.0 0.0 0 0.0 0.0 1014.0 0.0 0.0 18.3 0.0
01/01/19 04:18 18.2 68 12.2 0.0 0.0 0 0.0 0.0 1014.0 0.0 0.0 18.2 0.0
01/01/19 04:19 18.2 68 12.2 0.0 0.0 0 0.0 0.0 1014.0 0.0 0.0 18.2 0.0
01/01/19 04:20 18.2 68 12.2 0.0 0.0 0 0.0 0.0 1014.0 0.0 0.0 18.2 0.0
01/01/19 04:21 18.1 69 12.3 0.0 0.0 0 0.0 0.0 1014.0 0.0 0.0 18.1 0.0
01/01/19 04:22 18.1 69 12.3 0.0 0.0 0 0.0 0.0 1014.0 0.0 0.0 18.1 0.0
01/01/19 04:23 18.1 69 12.3 0.0 0.0 0 0.0 0.0 1015.0 0.0 0.0 18.1 0.0
01/01/19 04:24 18.1 69 12.3 0.0 0.0 0 0.0 0.0 1015.0 0.0 0.0 18.1 0.0
01/01/19 04:25 18.0 69 12.2 0.0 0.0 0 0.0 0.0 1015.0 0.0 0.0 18.0 0.0
01/01/19 04:26 18.0 69 12.2 0.0 0.0 0 0.0 0.0 1015.0 0.0 0.0 18.0 0.0
01/01/19 04:27 18.0 69 12.2 0.0 0.0 0 0.0 0.0 1015.0 0.0 0.0 18.0 0.0
01/01/19 04:28 17.9 70 12.3 0.0 0.0 0 0.0 0.0 1015.0 0.0 0.0 17.9 0.0
01/01/19 04:29 17.9 70 12.3 0.0 0.0 0 0.0 0.0 1015.0 0.0 0.0 17.9 0.0
01/01/19 04:30 17.9 70 12.3 0.0 0.0 0 0.0 0.0 1015.0 0.0 0.0 17.9 0.0
01/01/19 04:33 18.0 71 12.7 0.0 0.0 0 0.0 0.0 1015.0 0.0 0.0 18.0 0.0
01/01/19 04:34 18.0 71 12.7 0.0 0.0 0 0.0 0.0 1015.0 0.0 0.0 18.0 0.0
01/01/19 04:35 18.0 71 12.7 0.0 0.0 0 0.0 0.0 1015.0 0.0 0.0 18.0 0.0
01/01/19 04:36 18.0 71 12.7 0.0 0.0 0 0.0 0.0 1015.0 0.0 0.0 18.0 0.0
01/01/19 04:37 18.0 71 12.7 0.0 0.0 0 0.0 0.0 1015.0 0.0 0.0 18.0 0.0
01/01/19 04:38 17.9 71 12.6 0.0 0.0 0 0.0 0.0 1015.0 0.0 0.0 17.9 0.0
01/01/19 04:39 17.9 71 12.6 0.0 0.0 0 0.0 0.0 1015.0 0.0 0.0 17.9 0.0
01/01/19 04:40 17.9 71 12.6 0.0 0.0 0 0.0 0.0 1015.0 0.0 0.0 17.9 0.0
01/01/19 04:41 17.9 72 12.8 0.0 0.0 0 0.0 0.0 1015.0 0.0 0.0 17.9 0.0
01/01/19 04:42 17.9 72 12.8 0.0 0.0 0 0.0 0.0 1015.0 0.0 0.0 17.9 0.0
01/01/19 04:43 17.9 71 12.6 0.0 0.0 0 0.0 0.0 1015.0 0.0 0.0 17.9 0.0
01/01/19 04:44 17.9 72 12.8 0.0 0.0 0 0.0 0.0 1015.0 0.0 0.0 17.9 0.0
01/01/19 04:45 17.9 72 12.8 0.0 0.0 0 0.0 0.0 1015.0 0.0 0.0 17.9 0.0
01/01/19 04:48 17.9 72 12.8 0.0 0.0 0 0.0 0.0 1015.0 0.0 0.0 17.9 0.0
01/01/19 04:49 17.8 72 12.7 0.0 0.0 0 0.0 0.0 1015.0 0.0 0.0 17.8 0.0
01/01/19 04:50 17.9 72 12.8 0.0 0.0 0 0.0 0.0 1015.0 0.0 0.0 17.9 0.0
01/01/19 04:51 17.9 72 12.8 0.0 0.0 0 0.0 0.0 1015.0 0.0 0.0 17.9 0.0
01/01/19 04:52 17.9 72 12.8 0.0 0.0 0 0.0 0.0 1015.0 0.0 0.0 17.9 0.0
01/01/19 04:53 17.9 73 13.0 0.0 0.0 0 0.0 0.0 1014.0 0.0 0.0 17.9 0.0
01/01/19 04:54 17.9 73 13.0 0.0 0.0 0 0.0 0.0 1014.0 0.0 0.0 17.9 0.0
01/01/19 04:55 18.0 72 12.9 0.0 0.0 0 0.0 0.0 1014.0 0.0 0.0 18.0 0.0
01/01/19 04:56 17.9 73 13.0 0.0 0.0 0 0.0 0.0 1014.0 0.0 0.0 17.9 0.0
01/01/19 04:57 18.0 72 12.9 0.0 0.0 0 0.0 0.0 1014.0 0.0 0.0 18.0 0.0
01/01/19 04:58 18.0 73 13.1 0.0 0.0 0 0.0 0.0 1014.0 0.0 0.0 18.0 0.0
01/01/19 04:59 18.0 73 13.1 0.0 0.0 0 0.0 0.0 1014.0 0.0 0.0 18.0 0.0
01/01/19 05:00 18.0 73 13.1 0.0 0.0 0 0.0 0.0 1014.0 0.0 0.0 18.0 0.0
01/01/19 05:03 18.2 74 13.5 0.0 0.0 0 0.0 0.0 1014.0 0.0 0.0 18.2 0.0
01/01/19 05:04 18.2 74 13.5 0.0 0.0 0 0.0 0.0 1014.0 0.0 0.0 18.2 0.0
01/01/19 05:05 18.2 74 13.5 0.0 0.0 0 0.0 0.0 1014.0 0.0 0.0 18.2 0.0
01/01/19 05:06 18.2 73 13.3 0.0 0.0 0 0.0 0.0 1014.0 0.0 0.0 18.2 0.0
01/01/19 05:18 18.4 75 13.9 0.0 0.0 0 0.0 0.0 1015.0 0.0 0.0 18.4 0.0
01/01/19 05:19 18.4 76 14.1 0.0 0.0 0 0.0 0.0 1015.0 0.0 0.0 18.4 0.0
01/01/19 05:20 18.4 77 14.3 0.0 0.0 0 0.0 0.0 1015.0 0.0 0.0 18.4 0.0
01/01/19 05:21 18.4 77 14.3 0.0 0.0 0 0.0 0.0 1015.0 0.0 0.0 18.4 0.0
01/01/19 05:22 18.4 76 14.1 0.0 0.0 0 0.0 0.0 1015.0 0.0 0.0 18.4 0.0
01/01/19 05:23 18.4 76 14.1 0.0 0.0 0 0.0 0.0 1015.0 0.0 0.0 18.4 0.0
01/01/19 05:24 18.4 76 14.1 0.0 0.0 0 0.0 0.0 1015.0 0.0 0.0 18.4 0.0
01/01/19 05:33 18.4 73 13.5 0.0 0.0 0 0.0 0.0 1015.0 0.0 0.0 18.4 0.0
01/01/19 05:34 18.4 73 13.5 0.0 0.0 0 0.0 0.0 1015.0 0.0 0.0 18.4 0.0
01/01/19 05:35 18.4 73 13.5 0.0 0.0 0 0.0 0.0 1015.0 0.0 0.0 18.4 0.0
01/01/19 05:36 18.4 73 13.5 0.0 0.0 0 0.0 0.0 1015.0 0.0 0.0 18.4 0.0
01/01/19 05:37 18.4 73 13.5 0.0 0.0 0 0.0 0.0 1015.0 0.0 0.0 18.4 0.0
01/01/19 05:38 18.4 73 13.5 0.0 0.0 0 0.0 0.0 1015.0 0.0 0.0 18.4 0.0
01/01/19 05:39 18.4 73 13.5 0.0 0.0 0 0.0 0.0 1015.0 0.0 0.0 18.4 0.0
01/01/19 05:40 18.4 73 13.5 0.0 0.0 0 0.0 0.0 1015.0 0.0 0.0 18.4 0.0
01/01/19 05:41 18.3 73 13.4 0.0 0.0 0 0.0 0.0 1015.0 0.0 0.0 18.3 0.0
01/01/19 05:42 18.3 73 13.4 0.0 0.0 0 0.0 0.0 1015.0 0.0 0.0 18.3 0.0
01/01/19 05:43 18.3 73 13.4 0.0 0.0 0 0.0 0.0 1015.0 0.0 0.0 18.3 0.0
01/01/19 05:44 18.3 73 13.4 0.0 0.0 0 0.0 0.0 1015.0 0.0 0.0 18.3 0.0
01/01/19 05:45 18.3 73 13.4 0.0 0.0 0 0.0 0.0 1015.0 0.0 0.0 18.3 0.0
01/01/19 05:48 18.2 73 13.3 0.0 0.0 0 0.0 0.0 1015.0 0.0 0.0 18.2 0.0
01/01/19 05:49 18.2 73 13.3 0.0 0.0 0 0.0 0.0 1015.0 0.0 0.0 18.2 0.0
01/01/19 05:50 18.2 73 13.3 0.0 0.0 0 0.0 0.0 1015.0 0.0 0.0 18.2 0.0
01/01/19 05:51 18.2 73 13.3 0.0 0.0 0 0.0 0.0 1015.0 0.0 0.0 18.2 0.0
01/01/19 05:52 18.2 73 13.3 0.0 0.0 0 0.0 0.0 1015.0 0.0 0.0 18.2 0.0
01/01/19 05:53 18.2 73 13.3 0.0 0.0 0 0.0 0.0 1015.0 0.0 0.0 18.2 0.0
01/01/19 05:54 18.2 73 13.3 0.0 0.0 0 0.0 0.0 1015.0 0.0 0.0 18.2 0.0
01/01/19 05:55 18.2 73 13.3 0.0 0.0 0 0.0 0.0 1015.0 0.0 0.0 18.2 0.0
01/01/19 05:56 18.2 73 13.3 0.0 0.0 0 0.0 0.0 1015.0 0.0 0.0 18.2 0.0
01/01/19 05:57 18.2 73 13.3 0.0 0.0 0 0.0 0.0 1015.0 0.0 0.0 18.2 0.0
01/01/19 05:58 18.2 73 13.3 0.0 0.0 0 0.0 0.0 1015.0 0.0 0.0 18.2 0.0
01/01/19 05:59 18.2 72 13.1 0.0 0.0 0 0.0 0.0 1015.0 0.0 0.0 18.2 0.0
01/01/19 06:00 18.2 72 13.1 0.0 0.0 0 0.0 0.0 1015.0 0.0 0.0 18.2 0.0
01/01/19 06:03 18.2 72 13.1 0.0 0.0 0 0.0 0.0 1015.0 0.0 0.0 18.2 0.0
01/01/19 06:04 18.2 72 13.1 0.0 0.0 0 0.0 0.0 1015.0 0.0 0.0 18.2 0.0
01/01/19 06:05 18.2 72 13.1 0.0 0.0 0 0.0 0.0 1015.0 0.0 0.0 18.2 0.0
01/01/19 06:06 18.1 72 13.0 0.0 0.0 0 0.0 0.0 1015.0 0.0 0.0 18.1 0.0
01/01/19 06:18 17.9 72 12.8 0.0 0.0 0 0.0 0.0 1015.0 0.0 0.0 17.9 0.0
01/01/19 06:19 17.9 72 12.8 0.0 0.0 0 0.0 0.0 1015.0 0.0 0.0 17.9 0.0
01/01/19 06:20 17.9 72 12.8 0.0 0.0 0 0.0 0.0 1015.0 0.0 0.0 17.9 0.0
01/01/19 06:21 17.9 72 12.8 0.0 0.0 0 0.0 0.0 1015.0 0.0 0.0 17.9 0.0
01/01/19 06:22 17.9 72 12.8 0.0 0.0 0 0.0 0.0 1015.0 0.0 0.0 17.9 0.0
01/01/19 06:23 17.8 72 12.7 0.0 0.0 0 0.0 0.0 1015.0 0.0 0.0 17.8 0.0
01/01/19 06:24 17.8 72 12.7 0.0 0.0 0 0.0 0.0 1015.0 0.0 0.0 17.8 0.0
01/01/19 06:25 17.8 72 12.7 0.0 0.0 0 0.0 0.0 1015.0 0.0 0.0 17.8 0.0
01/01/19 06:26 17.8 72 12.7 0.0 0.0 0 0.0 0.0 1015.0 0.0 0.0 17.8 0.0
01/01/19 06:27 17.8 72 12.7 0.0 0.0 0 0.0 0.0 1015.0 0.0 0.0 17.8 0.0
01/01/19 06:28 17.8 72 12.7 0.0 0.0 0 0.0 0.0 1015.0 0.0 0.0 17.8 0.0
01/01/19 06:29 17.8 72 12.7 0.0 0.0 0 0.0 0.0 1015.0 0.0 0.0 17.8 0.0
01/01/19 06:30 17.8 72 12.7 0.0 0.0 0 0.0 0.0 1015.0 0.0 0.0 17.8 0.0
01/01/19 06:33 17.8 72 12.7 0.0 0.0 0 0.0 0.0 1015.0 0.0 0.0 17.8 0.0
01/01/19 06:34 17.7 72 12.6 0.0 0.0 0 0.0 0.0 1015.0 0.0 0.0 17.7 0.0
01/01/19 06:35 17.7 72 12.6 0.0 0.0 0 0.0 0.0 1015.0 0.0 0.0 17.7 0.0
01/01/19 06:36 17.8 72 12.7 0.0 0.0 0 0.0 0.0 1015.0 0.0 0.0 17.8 0.0
01/01/19 06:37 17.8 72 12.7 0.0 0.0 0 0.0 0.0 1015.0 0.0 0.0 17.8 0.0
01/01/19 06:38 17.8 72 12.7 0.0 0.0 0 0.0 0.0 1015.0 0.0 0.0 17.8 0.0
01/01/19 06:39 17.8 72 12.7 0.0 0.0 0 0.0 0.0 1015.0 0.0 0.0 17.8 0.0
01/01/19 06:40 17.8 72 12.7 0.0 0.0 0 0.0 0.0 1015.0 0.0 0.0 17.8 0.0
01/01/19 06:41 17.9 72 12.8 0.0 0.0 0 0.0 0.0 1015.0 0.0 0.0 17.9 0.0
01/01/19 06:42 17.9 72 12.8 0.0 0.0 0 0.0 0.0 1015.0 0.0 0.0 17.9 0.0
01/01/19 06:43 17.9 72 12.8 0.0 0.0 0 0.0 0.0 1015.0 0.0 0.0 17.9 0.0
01/01/19 06:44 17.9 72 12.8 0.0 0.0 0 0.0 0.0 1015.0 0.0 0.0 17.9 0.0
01/01/19 06:48 18.0 72 12.9 0.0 0.0 0 0.0 0.0 1015.0 0.0 0.0 18.0 0.0
01/01/19 06:49 18.1 72 13.0 0.0 0.0 0 0.0 0.0 1015.0 0.0 0.0 18.1 0.0
01/01/19 06:50 18.1 72 13.0 0.0 0.0 0 0.0 0.0 1015.0 0.0 0.0 18.1 0.0
01/01/19 06:51 18.2 72 13.1 0.0 0.0 0 0.0 0.0 1015.0 0.0 0.0 18.2 0.0
01/01/19 06:52 18.2 72 13.1 0.0 0.0 0 0.0 0.0 1015.0 0.0 0.0 18.2 0.0
01/01/19 06:53 18.3 72 13.2 0.0 0.0 0 0.0 0.0 1016.0 0.0 0.0 18.3 0.0
01/01/19 06:54 18.3 72 13.2 0.0 0.0 0 0.0 0.0 1016.0 0.0 0.0 18.3 0.0
01/01/19 06:55 18.4 72 13.3 0.0 0.0 0 0.0 0.0 1016.0 0.0 0.0 18.4 0.0
01/01/19 06:56 18.4 72 13.3 0.0 0.0 0 0.0 0.0 1016.0 0.0 0.0 18.4 0.0
01/01/19 06:57 18.4 72 13.3 0.0 0.0 0 0.0 0.0 1016.0 0.0 0.0 18.4 0.0
01/01/19 06:58 18.5 72 13.4 0.0 0.0 0 0.0 0.0 1016.0 0.0 0.0 18.5 0.0
01/01/19 06:59 18.5 72 13.4 0.0 0.0 0 0.0 0.0 1016.0 0.0 0.0 18.5 0.0
01/01/19 07:00 18.6 72 13.5 0.0 0.0 0 0.0 0.0 1016.0 0.0 0.0 18.6 0.0
01/01/19 07:03 18.8 72 13.6 0.0 0.0 0 0.0 0.0 1016.0 0.0 0.0 18.8 0.0
01/01/19 07:04 18.8 72 13.6 0.0 0.0 0 0.0 0.0 1016.0 0.0 0.0 18.8 0.0
01/01/19 07:05 18.9 72 13.7 0.0 0.0 0 0.0 0.0 1016.0 0.0 0.0 18.9 0.0
01/01/19 07:06 18.9 72 13.7 0.0 0.0 0 0.0 0.0 1016.0 0.0 0.0 18.9 0.0
01/01/19 07:07 19.0 72 13.8 0.0 0.0 0 0.0 0.0 1016.0 0.0 0.0 19.0 0.0
01/01/19 07:08 19.0 72 13.8 0.0 0.0 0 0.0 0.0 1016.0 0.0 0.0 19.0 0.0
01/01/19 07:09 19.0 72 13.8 0.0 0.0 0 0.0 0.0 1016.0 0.0 0.0 19.0 0.0
01/01/19 07:10 19.0 72 13.8 0.0 0.0 0 0.0 0.0 1016.0 0.0 0.0 19.0 0.0
01/01/19 07:11 19.1 72 13.9 0.0 0.0 0 0.0 0.0 1016.0 0.0 0.0 19.1 0.0
01/01/19 07:12 19.1 72 13.9 0.0 0.0 0 0.0 0.0 1016.0 0.0 0.0 19.1 0.0
01/01/19 07:13 19.1 73 14.1 0.0 0.0 0 0.0 0.0 1016.0 0.0 0.0 19.1 0.0
01/01/19 07:14 19.1 73 14.1 0.0 0.0 0 0.0 0.0 1016.0 0.0 0.0 19.1 0.0
01/01/19 07:15 19.2 73 14.2 0.0 0.0 0 0.0 0.0 1016.0 0.0 0.0 19.2 0.0
01/01/19 07:18 19.3 72 14.1 0.0 0.0 0 0.0 0.0 1016.0 0.0 0.0 19.3 0.0
01/01/19 07:19 19.3 72 14.1 0.0 0.0 0 0.0 0.0 1016.0 0.0 0.0 19.3 0.0
01/01/19 07:20 19.3 72 14.1 0.0 0.0 0 0.0 0.0 1016.0 0.0 0.0 19.3 0.0
01/01/19 07:21 19.3 72 14.1 0.0 0.0 0 0.0 0.0 1016.0 0.0 0.0 19.3 0.0
01/01/19 07:22 19.3 72 14.1 0.0 0.0 0 0.0 0.0 1016.0 0.0 0.0 19.3 0.0
01/01/19 07:23 19.3 72 14.1 0.0 0.0 0 0.0 0.0 1016.0 0.0 0.0 19.3 0.0
01/01/19 07:24 19.2 72 14.0 0.0 0.0 0 0.0 0.0 1016.0 0.0 0.0 19.2 0.0
01/01/19 07:33 19.2 72 14.0 0.0 0.0 0 0.0 0.0 1016.0 0.0 0.0 19.2 0.0
01/01/19 07:34 19.2 72 14.0 0.0 0.0 0 0.0 0.0 1016.0 0.0 0.0 19.2 0.0
01/01/19 07:35 19.2 72 14.0 0.0 0.0 0 0.0 0.0 1016.0 0.0 0.0 19.2 0.0
01/01/19 07:36 19.2 72 14.0 0.0 0.0 0 0.0 0.0 1016.0 0.0 0.0 19.2 0.0
01/01/19 07:37 19.2 72 14.0 0.0 0.0 0 0.0 0.0 1016.0 0.0 0.0 19.2 0.0
01/01/19 07:38 19.2 72 14.0 0.0 0.0 0 0.0 0.0 1016.0 0.0 0.0 19.2 0.0
01/01/19 07:39 19.2 72 14.0 0.0 0.0 0 0.0 0.0 1016.0 0.0 0.0 19.2 0.0
01/01/19 07:40 19.2 71 13.8 0.0 0.0 0 0.0 0.0 1016.0 0.0 0.0 19.2 0.0
01/01/19 07:41 19.3 71 13.9 0.0 0.0 0 0.0 0.0 1016.0 0.0 0.0 19.3 0.0
01/01/19 07:42 19.3 71 13.9 0.0 0.0 0 0.0 0.0 1016.0 0.0 0.0 19.3 0.0
01/01/19 07:43 19.4 71 14.0 0.0 0.0 0 0.0 0.0 1016.0 0.0 0.0 19.4 0.0
01/01/19 07:44 19.4 71 14.0 0.0 0.0 0 0.0 0.0 1016.0 0.0 0.0 19.4 0.0
01/01/19 07:45 19.5 71 14.1 0.0 0.0 0 0.0 0.0 1016.0 0.0 0.0 19.5 0.0
01/01/19 07:48 19.7 71 14.3 0.0 0.0 0 0.0 0.0 1016.0 0.0 0.0 19.7 0.0
01/01/19 07:49 19.7 71 14.3 0.0 0.0 0 0.0 0.0 1016.0 0.0 0.0 19.7 0.0
01/01/19 07:50 19.8 71 14.4 0.0 0.0 0 0.0 0.0 1016.0 0.0 0.0 19.8 0.0
01/01/19 07:51 19.9 71 14.5 0.0 0.0 0 0.0 0.0 1016.0 0.0 0.0 19.9 0.0
01/01/19 07:52 20.0 70 14.4 0.0 0.0 0 0.0 0.0 1016.0 0.0 0.0 20.0 0.0
01/01/19 07:53 20.2 70 14.6 0.0 0.0 0 0.0 0.0 1016.0 0.0 0.0 20.2 0.0
01/01/19 07:54 20.4 70 14.7 0.0 0.0 0 0.0 0.0 1016.0 0.0 0.0 20.4 0.0
01/01/19 07:55 20.5 70 14.8 0.0 0.0 0 0.0 0.0 1016.0 0.0 0.0 20.5 0.0
01/01/19 07:56 20.6 69 14.7 0.0 0.0 0 0.0 0.0 1016.0 0.0 0.0 20.6 0.0
01/01/19 07:57 20.7 69 14.8 0.0 0.0 0 0.0 0.0 1016.0 0.0 0.0 20.7 0.0
01/01/19 07:58 20.8 69 14.9 0.0 0.0 0 0.0 0.0 1016.0 0.0 0.0 20.8 0.0
01/01/19 07:59 20.9 69 15.0 0.0 0.0 0 0.0 0.0 1016.0 0.0 0.0 20.9 0.0
01/01/19 08:00 21.0 68 14.9 0.0 0.0 0 0.0 0.0 1016.0 0.0 0.0 21.0 0.0
01/01/19 08:03 21.7 67 15.3 0.0 0.0 0 0.0 0.0 1016.0 0.0 0.0 21.7 0.0
01/01/19 08:04 21.8 66 15.2 0.0 0.0 0 0.0 0.0 1016.0 0.0 0.0 21.8 0.0
01/01/19 08:05 21.8 65 14.9 0.0 0.0 0 0.0 0.0 1016.0 0.0 0.0 21.8 0.0
01/01/19 08:06 21.9 65 15.0 0.0 0.0 0 0.0 0.0 1016.0 0.0 0.0 21.9 0.0
01/01/19 08:07 21.9 65 15.0 0.0 0.0 0 0.0 0.0 1016.0 0.0 0.0 21.9 0.0
01/01/19 08:08 22.0 63 14.6 0.0 0.0 0 0.0 0.0 1016.0 0.0 0.0 22.0 0.0
01/01/19 08:09 22.0 62 14.4 0.0 0.0 0 0.0 0.0 1016.0 0.0 0.0 22.0 0.0
01/01/19 08:10 21.9 63 14.5 0.0 0.0 0 0.0 0.0 1016.0 0.0 0.0 21.9 0.0
01/01/19 08:11 21.9 63 14.5 0.0 0.0 0 0.0 0.0 1016.0 0.0 0.0 21.9 0.0
01/01/19 08:12 21.9 63 14.5 0.0 0.0 0 0.0 0.0 1016.0 0.0 0.0 21.9 0.0
01/01/19 08:13 21.9 63 14.5 0.0 0.0 0 0.0 0.0 1016.0 0.0 0.0 21.9 0.0
01/01/19 08:14 22.0 62 14.4 0.0 0.0 0 0.0 0.0 1016.0 0.0 0.0 22.0 0.0
01/01/19 08:15 22.0 62 14.4 0.0 0.0 0 0.0 0.0 1016.0 0.0 0.0 22.0 0.0
01/01/19 08:18 22.3 61 14.4 0.0 0.0 0 0.0 0.0 1016.0 0.0 0.0 22.3 0.0
01/01/19 08:19 22.3 61 14.4 0.0 0.0 0 0.0 0.0 1016.0 0.0 0.0 22.3 0.0
01/01/19 08:20 22.2 60 14.1 0.0 0.0 0 0.0 0.0 1016.0 0.0 0.0 22.2 0.0
01/01/19 08:21 22.2 60 14.1 0.0 0.0 0 0.0 0.0 1016.0 0.0 0.0 22.2 0.0
01/01/19 08:22 22.2 60 14.1 0.0 0.0 0 0.0 0.0 1016.0 0.0 0.0 22.2 0.0
01/01/19 08:23 22.3 60 14.2 0.0 0.0 0 0.0 0.0 1017.0 0.0 0.0 22.3 0.0
01/01/19 08:24 22.4 60 14.3 0.0 0.0 0 0.0 0.0 1017.0 0.0 0.0 22.4 0.0
01/01/19 08:25 22.4 60 14.3 0.0 0.0 0 0.0 0.0 1017.0 0.0 0.0 22.4 0.0
01/01/19 08:26 22.4 60 14.3 0.0 0.0 0 0.0 0.0 1017.0 0.0 0.0 22.4 0.0
01/01/19 08:27 22.4 59 14.0 0.0 0.0 0 0.0 0.0 1017.0 0.0 0.0 22.4 0.0
01/01/19 08:28 22.4 59 14.0 0.0 0.0 0 0.0 0.0 1017.0 0.0 0.0 22.4 0.0
01/01/19 08:29 22.4 59 14.0 0.0 0.0 0 0.0 0.0 1017.0 0.0 0.0 22.4 0.0
01/01/19 08:30 22.4 59 14.0 0.0 0.0 0 0.0 0.0 1017.0 0.0 0.0 22.4 0.0
01/01/19 08:33 22.8 58 14.1 0.0 0.0 0 0.0 0.0 1017.0 0.0 0.0 22.8 0.0
01/01/19 08:34 23.0 58 14.3 0.0 0.0 0 0.0 0.0 1017.0 0.0 0.0 23.0 0.0
01/01/19 08:35 23.2 58 14.5 0.0 0.0 0 0.0 0.0 1017.0 0.0 0.0 23.2 0.0
01/01/19 08:36 23.5 58 14.8 0.0 0.0 0 0.0 0.0 1017.0 0.0 0.0 23.5 0.0
01/01/19 08:37 23.5 58 14.8 0.0 0.0 0 0.0 0.0 1017.0 0.0 0.0 23.5 0.0
01/01/19 08:38 24.3 56 15.0 0.0 0.0 0 0.0 0.0 1017.0 0.0 0.0 24.3 0.0
01/01/19 08:39 24.3 54 14.4 0.0 0.0 0 0.0 0.0 1017.0 0.0 0.0 24.3 0.0
01/01/19 08:40 24.4 53 14.2 0.0 0.0 0 0.0 0.0 1017.0 0.0 0.0 24.4 0.0
01/01/19 08:41 24.5 53 14.3 0.0 0.0 0 0.0 0.0 1017.0 0.0 0.0 24.5 0.0
01/01/19 08:42 24.7 53 14.5 0.0 0.0 0 0.0 0.0 1017.0 0.0 0.0 24.7 0.0
01/01/19 08:43 24.9 53 14.7 0.0 0.0 0 0.0 0.0 1017.0 0.0 0.0 24.9 0.0
01/01/19 08:44 24.9 53 14.7 0.0 0.0 0 0.0 0.0 1017.0 0.0 0.0 24.9 0.0
01/01/19 08:45 25.0 52 14.5 0.0 0.0 0 0.0 0.0 1017.0 0.0 0.0 25.0 0.0
01/01/19 08:48 25.1 52 14.6 0.0 0.0 0 0.0 0.0 1017.0 0.0 0.0 25.1 0.0
01/01/19 08:49 25.2 51 14.3 0.0 0.0 0 0.0 0.0 1017.0 0.0 0.0 25.2 0.0
01/01/19 08:50 25.3 51 14.4 0.0 0.0 0 0.0 0.0 1017.0 0.0 0.0 25.3 0.0
01/01/19 08:51 25.4 50 14.2 0.0 0.0 0 0.0 0.0 1017.0 0.0 0.0 25.4 0.0
01/01/19 08:52 25.4 50 14.2 0.0 0.0 0 0.0 0.0 1017.0 0.0 0.0 25.4 0.0
01/01/19 08:53 25.4 50 14.2 0.0 0.0 0 0.0 0.0 1017.0 0.0 0.0 25.4 0.0
01/01/19 08:54 25.6 50 14.4 0.0 0.0 0 0.0 0.0 1017.0 0.0 0.0 25.6 0.0
01/01/19 08:55 25.6 49 14.1 0.0 0.0 0 0.0 0.0 1017.0 0.0 0.0 25.6 0.0
01/01/19 08:56 25.7 49 14.2 0.0 0.0 0 0.0 0.0 1017.0 0.0 0.0 25.7 0.0
01/01/19 08:57 25.7 49 14.2 0.0 0.0 0 0.0 0.0 1017.0 0.0 0.0 25.7 0.0
01/01/19 08:58 25.8 49 14.3 0.0 0.0 0 0.0 0.0 1017.0 0.0 0.0 25.8 0.0
01/01/19 08:59 25.9 48 14.0 0.0 0.0 0 0.0 0.0 1017.0 0.0 0.0 25.9 0.0
01/01/19 09:00 25.9 49 14.4 0.0 0.0 0 0.0 0.0 1017.0 0.0 0.0 25.9 0.0
01/01/19 09:03 25.9 48 14.0 0.0 0.0 0 0.0 0.0 1017.0 0.0 0.0 25.9 0.0
01/01/19 09:04 25.9 48 14.0 0.0 0.0 0 0.0 0.0 1017.0 0.0 0.0 25.9 0.0
01/01/19 09:05 25.8 48 14.0 0.0 0.0 0 0.0 0.0 1017.0 0.0 0.0 25.8 0.0
01/01/19 09:06 25.7 48 13.9 0.0 0.0 0 0.0 0.0 1017.0 0.0 0.0 25.7 0.0
01/01/19 09:07 25.7 47 13.5 0.0 0.0 0 0.0 0.0 1017.0 0.0 0.0 25.7 0.0
01/01/19 09:08 25.7 48 13.9 0.0 0.0 0 0.0 0.0 1016.0 0.0 0.0 25.7 0.0
01/01/19 09:09 25.5 47 13.4 0.0 0.0 0 0.0 0.0 1016.0 0.0 0.0 25.5 0.0
01/01/19 09:10 25.3 47 13.2 0.0 0.0 0 0.0 0.0 1016.0 0.0 0.0 25.3 0.0
01/01/19 09:11 25.2 47 13.1 0.0 0.0 0 0.0 0.0 1016.0 0.0 0.0 25.2 0.0
01/01/19 09:12 25.1 47 13.0 0.0 0.0 0 0.0 0.0 1016.0 0.0 0.0 25.1 0.0
01/01/19 09:13 25.1 47 13.0 0.0 0.0 0 0.0 0.0 1016.0 0.0 0.0 25.1 0.0
01/01/19 09:14 25.1 47 13.0 0.0 0.0 0 0.0 0.0 1016.0 0.0 0.0 25.1 0.0
01/01/19 09:15 25.0 47 12.9 0.0 0.0 0 0.0 0.0 1016.0 0.0 0.0 25.0 0.0
01/01/19 09:18 24.8 47 12.7 0.0 0.0 0 0.0 0.0 1016.0 0.0 0.0 24.8 0.0
01/01/19 09:19 24.8 47 12.7 0.0 0.0 0 0.0 0.0 1016.0 0.0 0.0 24.8 0.0
01/01/19 09:20 24.7 47 12.6 0.0 0.0 0 0.0 0.0 1016.0 0.0 0.0 24.7 0.0
01/01/19 09:21 24.6 47 12.5 0.0 0.0 0 0.0 0.0 1016.0 0.0 0.0 24.6 0.0
01/01/19 09:22 24.6 47 12.5 0.0 0.0 0 0.0 0.0 1016.0 0.0 0.0 24.6 0.0
01/01/19 09:23 24.5 47 12.4 0.0 0.0 0 0.0 0.0 1016.0 0.0 0.0 24.5 0.0
01/01/19 09:24 24.5 47 12.4 0.0 0.0 0 0.0 0.0 1016.0 0.0 0.0 24.5 0.0
01/01/19 09:25 24.4 47 12.4 0.0 0.0 0 0.0 0.0 1016.0 0.0 0.0 24.4 0.0
01/01/19 09:26 24.5 48 12.8 0.0 0.0 0 0.0 0.0 1016.0 0.0 0.0 24.5 0.0
01/01/19 09:27 24.5 48 12.8 0.0 0.0 0 0.0 0.0 1016.0 0.0 0.0 24.5 0.0
01/01/19 09:28 24.5 48 12.8 0.0 0.0 0 0.0 0.0 1016.0 0.0 0.0 24.5 0.0
01/01/19 09:29 24.6 48 12.9 0.0 0.0 0 0.0 0.0 1016.0 0.0 0.0 24.6 0.0
01/01/19 09:30 24.6 48 12.9 0.0 0.0 0 0.0 0.0 1016.0 0.0 0.0 24.6 0.0
01/01/19 09:33 25.2 47 13.1 0.0 0.0 0 0.0 0.0 1016.0 0.0 0.0 25.2 0.0
01/01/19 09:34 25.4 48 13.6 0.0 0.0 0 0.0 0.0 1016.0 0.0 0.0 25.4 0.0
01/01/19 09:35 25.6 47 13.4 0.0 0.0 0 0.0 0.0 1016.0 0.0 0.0 25.6 0.0
01/01/19 09:36 25.7 47 13.5 0.0 0.0 0 0.0 0.0 1016.0 0.0 0.0 25.7 0.0
01/01/19 09:37 25.9 47 13.7 1.8 0.0 0 0.0 0.0 1016.0 0.0 25.9 25.9 0.0
01/01/19 09:38 26.1 47 13.9 1.8 0.0 0 0.0 0.0 1016.0 0.0 26.1 26.1 0.0
01/01/19 09:39 26.5 47 14.3 1.8 0.0 0 0.0 0.0 1016.0 0.0 26.3 26.5 0.0
01/01/19 09:40 26.8 46 14.2 1.8 0.0 0 0.0 0.0 1016.0 0.0 26.8 27.0 0.0
01/01/19 09:41 27.0 46 14.4 1.8 0.0 0 0.0 0.0 1016.0 0.0 26.8 27.2 0.0
01/01/19 09:42 26.9 46 14.3 1.8 0.0 0 0.0 0.0 1016.0 0.0 27.0 27.1 0.0
01/01/19 09:43 26.9 46 14.3 1.8 0.0 0 0.0 0.0 1016.0 0.0 26.9 27.1 0.0
01/01/19 09:44 27.0 45 14.1 1.8 0.0 0 0.0 0.0 1016.0 0.0 26.9 27.1 0.0
01/01/19 09:45 27.2 45 14.2 1.8 0.0 0 0.0 0.0 1016.0 0.0 27.0 27.3 0.0
01/01/19 09:47 27.4 45 14.4 1.8 0.0 0 0.0 0.0 1016.0 0.0 0.0 27.5 0.0
01/01/19 09:48 27.4 45 14.4 1.8 0.0 0 0.0 0.0 1016.0 0.0 27.4 27.5 0.0
01/01/19 09:49 27.2 44 13.9 1.8 0.0 0 0.0 0.0 1016.0 0.0 27.4 27.2 0.0
01/01/19 09:50 27.2 44 13.9 1.8 0.0 0 0.0 0.0 1016.0 0.0 27.2 27.2 0.0
01/01/19 09:51 27.3 44 14.0 1.8 0.0 0 0.0 0.0 1016.0 0.0 27.2 27.3 0.0
01/01/19 09:52 27.4 44 14.1 1.8 0.0 0 0.0 0.0 1016.0 0.0 27.3 27.4 0.0
01/01/19 09:53 27.5 44 14.2 1.8 0.0 0 0.0 0.0 1016.0 0.0 27.4 27.5 0.0
01/01/19 09:54 27.6 44 14.2 1.8 0.0 0 0.0 0.0 1016.0 0.0 27.5 27.6 0.0
01/01/19 09:55 27.6 44 14.2 1.8 0.0 0 0.0 0.0 1016.0 0.0 27.6 27.6 0.0
01/01/19 09:56 27.6 44 14.2 1.8 0.0 0 0.0 0.0 1016.0 0.0 27.6 27.6 0.0
01/01/19 09:57 27.6 44 14.2 1.8 0.0 0 0.0 0.0 1016.0 0.0 27.6 27.6 0.0
01/01/19 09:58 27.6 44 14.2 1.8 0.0 0 0.0 0.0 1016.0 0.0 27.6 27.6 0.0
01/01/19 09:59 27.7 44 14.3 1.8 0.0 0 0.0 0.0 1016.0 0.0 27.6 27.7 0.0
01/01/19 10:00 27.8 44 14.4 1.8 0.0 0 0.0 0.0 1016.0 0.0 27.6 27.8 0.0
01/01/19 10:02 27.8 44 14.4 0.0 0.0 0 0.0 0.0 1016.0 0.0 0.0 27.8 0.0
01/01/19 10:03 27.8 44 14.4 0.0 0.0 0 0.0 0.0 1016.0 0.0 0.0 27.8 0.0
01/01/19 10:04 27.8 44 14.4 0.0 0.0 0 0.0 0.0 1016.0 0.0 0.0 27.8 0.0
01/01/19 10:05 27.8 43 14.1 0.0 0.0 0 0.0 0.0 1016.0 0.0 0.0 27.7 0.0
01/01/19 10:06 27.8 43 14.1 0.0 0.0 0 0.0 0.0 1016.0 0.0 0.0 27.7 0.0
01/01/19 10:07 28.0 43 14.3 0.0 0.0 0 0.0 0.0 1016.0 0.0 0.0 27.9 0.0
01/01/19 10:08 27.9 43 14.2 6.1 3.6 1 0.0 0.0 1016.0 3.6 27.9 27.8 0.0
01/01/19 10:09 27.7 42 13.6 6.1 3.6 1 0.0 0.0 1016.0 3.6 27.8 27.5 0.0
01/01/19 10:10 27.6 42 13.5 6.1 3.6 1 0.0 0.0 1016.0 3.6 27.7 27.5 0.0
01/01/19 10:11 27.5 42 13.4 6.1 3.6 1 0.0 0.0 1016.0 3.6 27.6 27.4 0.0
01/01/19 10:12 27.6 42 13.5 6.1 3.6 1 0.0 0.0 1016.0 3.6 27.5 27.5 0.0
01/01/19 10:13 27.7 42 13.6 6.1 3.6 1 0.0 0.0 1016.0 3.6 27.6 27.5 0.0
01/01/19 10:14 27.6 42 13.5 6.1 3.6 1 0.0 0.0 1016.0 3.6 27.7 27.5 0.0
01/01/19 10:15 27.6 42 13.5 6.1 3.6 1 0.0 0.0 1016.0 3.6 27.6 27.5 0.0
01/01/19 10:17 27.7 42 13.6 6.1 3.6 1 0.0 0.0 1016.0 3.6 27.8 27.5 0.0
01/01/19 10:18 27.7 42 13.6 6.1 3.6 1 0.0 0.0 1016.0 3.6 27.8 27.5 0.0
01/01/19 10:19 27.5 42 13.4 6.1 3.6 1 0.0 0.0 1016.0 3.6 27.7 27.4 0.0
01/01/19 10:20 27.4 42 13.4 0.0 3.6 1 0.0 0.0 1016.0 0.0 27.4 27.3 0.0
01/01/19 10:21 27.4 42 13.4 0.0 3.6 1 0.0 0.0 1016.0 0.0 27.4 27.3 0.0
01/01/19 10:22 27.4 42 13.4 0.0 3.6 1 0.0 0.0 1016.0 0.0 27.4 27.3 0.0
01/01/19 10:23 27.4 42 13.4 0.0 3.6 1 0.0 0.0 1016.0 0.0 27.4 27.3 0.0
01/01/19 10:24 27.6 42 13.5 0.0 3.6 1 0.0 0.0 1016.0 0.0 27.7 27.5 0.0
01/01/19 10:25 27.6 42 13.5 0.0 3.6 1 0.0 0.0 1016.0 0.0 27.6 27.5 0.0
01/01/19 10:26 27.9 42 13.8 0.0 3.6 1 0.0 0.0 1016.0 0.0 27.6 27.7 0.0
01/01/19 10:27 28.1 41 13.6 0.0 3.6 1 0.0 0.0 1016.0 0.0 27.9 27.8 0.0
01/01/19 10:28 28.3 42 14.2 0.0 3.6 1 0.0 0.0 1016.0 0.0 28.1 28.1 0.0
01/01/19 10:29 28.6 42 14.4 0.0 3.6 1 0.0 0.0 1016.0 0.0 28.3 28.4 0.0
01/01/19 10:32 29.2 41 14.6 0.0 0.0 0 0.0 0.0 1016.0 0.0 29.3 28.9 0.0
01/01/19 10:33 29.3 41 14.7 0.0 0.0 0 0.0 0.0 1016.0 0.0 29.2 29.0 0.0
01/01/19 10:34 29.5 40 14.5 0.0 0.0 0 0.0 0.0 1016.0 0.0 29.3 29.1 0.0
01/01/19 10:35 29.8 40 14.7 0.0 0.0 0 0.0 0.0 1016.0 0.0 29.5 29.5 0.0
01/01/19 10:36 30.0 40 14.9 0.0 0.0 0 0.0 0.0 1016.0 0.0 29.8 29.7 0.0
01/01/19 10:37 30.1 40 15.0 0.0 0.0 0 0.0 0.0 1016.0 0.0 30.0 29.8 0.0
01/01/19 10:38 30.2 40 15.1 0.0 0.0 0 0.0 0.0 1016.0 0.0 30.1 29.9 0.0
01/01/19 10:39 29.9 40 14.8 0.0 0.0 0 0.0 0.0 1016.0 0.0 30.2 29.6 0.0
01/01/19 10:40 30.2 40 15.1 0.0 0.0 0 0.0 0.0 1016.0 0.0 30.0 29.9 0.0
01/01/19 10:41 30.5 40 15.4 0.0 0.0 0 0.0 0.0 1016.0 0.0 30.2 30.3 0.0
01/01/19 10:42 30.6 40 15.5 0.0 0.0 0 0.0 0.0 1016.0 0.0 30.5 30.4 0.0
01/01/19 10:43 30.3 39 14.8 0.0 0.0 0 0.0 0.0 1016.0 0.0 30.6 29.9 0.0
01/01/19 10:44 30.1 39 14.6 0.0 0.0 0 0.0 0.0 1016.0 0.0 30.3 29.7 0.0
01/01/19 10:47 28.8 40 13.9 0.0 0.0 0 0.0 0.0 1016.0 0.0 29.1 28.4 0.0
01/01/19 10:48 28.6 40 13.7 0.0 0.0 0 0.0 0.0 1016.0 0.0 28.8 28.2 0.0
01/01/19 10:49 28.7 40 13.8 1.8 0.0 0 0.0 0.0 1016.0 0.0 28.6 28.3 0.0
01/01/19 10:50 28.7 40 13.8 1.8 0.0 0 0.0 0.0 1016.0 0.0 28.6 28.3 0.0
01/01/19 10:51 29.1 40 14.1 1.8 0.0 0 0.0 0.0 1016.0 0.0 28.7 28.7 0.0
01/01/19 10:52 29.3 40 14.3 1.8 0.0 0 0.0 0.0 1016.0 0.0 29.1 28.9 0.0
01/01/19 10:53 29.5 40 14.5 0.0 0.0 0 0.0 0.0 1016.0 0.0 29.5 29.1 0.0
01/01/19 10:54 29.5 39 14.1 0.0 6.5 1 0.0 0.0 1016.0 6.5 29.5 29.0 0.0
01/01/19 10:55 29.4 40 14.4 0.0 6.5 1 0.0 0.0 1016.0 6.5 29.4 29.0 0.0
01/01/19 10:56 29.4 40 14.4 0.0 6.5 1 0.0 0.0 1016.0 6.5 29.4 29.0 0.0
01/01/19 10:57 29.5 39 14.1 0.0 6.5 1 0.0 0.0 1016.0 6.5 29.4 29.0 0.0
01/01/19 10:58 29.5 40 14.5 0.0 6.5 1 0.0 0.0 1016.0 6.5 29.5 29.1 0.0
01/01/19 10:59 29.4 40 14.4 0.0 6.5 1 0.0 0.0 1016.0 6.5 29.5 29.0 0.0
01/01/19 11:02 30.3 39 14.8 0.0 6.5 1 0.0 0.0 1016.0 6.5 30.0 29.9 0.0
01/01/19 11:03 30.5 39 15.0 0.0 6.5 1 0.0 0.0 1016.0 6.5 30.3 30.2 0.0
01/01/19 11:04 30.7 39 15.2 0.0 6.5 1 0.0 0.0 1016.0 6.5 30.5 30.4 0.0
01/01/19 11:05 30.9 39 15.3 0.0 6.5 1 0.0 0.0 1016.0 6.5 30.7 30.6 0.0
01/01/19 11:06 31.0 39 15.4 0.0 6.5 1 0.0 0.0 1016.0 1.4 31.0 30.8 0.0
01/01/19 11:18 32.5 38 16.3 0.0 1.4 1 0.0 0.0 1016.0 1.4 32.4 32.6 0.0
01/01/19 11:19 32.7 37 16.1 0.0 1.4 1 0.0 0.0 1016.0 1.4 32.5 32.7 0.0
01/01/19 11:20 32.9 37 16.3 0.0 1.4 1 0.0 0.0 1016.0 1.4 32.7 33.0 0.0
01/01/19 11:21 33.0 36 15.9 0.0 1.4 1 0.0 0.0 1016.0 1.4 32.9 33.0 0.0
01/01/19 11:22 33.1 36 16.0 0.0 1.4 1 0.0 0.0 1016.0 1.4 32.9 33.1 0.0
01/01/19 11:23 33.1 36 16.0 0.0 1.4 1 0.0 0.0 1016.0 1.4 32.9 33.1 0.0
01/01/19 11:24 33.2 36 16.1 0.0 1.4 1 0.0 0.0 1016.0 1.4 32.9 33.3 0.0
01/01/19 11:25 33.4 35 15.9 0.0 1.4 1 0.0 0.0 1016.0 1.4 32.9 33.4 0.0
01/01/19 11:26 33.4 35 15.9 0.0 1.4 1 0.0 0.0 1016.0 1.4 32.9 33.4 0.0
01/01/19 11:27 33.5 35 15.9 0.0 1.4 1 0.0 0.0 1016.0 1.4 32.9 33.5 0.0
01/01/19 11:28 33.5 35 15.9 0.0 1.4 1 0.0 0.0 1016.0 1.4 32.9 33.5 0.0
01/01/19 11:29 33.6 35 16.0 0.0 1.4 1 0.0 0.0 1016.0 1.4 32.9 33.7 0.0
01/01/19 11:32 33.5 34 15.5 0.0 0.0 0 0.0 0.0 1016.0 0.0 0.0 33.3 0.0
01/01/19 11:33 33.4 34 15.4 0.0 0.0 0 0.0 0.0 1016.0 0.0 0.0 33.2 0.0
01/01/19 11:34 33.4 34 15.4 1.4 1.4 2 0.0 0.0 1016.0 0.0 33.4 33.2 0.0
01/01/19 11:35 33.5 34 15.5 0.0 1.4 1 0.0 0.0 1016.0 0.0 33.4 33.3 0.0
01/01/19 11:36 33.5 34 15.5 0.0 1.4 1 0.0 0.0 1016.0 0.0 33.5 33.3 0.0
01/01/19 11:37 33.6 34 15.6 0.0 1.4 2 0.0 0.0 1016.0 0.0 33.5 33.5 0.0
01/01/19 11:38 33.7 34 15.7 0.0 1.4 2 0.0 0.0 1016.0 0.0 33.6 33.6 0.0
01/01/19 11:39 33.7 34 15.7 0.0 1.4 2 0.0 0.0 1016.0 0.0 33.7 33.6 0.0
01/01/19 11:40 33.8 33 15.3 0.0 0.0 0 0.0 0.0 1016.0 0.0 33.7 33.6 0.0
01/01/19 11:41 33.9 33 15.4 0.0 0.0 0 0.0 0.0 1016.0 0.0 33.8 33.7 0.0
01/01/19 11:42 33.8 33 15.3 0.0 0.0 0 0.0 0.0 1016.0 0.0 33.9 33.6 0.0
01/01/19 11:43 33.8 33 15.3 0.0 0.0 0 0.0 0.0 1016.0 0.0 33.8 33.6 0.0
01/01/19 11:44 33.8 33 15.3 0.0 0.0 0 0.0 0.0 1016.0 0.0 33.8 33.6 0.0
01/01/19 11:45 33.9 33 15.4 0.0 0.0 0 0.0 0.0 1016.0 0.0 33.8 33.7 0.0
01/01/19 11:47 34.3 33 15.7 0.0 0.0 0 0.0 0.0 1016.0 0.0 0.0 34.3 0.0
01/01/19 11:48 34.4 32 15.3 0.0 0.0 0 0.0 0.0 1016.0 0.0 34.4 34.2 0.0
01/01/19 11:49 34.3 32 15.2 0.0 0.0 0 0.0 0.0 1016.0 0.0 34.4 34.1 0.0
01/01/19 11:50 34.2 32 15.1 0.0 0.0 0 0.0 0.0 1016.0 0.0 34.3 33.9 0.0
01/01/19 11:51 34.3 32 15.2 0.0 0.0 0 0.0 0.0 1016.0 0.0 34.3 34.1 0.0
01/01/19 11:52 34.2 32 15.1 0.0 0.0 0 0.0 0.0 1016.0 0.0 34.3 33.9 0.0
01/01/19 11:53 34.1 32 15.1 0.0 0.0 0 0.0 0.0 1015.0 0.0 34.3 33.8 0.0
01/01/19 11:54 34.2 32 15.1 0.0 0.0 0 0.0 0.0 1015.0 0.0 34.3 33.9 0.0
01/01/19 11:55 34.2 32 15.1 0.0 0.0 0 0.0 0.0 1015.0 0.0 34.3 33.9 0.0
01/01/19 11:56 34.2 32 15.1 0.0 0.0 0 0.0 0.0 1015.0 0.0 34.3 33.9 0.0
01/01/19 11:57 34.3 32 15.2 0.0 0.0 0 0.0 0.0 1015.0 0.0 34.3 34.1 0.0
01/01/19 11:58 34.2 32 15.1 0.0 0.0 0 0.0 0.0 1015.0 0.0 34.3 33.9 0.0
01/01/19 11:59 34.3 32 15.2 0.0 0.0 0 0.0 0.0 1015.0 0.0 34.3 34.1 0.0
01/01/19 12:03 34.3 32 15.2 0.0 0.0 0 0.0 0.0 1015.0 0.0 0.0 34.1 0.0
01/01/19 12:04 34.4 32 15.3 0.0 0.0 0 0.0 0.0 1015.0 0.0 0.0 34.2 0.0
01/01/19 12:05 34.3 32 15.2 0.0 0.0 0 0.0 0.0 1015.0 0.0 0.0 34.1 0.0
01/01/19 12:06 34.5 32 15.4 0.0 0.0 0 0.0 0.0 1015.0 0.0 34.5 34.4 0.0
01/01/19 12:07 34.7 32 15.6 0.0 0.0 0 0.0 0.0 1015.0 0.0 34.5 34.7 0.0
01/01/19 12:08 34.8 32 15.7 0.0 0.0 0 0.0 0.0 1015.0 0.0 34.7 34.8 0.0
01/01/19 12:09 34.8 32 15.7 0.0 0.0 0 0.0 0.0 1015.0 0.0 34.8 34.8 0.0
01/01/19 12:10 34.6 32 15.5 0.0 0.0 0 0.0 0.0 1015.0 0.0 34.7 34.5 0.0
01/01/19 12:11 34.5 31 14.9 0.0 0.0 0 0.0 0.0 1015.0 0.0 34.6 34.2 0.0
01/01/19 12:12 34.6 32 15.5 0.0 0.0 0 0.0 0.0 1015.0 0.0 34.5 34.5 0.0
01/01/19 12:13 34.7 32 15.6 0.0 0.0 0 0.0 0.0 1015.0 0.0 34.6 34.7 0.0
01/01/19 12:14 34.7 32 15.6 0.0 0.0 0 0.0 0.0 1015.0 0.0 34.7 34.7 0.0
01/01/19 12:15 34.6 31 15.0 0.0 0.0 0 0.0 0.0 1015.0 0.0 34.7 34.3 0.0
01/01/19 12:17 34.3 31 14.7 0.0 0.0 0 0.0 0.0 1015.0 0.0 0.0 33.9 0.0
01/01/19 12:18 33.9 31 14.4 0.0 0.0 0 0.0 0.0 1015.0 0.0 34.1 33.3 0.0
01/01/19 12:19 33.6 31 14.1 0.0 0.0 0 0.0 0.0 1015.0 0.0 33.9 32.9 0.0
01/01/19 12:33 31.8 33 13.5 0.0 0.0 0 0.0 0.0 1015.0 0.0 0.0 30.9 0.0
01/01/19 12:34 31.9 33 13.6 0.0 0.0 0 0.0 0.0 1015.0 0.0 0.0 31.1 0.0
01/01/19 12:35 32.1 33 13.8 0.0 0.0 0 0.0 0.0 1015.0 0.0 0.0 31.3 0.0
01/01/19 12:36 32.4 33 14.1 0.0 0.0 0 0.0 0.0 1015.0 0.0 0.0 31.7 0.0
01/01/19 12:37 32.7 32 13.8 0.0 0.0 0 0.0 0.0 1015.0 0.0 0.0 31.9 0.0
01/01/19 12:38 33.0 32 14.1 0.0 0.0 0 0.0 0.0 1014.0 0.0 0.0 32.3 0.0
01/01/19 12:39 33.3 32 14.4 0.0 0.0 0 0.0 0.0 1014.0 0.0 0.0 32.7 0.0
01/01/19 12:40 33.6 32 14.6 0.0 0.0 0 0.0 0.0 1014.0 0.0 33.3 33.1 0.0
01/01/19 12:41 34.1 31 14.6 0.0 0.0 0 0.0 0.0 1014.0 0.0 33.9 33.6 0.0
01/01/19 12:42 34.2 31 14.7 0.0 0.0 0 0.0 0.0 1014.0 0.0 34.1 33.7 0.0
01/01/19 12:43 34.3 32 15.2 0.0 0.0 0 0.0 0.0 1014.0 0.0 34.2 34.1 0.0
01/01/19 12:44 34.3 32 15.2 0.0 0.0 0 0.0 0.0 1014.0 0.0 34.3 34.1 0.0
01/01/19 12:45 34.2 31 14.7 0.0 0.0 0 0.0 0.0 1014.0 0.0 34.3 33.7 0.0
01/01/19 12:47 34.0 31 14.5 0.0 0.0 0 0.0 0.0 1014.0 0.0 0.0 33.5 0.0
01/01/19 12:48 33.8 32 14.8 0.0 0.0 0 0.0 0.0 1014.0 0.0 33.7 33.4 0.0
01/01/19 12:49 34.0 31 14.5 0.0 0.0 0 0.0 0.0 1014.0 0.0 33.8 33.5 0.0
01/01/19 12:50 34.2 31 14.7 0.0 0.0 0 0.0 0.0 1014.0 0.0 34.0 33.7 0.0
01/01/19 12:51 34.2 31 14.7 0.0 0.0 0 0.0 0.0 1014.0 0.0 34.0 33.7 0.0
01/01/19 12:52 34.5 31 14.9 0.0 0.0 0 0.0 0.0 1014.0 0.0 34.2 34.2 0.0
01/01/19 12:53 34.6 31 15.0 0.0 0.0 0 0.0 0.0 1014.0 0.0 34.5 34.3 0.0
01/01/19 12:54 34.7 31 15.1 0.0 0.0 0 0.0 0.0 1014.0 0.0 34.6 34.4 0.0
01/01/19 12:55 34.9 31 15.3 0.0 0.0 0 0.0 0.0 1014.0 0.0 34.7 34.7 0.0
01/01/19 12:56 35.1 31 15.4 0.0 0.0 0 0.0 0.0 1014.0 0.0 34.7 35.0 0.0
01/01/19 12:57 35.2 31 15.5 0.0 0.0 0 0.0 0.0 1014.0 0.0 34.7 35.2 0.0
01/01/19 12:58 35.3 31 15.6 0.0 0.0 0 0.0 0.0 1014.0 0.0 34.7 35.3 0.0
01/01/19 12:59 35.2 31 15.5 0.0 0.0 0 0.0 0.0 1014.0 0.0 34.7 35.2 0.0
01/01/19 13:03 34.6 31 15.0 0.0 0.0 0 0.0 0.0 1014.0 0.0 34.6 34.3 0.0
01/01/19 13:04 34.6 31 15.0 0.0 0.0 0 0.0 0.0 1014.0 0.0 34.6 34.3 0.0
01/01/19 13:05 34.3 31 14.7 0.0 0.0 0 0.0 0.0 1014.0 0.0 34.6 33.9 0.0
01/01/19 13:06 34.2 31 14.7 0.0 0.0 0 0.0 0.0 1014.0 0.0 34.3 33.7 0.0
01/01/19 13:07 34.3 31 14.7 0.0 0.0 0 0.0 0.0 1014.0 0.0 34.2 33.9 0.0
01/01/19 13:08 34.3 31 14.7 0.0 0.0 0 0.0 0.0 1015.0 0.0 34.3 33.9 0.0
01/01/19 13:09 34.4 31 14.8 0.0 0.0 0 0.0 0.0 1015.0 0.0 34.3 34.0 0.0
01/01/19 13:10 34.5 31 14.9 0.0 0.0 0 0.0 0.0 1015.0 0.0 34.4 34.2 0.0
01/01/19 13:11 34.4 30 14.3 0.0 0.0 0 0.0 0.0 1015.0 0.0 34.5 33.8 0.0
01/01/19 13:12 34.5 30 14.4 0.0 0.0 0 0.0 0.0 1015.0 0.0 34.4 34.0 0.0
01/01/19 13:13 34.6 30 14.5 0.0 0.0 0 0.0 0.0 1015.0 0.0 34.5 34.1 0.0
01/01/19 13:14 34.7 30 14.6 0.0 0.0 0 0.0 0.0 1015.0 0.0 34.6 34.2 0.0
01/01/19 13:15 34.7 31 15.1 0.0 0.0 0 0.0 0.0 1015.0 0.0 34.7 34.4 0.0
01/01/19 13:17 35.0 30 14.8 0.0 0.0 0 0.0 0.0 1015.0 0.0 0.0 34.7 0.0
01/01/19 13:18 34.9 31 15.3 0.0 0.0 0 0.0 0.0 1015.0 0.0 0.0 34.7 0.0
01/01/19 13:19 35.1 30 14.9 0.0 0.0 0 0.0 0.0 1015.0 0.0 0.0 34.8 0.0
01/01/19 13:20 35.2 30 15.0 0.0 0.0 0 0.0 0.0 1015.0 0.0 35.2 35.0 0.0
01/01/19 13:21 35.3 30 15.1 0.0 0.0 0 0.0 0.0 1015.0 0.0 35.2 35.1 0.0
01/01/19 13:22 35.4 30 15.2 0.0 0.0 0 0.0 0.0 1015.0 0.0 35.3 35.3 0.0
01/01/19 13:23 35.5 30 15.3 0.0 0.0 0 0.0 0.0 1015.0 0.0 35.4 35.4 0.0
01/01/19 13:24 35.5 30 15.3 0.0 0.0 0 0.0 0.0 1015.0 0.0 35.5 35.4 0.0
01/01/19 13:25 35.6 30 15.4 0.0 0.0 0 0.0 0.0 1015.0 0.0 35.5 35.6 0.0
01/01/19 13:26 35.8 30 15.5 0.0 0.0 0 0.0 0.0 1015.0 0.0 35.7 35.9 0.0
01/01/19 13:27 35.9 30 15.6 0.0 0.0 0 0.0 0.0 1015.0 0.0 35.8 36.0 0.0
01/01/19 13:28 35.9 29 15.1 0.0 0.0 0 0.0 0.0 1015.0 0.0 35.9 35.8 0.0
01/01/19 13:29 35.9 30 15.6 0.0 0.0 0 0.0 0.0 1015.0 0.0 35.9 36.0 0.0
01/01/19 13:33 36.0 29 15.2 0.0 0.0 0 0.0 0.0 1015.0 0.0 0.0 35.9 0.0
01/01/19 13:34 35.7 29 14.9 0.0 0.0 0 0.0 0.0 1015.0 0.0 35.8 35.5 0.0
01/01/19 13:35 35.7 29 14.9 0.0 0.0 0 0.0 0.0 1015.0 0.0 35.7 35.5 0.0
01/01/19 13:36 35.8 29 15.0 0.0 0.0 0 0.0 0.0 1015.0 0.0 35.7 35.6 0.0
01/01/19 13:37 36.0 29 15.2 0.0 0.0 0 0.0 0.0 1015.0 0.0 35.8 35.9 0.0
01/01/19 13:38 36.1 29 15.3 0.0 0.0 0 0.0 0.0 1015.0 0.0 36.0 36.1 0.0
01/01/19 13:39 36.2 29 15.3 0.0 0.0 0 0.0 0.0 1015.0 0.0 36.1 36.2 0.0
01/01/19 13:40 36.3 29 15.4 1.4 5.0 314 0.0 0.0 1015.0 5.0 36.3 36.4 0.0
01/01/19 13:41 35.5 29 14.7 2.2 5.0 320 0.0 0.0 1015.0 0.0 35.7 35.2 0.0
01/01/19 13:42 35.2 29 14.5 2.2 5.0 320 0.0 0.0 1015.0 0.0 35.5 34.8 0.0
01/01/19 13:43 35.2 29 14.5 2.2 5.0 320 0.0 0.0 1015.0 0.0 35.2 34.8 0.0
01/01/19 13:44 35.3 29 14.6 2.2 5.0 320 0.0 0.0 1015.0 0.0 35.2 34.9 0.0
01/01/19 13:45 35.5 29 14.7 0.0 5.0 320 0.0 0.0 1015.0 0.0 35.5 35.2 0.0
01/01/19 13:47 35.8 29 15.0 0.0 5.0 313 0.0 0.0 1015.0 0.0 35.8 35.6 0.0
01/01/19 13:48 35.9 29 15.1 0.0 5.0 313 0.0 0.0 1015.0 0.0 35.9 35.8 0.0
01/01/19 13:49 36.1 29 15.3 0.0 5.0 313 0.0 0.0 1015.0 0.0 35.9 36.1 0.0
01/01/19 13:50 36.4 29 15.5 0.0 5.0 313 0.0 0.0 1015.0 0.0 36.1 36.5 0.0
01/01/19 13:51 36.6 28 15.1 0.0 0.0 0 0.0 0.0 1015.0 0.0 36.4 36.6 0.0
01/01/19 13:52 36.9 29 15.9 0.0 0.0 0 0.0 0.0 1015.0 0.0 36.6 37.3 0.0
01/01/19 13:53 37.0 28 15.5 0.0 0.0 0 0.0 0.0 1014.0 0.0 36.9 37.2 0.0
01/01/19 13:54 37.1 28 15.6 0.0 0.0 0 0.0 0.0 1014.0 0.0 37.0 37.3 0.0
01/01/19 13:55 36.9 28 15.4 0.0 0.0 0 0.0 0.0 1014.0 0.0 37.1 37.0 0.0
01/01/19 13:56 36.3 28 14.9 0.0 0.0 0 0.0 0.0 1014.0 0.0 36.6 36.1 0.0
01/01/19 13:57 36.4 28 15.0 0.0 0.0 0 0.0 0.0 1014.0 0.0 36.3 36.3 0.0
01/01/19 13:58 36.3 28 14.9 0.0 0.0 0 0.0 0.0 1014.0 0.0 36.4 36.1 0.0
01/01/19 13:59 36.3 28 14.9 0.0 0.0 0 0.0 0.0 1014.0 0.0 36.4 36.1 0.0
01/01/19 14:00 36.1 28 14.7 0.0 0.0 0 0.0 0.0 1014.0 0.0 36.3 35.8 0.0
01/01/19 14:02 36.1 28 14.7 0.0 0.0 0 0.0 0.0 1014.0 0.0 0.0 35.8 0.0
01/01/19 14:03 36.1 28 14.7 0.0 0.0 0 0.0 0.0 1014.0 0.0 36.1 35.8 0.0
01/01/19 14:04 36.4 28 15.0 0.0 0.0 0 0.0 0.0 1014.0 0.0 36.1 36.3 0.0
01/01/19 14:05 36.5 28 15.0 0.0 0.0 0 0.0 0.0 1014.0 0.0 36.1 36.4 0.0
01/01/19 14:06 36.6 28 15.1 0.0 0.0 0 0.0 0.0 1014.0 0.0 36.1 36.6 0.0
01/01/19 14:07 36.7 28 15.2 0.0 0.0 0 0.0 0.0 1014.0 0.0 36.1 36.7 0.0
01/01/19 14:08 36.6 28 15.1 0.0 0.0 0 0.0 0.0 1014.0 0.0 36.1 36.6 0.0
01/01/19 14:09 36.7 28 15.2 0.0 0.0 0 0.0 0.0 1014.0 0.0 36.1 36.7 0.0
01/01/19 14:10 36.9 28 15.4 0.0 0.0 0 0.0 0.0 1014.0 0.0 36.1 37.0 0.0
01/01/19 14:11 37.0 27 14.9 0.0 0.0 0 0.0 0.0 1014.0 0.0 36.1 36.9 0.0
01/01/19 14:12 36.4 28 15.0 0.0 0.0 0 0.0 0.0 1014.0 0.0 36.1 36.3 0.0
01/01/19 14:13 36.5 28 15.0 0.0 0.0 0 0.0 0.0 1014.0 0.0 36.1 36.4 0.0
01/01/19 14:14 36.5 28 15.0 0.0 0.0 0 0.0 0.0 1014.0 0.0 36.1 36.4 0.0
01/01/19 14:15 36.6 28 15.1 0.0 0.0 0 0.0 0.0 1014.0 0.0 36.1 36.6 0.0
01/01/19 14:18 37.1 27 15.0 0.0 0.0 0 0.0 0.0 1014.0 0.0 0.0 37.1 0.0
01/01/19 14:19 37.2 27 15.1 0.0 0.0 0 0.0 0.0 1014.0 0.0 0.0 37.2 0.0
01/01/19 14:20 37.2 27 15.1 0.0 0.0 0 0.0 0.0 1014.0 0.0 0.0 37.2 0.0
01/01/19 14:21 37.3 27 15.2 0.0 0.0 0 0.0 0.0 1014.0 0.0 0.0 37.4 0.0
01/01/19 14:22 37.3 27 15.2 0.0 2.2 314 0.0 0.0 1014.0 2.2 37.3 37.4 0.0
01/01/19 14:23 36.9 27 14.8 0.0 2.2 314 0.0 0.0 1014.0 2.2 37.3 36.8 0.0
01/01/19 14:24 36.8 27 14.7 0.0 2.2 314 0.0 0.0 1014.0 2.2 36.9 36.6 0.0
01/01/19 14:25 36.9 27 14.8 0.0 2.2 314 0.0 0.0 1014.0 0.0 36.9 36.8 0.0
01/01/19 14:26 37.0 27 14.9 0.0 2.2 314 0.0 0.0 1014.0 0.0 36.9 36.9 0.0
01/01/19 14:27 37.0 27 14.9 0.0 2.2 314 0.0 0.0 1014.0 0.0 37.0 36.9 0.0
01/01/19 14:28 36.9 27 14.8 0.0 2.2 314 0.0 0.0 1014.0 0.0 37.0 36.8 0.0
01/01/19 14:29 36.9 27 14.8 0.0 2.2 314 0.0 0.0 1014.0 0.0 36.9 36.8 0.0
01/01/19 14:30 37.2 27 15.1 0.0 2.2 314 0.0 0.0 1014.0 0.0 37.2 37.2 0.0
01/01/19 14:32 36.9 27 14.8 0.0 2.2 313 0.0 0.0 1014.0 0.0 0.0 36.8 0.0
01/01/19 14:33 37.2 27 15.1 0.0 2.2 313 0.0 0.0 1014.0 0.0 36.9 37.2 0.0
01/01/19 14:34 37.5 27 15.3 0.0 2.2 313 0.0 0.0 1014.0 0.0 37.4 37.7 0.0
01/01/19 14:35 37.6 27 15.4 0.0 0.0 0 0.0 0.0 1014.0 0.0 37.5 37.9 0.0
01/01/19 14:36 37.7 27 15.5 0.0 0.0 0 0.0 0.0 1014.0 0.0 37.6 38.0 0.0
01/01/19 14:37 37.8 27 15.6 0.0 0.0 0 0.0 0.0 1014.0 0.0 37.7 38.2 0.0
01/01/19 14:38 37.9 27 15.7 0.0 0.0 0 0.0 0.0 1014.0 0.0 37.8 38.3 0.0
01/01/19 14:39 38.0 26 15.2 0.0 0.0 0 0.0 0.0 1014.0 0.0 37.9 38.2 0.0
01/01/19 14:40 38.1 26 15.3 0.0 0.0 0 0.0 0.0 1014.0 0.0 38.0 38.3 0.0
01/01/19 14:41 38.0 26 15.2 0.0 0.0 0 0.0 0.0 1014.0 0.0 38.1 38.2 0.0
01/01/19 14:42 37.4 27 15.2 0.0 0.0 0 0.0 0.0 1014.0 0.0 37.7 37.5 0.0
01/01/19 14:43 36.9 27 14.8 0.0 0.0 0 0.0 0.0 1014.0 0.0 37.4 36.8 0.0
01/01/19 14:44 36.9 27 14.8 0.0 0.0 0 0.0 0.0 1014.0 0.0 36.9 36.8 0.0
01/01/19 14:45 37.0 27 14.9 0.0 0.0 0 0.0 0.0 1014.0 0.0 36.9 36.9 0.0
01/01/19 14:47 37.4 27 15.2 0.0 0.0 0 0.0 0.0 1014.0 0.0 0.0 37.5 0.0
01/01/19 14:48 37.6 27 15.4 0.0 0.0 0 0.0 0.0 1014.0 0.0 37.4 37.9 0.0
01/01/19 14:49 37.9 27 15.7 0.0 0.0 0 0.0 0.0 1014.0 0.0 37.8 38.3 0.0
01/01/19 14:50 38.1 26 15.3 0.0 0.0 0 0.0 0.0 1014.0 0.0 37.9 38.3 0.0
01/01/19 14:51 38.3 26 15.4 0.0 0.0 0 0.0 0.0 1014.0 0.0 38.1 38.7 0.0
01/01/19 14:52 38.5 26 15.6 0.0 0.0 0 0.0 0.0 1014.0 0.0 38.3 39.0 0.0
01/01/19 14:53 38.5 26 15.6 0.0 0.0 0 0.0 0.0 1013.0 0.0 38.5 39.0 0.0
01/01/19 14:54 38.6 26 15.7 0.0 0.0 0 0.0 0.0 1013.0 0.0 38.5 39.1 0.0
01/01/19 14:55 38.6 26 15.7 0.0 0.0 0 0.0 0.0 1013.0 0.0 38.6 39.1 0.0
01/01/19 14:56 38.6 26 15.7 0.0 0.0 0 0.0 0.0 1013.0 0.0 38.6 39.1 0.0
01/01/19 14:57 38.4 26 15.5 0.0 1.8 314 0.0 0.0 1013.0 1.8 38.6 38.8 0.0
01/01/19 14:58 38.4 26 15.5 0.0 1.8 302 0.0 0.0 1013.0 1.4 38.4 38.8 0.0
01/01/19 14:59 38.4 26 15.5 0.0 2.5 291 0.0 0.0 1013.0 2.5 38.4 38.8 0.0
01/01/19 15:00 38.4 26 15.5 1.4 2.5 291 0.0 0.0 1013.0 0.0 38.4 38.8 0.0
01/01/19 15:03 38.3 26 15.4 1.4 2.5 300 0.0 0.0 1013.0 0.0 38.3 38.7 0.0
01/01/19 15:04 38.4 26 15.5 1.4 2.5 300 0.0 0.0 1013.0 0.0 38.3 38.8 0.0
01/01/19 15:05 38.3 26 15.4 1.4 2.5 300 0.0 0.0 1013.0 0.0 38.3 38.7 0.0
01/01/19 15:06 38.3 26 15.4 1.4 2.5 300 0.0 0.0 1013.0 0.0 38.3 38.7 0.0
01/01/19 15:07 38.3 26 15.4 1.4 2.5 300 0.0 0.0 1013.0 0.0 38.3 38.7 0.0
01/01/19 15:08 38.4 26 15.5 1.4 2.5 294 0.0 0.0 1013.0 0.0 38.3 38.8 0.0
01/01/19 15:09 38.5 26 15.6 1.4 2.5 290 0.0 0.0 1013.0 0.0 38.4 39.0 0.0
01/01/19 15:10 38.5 26 15.6 1.4 0.0 0 0.0 0.0 1013.0 0.0 38.5 39.0 0.0
01/01/19 15:11 38.5 26 15.6 1.4 0.0 0 0.0 0.0 1013.0 0.0 38.5 39.0 0.0
01/01/19 15:12 38.4 26 15.5 1.4 0.0 0 0.0 0.0 1013.0 0.0 38.5 38.8 0.0
01/01/19 15:13 38.3 26 15.4 1.4 0.0 0 0.0 0.0 1013.0 0.0 38.4 38.7 0.0
01/01/19 15:14 38.1 26 15.3 1.4 0.0 0 0.0 0.0 1013.0 0.0 38.3 38.3 0.0
01/01/19 15:15 37.9 26 15.1 1.4 0.0 0 0.0 0.0 1013.0 0.0 38.1 38.0 0.0
01/01/19 15:17 37.9 27 15.7 1.4 0.0 0 0.0 0.0 1013.0 0.0 0.0 38.3 0.0
01/01/19 15:18 37.9 27 15.7 1.4 0.0 0 0.0 0.0 1013.0 0.0 0.0 38.3 0.0
01/01/19 15:19 38.0 26 15.2 1.4 0.0 0 0.0 0.0 1013.0 0.0 0.0 38.2 0.0
01/01/19 15:20 38.1 26 15.3 1.4 0.0 0 0.0 0.0 1013.0 0.0 0.0 38.3 0.0
01/01/19 15:21 38.1 26 15.3 1.4 0.0 0 0.0 0.0 1013.0 0.0 0.0 38.3 0.0
01/01/19 15:22 38.0 26 15.2 1.4 0.0 0 0.0 0.0 1013.0 0.0 0.0 38.2 0.0
01/01/19 15:23 37.9 26 15.1 1.4 0.0 0 0.0 0.0 1014.0 0.0 0.0 38.0 0.0
01/01/19 15:24 37.9 26 15.1 1.4 0.0 0 0.0 0.0 1014.0 0.0 0.0 38.0 0.0
01/01/19 15:25 37.8 26 15.0 1.4 0.0 0 0.0 0.0 1014.0 0.0 0.0 37.9 0.0
01/01/19 15:26 37.8 26 15.0 1.4 0.0 0 0.0 0.0 1014.0 0.0 0.0 37.9 0.0
01/01/19 15:27 38.0 26 15.2 1.4 0.0 0 0.0 0.0 1014.0 0.0 0.0 38.2 0.0
01/01/19 15:28 38.1 26 15.3 0.0 0.0 0 0.0 0.0 1014.0 0.0 38.0 38.3 0.0
01/01/19 15:33 37.3 26 14.6 1.4 0.0 0 0.0 0.0 1014.0 0.0 37.6 37.1 0.0
01/01/19 15:34 36.8 26 14.2 1.4 0.0 0 0.0 0.0 1014.0 0.0 37.3 36.4 0.0
01/01/19 15:35 36.4 26 13.8 2.5 2.2 1 0.0 0.0 1014.0 1.8 36.5 35.8 0.0
01/01/19 15:36 36.3 26 13.7 2.5 2.2 1 0.0 0.0 1014.0 1.8 36.4 35.7 0.0
01/01/19 15:37 36.2 26 13.6 2.5 2.2 1 0.0 0.0 1014.0 1.8 36.3 35.5 0.0
01/01/19 15:38 36.3 26 13.7 2.5 2.2 1 0.0 0.0 1013.0 1.8 36.2 35.7 0.0
01/01/19 15:39 36.0 26 13.5 2.5 2.2 1 0.0 0.0 1013.0 1.8 36.3 35.3 0.0
01/01/19 15:40 35.7 27 13.8 3.6 2.2 1 0.0 0.0 1013.0 1.8 35.7 35.0 0.0
01/01/19 15:41 35.5 27 13.6 3.6 2.2 1 0.0 0.0 1013.0 1.8 35.7 34.8 0.0
01/01/19 15:42 35.2 27 13.4 3.6 2.2 1 0.0 0.0 1013.0 1.8 35.3 34.4 0.0
01/01/19 15:43 35.2 27 13.4 3.6 2.2 1 0.0 0.0 1013.0 1.8 35.2 34.4 0.0
01/01/19 15:44 35.0 27 13.2 3.6 2.2 1 0.0 0.0 1013.0 1.8 35.2 34.1 0.0
01/01/19 15:45 34.8 27 13.0 3.6 1.8 1 0.0 0.0 1013.0 1.8 35.0 33.8 0.0
01/01/19 15:47 34.3 27 12.6 3.6 1.8 1 0.0 0.0 1013.0 1.8 0.0 33.2 0.0
01/01/19 15:48 34.3 27 12.6 3.6 1.8 1 0.0 0.0 1013.0 1.8 34.3 33.2 0.0
01/01/19 15:49 34.3 27 12.6 3.6 1.8 1 0.0 0.0 1013.0 1.8 34.3 33.2 0.0
01/01/19 15:50 34.6 28 13.4 0.0 1.8 1 0.0 0.0 1013.0 0.0 34.5 33.7 0.0
01/01/19 15:51 34.6 28 13.4 0.0 1.8 1 0.0 0.0 1013.0 0.0 34.6 33.7 0.0
01/01/19 15:52 34.5 28 13.3 0.0 1.8 1 0.0 0.0 1013.0 0.0 34.6 33.6 0.0
01/01/19 15:53 34.4 28 13.3 0.0 1.8 1 0.0 0.0 1012.0 0.0 34.4 33.5 0.0
01/01/19 15:54 34.5 28 13.3 0.0 1.8 1 0.0 0.0 1012.0 0.0 34.4 33.6 0.0
01/01/19 15:55 34.4 28 13.3 0.0 1.8 1 0.0 0.0 1012.0 0.0 34.5 33.5 0.0
01/01/19 15:56 34.3 28 13.2 0.0 1.8 1 0.0 0.0 1012.0 0.0 34.4 33.3 0.0
01/01/19 15:57 34.0 28 12.9 0.0 1.8 1 0.0 0.0 1012.0 0.0 34.2 33.0 0.0
01/01/19 15:58 34.0 28 12.9 0.0 1.8 1 0.0 0.0 1012.0 0.0 34.0 33.0 0.0
01/01/19 15:59 33.7 28 12.7 0.0 1.8 1 0.0 0.0 1012.0 0.0 34.0 32.6 0.0
01/01/19 16:00 33.4 28 12.4 0.0 0.0 0 0.0 0.0 1012.0 0.0 33.7 32.2 0.0
01/01/19 16:02 33.1 28 12.1 0.0 0.0 0 0.0 0.0 1012.0 0.0 0.0 31.8 0.0
01/01/19 16:03 33.1 28 12.1 0.0 0.0 0 0.0 0.0 1012.0 0.0 0.0 31.8 0.0
01/01/19 16:04 32.8 29 12.4 0.0 0.0 0 0.0 0.0 1012.0 0.0 33.1 31.6 0.0
01/01/19 16:05 32.3 29 12.0 0.0 0.0 0 0.0 0.0 1012.0 0.0 32.6 31.0 0.0
01/01/19 16:06 32.1 29 11.8 0.0 0.0 0 0.0 0.0 1012.0 0.0 32.3 30.8 0.0
01/01/19 16:07 31.9 29 11.7 0.0 0.0 0 0.0 0.0 1012.0 0.0 32.1 30.6 0.0
01/01/19 16:08 31.7 30 12.0 0.0 0.0 0 0.0 0.0 1013.0 0.0 31.9 30.5 0.0
01/01/19 16:09 31.5 30 11.8 0.0 0.0 0 0.0 0.0 1013.0 0.0 31.7 30.3 0.0
01/01/19 16:10 31.2 32 12.5 0.0 0.0 0 0.0 0.0 1013.0 0.0 31.5 30.1 0.0
01/01/19 16:11 30.9 32 12.3 0.0 0.0 0 0.0 0.0 1013.0 0.0 31.2 29.8 0.0
01/01/19 16:12 30.6 33 12.5 0.0 0.0 0 0.0 0.0 1013.0 0.0 30.9 29.6 0.0
01/01/19 16:13 29.9 39 14.4 0.0 0.0 0 0.0 0.0 1013.0 0.0 30.3 29.5 0.0
01/01/19 16:14 29.3 42 15.1 0.0 0.0 0 0.0 0.0 1013.0 0.0 29.9 29.1 0.0
01/01/19 16:17 27.3 47 15.0 1.8 0.0 0 0.0 0.0 1013.0 0.0 0.0 27.5 0.0
01/01/19 16:18 27.0 48 15.1 1.8 0.0 0 0.0 0.0 1013.0 0.0 27.3 27.3 0.0
01/01/19 16:19 26.9 48 15.0 1.8 0.0 0 0.0 0.0 1013.0 0.0 27.0 27.2 0.0
01/01/19 16:20 26.7 49 15.1 1.8 0.0 0 0.0 0.0 1013.0 0.0 26.8 27.1 0.0
01/01/19 16:32 25.7 51 14.8 0.0 0.0 0 0.0 0.0 1012.0 0.0 25.7 25.7 0.0
01/01/19 16:33 25.9 51 15.0 0.0 0.0 0 0.0 0.0 1012.0 0.0 25.9 25.9 0.0
01/01/19 16:34 26.1 51 15.2 0.0 2.2 135 0.0 0.0 1012.0 1.8 26.1 26.1 0.0
01/01/19 16:35 26.6 49 15.0 1.4 4.7 149 0.0 0.0 1012.0 4.7 26.4 26.6 0.0
01/01/19 16:36 26.8 49 15.2 2.5 4.7 149 0.0 0.0 1012.0 0.0 26.6 27.2 0.0
01/01/19 16:37 27.1 49 15.5 0.0 4.7 147 0.0 0.0 1012.0 2.5 27.1 27.4 0.0
01/01/19 16:38 27.3 48 15.3 0.0 4.7 153 0.0 0.0 1013.0 2.2 27.3 27.6 0.0
01/01/19 16:39 27.4 48 15.4 1.8 5.8 164 0.0 0.0 1013.0 5.8 27.4 27.7 0.0
01/01/19 16:40 27.4 47 15.1 3.2 5.8 104 0.0 0.0 1013.0 1.8 27.4 27.6 0.0
01/01/19 16:41 27.5 47 15.2 1.8 5.8 104 0.0 0.0 1013.0 0.0 27.5 27.7 0.0
01/01/19 16:42 27.6 47 15.3 0.0 5.8 104 0.0 0.0 1013.0 0.0 27.6 27.8 0.0
01/01/19 16:43 27.9 47 15.5 1.4 5.8 104 0.0 0.0 1013.0 0.0 27.8 28.1 0.0
01/01/19 16:44 28.0 46 15.3 0.0 5.8 29 0.0 0.0 1013.0 0.0 27.9 28.1 0.0
01/01/19 16:45 28.0 47 15.6 3.2 5.8 79 0.0 0.0 1013.0 1.8 28.0 28.2 0.0
01/01/19 16:47 27.9 47 15.5 0.0 5.8 142 0.0 0.0 1013.0 0.0 0.0 28.1 0.0
01/01/19 16:48 27.9 46 15.2 0.0 5.8 141 0.0 0.0 1013.0 0.0 27.9 28.0 0.0
01/01/19 16:49 27.8 46 15.1 0.0 5.8 137 0.0 0.0 1013.0 0.0 27.9 27.9 0.0
01/01/19 16:50 27.6 46 14.9 0.0 1.8 80 0.0 0.0 1013.0 0.0 27.7 27.7 0.0
01/01/19 16:51 27.6 46 14.9 0.0 1.8 80 0.0 0.0 1013.0 0.0 27.6 27.7 0.0
01/01/19 16:52 27.5 46 14.8 0.0 1.8 80 0.0 0.0 1013.0 0.0 27.6 27.6 0.0
01/01/19 16:53 27.5 46 14.8 0.0 1.8 80 0.0 0.0 1013.0 0.0 27.5 27.6 0.0
01/01/19 16:54 27.5 46 14.8 0.0 1.8 80 0.0 0.0 1013.0 0.0 27.5 27.6 0.0
01/01/19 16:55 27.5 45 14.5 0.0 1.8 80 0.0 0.0 1013.0 0.0 27.5 27.6 0.0
01/01/19 16:56 27.3 45 14.3 0.0 0.0 0 0.0 0.0 1013.0 0.0 27.5 27.4 0.0
01/01/19 16:57 27.2 45 14.2 0.0 0.0 0 0.0 0.0 1013.0 0.0 27.3 27.3 0.0
01/01/19 16:58 27.0 45 14.1 0.0 0.0 0 0.0 0.0 1013.0 0.0 27.1 27.1 0.0
01/01/19 16:59 26.9 46 14.3 0.0 0.0 0 0.0 0.0 1013.0 0.0 27.0 27.1 0.0
01/01/19 17:00 26.9 45 14.0 0.0 0.0 0 0.0 0.0 1013.0 0.0 26.9 27.0 0.0
01/01/19 17:02 26.7 46 14.1 0.0 0.0 0 0.0 0.0 1013.0 0.0 0.0 26.9 0.0
01/01/19 17:03 26.6 46 14.0 0.0 0.0 0 0.0 0.0 1013.0 0.0 0.0 26.6 0.0
01/01/19 17:04 26.6 46 14.0 0.0 0.0 0 0.0 0.0 1013.0 0.0 0.0 26.6 0.0
01/01/19 17:05 26.5 46 13.9 0.0 0.0 0 0.0 0.0 1013.0 0.0 0.0 26.5 0.0
01/01/19 17:06 26.5 46 13.9 0.0 0.0 0 0.0 0.0 1013.0 0.0 0.0 26.5 0.0
01/01/19 17:07 26.4 46 13.8 0.0 0.0 0 0.0 0.0 1013.0 0.0 0.0 26.4 0.0
01/01/19 17:08 26.4 46 13.8 0.0 0.0 0 0.0 0.0 1014.0 0.0 0.0 26.4 0.0
01/01/19 17:09 26.4 46 13.8 0.0 0.0 0 0.0 0.0 1014.0 0.0 26.4 26.4 0.0
01/01/19 17:10 26.3 47 14.1 0.0 0.0 0 0.0 0.0 1014.0 0.0 26.4 26.3 0.0
01/01/19 17:11 26.3 47 14.1 0.0 0.0 0 0.0 0.0 1014.0 0.0 26.3 26.3 0.0
01/01/19 17:12 26.2 47 14.0 0.0 0.0 0 0.0 0.0 1014.0 0.0 26.3 26.2 0.0
01/01/19 17:13 26.2 47 14.0 0.0 0.0 0 0.0 0.0 1014.0 0.0 26.2 26.2 0.0
01/01/19 17:14 26.2 47 14.0 0.0 0.0 0 0.0 0.0 1014.0 0.0 26.2 26.2 0.0
01/01/19 17:15 26.2 47 14.0 0.0 0.0 0 0.0 0.0 1014.0 0.0 26.2 26.2 0.0
01/01/19 17:17 26.2 48 14.3 0.0 0.0 0 0.0 0.0 1014.0 0.0 0.0 26.2 0.0
01/01/19 17:18 26.1 48 14.2 0.0 0.0 0 0.0 0.0 1014.0 0.0 26.2 26.1 0.0
01/01/19 17:19 26.1 48 14.2 0.0 0.0 0 0.0 0.0 1014.0 0.0 26.1 26.1 0.0
01/01/19 17:20 26.0 48 14.1 0.0 0.0 0 0.0 0.0 1014.0 0.0 26.1 26.0 0.0
01/01/19 17:21 25.6 49 14.1 0.0 0.0 0 0.0 0.0 1014.0 0.0 25.8 25.6 0.0
01/01/19 17:22 25.6 50 14.4 0.0 0.0 0 0.0 0.0 1014.0 0.0 25.6 25.6 0.0
01/01/19 17:23 25.6 49 14.1 0.0 0.0 0 0.0 0.0 1014.0 0.0 25.6 25.6 0.0
01/01/19 17:24 25.5 49 14.0 0.0 0.0 0 0.0 0.0 1014.0 0.0 25.6 25.5 0.0
01/01/19 17:25 25.5 49 14.0 0.0 0.0 0 0.0 0.0 1014.0 0.0 25.6 25.5 0.0
01/01/19 17:26 25.5 50 14.3 0.0 0.0 0 0.0 0.0 1014.0 0.0 25.6 25.5 0.0
01/01/19 17:27 25.2 51 14.3 0.0 0.0 0 0.0 0.0 1014.0 0.0 25.6 25.2 0.0
01/01/19 17:28 25.2 50 14.0 0.0 0.0 0 0.0 0.0 1014.0 0.0 25.6 25.2 0.0
01/01/19 17:29 25.2 51 14.3 0.0 0.0 0 0.0 0.0 1014.0 0.0 25.6 25.2 0.0
01/01/19 17:30 25.2 51 14.3 0.0 0.0 0 0.0 0.0 1014.0 0.0 25.6 25.2 0.0
01/01/19 17:33 25.5 51 14.6 0.0 0.0 0 0.0 0.0 1014.0 0.0 0.0 25.5 0.0
01/01/19 17:34 25.6 51 14.7 0.0 0.0 0 0.0 0.0 1014.0 0.0 0.0 25.6 0.0
01/01/19 17:35 25.7 51 14.8 0.0 0.0 0 0.0 0.0 1014.0 0.0 0.0 25.7 0.0
01/01/19 17:36 25.7 51 14.8 0.0 0.0 0 0.0 0.0 1014.0 0.0 0.0 25.7 0.0
01/01/19 17:37 25.6 51 14.7 0.0 0.0 0 0.0 0.0 1014.0 0.0 0.0 25.6 0.0
01/01/19 17:38 25.6 51 14.7 0.0 0.0 0 0.0 0.0 1014.0 0.0 0.0 25.6 0.0
01/01/19 17:39 25.6 51 14.7 0.0 0.0 0 0.0 0.0 1014.0 0.0 0.0 25.6 0.0
01/01/19 17:40 25.5 51 14.6 0.0 0.0 0 0.0 0.0 1014.0 0.0 0.0 25.5 0.0
01/01/19 17:41 25.5 51 14.6 0.0 0.0 0 0.0 0.0 1014.0 0.0 0.0 25.5 0.0
01/01/19 17:42 25.5 51 14.6 0.0 0.0 0 0.0 0.0 1014.0 0.0 0.0 25.5 0.0
01/01/19 17:43 25.5 51 14.6 0.0 0.0 0 0.0 0.0 1014.0 0.0 0.0 25.5 0.0
01/01/19 17:44 25.6 50 14.4 0.0 0.0 0 0.0 0.0 1014.0 0.0 0.0 25.6 0.0
01/01/19 17:45 25.6 50 14.4 0.0 0.0 0 0.0 0.0 1014.0 0.0 0.0 25.6 0.0
01/01/19 17:48 25.6 50 14.4 0.0 0.0 0 0.0 0.0 1014.0 0.0 0.0 25.6 0.0
01/01/19 17:49 25.7 50 14.5 0.0 0.0 0 0.0 0.0 1014.0 0.0 0.0 25.7 0.0
01/01/19 17:50 25.6 50 14.4 0.0 0.0 0 0.0 0.0 1014.0 0.0 0.0 25.6 0.0
01/01/19 17:51 25.6 50 14.4 0.0 0.0 0 0.0 0.0 1014.0 0.0 0.0 25.6 0.0
01/01/19 17:52 25.5 51 14.6 0.0 0.0 0 0.0 0.0 1014.0 0.0 0.0 25.5 0.0
01/01/19 17:53 25.4 51 14.5 0.0 0.0 0 0.0 0.0 1015.0 0.0 0.0 25.4 0.0
01/01/19 17:54 25.3 51 14.4 0.0 0.0 0 0.0 0.0 1015.0 0.0 0.0 25.3 0.0
01/01/19 17:55 25.3 51 14.4 0.0 0.0 0 0.0 0.0 1015.0 0.0 0.0 25.3 0.0
01/01/19 17:56 25.2 51 14.3 0.0 0.0 0 0.0 0.0 1015.0 0.0 0.0 25.2 0.0
01/01/19 17:57 24.9 52 14.4 0.0 0.0 0 0.0 0.0 1015.0 0.0 0.0 24.9 0.0
01/01/19 17:58 24.8 52 14.3 0.0 0.0 0 0.0 0.0 1015.0 0.0 0.0 24.8 0.0
01/01/19 17:59 24.6 52 14.1 0.0 0.0 0 0.0 0.0 1015.0 0.0 0.0 24.6 0.0
01/01/19 18:00 24.6 53 14.4 0.0 0.0 0 0.0 0.0 1015.0 0.0 0.0 24.6 0.0
01/01/19 18:03 24.4 53 14.2 0.0 0.0 0 0.0 0.0 1015.0 0.0 0.0 24.4 0.0
01/01/19 18:04 24.3 53 14.1 0.0 0.0 0 0.0 0.0 1015.0 0.0 0.0 24.3 0.0
01/01/19 18:05 24.3 53 14.1 0.0 0.0 0 0.0 0.0 1015.0 0.0 0.0 24.3 0.0
01/01/19 18:06 24.3 54 14.4 0.0 0.0 0 0.0 0.0 1015.0 0.0 0.0 24.3 0.0
01/01/19 18:07 24.3 53 14.1 0.0 0.0 0 0.0 0.0 1015.0 0.0 0.0 24.3 0.0
01/01/19 18:08 24.3 53 14.1 0.0 0.0 0 0.0 0.0 1015.0 0.0 0.0 24.3 0.0
01/01/19 18:09 24.2 53 14.0 0.0 0.0 0 0.0 0.0 1015.0 0.0 0.0 24.2 0.0
01/01/19 18:10 24.2 53 14.0 0.0 0.0 0 0.0 0.0 1015.0 0.0 0.0 24.2 0.0
01/01/19 18:11 24.1 54 14.2 0.0 0.0 0 0.0 0.0 1015.0 0.0 0.0 24.1 0.0
01/01/19 18:12 24.1 54 14.2 0.0 0.0 0 0.0 0.0 1015.0 0.0 0.0 24.1 0.0
01/01/19 18:13 24.0 55 14.4 0.0 0.0 0 0.0 0.0 1015.0 0.0 0.0 24.0 0.0
01/01/19 18:14 23.9 55 14.3 0.0 0.0 0 0.0 0.0 1015.0 0.0 0.0 23.9 0.0
01/01/19 18:15 23.8 55 14.2 0.0 0.0 0 0.0 0.0 1015.0 0.0 0.0 23.8 0.0
01/01/19 18:18 23.6 56 14.3 0.0 0.0 0 0.0 0.0 1015.0 0.0 0.0 23.6 0.0
01/01/19 18:19 23.6 56 14.3 0.0 0.0 0 0.0 0.0 1015.0 0.0 0.0 23.6 0.0
01/01/19 18:20 23.5 56 14.2 0.0 0.0 0 0.0 0.0 1015.0 0.0 0.0 23.5 0.0
01/01/19 18:21 23.4 56 14.1 0.0 0.0 0 0.0 0.0 1015.0 0.0 0.0 23.4 0.0
01/01/19 18:22 23.4 56 14.1 0.0 0.0 0 0.0 0.0 1015.0 0.0 0.0 23.4 0.0
01/01/19 18:23 23.3 56 14.0 0.0 0.0 0 0.0 0.0 1015.0 0.0 0.0 23.3 0.0
01/01/19 18:24 23.3 56 14.0 0.0 0.0 0 0.0 0.0 1015.0 0.0 0.0 23.3 0.0
01/01/19 18:25 23.3 56 14.0 0.0 0.0 0 0.0 0.0 1015.0 0.0 0.0 23.3 0.0
01/01/19 18:26 23.3 56 14.0 0.0 0.0 0 0.0 0.0 1015.0 0.0 0.0 23.3 0.0
01/01/19 18:27 23.3 56 14.0 0.0 0.0 0 0.0 0.0 1015.0 0.0 0.0 23.3 0.0
01/01/19 18:28 23.3 56 14.0 0.0 0.0 0 0.0 0.0 1015.0 0.0 0.0 23.3 0.0
01/01/19 18:29 23.4 56 14.1 0.0 0.0 0 0.0 0.0 1015.0 0.0 0.0 23.4 0.0
01/01/19 18:33 23.5 56 14.2 0.0 0.0 0 0.0 0.0 1015.0 0.0 0.0 23.5 0.0
01/01/19 18:34 23.5 55 13.9 0.0 0.0 0 0.0 0.0 1015.0 0.0 0.0 23.5 0.0
01/01/19 18:35 23.5 56 14.2 0.0 0.0 0 0.0 0.0 1015.0 0.0 0.0 23.5 0.0
01/01/19 18:36 23.5 57 14.5 0.0 0.0 0 0.0 0.0 1015.0 0.0 0.0 23.5 0.0
01/01/19 18:37 23.4 57 14.4 0.0 0.0 0 0.0 0.0 1015.0 0.0 0.0 23.4 0.0
01/01/19 18:38 23.4 57 14.4 0.0 0.0 0 0.0 0.0 1015.0 0.0 0.0 23.4 0.0
01/01/19 18:39 23.4 57 14.4 0.0 0.0 0 0.0 0.0 1015.0 0.0 0.0 23.4 0.0
01/01/19 18:40 23.4 57 14.4 0.0 0.0 0 0.0 0.0 1015.0 0.0 0.0 23.4 0.0
01/01/19 18:41 23.4 57 14.4 0.0 0.0 0 0.0 0.0 1015.0 0.0 0.0 23.4 0.0
01/01/19 18:42 23.4 56 14.1 0.0 0.0 0 0.0 0.0 1015.0 0.0 0.0 23.4 0.0
01/01/19 18:43 23.4 56 14.1 0.0 0.0 0 0.0 0.0 1015.0 0.0 0.0 23.4 0.0
01/01/19 18:44 23.3 56 14.0 0.0 0.0 0 0.0 0.0 1015.0 0.0 0.0 23.3 0.0
01/01/19 18:45 23.3 56 14.0 0.0 0.0 0 0.0 0.0 1015.0 0.0 0.0 23.3 0.0
01/01/19 18:48 23.3 56 14.0 0.0 0.0 0 0.0 0.0 1015.0 0.0 0.0 23.3 0.0
01/01/19 18:49 23.3 56 14.0 0.0 0.0 0 0.0 0.0 1015.0 0.0 0.0 23.3 0.0
01/01/19 18:50 23.3 56 14.0 0.0 0.0 0 0.0 0.0 1015.0 0.0 0.0 23.3 0.0
01/01/19 18:51 23.3 56 14.0 0.0 0.0 0 0.0 0.0 1015.0 0.0 0.0 23.3 0.0
01/01/19 18:52 23.3 56 14.0 0.0 0.0 0 0.0 0.0 1015.0 0.0 0.0 23.3 0.0
01/01/19 18:53 23.3 56 14.0 0.0 0.0 0 0.0 0.0 1016.0 0.0 0.0 23.3 0.0
01/01/19 18:54 23.2 56 13.9 0.0 0.0 0 0.0 0.0 1016.0 0.0 0.0 23.2 0.0
01/01/19 18:55 23.2 56 13.9 0.0 0.0 0 0.0 0.0 1016.0 0.0 0.0 23.2 0.0
01/01/19 18:56 23.2 56 13.9 0.0 0.0 0 0.0 0.0 1016.0 0.0 0.0 23.2 0.0
01/01/19 18:57 23.2 57 14.2 0.0 0.0 0 0.0 0.0 1016.0 0.0 0.0 23.2 0.0
01/01/19 18:58 23.2 57 14.2 0.0 0.0 0 0.0 0.0 1016.0 0.0 0.0 23.2 0.0
01/01/19 18:59 23.1 57 14.1 0.0 0.0 0 0.0 0.0 1016.0 0.0 0.0 23.1 0.0
01/01/19 19:00 23.1 57 14.1 0.0 0.0 0 0.0 0.0 1016.0 0.0 0.0 23.1 0.0
01/01/19 19:03 23.0 57 14.0 0.0 0.0 0 0.0 0.0 1016.0 0.0 0.0 23.0 0.0
01/01/19 19:04 23.0 57 14.0 0.0 0.0 0 0.0 0.0 1016.0 0.0 0.0 23.0 0.0
01/01/19 19:05 23.0 57 14.0 0.0 0.0 0 0.0 0.0 1016.0 0.0 0.0 23.0 0.0
01/01/19 19:06 23.0 57 14.0 0.0 0.0 0 0.0 0.0 1016.0 0.0 0.0 23.0 0.0
01/01/19 19:07 22.9 57 13.9 0.0 0.0 0 0.0 0.0 1016.0 0.0 0.0 22.9 0.0
01/01/19 19:08 22.9 57 13.9 0.0 0.0 0 0.0 0.0 1015.0 0.0 0.0 22.9 0.0
01/01/19 19:09 22.9 59 14.5 0.0 0.0 0 0.0 0.0 1015.0 0.0 0.0 22.9 0.0
01/01/19 19:10 22.8 60 14.6 0.0 0.0 0 0.0 0.0 1015.0 0.0 0.0 22.8 0.0
01/01/19 19:11 22.8 60 14.6 0.0 0.0 0 0.0 0.0 1015.0 0.0 0.0 22.8 0.0
01/01/19 19:12 22.8 59 14.4 0.0 0.0 0 0.0 0.0 1015.0 0.0 0.0 22.8 0.0
01/01/19 19:13 22.8 60 14.6 0.0 0.0 0 0.0 0.0 1015.0 0.0 0.0 22.8 0.0
01/01/19 19:14 22.7 60 14.5 0.0 0.0 0 0.0 0.0 1015.0 0.0 0.0 22.7 0.0
01/01/19 19:33 22.3 62 14.7 0.0 0.0 0 0.0 0.0 1015.0 0.0 0.0 22.3 0.0
01/01/19 19:34 22.2 62 14.6 0.0 0.0 0 0.0 0.0 1015.0 0.0 0.0 22.2 0.0
01/01/19 19:35 22.2 62 14.6 0.0 0.0 0 0.0 0.0 1015.0 0.0 0.0 22.2 0.0
01/01/19 19:36 22.2 63 14.8 0.0 0.0 0 0.0 0.0 1015.0 0.0 0.0 22.2 0.0
01/01/19 19:37 22.1 63 14.7 0.0 0.0 0 0.0 0.0 1015.0 0.0 0.0 22.1 0.0
01/01/19 19:38 22.1 65 15.2 0.0 0.0 0 0.0 0.0 1014.0 0.0 0.0 22.1 0.0
01/01/19 19:39 22.1 64 15.0 0.0 0.0 0 0.0 0.0 1014.0 0.0 0.0 22.1 0.0
01/01/19 19:40 22.1 66 15.4 0.0 0.0 0 0.0 0.0 1014.0 0.0 0.0 22.1 0.0
01/01/19 19:41 22.1 66 15.4 0.0 0.0 0 0.0 0.0 1014.0 0.0 0.0 22.1 0.0
01/01/19 19:42 22.1 66 15.4 0.0 0.0 0 0.0 0.0 1014.0 0.0 0.0 22.1 0.0
01/01/19 19:43 22.1 65 15.2 0.0 0.0 0 0.0 0.0 1014.0 0.0 0.0 22.1 0.0
01/01/19 19:44 22.1 66 15.4 0.0 0.0 0 0.0 0.0 1014.0 0.0 0.0 22.1 0.0
01/01/19 19:48 22.0 65 15.1 0.0 0.0 0 0.0 0.0 1014.0 0.0 0.0 22.0 0.0
01/01/19 19:49 22.0 65 15.1 0.0 0.0 0 0.0 0.0 1014.0 0.0 0.0 22.0 0.0
01/01/19 19:50 22.0 65 15.1 0.0 0.0 0 0.0 0.0 1014.0 0.0 0.0 22.0 0.0
01/01/19 19:51 22.0 66 15.4 0.0 0.0 0 0.0 0.0 1014.0 0.0 0.0 22.0 0.0
01/01/19 19:52 22.0 65 15.1 0.0 0.0 0 0.0 0.0 1014.0 0.0 0.0 22.0 0.0
01/01/19 19:53 22.0 66 15.4 0.0 0.0 0 0.0 0.0 1015.0 0.0 0.0 22.0 0.0
01/01/19 19:54 22.0 67 15.6 0.0 0.0 0 0.0 0.0 1015.0 0.0 0.0 22.0 0.0
01/01/19 19:55 21.9 67 15.5 0.0 0.0 0 0.0 0.0 1015.0 0.0 0.0 21.9 0.0
01/01/19 19:56 22.0 67 15.6 0.0 0.0 0 0.0 0.0 1015.0 0.0 0.0 22.0 0.0
01/01/19 19:57 21.9 68 15.7 0.0 0.0 0 0.0 0.0 1015.0 0.0 0.0 21.9 0.0
01/01/19 19:58 21.9 68 15.7 0.0 0.0 0 0.0 0.0 1015.0 0.0 0.0 21.9 0.0
01/01/19 19:59 21.9 67 15.5 0.0 0.0 0 0.0 0.0 1015.0 0.0 0.0 21.9 0.0
01/01/19 20:00 21.9 68 15.7 0.0 0.0 0 0.0 0.0 1015.0 0.0 0.0 21.9 0.0
01/01/19 20:03 21.8 67 15.4 0.0 0.0 0 0.0 0.0 1015.0 0.0 0.0 21.8 0.0
01/01/19 20:04 21.8 67 15.4 0.0 0.0 0 0.0 0.0 1015.0 0.0 0.0 21.8 0.0
01/01/19 20:05 21.8 67 15.4 0.0 0.0 0 0.0 0.0 1015.0 0.0 0.0 21.8 0.0
01/01/19 20:06 21.8 67 15.4 0.0 0.0 0 0.0 0.0 1015.0 0.0 0.0 21.8 0.0
01/01/19 20:07 21.8 67 15.4 0.0 0.0 0 0.0 0.0 1015.0 0.0 0.0 21.8 0.0
01/01/19 20:08 21.7 67 15.3 0.0 0.0 0 0.0 0.0 1015.0 0.0 0.0 21.7 0.0
01/01/19 20:09 21.7 66 15.1 0.0 0.0 0 0.0 0.0 1015.0 0.0 0.0 21.7 0.0
01/01/19 20:10 21.7 66 15.1 0.0 0.0 0 0.0 0.0 1015.0 0.0 0.0 21.7 0.0
01/01/19 20:11 21.7 66 15.1 0.0 0.0 0 0.0 0.0 1015.0 0.0 0.0 21.7 0.0
01/01/19 20:12 21.6 67 15.2 0.0 0.0 0 0.0 0.0 1015.0 0.0 0.0 21.6 0.0
01/01/19 20:13 21.6 67 15.2 0.0 0.0 0 0.0 0.0 1015.0 0.0 0.0 21.6 0.0
01/01/19 20:14 21.6 67 15.2 0.0 0.0 0 0.0 0.0 1015.0 0.0 0.0 21.6 0.0
01/01/19 20:15 21.6 67 15.2 0.0 0.0 0 0.0 0.0 1015.0 0.0 0.0 21.6 0.0
01/01/19 20:18 21.5 67 15.1 0.0 0.0 0 0.0 0.0 1015.0 0.0 0.0 21.5 0.0
01/01/19 20:19 21.5 67 15.1 0.0 0.0 0 0.0 0.0 1015.0 0.0 0.0 21.5 0.0
01/01/19 20:20 21.5 67 15.1 0.0 0.0 0 0.0 0.0 1015.0 0.0 0.0 21.5 0.0
01/01/19 20:21 21.5 67 15.1 0.0 0.0 0 0.0 0.0 1015.0 0.0 0.0 21.5 0.0
01/01/19 20:22 21.5 67 15.1 0.0 0.0 0 0.0 0.0 1015.0 0.0 0.0 21.5 0.0
01/01/19 20:23 21.4 67 15.0 0.0 0.0 0 0.0 0.0 1015.0 0.0 0.0 21.4 0.0
01/01/19 20:24 21.4 67 15.0 0.0 0.0 0 0.0 0.0 1015.0 0.0 0.0 21.4 0.0
01/01/19 20:25 21.4 68 15.2 0.0 0.0 0 0.0 0.0 1015.0 0.0 0.0 21.4 0.0
01/01/19 20:26 21.4 68 15.2 0.0 0.0 0 0.0 0.0 1015.0 0.0 0.0 21.4 0.0
01/01/19 20:27 21.4 68 15.2 0.0 0.0 0 0.0 0.0 1015.0 0.0 0.0 21.4 0.0
01/01/19 20:28 21.4 68 15.2 0.0 0.0 0 0.0 0.0 1015.0 0.0 0.0 21.4 0.0
01/01/19 20:29 21.3 68 15.2 0.0 0.0 0 0.0 0.0 1015.0 0.0 0.0 21.3 0.0
01/01/19 20:33 21.2 68 15.1 0.0 0.0 0 0.0 0.0 1015.0 0.0 0.0 21.2 0.0
01/01/19 20:34 21.2 69 15.3 0.0 0.0 0 0.0 0.0 1015.0 0.0 0.0 21.2 0.0
01/01/19 20:35 21.2 69 15.3 0.0 0.0 0 0.0 0.0 1015.0 0.0 0.0 21.2 0.0
01/01/19 20:36 21.2 69 15.3 0.0 0.0 0 0.0 0.0 1015.0 0.0 0.0 21.2 0.0
01/01/19 20:37 21.2 69 15.3 0.0 0.0 0 0.0 0.0 1015.0 0.0 0.0 21.2 0.0
01/01/19 20:38 21.1 68 15.0 0.0 0.0 0 0.0 0.0 1014.0 0.0 0.0 21.1 0.0
01/01/19 20:39 21.1 68 15.0 0.0 0.0 0 0.0 0.0 1014.0 0.0 0.0 21.1 0.0
01/01/19 20:40 21.1 68 15.0 0.0 0.0 0 0.0 0.0 1014.0 0.0 0.0 21.1 0.0
01/01/19 20:41 21.1 69 15.2 0.0 0.0 0 0.0 0.0 1014.0 0.0 0.0 21.1 0.0
01/01/19 20:42 21.0 69 15.1 0.0 0.0 0 0.0 0.0 1014.0 0.0 0.0 21.0 0.0
01/01/19 20:43 21.0 69 15.1 0.0 0.0 0 0.0 0.0 1014.0 0.0 0.0 21.0 0.0
01/01/19 20:44 21.0 69 15.1 0.0 0.0 0 0.0 0.0 1014.0 0.0 0.0 21.0 0.0
01/01/19 20:45 21.0 69 15.1 0.0 0.0 0 0.0 0.0 1014.0 0.0 0.0 21.0 0.0
01/01/19 20:48 21.0 70 15.3 0.0 0.0 0 0.0 0.0 1014.0 0.0 0.0 21.0 0.0
01/01/19 20:49 21.0 70 15.3 0.0 0.0 0 0.0 0.0 1014.0 0.0 0.0 21.0 0.0
01/01/19 20:50 21.0 70 15.3 0.0 0.0 0 0.0 0.0 1014.0 0.0 0.0 21.0 0.0
01/01/19 20:51 21.0 70 15.3 0.0 0.0 0 0.0 0.0 1014.0 0.0 0.0 21.0 0.0
01/01/19 20:52 21.0 70 15.3 0.0 0.0 0 0.0 0.0 1014.0 0.0 0.0 21.0 0.0
01/01/19 20:53 20.9 70 15.2 0.0 0.0 0 0.0 0.0 1015.0 0.0 0.0 20.9 0.0
01/01/19 20:54 21.0 70 15.3 0.0 0.0 0 0.0 0.0 1015.0 0.0 0.0 21.0 0.0
01/01/19 20:55 20.9 70 15.2 0.0 0.0 0 0.0 0.0 1015.0 0.0 0.0 20.9 0.0
01/01/19 20:56 20.9 70 15.2 0.0 0.0 0 0.0 0.0 1015.0 0.0 0.0 20.9 0.0
01/01/19 20:57 20.9 70 15.2 0.0 0.0 0 0.0 0.0 1015.0 0.0 0.0 20.9 0.0
01/01/19 20:58 20.9 71 15.4 0.0 0.0 0 0.0 0.0 1015.0 0.0 0.0 20.9 0.0
01/01/19 20:59 20.9 71 15.4 0.0 0.0 0 0.0 0.0 1015.0 0.0 0.0 20.9 0.0
01/01/19 21:00 20.8 70 15.1 0.0 0.0 0 0.0 0.0 1015.0 0.0 0.0 20.8 0.0
01/01/19 21:03 20.8 71 15.3 0.0 0.0 0 0.0 0.0 1015.0 0.0 0.0 20.8 0.0
01/01/19 21:04 20.8 71 15.3 0.0 0.0 0 0.0 0.0 1015.0 0.0 0.0 20.8 0.0
01/01/19 21:05 20.8 71 15.3 0.0 0.0 0 0.0 0.0 1015.0 0.0 0.0 20.8 0.0
01/01/19 21:06 20.8 72 15.6 0.0 0.0 0 0.0 0.0 1015.0 0.0 0.0 20.8 0.0
01/01/19 21:07 20.8 71 15.3 0.0 0.0 0 0.0 0.0 1015.0 0.0 0.0 20.8 0.0
01/01/19 21:08 20.8 71 15.3 0.0 0.0 0 0.0 0.0 1014.0 0.0 0.0 20.8 0.0
01/01/19 21:09 20.8 71 15.3 0.0 0.0 0 0.0 0.0 1014.0 0.0 0.0 20.8 0.0
01/01/19 21:10 20.8 71 15.3 0.0 0.0 0 0.0 0.0 1014.0 0.0 0.0 20.8 0.0
01/01/19 21:11 20.8 70 15.1 0.0 0.0 0 0.0 0.0 1014.0 0.0 0.0 20.8 0.0
01/01/19 21:12 20.7 70 15.0 0.0 0.0 0 0.0 0.0 1014.0 0.0 0.0 20.7 0.0
01/01/19 21:13 20.7 70 15.0 0.0 0.0 0 0.0 0.0 1014.0 0.0 0.0 20.7 0.0
01/01/19 21:14 20.7 70 15.0 0.0 0.0 0 0.0 0.0 1014.0 0.0 0.0 20.7 0.0
01/01/19 21:15 20.7 70 15.0 0.0 0.0 0 0.0 0.0 1014.0 0.0 0.0 20.7 0.0
01/01/19 21:18 20.6 71 15.2 0.0 0.0 0 0.0 0.0 1014.0 0.0 0.0 20.6 0.0
01/01/19 21:19 20.6 71 15.2 0.0 0.0 0 0.0 0.0 1014.0 0.0 0.0 20.6 0.0
01/01/19 21:20 20.6 71 15.2 0.0 0.0 0 0.0 0.0 1014.0 0.0 0.0 20.6 0.0
01/01/19 21:21 20.6 71 15.2 0.0 0.0 0 0.0 0.0 1014.0 0.0 0.0 20.6 0.0
01/01/19 21:22 20.6 71 15.2 0.0 0.0 0 0.0 0.0 1014.0 0.0 0.0 20.6 0.0
01/01/19 21:23 20.6 71 15.2 0.0 0.0 0 0.0 0.0 1015.0 0.0 0.0 20.6 0.0
01/01/19 21:24 20.6 71 15.2 0.0 0.0 0 0.0 0.0 1015.0 0.0 0.0 20.6 0.0
01/01/19 21:25 20.5 71 15.1 0.0 0.0 0 0.0 0.0 1015.0 0.0 0.0 20.5 0.0
01/01/19 21:26 20.5 71 15.1 0.0 0.0 0 0.0 0.0 1015.0 0.0 0.0 20.5 0.0
01/01/19 21:27 20.5 72 15.3 0.0 0.0 0 0.0 0.0 1015.0 0.0 0.0 20.5 0.0
01/01/19 21:28 20.5 71 15.1 0.0 0.0 0 0.0 0.0 1015.0 0.0 0.0 20.5 0.0
01/01/19 21:29 20.4 71 15.0 0.0 0.0 0 0.0 0.0 1015.0 0.0 0.0 20.4 0.0
01/01/19 21:30 20.4 71 15.0 0.0 0.0 0 0.0 0.0 1015.0 0.0 0.0 20.4 0.0
01/01/19 21:33 20.4 72 15.2 0.0 0.0 0 0.0 0.0 1015.0 0.0 0.0 20.4 0.0
01/01/19 21:34 20.4 72 15.2 0.0 0.0 0 0.0 0.0 1015.0 0.0 0.0 20.4 0.0
01/01/19 21:35 20.4 71 15.0 0.0 0.0 0 0.0 0.0 1015.0 0.0 0.0 20.4 0.0
01/01/19 21:36 20.3 71 14.9 0.0 0.0 0 0.0 0.0 1015.0 0.0 0.0 20.3 0.0
01/01/19 21:37 20.3 71 14.9 0.0 0.0 0 0.0 0.0 1015.0 0.0 0.0 20.3 0.0
01/01/19 21:38 20.2 71 14.8 0.0 0.0 0 0.0 0.0 1015.0 0.0 0.0 20.2 0.0
01/01/19 21:39 20.2 71 14.8 0.0 0.0 0 0.0 0.0 1015.0 0.0 0.0 20.2 0.0
01/01/19 21:40 20.2 72 15.0 0.0 0.0 0 0.0 0.0 1015.0 0.0 0.0 20.2 0.0
01/01/19 21:41 20.2 72 15.0 0.0 0.0 0 0.0 0.0 1015.0 0.0 0.0 20.2 0.0
01/01/19 21:42 20.2 73 15.2 0.0 0.0 0 0.0 0.0 1015.0 0.0 0.0 20.2 0.0
01/01/19 21:43 20.2 72 15.0 0.0 0.0 0 0.0 0.0 1015.0 0.0 0.0 20.2 0.0
01/01/19 21:44 20.2 73 15.2 0.0 0.0 0 0.0 0.0 1015.0 0.0 0.0 20.2 0.0
01/01/19 21:45 20.2 72 15.0 0.0 0.0 0 0.0 0.0 1015.0 0.0 0.0 20.2 0.0
01/01/19 21:48 20.2 72 15.0 0.0 0.0 0 0.0 0.0 1015.0 0.0 0.0 20.2 0.0
01/01/19 21:49 20.2 72 15.0 0.0 0.0 0 0.0 0.0 1015.0 0.0 0.0 20.2 0.0
01/01/19 21:50 20.2 71 14.8 0.0 0.0 0 0.0 0.0 1015.0 0.0 0.0 20.2 0.0
01/01/19 21:51 20.2 72 15.0 0.0 0.0 0 0.0 0.0 1015.0 0.0 0.0 20.2 0.0
01/01/19 21:52 20.2 72 15.0 0.0 0.0 0 0.0 0.0 1015.0 0.0 0.0 20.2 0.0
01/01/19 21:53 20.3 72 15.1 0.0 0.0 0 0.0 0.0 1015.0 0.0 0.0 20.3 0.0
01/01/19 21:54 20.3 72 15.1 0.0 0.0 0 0.0 0.0 1015.0 0.0 0.0 20.3 0.0
01/01/19 21:55 20.3 72 15.1 0.0 0.0 0 0.0 0.0 1015.0 0.0 0.0 20.3 0.0
01/01/19 21:56 20.3 72 15.1 0.0 0.0 0 0.0 0.0 1015.0 0.0 0.0 20.3 0.0
01/01/19 21:57 20.3 72 15.1 0.0 0.0 0 0.0 0.0 1015.0 0.0 0.0 20.3 0.0
01/01/19 21:58 20.3 72 15.1 0.0 0.0 0 0.0 0.0 1015.0 0.0 0.0 20.3 0.0
01/01/19 21:59 20.2 72 15.0 0.0 0.0 0 0.0 0.0 1015.0 0.0 0.0 20.2 0.0
01/01/19 22:00 20.2 72 15.0 0.0 0.0 0 0.0 0.0 1015.0 0.0 0.0 20.2 0.0
01/01/19 22:03 20.2 72 15.0 0.0 0.0 0 0.0 0.0 1015.0 0.0 0.0 20.2 0.0
01/01/19 22:04 20.2 72 15.0 0.0 0.0 0 0.0 0.0 1015.0 0.0 0.0 20.2 0.0
01/01/19 22:05 20.2 72 15.0 0.0 0.0 0 0.0 0.0 1015.0 0.0 0.0 20.2 0.0
01/01/19 22:06 20.2 72 15.0 0.0 0.0 0 0.0 0.0 1015.0 0.0 0.0 20.2 0.0
01/01/19 22:07 20.1 72 14.9 0.0 0.0 0 0.0 0.0 1015.0 0.0 0.0 20.1 0.0
01/01/19 22:08 20.1 72 14.9 0.0 0.0 0 0.0 0.0 1015.0 0.0 0.0 20.1 0.0
01/01/19 22:09 20.1 72 14.9 0.0 0.0 0 0.0 0.0 1015.0 0.0 0.0 20.1 0.0
01/01/19 22:10 20.1 73 15.1 0.0 0.0 0 0.0 0.0 1015.0 0.0 0.0 20.1 0.0
01/01/19 22:11 20.1 73 15.1 0.0 0.0 0 0.0 0.0 1015.0 0.0 0.0 20.1 0.0
01/01/19 22:12 20.1 73 15.1 0.0 0.0 0 0.0 0.0 1015.0 0.0 0.0 20.1 0.0
01/01/19 22:13 20.1 73 15.1 0.0 0.0 0 0.0 0.0 1015.0 0.0 0.0 20.1 0.0
01/01/19 22:14 20.1 73 15.1 0.0 0.0 0 0.0 0.0 1015.0 0.0 0.0 20.1 0.0
01/01/19 22:15 20.1 73 15.1 0.0 0.0 0 0.0 0.0 1015.0 0.0 0.0 20.1 0.0
01/01/19 22:18 20.0 72 14.8 0.0 0.0 0 0.0 0.0 1015.0 0.0 0.0 20.0 0.0
01/01/19 22:19 20.0 72 14.8 0.0 0.0 0 0.0 0.0 1015.0 0.0 0.0 20.0 0.0
01/01/19 22:20 20.0 72 14.8 0.0 0.0 0 0.0 0.0 1015.0 0.0 0.0 20.0 0.0
01/01/19 22:21 20.0 72 14.8 0.0 0.0 0 0.0 0.0 1015.0 0.0 0.0 20.0 0.0
01/01/19 22:22 19.9 72 14.7 0.0 0.0 0 0.0 0.0 1015.0 0.0 0.0 19.9 0.0
01/01/19 22:23 19.9 72 14.7 0.0 0.0 0 0.0 0.0 1014.0 0.0 0.0 19.9 0.0
01/01/19 22:24 19.9 72 14.7 0.0 0.0 0 0.0 0.0 1014.0 0.0 0.0 19.9 0.0
01/01/19 22:25 19.9 72 14.7 0.0 0.0 0 0.0 0.0 1014.0 0.0 0.0 19.9 0.0
01/01/19 22:26 19.8 72 14.6 0.0 0.0 0 0.0 0.0 1014.0 0.0 0.0 19.8 0.0
01/01/19 22:27 19.8 72 14.6 0.0 0.0 0 0.0 0.0 1014.0 0.0 0.0 19.8 0.0
01/01/19 22:28 19.8 72 14.6 0.0 0.0 0 0.0 0.0 1014.0 0.0 0.0 19.8 0.0
01/01/19 22:29 19.7 73 14.7 0.0 0.0 0 0.0 0.0 1014.0 0.0 0.0 19.7 0.0
01/01/19 22:33 19.6 73 14.6 0.0 0.0 0 0.0 0.0 1014.0 0.0 0.0 19.6 0.0
01/01/19 22:34 19.5 73 14.5 0.0 0.0 0 0.0 0.0 1014.0 0.0 0.0 19.5 0.0
01/01/19 22:35 19.5 73 14.5 0.0 0.0 0 0.0 0.0 1014.0 0.0 0.0 19.5 0.0
01/01/19 22:36 19.5 73 14.5 0.0 0.0 0 0.0 0.0 1014.0 0.0 0.0 19.5 0.0
01/01/19 22:37 19.5 73 14.5 0.0 0.0 0 0.0 0.0 1014.0 0.0 0.0 19.5 0.0
01/01/19 22:38 19.5 73 14.5 0.0 0.0 0 0.0 0.0 1015.0 0.0 0.0 19.5 0.0
01/01/19 22:39 19.4 73 14.4 0.0 0.0 0 0.0 0.0 1015.0 0.0 0.0 19.4 0.0
01/01/19 22:40 19.4 73 14.4 0.0 0.0 0 0.0 0.0 1015.0 0.0 0.0 19.4 0.0
01/01/19 22:41 19.4 73 14.4 0.0 0.0 0 0.0 0.0 1015.0 0.0 0.0 19.4 0.0
01/01/19 22:42 19.4 73 14.4 0.0 0.0 0 0.0 0.0 1015.0 0.0 0.0 19.4 0.0
01/01/19 22:43 19.4 73 14.4 0.0 0.0 0 0.0 0.0 1015.0 0.0 0.0 19.4 0.0
01/01/19 22:44 19.3 73 14.3 0.0 0.0 0 0.0 0.0 1015.0 0.0 0.0 19.3 0.0
01/01/19 22:45 19.3 73 14.3 0.0 0.0 0 0.0 0.0 1015.0 0.0 0.0 19.3 0.0
01/01/19 22:48 19.3 74 14.5 0.0 0.0 0 0.0 0.0 1015.0 0.0 0.0 19.3 0.0
01/01/19 22:49 19.3 74 14.5 0.0 0.0 0 0.0 0.0 1015.0 0.0 0.0 19.3 0.0
01/01/19 22:50 19.2 74 14.5 0.0 0.0 0 0.0 0.0 1015.0 0.0 0.0 19.2 0.0
01/01/19 22:51 19.2 74 14.5 0.0 0.0 0 0.0 0.0 1015.0 0.0 0.0 19.2 0.0
01/01/19 22:52 19.2 74 14.5 0.0 0.0 0 0.0 0.0 1015.0 0.0 0.0 19.2 0.0
01/01/19 22:53 19.2 74 14.5 0.0 0.0 0 0.0 0.0 1015.0 0.0 0.0 19.2 0.0
01/01/19 22:54 19.1 75 14.6 0.0 0.0 0 0.0 0.0 1015.0 0.0 0.0 19.1 0.0
01/01/19 22:55 19.1 75 14.6 0.0 0.0 0 0.0 0.0 1015.0 0.0 0.0 19.1 0.0
01/01/19 22:56 19.1 75 14.6 0.0 0.0 0 0.0 0.0 1015.0 0.0 0.0 19.1 0.0
01/01/19 22:57 19.1 75 14.6 0.0 0.0 0 0.0 0.0 1015.0 0.0 0.0 19.1 0.0
01/01/19 22:58 19.1 75 14.6 0.0 0.0 0 0.0 0.0 1015.0 0.0 0.0 19.1 0.0
01/01/19 22:59 19.1 75 14.6 0.0 0.0 0 0.0 0.0 1015.0 0.0 0.0 19.1 0.0
01/01/19 23:00 19.1 75 14.6 0.0 0.0 0 0.0 0.0 1015.0 0.0 0.0 19.1 0.0
01/01/19 23:03 19.0 75 14.5 0.0 0.0 0 0.0 0.0 1015.0 0.0 0.0 19.0 0.0
01/01/19 23:04 18.9 75 14.4 0.0 0.0 0 0.0 0.0 1015.0 0.0 0.0 18.9 0.0
01/01/19 23:05 18.9 75 14.4 0.0 0.0 0 0.0 0.0 1015.0 0.0 0.0 18.9 0.0
01/01/19 23:06 19.0 76 14.7 0.0 0.0 0 0.0 0.0 1015.0 0.0 0.0 19.0 0.0
01/01/19 23:07 19.0 76 14.7 0.0 0.0 0 0.0 0.0 1015.0 0.0 0.0 19.0 0.0
01/01/19 23:08 19.0 75 14.5 0.0 0.0 0 0.0 0.0 1015.0 0.0 0.0 19.0 0.0
01/01/19 23:09 19.0 75 14.5 0.0 0.0 0 0.0 0.0 1015.0 0.0 0.0 19.0 0.0
01/01/19 23:10 19.0 75 14.5 0.0 0.0 0 0.0 0.0 1015.0 0.0 0.0 19.0 0.0
01/01/19 23:11 19.0 75 14.5 0.0 0.0 0 0.0 0.0 1015.0 0.0 0.0 19.0 0.0
01/01/19 23:12 19.0 75 14.5 0.0 0.0 0 0.0 0.0 1015.0 0.0 0.0 19.0 0.0
01/01/19 23:13 19.0 75 14.5 0.0 0.0 0 0.0 0.0 1015.0 0.0 0.0 19.0 0.0
01/01/19 23:14 19.0 75 14.5 0.0 0.0 0 0.0 0.0 1015.0 0.0 0.0 19.0 0.0
01/01/19 23:15 18.9 75 14.4 0.0 0.0 0 0.0 0.0 1015.0 0.0 0.0 18.9 0.0
01/01/19 23:17 18.9 75 14.4 0.0 0.0 0 0.0 0.0 1015.0 0.0 0.0 18.9 0.0
01/01/19 23:18 18.9 75 14.4 0.0 0.0 0 0.0 0.0 1015.0 0.0 0.0 18.9 0.0
01/01/19 23:19 18.9 75 14.4 0.0 0.0 0 0.0 0.0 1015.0 0.0 0.0 18.9 0.0
01/01/19 23:20 18.9 75 14.4 0.0 0.0 0 0.0 0.0 1015.0 0.0 0.0 18.9 0.0
01/01/19 23:21 18.9 75 14.4 0.0 0.0 0 0.0 0.0 1015.0 0.0 0.0 18.9 0.0
01/01/19 23:22 18.9 75 14.4 0.0 0.0 0 0.0 0.0 1015.0 0.0 0.0 18.9 0.0
01/01/19 23:23 18.9 75 14.4 0.0 0.0 0 0.0 0.0 1015.0 0.0 0.0 18.9 0.0
01/01/19 23:24 18.9 76 14.6 0.0 0.0 0 0.0 0.0 1015.0 0.0 0.0 18.9 0.0
01/01/19 23:25 18.9 76 14.6 0.0 0.0 0 0.0 0.0 1015.0 0.0 0.0 18.9 0.0
01/01/19 23:26 18.8 76 14.5 0.0 0.0 0 0.0 0.0 1015.0 0.0 0.0 18.8 0.0
01/01/19 23:27 18.8 76 14.5 0.0 0.0 0 0.0 0.0 1015.0 0.0 0.0 18.8 0.0
01/01/19 23:28 18.8 76 14.5 0.0 0.0 0 0.0 0.0 1015.0 0.0 0.0 18.8 0.0
01/01/19 23:29 18.7 76 14.4 0.0 0.0 0 0.0 0.0 1015.0 0.0 0.0 18.7 0.0
01/01/19 23:32 18.7 76 14.4 0.0 0.0 0 0.0 0.0 1015.0 0.0 0.0 18.7 0.0
01/01/19 23:33 18.7 76 14.4 0.0 0.0 0 0.0 0.0 1015.0 0.0 0.0 18.7 0.0
01/01/19 23:34 18.7 76 14.4 0.0 0.0 0 0.0 0.0 1015.0 0.0 0.0 18.7 0.0
01/01/19 23:35 18.6 76 14.3 0.0 0.0 0 0.0 0.0 1015.0 0.0 0.0 18.6 0.0
01/01/19 23:36 18.6 76 14.3 0.0 0.0 0 0.0 0.0 1015.0 0.0 0.0 18.6 0.0
01/01/19 23:37 18.6 76 14.3 0.0 0.0 0 0.0 0.0 1015.0 0.0 0.0 18.6 0.0
01/01/19 23:38 18.6 77 14.5 0.0 0.0 0 0.0 0.0 1015.0 0.0 0.0 18.6 0.0
01/01/19 23:39 18.6 77 14.5 0.0 0.0 0 0.0 0.0 1015.0 0.0 0.0 18.6 0.0
01/01/19 23:40 18.6 77 14.5 0.0 0.0 0 0.0 0.0 1015.0 0.0 0.0 18.6 0.0
01/01/19 23:41 18.6 77 14.5 0.0 0.0 0 0.0 0.0 1015.0 0.0 0.0 18.6 0.0
01/01/19 23:48 18.4 77 14.3 0.0 0.0 0 0.0 0.0 1015.0 0.0 0.0 18.4 0.0
01/01/19 23:49 18.3 77 14.2 0.0 0.0 0 0.0 0.0 1015.0 0.0 0.0 18.3 0.0
01/01/19 23:50 18.3 77 14.2 0.0 0.0 0 0.0 0.0 1015.0 0.0 0.0 18.3 0.0
01/01/19 23:51 18.3 77 14.2 0.0 0.0 0 0.0 0.0 1015.0 0.0 0.0 18.3 0.0
01/01/19 23:52 18.3 78 14.4 0.0 0.0 0 0.0 0.0 1015.0 0.0 0.0 18.3 0.0
01/01/19 23:53 18.2 77 14.1 0.0 0.0 0 0.0 0.0 1014.0 0.0 0.0 18.2 0.0
01/01/19 23:54 18.2 78 14.3 0.0 0.0 0 0.0 0.0 1014.0 0.0 0.0 18.2 0.0
01/01/19 23:55 18.2 78 14.3 0.0 0.0 0 0.0 0.0 1014.0 0.0 0.0 18.2 0.0
01/01/19 23:56 18.2 78 14.3 0.0 0.0 0 0.0 0.0 1014.0 0.0 0.0 18.2 0.0
01/01/19 23:57 18.2 78 14.3 0.0 0.0 0 0.0 0.0 1014.0 0.0 0.0 18.2 0.0
01/01/19 23:58 18.1 78 14.2 0.0 0.0 0 0.0 0.0 1014.0 0.0 0.0 18.1 0.0
01/01/19 23:59 18.1 78 14.2 0.0 0.0 0 0.0 0.0 1014.0 0.0 0.0 18.1 0.0
 
  Back to Top
Date Time Temperature Humidity Dewpoint Wind Speed High Gust Wind Bearing Rainfall Rate Total Rainfall Pressure Gust Wind Chill Heat Index UV Index
02/01/19 00:02 18.0 78 14.1 0.0 0.0 0 0.0 0.0 1014.0 0.0 0.0 18.0 0.0
02/01/19 00:03 18.0 78 14.1 0.0 0.0 0 0.0 0.0 1014.0 0.0 0.0 18.0 0.0
02/01/19 00:04 18.0 78 14.1 0.0 0.0 0 0.0 0.0 1014.0 0.0 0.0 18.0 0.0
02/01/19 00:05 18.0 78 14.1 0.0 0.0 0 0.0 0.0 1014.0 0.0 0.0 18.0 0.0
02/01/19 00:06 18.0 78 14.1 0.0 0.0 0 0.0 0.0 1014.0 0.0 0.0 18.0 0.0
02/01/19 00:07 18.0 78 14.1 0.0 0.0 0 0.0 0.0 1014.0 0.0 0.0 18.0 0.0
02/01/19 00:08 18.0 79 14.3 0.0 0.0 0 0.0 0.0 1014.0 0.0 0.0 18.0 0.0
02/01/19 00:09 18.0 79 14.3 0.0 0.0 0 0.0 0.0 1014.0 0.0 0.0 18.0 0.0
02/01/19 00:10 18.0 79 14.3 0.0 0.0 0 0.0 0.0 1014.0 0.0 0.0 18.0 0.0
02/01/19 00:11 18.0 79 14.3 0.0 0.0 0 0.0 0.0 1014.0 0.0 0.0 18.0 0.0
02/01/19 00:12 18.0 79 14.3 0.0 0.0 0 0.0 0.0 1014.0 0.0 0.0 18.0 0.0
02/01/19 00:13 18.0 79 14.3 0.0 0.0 0 0.0 0.0 1014.0 0.0 0.0 18.0 0.0
02/01/19 00:14 18.0 79 14.3 0.0 0.0 0 0.0 0.0 1014.0 0.0 0.0 18.0 0.0
02/01/19 00:15 18.0 79 14.3 0.0 0.0 0 0.0 0.0 1014.0 0.0 0.0 18.0 0.0
02/01/19 00:17 17.9 79 14.2 0.0 0.0 0 0.0 0.0 1014.0 0.0 0.0 17.9 0.0
02/01/19 00:18 17.9 79 14.2 0.0 0.0 0 0.0 0.0 1014.0 0.0 0.0 17.9 0.0
02/01/19 00:19 17.9 79 14.2 0.0 0.0 0 0.0 0.0 1014.0 0.0 0.0 17.9 0.0
02/01/19 00:20 17.9 79 14.2 0.0 0.0 0 0.0 0.0 1014.0 0.0 0.0 17.9 0.0
02/01/19 00:21 17.9 80 14.4 0.0 0.0 0 0.0 0.0 1014.0 0.0 0.0 17.9 0.0
02/01/19 00:22 17.9 80 14.4 0.0 0.0 0 0.0 0.0 1014.0 0.0 0.0 17.9 0.0
02/01/19 00:23 17.9 80 14.4 0.0 0.0 0 0.0 0.0 1014.0 0.0 0.0 17.9 0.0
02/01/19 00:24 17.9 80 14.4 0.0 0.0 0 0.0 0.0 1014.0 0.0 0.0 17.9 0.0
02/01/19 00:25 17.9 80 14.4 0.0 0.0 0 0.0 0.0 1014.0 0.0 0.0 17.9 0.0
02/01/19 00:26 17.9 80 14.4 0.0 0.0 0 0.0 0.0 1014.0 0.0 0.0 17.9 0.0
02/01/19 00:27 17.9 80 14.4 0.0 0.0 0 0.0 0.0 1014.0 0.0 0.0 17.9 0.0
02/01/19 00:28 17.9 80 14.4 0.0 0.0 0 0.0 0.0 1014.0 0.0 0.0 17.9 0.0
02/01/19 00:29 17.9 80 14.4 0.0 0.0 0 0.0 0.0 1014.0 0.0 0.0 17.9 0.0
02/01/19 00:30 17.8 80 14.3 0.0 0.0 0 0.0 0.0 1014.0 0.0 0.0 17.8 0.0
02/01/19 00:33 17.8 80 14.3 0.0 0.0 0 0.0 0.0 1014.0 0.0 0.0 17.8 0.0
02/01/19 00:34 17.8 80 14.3 0.0 0.0 0 0.0 0.0 1014.0 0.0 0.0 17.8 0.0
02/01/19 00:35 17.8 80 14.3 0.0 0.0 0 0.0 0.0 1014.0 0.0 0.0 17.8 0.0
02/01/19 00:36 17.8 81 14.5 0.0 0.0 0 0.0 0.0 1014.0 0.0 0.0 17.8 0.0
02/01/19 00:37 17.8 81 14.5 0.0 0.0 0 0.0 0.0 1014.0 0.0 0.0 17.8 0.0
02/01/19 00:38 17.8 80 14.3 0.0 0.0 0 0.0 0.0 1015.0 0.0 0.0 17.8 0.0
02/01/19 00:39 17.7 80 14.2 0.0 0.0 0 0.0 0.0 1015.0 0.0 0.0 17.7 0.0
02/01/19 00:40 17.7 80 14.2 0.0 0.0 0 0.0 0.0 1015.0 0.0 0.0 17.7 0.0
02/01/19 00:41 17.7 80 14.2 0.0 0.0 0 0.0 0.0 1015.0 0.0 0.0 17.7 0.0
02/01/19 00:42 17.7 80 14.2 0.0 0.0 0 0.0 0.0 1015.0 0.0 0.0 17.7 0.0
02/01/19 00:43 17.7 80 14.2 0.0 0.0 0 0.0 0.0 1015.0 0.0 0.0 17.7 0.0
02/01/19 00:44 17.7 80 14.2 0.0 0.0 0 0.0 0.0 1015.0 0.0 0.0 17.7 0.0
02/01/19 00:45 17.6 80 14.1 0.0 0.0 0 0.0 0.0 1015.0 0.0 0.0 17.6 0.0
02/01/19 00:47 17.6 81 14.3 0.0 0.0 0 0.0 0.0 1015.0 0.0 0.0 17.6 0.0
02/01/19 00:48 17.6 81 14.3 0.0 0.0 0 0.0 0.0 1015.0 0.0 0.0 17.6 0.0
02/01/19 00:49 17.6 81 14.3 0.0 0.0 0 0.0 0.0 1015.0 0.0 0.0 17.6 0.0
02/01/19 00:50 17.6 81 14.3 0.0 0.0 0 0.0 0.0 1015.0 0.0 0.0 17.6 0.0
02/01/19 00:51 17.6 81 14.3 0.0 0.0 0 0.0 0.0 1015.0 0.0 0.0 17.6 0.0
02/01/19 00:52 17.6 81 14.3 0.0 0.0 0 0.0 0.0 1015.0 0.0 0.0 17.6 0.0
02/01/19 00:53 17.6 81 14.3 0.0 0.0 0 0.0 0.0 1015.0 0.0 0.0 17.6 0.0
02/01/19 00:54 17.6 81 14.3 0.0 0.0 0 0.0 0.0 1015.0 0.0 0.0 17.6 0.0
02/01/19 00:55 17.6 81 14.3 0.0 0.0 0 0.0 0.0 1015.0 0.0 0.0 17.6 0.0
02/01/19 00:56 17.6 81 14.3 0.0 0.0 0 0.0 0.0 1015.0 0.0 0.0 17.6 0.0
02/01/19 00:57 17.6 81 14.3 0.0 0.0 0 0.0 0.0 1015.0 0.0 0.0 17.6 0.0
02/01/19 00:58 17.6 81 14.3 0.0 0.0 0 0.0 0.0 1015.0 0.0 0.0 17.6 0.0
02/01/19 00:59 17.6 81 14.3 0.0 0.0 0 0.0 0.0 1015.0 0.0 0.0 17.6 0.0
02/01/19 01:00 17.6 81 14.3 0.0 0.0 0 0.0 0.0 1015.0 0.0 0.0 17.6 0.0
02/01/19 01:03 17.6 81 14.3 0.0 0.0 0 0.0 0.0 1015.0 0.0 0.0 17.6 0.0
02/01/19 01:04 17.6 81 14.3 0.0 0.0 0 0.0 0.0 1015.0 0.0 0.0 17.6 0.0
02/01/19 01:05 17.5 81 14.2 0.0 0.0 0 0.0 0.0 1015.0 0.0 0.0 17.5 0.0
02/01/19 01:06 17.5 81 14.2 0.0 0.0 0 0.0 0.0 1015.0 0.0 0.0 17.5 0.0
02/01/19 01:07 17.5 81 14.2 0.0 0.0 0 0.0 0.0 1015.0 0.0 0.0 17.5 0.0
02/01/19 01:08 17.5 81 14.2 0.0 0.0 0 0.0 0.0 1015.0 0.0 0.0 17.5 0.0
02/01/19 01:09 17.5 81 14.2 0.0 0.0 0 0.0 0.0 1015.0 0.0 0.0 17.5 0.0
02/01/19 01:10 17.4 81 14.1 0.0 0.0 0 0.0 0.0 1015.0 0.0 0.0 17.4 0.0
02/01/19 01:11 17.4 81 14.1 0.0 0.0 0 0.0 0.0 1015.0 0.0 0.0 17.4 0.0
02/01/19 01:12 17.4 81 14.1 0.0 0.0 0 0.0 0.0 1015.0 0.0 0.0 17.4 0.0
02/01/19 01:13 17.4 81 14.1 0.0 0.0 0 0.0 0.0 1015.0 0.0 0.0 17.4 0.0
02/01/19 01:14 17.4 82 14.3 0.0 0.0 0 0.0 0.0 1015.0 0.0 0.0 17.4 0.0
02/01/19 01:15 17.3 82 14.2 0.0 0.0 0 0.0 0.0 1015.0 0.0 0.0 17.3 0.0
02/01/19 01:18 17.2 82 14.1 0.0 0.0 0 0.0 0.0 1015.0 0.0 0.0 17.2 0.0
02/01/19 01:19 17.2 82 14.1 0.0 0.0 0 0.0 0.0 1015.0 0.0 0.0 17.2 0.0
02/01/19 01:20 17.2 82 14.1 0.0 0.0 0 0.0 0.0 1015.0 0.0 0.0 17.2 0.0
02/01/19 01:21 17.2 82 14.1 0.0 0.0 0 0.0 0.0 1015.0 0.0 0.0 17.2 0.0
02/01/19 01:22 17.3 83 14.4 0.0 0.0 0 0.0 0.0 1015.0 0.0 0.0 17.3 0.0
02/01/19 01:23 17.3 83 14.4 0.0 0.0 0 0.0 0.0 1015.0 0.0 0.0 17.3 0.0
02/01/19 01:24 17.2 83 14.3 0.0 0.0 0 0.0 0.0 1015.0 0.0 0.0 17.2 0.0
02/01/19 01:25 17.2 83 14.3 0.0 0.0 0 0.0 0.0 1015.0 0.0 0.0 17.2 0.0
02/01/19 01:26 17.2 83 14.3 0.0 0.0 0 0.0 0.0 1015.0 0.0 0.0 17.2 0.0
02/01/19 01:27 17.2 83 14.3 0.0 0.0 0 0.0 0.0 1015.0 0.0 0.0 17.2 0.0
02/01/19 01:28 17.2 83 14.3 0.0 0.0 0 0.0 0.0 1015.0 0.0 0.0 17.2 0.0
02/01/19 01:29 17.1 83 14.2 0.0 0.0 0 0.0 0.0 1015.0 0.0 0.0 17.1 0.0
02/01/19 01:33 16.9 83 14.0 0.0 0.0 0 0.0 0.0 1015.0 0.0 0.0 16.9 0.0
02/01/19 01:34 16.9 83 14.0 0.0 0.0 0 0.0 0.0 1015.0 0.0 0.0 16.9 0.0
02/01/19 01:35 16.9 84 14.2 0.0 0.0 0 0.0 0.0 1015.0 0.0 0.0 16.9 0.0
02/01/19 01:36 16.8 84 14.1 0.0 0.0 0 0.0 0.0 1015.0 0.0 0.0 16.8 0.0
02/01/19 01:37 16.8 84 14.1 0.0 0.0 0 0.0 0.0 1015.0 0.0 0.0 16.8 0.0
02/01/19 01:38 16.8 84 14.1 0.0 0.0 0 0.0 0.0 1014.0 0.0 0.0 16.8 0.0
02/01/19 01:39 16.8 84 14.1 0.0 0.0 0 0.0 0.0 1014.0 0.0 0.0 16.8 0.0
02/01/19 01:40 16.8 84 14.1 0.0 0.0 0 0.0 0.0 1014.0 0.0 0.0 16.8 0.0
02/01/19 01:41 16.8 84 14.1 0.0 0.0 0 0.0 0.0 1014.0 0.0 0.0 16.8 0.0
02/01/19 01:42 16.8 84 14.1 0.0 0.0 0 0.0 0.0 1014.0 0.0 0.0 16.8 0.0
02/01/19 01:43 16.8 84 14.1 0.0 0.0 0 0.0 0.0 1014.0 0.0 0.0 16.8 0.0
02/01/19 01:44 16.8 84 14.1 0.0 0.0 0 0.0 0.0 1014.0 0.0 0.0 16.8 0.0
02/01/19 01:45 16.7 84 14.0 0.0 0.0 0 0.0 0.0 1014.0 0.0 0.0 16.7 0.0
02/01/19 01:48 16.6 85 14.1 0.0 0.0 0 0.0 0.0 1014.0 0.0 0.0 16.6 0.0
02/01/19 01:49 16.6 85 14.1 0.0 0.0 0 0.0 0.0 1014.0 0.0 0.0 16.6 0.0
02/01/19 01:50 16.6 85 14.1 0.0 0.0 0 0.0 0.0 1014.0 0.0 0.0 16.6 0.0
02/01/19 01:51 16.6 85 14.1 0.0 0.0 0 0.0 0.0 1014.0 0.0 0.0 16.6 0.0
02/01/19 01:52 16.6 85 14.1 0.0 0.0 0 0.0 0.0 1014.0 0.0 0.0 16.6 0.0
02/01/19 01:53 16.6 85 14.1 0.0 0.0 0 0.0 0.0 1014.0 0.0 0.0 16.6 0.0
02/01/19 01:54 16.5 85 14.0 0.0 0.0 0 0.0 0.0 1014.0 0.0 0.0 16.5 0.0
02/01/19 01:55 16.5 85 14.0 0.0 0.0 0 0.0 0.0 1014.0 0.0 0.0 16.5 0.0
02/01/19 01:56 16.5 85 14.0 0.0 0.0 0 0.0 0.0 1014.0 0.0 0.0 16.5 0.0
02/01/19 01:57 16.5 85 14.0 0.0 0.0 0 0.0 0.0 1014.0 0.0 0.0 16.5 0.0
02/01/19 01:58 16.5 85 14.0 0.0 0.0 0 0.0 0.0 1014.0 0.0 0.0 16.5 0.0
02/01/19 01:59 16.4 85 13.9 0.0 0.0 0 0.0 0.0 1014.0 0.0 0.0 16.4 0.0
02/01/19 02:00 16.5 85 14.0 0.0 0.0 0 0.0 0.0 1014.0 0.0 0.0 16.5 0.0
02/01/19 02:03 16.5 88 14.5 0.0 0.0 0 0.0 0.0 1014.0 0.0 0.0 16.5 0.0
02/01/19 02:04 16.6 89 14.8 0.0 0.0 0 0.0 0.0 1014.0 0.0 0.0 16.6 0.0
02/01/19 02:05 16.5 90 14.9 0.0 0.0 0 0.0 0.0 1014.0 0.0 0.0 16.5 0.0
02/01/19 02:06 16.4 90 14.8 0.0 0.0 0 0.0 0.0 1014.0 0.0 0.0 16.4 0.0
02/01/19 02:07 16.4 89 14.6 0.0 0.0 0 0.0 0.0 1014.0 0.0 0.0 16.4 0.0
02/01/19 02:08 16.4 89 14.6 0.0 0.0 0 0.0 0.0 1014.0 0.0 0.0 16.4 0.0
02/01/19 02:09 16.4 89 14.6 0.0 0.0 0 0.0 0.0 1014.0 0.0 0.0 16.4 0.0
02/01/19 02:10 16.3 89 14.5 0.0 0.0 0 0.0 0.0 1014.0 0.0 0.0 16.3 0.0
02/01/19 02:11 16.3 88 14.3 0.0 0.0 0 0.0 0.0 1014.0 0.0 0.0 16.3 0.0
02/01/19 02:12 16.2 88 14.2 0.0 0.0 0 0.0 0.0 1014.0 0.0 0.0 16.2 0.0
02/01/19 02:13 16.2 88 14.2 0.0 0.0 0 0.0 0.0 1014.0 0.0 0.0 16.2 0.0
02/01/19 02:14 16.2 88 14.2 0.0 0.0 0 0.0 0.0 1014.0 0.0 0.0 16.2 0.0
02/01/19 02:18 16.1 88 14.1 0.0 0.0 0 0.0 0.0 1014.0 0.0 0.0 16.1 0.0
02/01/19 02:19 16.1 88 14.1 0.0 0.0 0 0.0 0.0 1014.0 0.0 0.0 16.1 0.0
02/01/19 02:20 16.1 88 14.1 0.0 0.0 0 0.0 0.0 1014.0 0.0 0.0 16.1 0.0
02/01/19 02:21 16.1 89 14.3 0.0 0.0 0 0.0 0.0 1014.0 0.0 0.0 16.1 0.0
02/01/19 02:22 16.0 89 14.2 0.0 0.0 0 0.0 0.0 1014.0 0.0 0.0 16.0 0.0
02/01/19 02:23 16.0 89 14.2 0.0 0.0 0 0.0 0.0 1014.0 0.0 0.0 16.0 0.0
02/01/19 02:24 16.0 89 14.2 0.0 0.0 0 0.0 0.0 1014.0 0.0 0.0 16.0 0.0
02/01/19 02:25 16.0 89 14.2 0.0 0.0 0 0.0 0.0 1014.0 0.0 0.0 16.0 0.0
02/01/19 02:26 16.1 89 14.3 0.0 0.0 0 0.0 0.0 1014.0 0.0 0.0 16.1 0.0
02/01/19 02:27 16.0 89 14.2 0.0 0.0 0 0.0 0.0 1014.0 0.0 0.0 16.0 0.0
02/01/19 02:28 16.1 89 14.3 0.0 0.0 0 0.0 0.0 1014.0 0.0 0.0 16.1 0.0
02/01/19 02:29 16.0 89 14.2 0.0 0.0 0 0.0 0.0 1014.0 0.0 0.0 16.0 0.0
02/01/19 02:30 16.0 89 14.2 0.0 0.0 0 0.0 0.0 1014.0 0.0 0.0 16.0 0.0
02/01/19 02:48 16.1 89 14.3 0.0 0.0 0 0.0 0.0 1014.0 0.0 0.0 16.1 0.0
02/01/19 02:49 16.1 89 14.3 0.0 0.0 0 0.0 0.0 1014.0 0.0 0.0 16.1 0.0
02/01/19 02:50 16.1 89 14.3 0.0 0.0 0 0.0 0.0 1014.0 0.0 0.0 16.1 0.0
02/01/19 02:51 16.0 89 14.2 0.0 0.0 0 0.0 0.0 1014.0 0.0 0.0 16.0 0.0
02/01/19 02:52 16.0 89 14.2 0.0 0.0 0 0.0 0.0 1014.0 0.0 0.0 16.0 0.0
02/01/19 02:53 16.1 89 14.3 0.0 0.0 0 0.0 0.0 1014.0 0.0 0.0 16.1 0.0
02/01/19 02:54 16.0 90 14.4 0.0 0.0 0 0.0 0.0 1014.0 0.0 0.0 16.0 0.0
02/01/19 02:55 15.9 90 14.3 0.0 0.0 0 0.0 0.0 1014.0 0.0 0.0 15.9 0.0
02/01/19 02:56 15.9 90 14.3 0.0 0.0 0 0.0 0.0 1014.0 0.0 0.0 15.9 0.0
02/01/19 02:57 15.9 90 14.3 0.0 0.0 0 0.0 0.0 1014.0 0.0 0.0 15.9 0.0
02/01/19 02:58 15.8 90 14.2 0.0 0.0 0 0.0 0.0 1014.0 0.0 0.0 15.8 0.0
02/01/19 02:59 15.8 90 14.2 0.0 0.0 0 0.0 0.0 1014.0 0.0 0.0 15.8 0.0
02/01/19 03:00 15.8 90 14.2 0.0 0.0 0 0.0 0.0 1014.0 0.0 0.0 15.8 0.0
02/01/19 03:03 15.8 90 14.2 0.0 0.0 0 0.0 0.0 1014.0 0.0 0.0 15.8 0.0
02/01/19 03:04 15.7 90 14.1 0.0 0.0 0 0.0 0.0 1014.0 0.0 0.0 15.7 0.0
02/01/19 03:05 15.7 90 14.1 0.0 0.0 0 0.0 0.0 1014.0 0.0 0.0 15.7 0.0
02/01/19 03:06 15.7 90 14.1 0.0 0.0 0 0.0 0.0 1014.0 0.0 0.0 15.7 0.0
02/01/19 03:07 15.7 90 14.1 0.0 0.0 0 0.0 0.0 1014.0 0.0 0.0 15.7 0.0
02/01/19 03:08 15.7 90 14.1 0.0 0.0 0 0.0 0.0 1013.0 0.0 0.0 15.7 0.0
02/01/19 03:09 15.8 90 14.2 0.0 0.0 0 0.0 0.0 1013.0 0.0 0.0 15.8 0.0
02/01/19 03:10 15.8 90 14.2 0.0 0.0 0 0.0 0.0 1013.0 0.0 0.0 15.8 0.0
02/01/19 03:11 15.8 90 14.2 0.0 0.0 0 0.0 0.0 1013.0 0.0 0.0 15.8 0.0
02/01/19 03:12 15.8 90 14.2 0.0 0.0 0 0.0 0.0 1013.0 0.0 0.0 15.8 0.0
02/01/19 03:13 15.8 90 14.2 0.0 0.0 0 0.0 0.0 1013.0 0.0 0.0 15.8 0.0
02/01/19 03:14 15.8 90 14.2 0.0 0.0 0 0.0 0.0 1013.0 0.0 0.0 15.8 0.0
02/01/19 03:15 15.8 90 14.2 0.0 0.0 0 0.0 0.0 1013.0 0.0 0.0 15.8 0.0
02/01/19 03:18 15.7 90 14.1 0.0 0.0 0 0.0 0.0 1013.0 0.0 0.0 15.7 0.0
02/01/19 03:19 15.6 90 14.0 0.0 0.0 0 0.0 0.0 1013.0 0.0 0.0 15.6 0.0
02/01/19 03:20 15.6 90 14.0 0.0 0.0 0 0.0 0.0 1013.0 0.0 0.0 15.6 0.0
02/01/19 03:21 15.6 90 14.0 0.0 0.0 0 0.0 0.0 1013.0 0.0 0.0 15.6 0.0
02/01/19 03:22 15.6 90 14.0 0.0 0.0 0 0.0 0.0 1013.0 0.0 0.0 15.6 0.0
02/01/19 03:23 15.6 90 14.0 0.0 0.0 0 0.0 0.0 1013.0 0.0 0.0 15.6 0.0
02/01/19 03:24 15.6 90 14.0 0.0 0.0 0 0.0 0.0 1013.0 0.0 0.0 15.6 0.0
02/01/19 03:25 15.6 90 14.0 0.0 0.0 0 0.0 0.0 1013.0 0.0 0.0 15.6 0.0
02/01/19 03:26 15.6 90 14.0 0.0 0.0 0 0.0 0.0 1013.0 0.0 0.0 15.6 0.0
02/01/19 03:27 15.6 90 14.0 0.0 0.0 0 0.0 0.0 1013.0 0.0 0.0 15.6 0.0
02/01/19 03:28 15.6 90 14.0 0.0 0.0 0 0.0 0.0 1013.0 0.0 0.0 15.6 0.0
02/01/19 03:29 15.6 90 14.0 0.0 0.0 0 0.0 0.0 1013.0 0.0 0.0 15.6 0.0
02/01/19 03:30 15.6 90 14.0 0.0 0.0 0 0.0 0.0 1013.0 0.0 0.0 15.6 0.0
02/01/19 03:33 15.7 90 14.1 0.0 0.0 0 0.0 0.0 1013.0 0.0 0.0 15.7 0.0
02/01/19 03:34 15.7 90 14.1 0.0 0.0 0 0.0 0.0 1013.0 0.0 0.0 15.7 0.0
02/01/19 03:35 15.6 90 14.0 0.0 0.0 0 0.0 0.0 1013.0 0.0 0.0 15.6 0.0
02/01/19 03:36 15.6 90 14.0 0.0 0.0 0 0.0 0.0 1013.0 0.0 0.0 15.6 0.0
02/01/19 03:37 15.6 90 14.0 0.0 0.0 0 0.0 0.0 1013.0 0.0 0.0 15.6 0.0
02/01/19 03:38 15.6 90 14.0 0.0 0.0 0 0.0 0.0 1014.0 0.0 0.0 15.6 0.0
02/01/19 03:39 15.6 90 14.0 0.0 0.0 0 0.0 0.0 1014.0 0.0 0.0 15.6 0.0
02/01/19 03:40 15.6 90 14.0 0.0 0.0 0 0.0 0.0 1014.0 0.0 0.0 15.6 0.0
02/01/19 03:41 15.6 91 14.1 0.0 0.0 0 0.0 0.0 1014.0 0.0 0.0 15.6 0.0
02/01/19 03:42 15.6 91 14.1 0.0 0.0 0 0.0 0.0 1014.0 0.0 0.0 15.6 0.0
02/01/19 03:43 15.7 91 14.2 0.0 0.0 0 0.0 0.0 1014.0 0.0 0.0 15.7 0.0
02/01/19 03:44 15.7 92 14.4 0.0 0.0 0 0.0 0.0 1014.0 0.0 0.0 15.7 0.0
02/01/19 03:45 15.7 91 14.2 0.0 0.0 0 0.0 0.0 1014.0 0.0 0.0 15.7 0.0
02/01/19 03:48 15.6 91 14.1 0.0 0.0 0 0.0 0.0 1014.0 0.0 0.0 15.6 0.0
02/01/19 03:49 15.6 91 14.1 0.0 0.0 0 0.0 0.0 1014.0 0.0 0.0 15.6 0.0
02/01/19 03:50 15.6 91 14.1 0.0 0.0 0 0.0 0.0 1014.0 0.0 0.0 15.6 0.0
02/01/19 03:51 15.6 91 14.1 0.0 0.0 0 0.0 0.0 1014.0 0.0 0.0 15.6 0.0
02/01/19 03:52 15.6 91 14.1 0.0 0.0 0 0.0 0.0 1014.0 0.0 0.0 15.6 0.0
02/01/19 03:53 15.6 91 14.1 0.0 0.0 0 0.0 0.0 1013.0 0.0 0.0 15.6 0.0
02/01/19 03:54 15.6 92 14.3 0.0 0.0 0 0.0 0.0 1013.0 0.0 0.0 15.6 0.0
02/01/19 03:55 15.6 92 14.3 0.0 0.0 0 0.0 0.0 1013.0 0.0 0.0 15.6 0.0
02/01/19 03:56 15.6 92 14.3 0.0 0.0 0 0.0 0.0 1013.0 0.0 0.0 15.6 0.0
02/01/19 03:57 15.6 91 14.1 0.0 0.0 0 0.0 0.0 1013.0 0.0 0.0 15.6 0.0
02/01/19 03:58 15.6 91 14.1 0.0 0.0 0 0.0 0.0 1013.0 0.0 0.0 15.6 0.0
02/01/19 03:59 15.6 91 14.1 0.0 0.0 0 0.0 0.0 1013.0 0.0 0.0 15.6 0.0
02/01/19 04:00 15.5 91 14.0 0.0 0.0 0 0.0 0.0 1013.0 0.0 0.0 15.5 0.0
02/01/19 04:03 15.4 91 13.9 0.0 0.0 0 0.0 0.0 1013.0 0.0 0.0 15.4 0.0
02/01/19 04:04 15.4 91 13.9 0.0 0.0 0 0.0 0.0 1013.0 0.0 0.0 15.4 0.0
02/01/19 04:05 15.4 91 13.9 0.0 0.0 0 0.0 0.0 1013.0 0.0 0.0 15.4 0.0
02/01/19 04:06 15.4 91 13.9 0.0 0.0 0 0.0 0.0 1013.0 0.0 0.0 15.4 0.0
02/01/19 04:07 15.4 91 13.9 0.0 0.0 0 0.0 0.0 1013.0 0.0 0.0 15.4 0.0
02/01/19 04:08 15.4 91 13.9 0.0 0.0 0 0.0 0.0 1014.0 0.0 0.0 15.4 0.0
02/01/19 04:09 15.4 91 13.9 0.0 0.0 0 0.0 0.0 1014.0 0.0 0.0 15.4 0.0
02/01/19 04:10 15.4 91 13.9 0.0 0.0 0 0.0 0.0 1014.0 0.0 0.0 15.4 0.0
02/01/19 04:11 15.4 91 13.9 0.0 0.0 0 0.0 0.0 1014.0 0.0 0.0 15.4 0.0
02/01/19 04:12 15.4 91 13.9 0.0 0.0 0 0.0 0.0 1014.0 0.0 0.0 15.4 0.0
02/01/19 04:13 15.4 91 13.9 0.0 0.0 0 0.0 0.0 1014.0 0.0 0.0 15.4 0.0
02/01/19 04:14 15.4 91 13.9 0.0 0.0 0 0.0 0.0 1014.0 0.0 0.0 15.4 0.0
02/01/19 04:15 15.4 91 13.9 0.0 0.0 0 0.0 0.0 1014.0 0.0 0.0 15.4 0.0
02/01/19 04:18 15.4 91 13.9 0.0 0.0 0 0.0 0.0 1014.0 0.0 0.0 15.4 0.0
02/01/19 04:19 15.4 91 13.9 0.0 0.0 0 0.0 0.0 1014.0 0.0 0.0 15.4 0.0
02/01/19 04:20 15.4 91 13.9 0.0 0.0 0 0.0 0.0 1014.0 0.0 0.0 15.4 0.0
02/01/19 04:21 15.4 91 13.9 0.0 0.0 0 0.0 0.0 1014.0 0.0 0.0 15.4 0.0
02/01/19 04:22 15.3 91 13.8 0.0 0.0 0 0.0 0.0 1014.0 0.0 0.0 15.3 0.0
02/01/19 04:23 15.3 91 13.8 0.0 0.0 0 0.0 0.0 1014.0 0.0 0.0 15.3 0.0
02/01/19 04:24 15.3 91 13.8 0.0 0.0 0 0.0 0.0 1014.0 0.0 0.0 15.3 0.0
02/01/19 04:25 15.3 91 13.8 0.0 0.0 0 0.0 0.0 1014.0 0.0 0.0 15.3 0.0
02/01/19 04:26 15.3 91 13.8 0.0 0.0 0 0.0 0.0 1014.0 0.0 0.0 15.3 0.0
02/01/19 04:27 15.2 91 13.7 0.0 0.0 0 0.0 0.0 1014.0 0.0 0.0 15.2 0.0
02/01/19 04:28 15.2 91 13.7 0.0 0.0 0 0.0 0.0 1014.0 0.0 0.0 15.2 0.0
02/01/19 04:29 15.2 91 13.7 0.0 0.0 0 0.0 0.0 1014.0 0.0 0.0 15.2 0.0
02/01/19 04:30 15.1 91 13.6 0.0 0.0 0 0.0 0.0 1014.0 0.0 0.0 15.1 0.0
02/01/19 04:33 15.1 91 13.6 0.0 0.0 0 0.0 0.0 1014.0 0.0 0.0 15.1 0.0
02/01/19 04:34 15.0 91 13.5 0.0 0.0 0 0.0 0.0 1014.0 0.0 0.0 15.0 0.0
02/01/19 04:35 15.0 92 13.7 0.0 0.0 0 0.0 0.0 1014.0 0.0 0.0 15.0 0.0
02/01/19 04:36 14.9 92 13.6 0.0 0.0 0 0.0 0.0 1014.0 0.0 0.0 14.9 0.0
02/01/19 04:37 14.9 92 13.6 0.0 0.0 0 0.0 0.0 1014.0 0.0 0.0 14.9 0.0
02/01/19 04:38 14.9 92 13.6 0.0 0.0 0 0.0 0.0 1014.0 0.0 0.0 14.9 0.0
02/01/19 04:39 14.9 92 13.6 0.0 0.0 0 0.0 0.0 1014.0 0.0 0.0 14.9 0.0
02/01/19 04:40 14.9 92 13.6 0.0 0.0 0 0.0 0.0 1014.0 0.0 0.0 14.9 0.0
02/01/19 04:41 14.9 92 13.6 0.0 0.0 0 0.0 0.0 1014.0 0.0 0.0 14.9 0.0
02/01/19 04:42 14.9 92 13.6 0.0 0.0 0 0.0 0.0 1014.0 0.0 0.0 14.9 0.0
02/01/19 04:43 14.8 92 13.5 0.0 0.0 0 0.0 0.0 1014.0 0.0 0.0 14.8 0.0
02/01/19 04:44 14.8 92 13.5 0.0 0.0 0 0.0 0.0 1014.0 0.0 0.0 14.8 0.0
02/01/19 04:45 14.8 92 13.5 0.0 0.0 0 0.0 0.0 1014.0 0.0 0.0 14.8 0.0
02/01/19 04:48 14.8 93 13.7 0.0 0.0 0 0.0 0.0 1014.0 0.0 0.0 14.8 0.0
02/01/19 04:49 14.8 93 13.7 0.0 0.0 0 0.0 0.0 1014.0 0.0 0.0 14.8 0.0
02/01/19 04:50 14.7 93 13.6 0.0 0.0 0 0.0 0.0 1014.0 0.0 0.0 14.7 0.0
02/01/19 04:51 14.7 93 13.6 0.0 0.0 0 0.0 0.0 1014.0 0.0 0.0 14.7 0.0
02/01/19 04:52 14.7 93 13.6 0.0 0.0 0 0.0 0.0 1014.0 0.0 0.0 14.7 0.0
02/01/19 04:53 14.7 93 13.6 0.0 0.0 0 0.0 0.0 1014.0 0.0 0.0 14.7 0.0
02/01/19 04:54 14.7 93 13.6 0.0 0.0 0 0.0 0.0 1014.0 0.0 0.0 14.7 0.0
02/01/19 04:55 14.7 93 13.6 0.0 0.0 0 0.0 0.0 1014.0 0.0 0.0 14.7 0.0
02/01/19 04:56 14.7 93 13.6 0.0 0.0 0 0.0 0.0 1014.0 0.0 0.0 14.7 0.0
02/01/19 04:57 14.7 93 13.6 0.0 0.0 0 0.0 0.0 1014.0 0.0 0.0 14.7 0.0
02/01/19 04:58 14.7 93 13.6 0.0 0.0 0 0.0 0.0 1014.0 0.0 0.0 14.7 0.0
02/01/19 04:59 14.7 93 13.6 0.0 0.0 0 0.0 0.0 1014.0 0.0 0.0 14.7 0.0
02/01/19 05:00 14.7 93 13.6 0.0 0.0 0 0.0 0.0 1014.0 0.0 0.0 14.7 0.0
02/01/19 05:03 14.6 93 13.5 0.0 0.0 0 0.0 0.0 1014.0 0.0 0.0 14.6 0.0
02/01/19 05:04 14.5 93 13.4 0.0 0.0 0 0.0 0.0 1014.0 0.0 0.0 14.5 0.0
02/01/19 05:05 14.5 93 13.4 0.0 0.0 0 0.0 0.0 1014.0 0.0 0.0 14.5 0.0
02/01/19 05:06 14.5 94 13.5 0.0 0.0 0 0.0 0.0 1014.0 0.0 0.0 14.5 0.0
02/01/19 05:07 14.5 94 13.5 0.0 0.0 0 0.0 0.0 1014.0 0.0 0.0 14.5 0.0
02/01/19 05:08 14.5 94 13.5 0.0 0.0 0 0.0 0.0 1014.0 0.0 0.0 14.5 0.0
02/01/19 05:09 14.4 94 13.4 0.0 0.0 0 0.0 0.0 1014.0 0.0 0.0 14.4 0.0
02/01/19 05:10 14.4 94 13.4 0.0 0.0 0 0.0 0.0 1014.0 0.0 0.0 14.4 0.0
02/01/19 05:11 14.4 94 13.4 0.0 0.0 0 0.0 0.0 1014.0 0.0 0.0 14.4 0.0
02/01/19 05:12 14.4 94 13.4 0.0 0.0 0 0.0 0.0 1014.0 0.0 0.0 14.4 0.0
02/01/19 05:13 14.4 94 13.4 0.0 0.0 0 0.0 0.0 1014.0 0.0 0.0 14.4 0.0
02/01/19 05:14 14.4 94 13.4 0.0 0.0 0 0.0 0.0 1014.0 0.0 0.0 14.4 0.0
02/01/19 05:15 14.4 94 13.4 0.0 0.0 0 0.0 0.0 1014.0 0.0 0.0 14.4 0.0
02/01/19 05:18 14.3 94 13.3 0.0 0.0 0 0.0 0.0 1014.0 0.0 0.0 14.3 0.0
02/01/19 05:19 14.3 94 13.3 0.0 0.0 0 0.0 0.0 1014.0 0.0 0.0 14.3 0.0
02/01/19 05:20 14.3 94 13.3 0.0 0.0 0 0.0 0.0 1014.0 0.0 0.0 14.3 0.0
02/01/19 05:21 14.3 94 13.3 0.0 0.0 0 0.0 0.0 1014.0 0.0 0.0 14.3 0.0
02/01/19 05:22 14.3 94 13.3 0.0 0.0 0 0.0 0.0 1014.0 0.0 0.0 14.3 0.0
02/01/19 05:23 14.3 94 13.3 0.0 0.0 0 0.0 0.0 1014.0 0.0 0.0 14.3 0.0
02/01/19 05:24 14.3 94 13.3 0.0 0.0 0 0.0 0.0 1014.0 0.0 0.0 14.3 0.0
02/01/19 05:25 14.3 94 13.3 0.0 0.0 0 0.0 0.0 1014.0 0.0 0.0 14.3 0.0
02/01/19 05:26 14.3 94 13.3 0.0 0.0 0 0.0 0.0 1014.0 0.0 0.0 14.3 0.0
02/01/19 05:27 14.3 94 13.3 0.0 0.0 0 0.0 0.0 1014.0 0.0 0.0 14.3 0.0
02/01/19 05:28 14.3 94 13.3 0.0 0.0 0 0.0 0.0 1014.0 0.0 0.0 14.3 0.0
02/01/19 05:29 14.3 94 13.3 0.0 0.0 0 0.0 0.0 1014.0 0.0 0.0 14.3 0.0
02/01/19 05:30 14.3 94 13.3 0.0 0.0 0 0.0 0.0 1014.0 0.0 0.0 14.3 0.0
02/01/19 05:33 14.2 94 13.2 0.0 0.0 0 0.0 0.0 1014.0 0.0 0.0 14.2 0.0
02/01/19 05:34 14.2 94 13.2 0.0 0.0 0 0.0 0.0 1014.0 0.0 0.0 14.2 0.0
02/01/19 05:35 14.2 94 13.2 0.0 0.0 0 0.0 0.0 1014.0 0.0 0.0 14.2 0.0
02/01/19 05:36 14.2 94 13.2 0.0 0.0 0 0.0 0.0 1014.0 0.0 0.0 14.2 0.0
02/01/19 05:37 14.2 94 13.2 0.0 0.0 0 0.0 0.0 1014.0 0.0 0.0 14.2 0.0
02/01/19 05:38 14.2 94 13.2 0.0 0.0 0 0.0 0.0 1015.0 0.0 0.0 14.2 0.0
02/01/19 05:39 14.1 94 13.1 0.0 0.0 0 0.0 0.0 1015.0 0.0 0.0 14.1 0.0
02/01/19 05:40 14.1 94 13.1 0.0 0.0 0 0.0 0.0 1015.0 0.0 0.0 14.1 0.0
02/01/19 05:48 14.0 95 13.2 0.0 0.0 0 0.0 0.0 1015.0 0.0 0.0 14.0 0.0
02/01/19 05:49 14.1 95 13.3 0.0 0.0 0 0.0 0.0 1015.0 0.0 0.0 14.1 0.0
02/01/19 05:50 14.1 95 13.3 0.0 0.0 0 0.0 0.0 1015.0 0.0 0.0 14.1 0.0
02/01/19 05:51 14.1 95 13.3 0.0 0.0 0 0.0 0.0 1015.0 0.0 0.0 14.1 0.0
02/01/19 05:52 14.1 95 13.3 0.0 0.0 0 0.0 0.0 1015.0 0.0 0.0 14.1 0.0
02/01/19 05:53 14.1 95 13.3 0.0 0.0 0 0.0 0.0 1015.0 0.0 0.0 14.1 0.0
02/01/19 05:54 14.1 95 13.3 0.0 0.0 0 0.0 0.0 1015.0 0.0 0.0 14.1 0.0
02/01/19 05:55 14.1 95 13.3 0.0 0.0 0 0.0 0.0 1015.0 0.0 0.0 14.1 0.0
02/01/19 05:56 14.1 95 13.3 0.0 0.0 0 0.0 0.0 1015.0 0.0 0.0 14.1 0.0
02/01/19 05:57 14.2 95 13.4 0.0 0.0 0 0.0 0.0 1015.0 0.0 0.0 14.2 0.0
02/01/19 05:58 14.2 95 13.4 0.0 0.0 0 0.0 0.0 1015.0 0.0 0.0 14.2 0.0
02/01/19 05:59 14.2 95 13.4 0.0 0.0 0 0.0 0.0 1015.0 0.0 0.0 14.2 0.0
02/01/19 06:00 14.2 95 13.4 0.0 0.0 0 0.0 0.0 1015.0 0.0 0.0 14.2 0.0
02/01/19 06:03 14.2 95 13.4 0.0 0.0 0 0.0 0.0 1015.0 0.0 0.0 14.2 0.0
02/01/19 06:04 14.2 95 13.4 0.0 0.0 0 0.0 0.0 1015.0 0.0 0.0 14.2 0.0
02/01/19 06:05 14.3 95 13.5 0.0 0.0 0 0.0 0.0 1015.0 0.0 0.0 14.3 0.0
02/01/19 06:06 14.3 96 13.7 0.0 0.0 0 0.0 0.0 1015.0 0.0 0.0 14.3 0.0
02/01/19 06:07 14.3 96 13.7 0.0 0.0 0 0.0 0.0 1015.0 0.0 0.0 14.3 0.0
02/01/19 06:08 14.3 96 13.7 0.0 0.0 0 0.0 0.0 1015.0 0.0 0.0 14.3 0.0
02/01/19 06:09 14.3 96 13.7 0.0 0.0 0 0.0 0.0 1015.0 0.0 0.0 14.3 0.0
02/01/19 06:10 14.3 96 13.7 0.0 0.0 0 0.0 0.0 1015.0 0.0 0.0 14.3 0.0
02/01/19 06:11 14.3 96 13.7 0.0 0.0 0 0.0 0.0 1015.0 0.0 0.0 14.3 0.0
02/01/19 06:12 14.4 96 13.8 0.0 0.0 0 0.0 0.0 1015.0 0.0 0.0 14.4 0.0
02/01/19 06:13 14.4 96 13.8 0.0 0.0 0 0.0 0.0 1015.0 0.0 0.0 14.4 0.0
02/01/19 06:18 14.5 96 13.9 0.0 0.0 0 0.0 0.0 1015.0 0.0 0.0 14.5 0.0
02/01/19 06:19 14.5 96 13.9 0.0 0.0 0 0.0 0.0 1015.0 0.0 0.0 14.5 0.0
02/01/19 06:20 14.5 96 13.9 0.0 0.0 0 0.0 0.0 1015.0 0.0 0.0 14.5 0.0
02/01/19 06:21 14.5 96 13.9 0.0 0.0 0 0.0 0.0 1015.0 0.0 0.0 14.5 0.0
02/01/19 06:22 14.5 96 13.9 0.0 0.0 0 0.0 0.0 1015.0 0.0 0.0 14.5 0.0
02/01/19 06:23 14.6 96 14.0 0.0 0.0 0 0.0 0.0 1015.0 0.0 0.0 14.6 0.0
02/01/19 06:24 14.6 96 14.0 0.0 0.0 0 0.0 0.0 1015.0 0.0 0.0 14.6 0.0
02/01/19 06:25 14.6 96 14.0 0.0 0.0 0 0.0 0.0 1015.0 0.0 0.0 14.6 0.0
02/01/19 06:26 14.6 96 14.0 0.0 0.0 0 0.0 0.0 1015.0 0.0 0.0 14.6 0.0
02/01/19 06:27 14.6 96 14.0 0.0 0.0 0 0.0 0.0 1015.0 0.0 0.0 14.6 0.0
02/01/19 06:28 14.6 96 14.0 0.0 0.0 0 0.0 0.0 1015.0 0.0 0.0 14.6 0.0
02/01/19 06:29 14.7 96 14.1 0.0 0.0 0 0.0 0.0 1015.0 0.0 0.0 14.7 0.0
02/01/19 06:30 14.7 96 14.1 0.0 0.0 0 0.0 0.0 1015.0 0.0 0.0 14.7 0.0
02/01/19 06:33 14.7 96 14.1 0.0 0.0 0 0.0 0.0 1015.0 0.0 0.0 14.7 0.0
02/01/19 06:34 14.7 96 14.1 0.0 0.0 0 0.0 0.0 1015.0 0.0 0.0 14.7 0.0
02/01/19 06:35 14.7 96 14.1 0.0 0.0 0 0.0 0.0 1015.0 0.0 0.0 14.7 0.0
02/01/19 06:36 14.7 96 14.1 0.0 0.0 0 0.0 0.0 1015.0 0.0 0.0 14.7 0.0
02/01/19 06:37 14.7 96 14.1 0.0 0.0 0 0.0 0.0 1015.0 0.0 0.0 14.7 0.0
02/01/19 06:38 14.7 96 14.1 0.0 0.0 0 0.0 0.0 1015.0 0.0 0.0 14.7 0.0
02/01/19 06:39 14.7 96 14.1 0.0 0.0 0 0.0 0.0 1015.0 0.0 0.0 14.7 0.0
02/01/19 06:40 14.7 96 14.1 0.0 0.0 0 0.0 0.0 1015.0 0.0 0.0 14.7 0.0
02/01/19 06:41 14.7 96 14.1 0.0 0.0 0 0.0 0.0 1015.0 0.0 0.0 14.7 0.0
02/01/19 06:42 14.7 96 14.1 0.0 0.0 0 0.0 0.0 1015.0 0.0 0.0 14.7 0.0
02/01/19 06:43 14.8 96 14.2 0.0 0.0 0 0.0 0.0 1015.0 0.0 0.0 14.8 0.0
02/01/19 06:44 14.8 96 14.2 0.0 0.0 0 0.0 0.0 1015.0 0.0 0.0 14.8 0.0
02/01/19 06:48 14.9 96 14.3 0.0 0.0 0 0.0 0.0 1015.0 0.0 0.0 14.9 0.0
02/01/19 06:49 14.9 96 14.3 0.0 0.0 0 0.0 0.0 1015.0 0.0 0.0 14.9 0.0
02/01/19 06:50 15.0 96 14.4 0.0 0.0 0 0.0 0.0 1015.0 0.0 0.0 15.0 0.0
02/01/19 06:51 15.0 96 14.4 0.0 0.0 0 0.0 0.0 1015.0 0.0 0.0 15.0 0.0
02/01/19 06:52 15.0 96 14.4 0.0 0.0 0 0.0 0.0 1015.0 0.0 0.0 15.0 0.0
02/01/19 06:53 15.0 95 14.2 0.0 0.0 0 0.0 0.0 1015.0 0.0 0.0 15.0 0.0
02/01/19 06:54 15.0 95 14.2 0.0 0.0 0 0.0 0.0 1015.0 0.0 0.0 15.0 0.0
02/01/19 07:03 15.8 96 15.2 0.0 0.0 0 0.0 0.0 1015.0 0.0 0.0 15.8 0.0
02/01/19 07:04 15.8 95 15.0 0.0 0.0 0 0.0 0.0 1015.0 0.0 0.0 15.8 0.0
02/01/19 07:05 15.8 95 15.0 0.0 0.0 0 0.0 0.0 1015.0 0.0 0.0 15.8 0.0
02/01/19 07:06 15.9 95 15.1 0.0 0.0 0 0.0 0.0 1015.0 0.0 0.0 15.9 0.0
02/01/19 07:07 15.9 95 15.1 0.0 0.0 0 0.0 0.0 1015.0 0.0 0.0 15.9 0.0
02/01/19 07:08 15.9 95 15.1 0.0 0.0 0 0.0 0.0 1014.0 0.0 0.0 15.9 0.0
02/01/19 07:09 16.0 94 15.0 0.0 0.0 0 0.0 0.0 1014.0 0.0 0.0 16.0 0.0
02/01/19 07:10 16.0 94 15.0 0.0 0.0 0 0.0 0.0 1014.0 0.0 0.0 16.0 0.0
02/01/19 07:11 16.1 94 15.1 0.0 0.0 0 0.0 0.0 1014.0 0.0 0.0 16.1 0.0
02/01/19 07:12 16.1 94 15.1 0.0 0.0 0 0.0 0.0 1014.0 0.0 0.0 16.1 0.0
02/01/19 07:13 16.1 94 15.1 0.0 0.0 0 0.0 0.0 1014.0 0.0 0.0 16.1 0.0
02/01/19 07:14 16.2 93 15.1 0.0 0.0 0 0.0 0.0 1014.0 0.0 0.0 16.2 0.0
02/01/19 07:15 16.3 93 15.2 0.0 0.0 0 0.0 0.0 1014.0 0.0 0.0 16.3 0.0
02/01/19 07:18 16.6 93 15.5 0.0 0.0 0 0.0 0.0 1014.0 0.0 0.0 16.6 0.0
02/01/19 07:19 16.8 93 15.7 0.0 0.0 0 0.0 0.0 1014.0 0.0 0.0 16.8 0.0
02/01/19 07:20 16.9 93 15.8 0.0 0.0 0 0.0 0.0 1014.0 0.0 0.0 16.9 0.0
02/01/19 07:33 20.8 82 17.6 0.0 0.0 0 0.0 0.0 1015.0 0.0 0.0 20.8 0.0
02/01/19 07:48 22.5 74 17.6 0.0 0.0 0 0.0 0.0 1015.0 0.0 0.0 22.5 0.0
02/01/19 07:49 22.5 73 17.4 0.0 0.0 0 0.0 0.0 1015.0 0.0 0.0 22.5 0.0
02/01/19 07:50 22.5 72 17.2 0.0 0.0 0 0.0 0.0 1015.0 0.0 0.0 22.5 0.0
02/01/19 07:51 22.5 71 17.0 0.0 0.0 0 0.0 0.0 1015.0 0.0 0.0 22.5 0.0
02/01/19 07:52 22.7 70 16.9 0.0 0.0 0 0.0 0.0 1015.0 0.0 0.0 22.7 0.0
02/01/19 07:53 22.7 69 16.7 0.0 0.0 0 0.0 0.0 1015.0 0.0 0.0 22.7 0.0
02/01/19 07:54 22.8 69 16.8 0.0 0.0 0 0.0 0.0 1015.0 0.0 0.0 22.8 0.0
02/01/19 07:55 22.9 69 16.9 0.0 0.0 0 0.0 0.0 1015.0 0.0 0.0 22.9 0.0
02/01/19 07:56 22.9 67 16.4 0.0 0.0 0 0.0 0.0 1015.0 0.0 0.0 22.9 0.0
02/01/19 07:57 22.9 68 16.7 0.0 0.0 0 0.0 0.0 1015.0 0.0 0.0 22.9 0.0
02/01/19 07:58 23.0 67 16.5 0.0 0.0 0 0.0 0.0 1015.0 0.0 0.0 23.0 0.0
02/01/19 07:59 23.2 67 16.7 0.0 0.0 0 0.0 0.0 1015.0 0.0 0.0 23.2 0.0
02/01/19 08:00 23.2 67 16.7 0.0 0.0 0 0.0 0.0 1015.0 0.0 0.0 23.2 0.0
02/01/19 08:03 23.6 66 16.9 0.0 0.0 0 0.0 0.0 1015.0 0.0 0.0 23.6 0.0
02/01/19 08:04 23.6 63 16.1 0.0 0.0 0 0.0 0.0 1015.0 0.0 0.0 23.6 0.0
02/01/19 08:05 23.6 64 16.4 0.0 0.0 0 0.0 0.0 1015.0 0.0 0.0 23.6 0.0
02/01/19 08:06 23.5 63 16.0 0.0 0.0 0 0.0 0.0 1015.0 0.0 0.0 23.5 0.0
02/01/19 08:07 23.5 63 16.0 0.0 0.0 0 0.0 0.0 1015.0 0.0 0.0 23.5 0.0
02/01/19 08:08 23.5 63 16.0 0.0 0.0 0 0.0 0.0 1015.0 0.0 0.0 23.5 0.0
02/01/19 08:09 23.6 61 15.6 0.0 0.0 0 0.0 0.0 1015.0 0.0 0.0 23.6 0.0
02/01/19 08:10 23.6 61 15.6 0.0 0.0 0 0.0 0.0 1015.0 0.0 0.0 23.6 0.0
02/01/19 08:11 24.0 62 16.3 0.0 0.0 0 0.0 0.0 1015.0 0.0 0.0 24.0 0.0
02/01/19 08:12 24.1 61 16.1 0.0 0.0 0 0.0 0.0 1015.0 0.0 0.0 24.1 0.0
02/01/19 08:13 24.3 61 16.3 0.0 0.0 0 0.0 0.0 1015.0 0.0 0.0 24.3 0.0
02/01/19 08:14 24.6 61 16.6 0.0 0.0 0 0.0 0.0 1015.0 0.0 0.0 24.6 0.0
02/01/19 08:18 24.8 55 15.1 0.0 0.0 0 0.0 0.0 1015.0 0.0 0.0 24.8 0.0
02/01/19 08:19 24.6 55 15.0 0.0 0.0 0 0.0 0.0 1015.0 0.0 0.0 24.6 0.0
02/01/19 08:20 24.6 56 15.2 0.0 0.0 0 0.0 0.0 1015.0 0.0 0.0 24.6 0.0
02/01/19 08:21 24.7 57 15.6 0.0 0.0 0 0.0 0.0 1015.0 0.0 0.0 24.7 0.0
02/01/19 08:22 25.1 57 16.0 0.0 0.0 0 0.0 0.0 1015.0 0.0 0.0 25.1 0.0
02/01/19 08:23 25.4 57 16.3 0.0 0.0 0 0.0 0.0 1015.0 0.0 0.0 25.4 0.0
02/01/19 08:24 25.6 57 16.4 0.0 0.0 0 0.0 0.0 1015.0 0.0 0.0 25.6 0.0
02/01/19 08:25 25.8 57 16.6 0.0 0.0 0 0.0 0.0 1015.0 0.0 0.0 25.8 0.0
02/01/19 08:26 26.0 55 16.3 0.0 0.0 0 0.0 0.0 1015.0 0.0 0.0 26.0 0.0
02/01/19 08:27 26.2 55 16.4 0.0 0.0 0 0.0 0.0 1015.0 0.0 0.0 26.2 0.0
02/01/19 08:28 26.2 54 16.2 0.0 0.0 0 0.0 0.0 1015.0 0.0 0.0 26.2 0.0
02/01/19 08:29 26.4 52 15.8 0.0 0.0 0 0.0 0.0 1015.0 0.0 0.0 26.4 0.0
02/01/19 08:30 26.3 52 15.7 0.0 0.0 0 0.0 0.0 1015.0 0.0 0.0 26.3 0.0
02/01/19 08:33 26.4 51 15.4 0.0 0.0 0 0.0 0.0 1015.0 0.0 0.0 26.4 0.0
02/01/19 08:34 26.6 52 15.9 0.0 0.0 0 0.0 0.0 1015.0 0.0 0.0 26.6 0.0
02/01/19 08:35 26.6 52 15.9 0.0 0.0 0 0.0 0.0 1015.0 0.0 0.0 26.6 0.0
02/01/19 08:36 26.8 51 15.8 0.0 0.0 0 0.0 0.0 1015.0 0.0 0.0 27.3 0.0
02/01/19 08:37 26.9 49 15.3 0.0 0.0 0 0.0 0.0 1015.0 0.0 0.0 27.3 0.0
02/01/19 08:38 26.9 49 15.3 0.0 0.0 0 0.0 0.0 1015.0 0.0 0.0 27.3 0.0
02/01/19 08:39 27.0 48 15.1 0.0 0.0 0 0.0 0.0 1015.0 0.0 0.0 27.3 0.0
02/01/19 08:40 27.1 50 15.8 0.0 0.0 0 0.0 0.0 1015.0 0.0 0.0 27.5 0.0
02/01/19 08:41 27.1 49 15.5 0.0 0.0 0 0.0 0.0 1015.0 0.0 0.0 27.4 0.0
02/01/19 08:42 27.3 49 15.6 0.0 0.0 0 0.0 0.0 1015.0 0.0 0.0 27.6 0.0
02/01/19 08:43 27.3 49 15.6 0.0 0.0 0 0.0 0.0 1015.0 0.0 0.0 27.6 0.0
02/01/19 08:44 27.5 49 15.8 0.0 0.0 0 0.0 0.0 1015.0 0.0 0.0 27.8 0.0
02/01/19 08:45 27.5 47 15.2 0.0 0.0 0 0.0 0.0 1015.0 0.0 0.0 27.7 0.0
02/01/19 08:48 27.6 46 14.9 0.0 0.0 0 0.0 0.0 1015.0 0.0 0.0 27.7 0.0
02/01/19 08:49 27.6 47 15.3 0.0 0.0 0 0.0 0.0 1015.0 0.0 0.0 27.8 0.0
02/01/19 08:50 27.6 47 15.3 0.0 0.0 0 0.0 0.0 1015.0 0.0 0.0 27.8 0.0
02/01/19 08:51 27.6 47 15.3 0.0 0.0 0 0.0 0.0 1015.0 0.0 0.0 27.8 0.0
02/01/19 08:52 27.6 47 15.3 0.0 0.0 0 0.0 0.0 1015.0 0.0 0.0 27.8 0.0
02/01/19 08:53 27.6 46 14.9 0.0 0.0 0 0.0 0.0 1015.0 0.0 0.0 27.7 0.0
02/01/19 08:54 27.7 46 15.0 0.0 0.0 0 0.0 0.0 1015.0 0.0 0.0 27.8 0.0
02/01/19 08:55 27.8 46 15.1 0.0 0.0 0 0.0 0.0 1015.0 0.0 0.0 27.9 0.0
02/01/19 08:56 27.8 46 15.1 0.0 0.0 0 0.0 0.0 1015.0 0.0 0.0 27.9 0.0
02/01/19 08:57 27.8 45 14.8 0.0 0.0 0 0.0 0.0 1015.0 0.0 0.0 27.8 0.0
02/01/19 08:58 27.9 46 15.2 0.0 0.0 0 0.0 0.0 1015.0 0.0 0.0 28.0 0.0
02/01/19 08:59 27.6 44 14.2 0.0 0.0 0 0.0 0.0 1015.0 0.0 0.0 27.6 0.0
02/01/19 09:03 27.5 45 14.5 0.0 0.0 0 0.0 0.0 1015.0 0.0 0.0 27.6 0.0
02/01/19 09:04 27.5 45 14.5 0.0 0.0 0 0.0 0.0 1015.0 0.0 0.0 27.6 0.0
02/01/19 09:05 27.6 45 14.6 0.0 0.0 0 0.0 0.0 1015.0 0.0 0.0 27.6 0.0
02/01/19 09:06 27.6 44 14.2 0.0 0.0 0 0.0 0.0 1015.0 0.0 0.0 27.6 0.0
02/01/19 09:07 27.7 45 14.7 0.0 0.0 0 0.0 0.0 1015.0 0.0 0.0 27.7 0.0
02/01/19 09:08 27.7 44 14.3 0.0 0.0 0 0.0 0.0 1015.0 0.0 0.0 27.7 0.0
02/01/19 09:09 27.8 45 14.8 0.0 0.0 0 0.0 0.0 1015.0 0.0 0.0 27.8 0.0
02/01/19 09:10 27.9 45 14.9 0.0 0.0 0 0.0 0.0 1015.0 0.0 0.0 27.9 0.0
02/01/19 09:11 28.0 44 14.6 0.0 0.0 0 0.0 0.0 1015.0 0.0 0.0 28.0 0.0
02/01/19 09:12 28.0 44 14.6 0.0 0.0 0 0.0 0.0 1015.0 0.0 0.0 28.0 0.0
02/01/19 09:13 28.1 44 14.7 0.0 0.0 0 0.0 0.0 1015.0 0.0 0.0 28.0 0.0
02/01/19 09:14 28.3 44 14.9 0.0 0.0 0 0.0 0.0 1015.0 0.0 0.0 28.2 0.0
02/01/19 09:15 28.7 44 15.2 0.0 0.0 0 0.0 0.0 1015.0 0.0 0.0 28.7 0.0
02/01/19 09:18 29.1 43 15.2 0.0 0.0 0 0.0 0.0 1015.0 0.0 0.0 29.0 0.0
02/01/19 09:19 29.1 43 15.2 0.0 0.0 0 0.0 0.0 1015.0 0.0 0.0 29.0 0.0
02/01/19 09:20 29.1 43 15.2 0.0 0.0 0 0.0 0.0 1015.0 0.0 0.0 29.0 0.0
02/01/19 09:21 29.2 43 15.3 0.0 0.0 0 0.0 0.0 1015.0 0.0 0.0 29.1 0.0
02/01/19 09:22 29.3 43 15.4 0.0 0.0 0 0.0 0.0 1015.0 0.0 0.0 29.2 0.0
02/01/19 09:23 29.4 43 15.5 0.0 0.0 0 0.0 0.0 1015.0 0.0 0.0 29.3 0.0
02/01/19 09:24 29.5 43 15.6 0.0 0.0 0 0.0 0.0 1015.0 0.0 0.0 29.5 0.0
02/01/19 09:25 29.7 43 15.8 0.0 0.0 0 0.0 0.0 1015.0 0.0 0.0 29.7 0.0
02/01/19 09:26 29.9 43 16.0 0.0 0.0 0 0.0 0.0 1015.0 0.0 0.0 29.9 0.0
02/01/19 09:27 30.0 42 15.7 0.0 0.0 0 0.0 0.0 1015.0 0.0 0.0 29.9 0.0
02/01/19 09:28 30.0 42 15.7 0.0 0.0 0 0.0 0.0 1015.0 0.0 0.0 29.9 0.0
02/01/19 09:29 30.2 43 16.2 0.0 0.0 0 0.0 0.0 1015.0 0.0 0.0 30.3 0.0
02/01/19 09:30 29.9 42 15.6 0.0 0.0 0 0.0 0.0 1015.0 0.0 0.0 29.8 0.0
02/01/19 09:33 30.0 41 15.3 0.0 0.0 0 0.0 0.0 1015.0 0.0 0.0 29.8 0.0
02/01/19 09:34 30.1 41 15.4 0.0 0.0 0 0.0 0.0 1015.0 0.0 0.0 29.9 0.0
02/01/19 09:35 30.1 41 15.4 0.0 0.0 0 0.0 0.0 1015.0 0.0 0.0 29.9 0.0
02/01/19 09:36 30.2 41 15.5 0.0 0.0 0 0.0 0.0 1015.0 0.0 0.0 30.0 0.0
02/01/19 09:37 30.2 41 15.5 0.0 0.0 0 0.0 0.0 1015.0 0.0 0.0 30.0 0.0
02/01/19 09:38 30.0 41 15.3 0.0 0.0 0 0.0 0.0 1015.0 0.0 0.0 29.8 0.0
02/01/19 09:39 30.3 40 15.2 0.0 0.0 0 0.0 0.0 1015.0 0.0 0.0 30.0 0.0
02/01/19 09:40 30.5 41 15.8 0.0 0.0 0 0.0 0.0 1015.0 0.0 0.0 30.4 0.0
02/01/19 09:41 30.6 41 15.8 0.0 0.0 0 0.0 0.0 1015.0 0.0 0.0 30.5 0.0
02/01/19 09:42 30.8 41 16.0 0.0 0.0 0 0.0 0.0 1015.0 0.0 0.0 30.8 0.0
02/01/19 09:43 30.9 40 15.7 0.0 0.0 0 0.0 0.0 1015.0 0.0 0.0 30.8 0.0
02/01/19 09:44 31.0 40 15.8 0.0 0.0 0 0.0 0.0 1015.0 0.0 0.0 30.9 0.0
02/01/19 09:45 31.2 40 16.0 0.0 0.0 0 0.0 0.0 1015.0 0.0 0.0 31.2 0.0
02/01/19 09:47 31.3 39 15.7 0.0 0.0 0 0.0 0.0 1015.0 0.0 0.0 31.2 0.0
02/01/19 09:48 31.4 39 15.8 0.0 0.0 0 0.0 0.0 1015.0 0.0 31.3 31.3 0.0
02/01/19 09:49 31.5 39 15.9 0.0 0.0 0 0.0 0.0 1015.0 0.0 31.4 31.4 0.0
02/01/19 09:50 31.6 39 16.0 0.0 0.0 0 0.0 0.0 1015.0 0.0 31.5 31.6 0.0
02/01/19 09:51 31.7 39 16.0 0.0 0.0 0 0.0 0.0 1015.0 0.0 31.6 31.7 0.0
02/01/19 09:52 31.7 39 16.0 0.0 0.0 0 0.0 0.0 1015.0 0.0 31.7 31.7 0.0
02/01/19 09:53 31.8 38 15.7 0.0 0.0 0 0.0 0.0 1014.0 0.0 31.8 31.7 0.0
02/01/19 09:54 31.8 38 15.7 0.0 0.0 0 0.0 0.0 1014.0 0.0 31.8 31.7 0.0
02/01/19 09:55 31.8 39 16.1 0.0 0.0 0 0.0 0.0 1014.0 0.0 31.8 31.8 0.0
02/01/19 09:56 31.8 38 15.7 0.0 0.0 0 0.0 0.0 1014.0 0.0 31.8 31.7 0.0
02/01/19 09:57 31.9 39 16.2 0.0 0.0 0 0.0 0.0 1014.0 0.0 31.8 32.0 0.0
02/01/19 09:58 32.1 38 16.0 0.0 0.0 0 0.0 0.0 1014.0 0.0 31.9 32.1 0.0
02/01/19 09:59 32.1 38 16.0 0.0 0.0 0 0.0 0.0 1014.0 0.0 32.1 32.1 0.0
02/01/19 10:00 32.0 38 15.9 0.0 0.0 0 0.0 0.0 1014.0 0.0 32.1 31.9 0.0
02/01/19 10:02 31.1 38 15.1 0.0 0.0 0 0.0 0.0 1014.0 0.0 0.0 30.8 0.0
02/01/19 10:03 30.7 38 14.8 0.0 0.0 0 0.0 0.0 1014.0 0.0 31.1 30.3 0.0
02/01/19 10:04 30.7 39 15.2 0.0 0.0 0 0.0 0.0 1014.0 0.0 30.7 30.4 0.0
02/01/19 10:05 30.7 39 15.2 0.0 0.0 0 0.0 0.0 1014.0 0.0 30.7 30.4 0.0
02/01/19 10:06 30.8 39 15.2 0.0 0.0 0 0.0 0.0 1014.0 0.0 30.7 30.5 0.0
02/01/19 10:07 30.7 38 14.8 0.0 0.0 0 0.0 0.0 1014.0 0.0 30.8 30.3 0.0
02/01/19 10:08 30.5 39 15.0 0.0 0.0 0 0.0 0.0 1015.0 0.0 30.5 30.2 0.0
02/01/19 10:09 30.5 38 14.6 0.0 0.0 0 0.0 0.0 1015.0 0.0 30.5 30.0 0.0
02/01/19 10:10 30.3 38 14.4 0.0 0.0 0 0.0 0.0 1015.0 0.0 30.5 29.8 0.0
02/01/19 10:11 30.3 38 14.4 0.0 0.0 0 0.0 0.0 1015.0 0.0 30.3 29.8 0.0
02/01/19 10:12 30.4 38 14.5 0.0 0.0 0 0.0 0.0 1015.0 0.0 30.3 29.9 0.0
02/01/19 10:13 30.4 38 14.5 0.0 0.0 0 0.0 0.0 1015.0 0.0 30.4 29.9 0.0
02/01/19 10:14 30.2 38 14.3 1.4 4.0 314 0.0 0.0 1015.0 4.0 30.2 29.7 0.0
02/01/19 10:15 30.2 38 14.3 2.2 4.0 314 0.0 0.0 1015.0 0.0 30.2 29.7 0.0
02/01/19 10:18 30.3 39 14.8 1.8 4.0 342 0.0 0.0 1015.0 3.2 30.4 29.9 0.0
02/01/19 10:19 30.3 38 14.4 1.8 4.0 347 0.0 0.0 1015.0 3.2 30.3 29.8 0.0
02/01/19 10:20 30.3 39 14.8 1.8 4.0 349 0.0 0.0 1015.0 3.2 30.3 29.9 0.0
02/01/19 10:21 30.3 39 14.8 1.8 4.0 351 0.0 0.0 1015.0 3.2 30.3 29.9 0.0
02/01/19 10:22 30.2 39 14.7 1.8 4.0 352 0.0 0.0 1015.0 3.2 30.3 29.8 0.0
02/01/19 10:23 30.3 39 14.8 1.8 4.0 354 0.0 0.0 1014.0 3.2 30.1 29.9 0.0
02/01/19 10:24 30.6 39 15.1 1.8 4.0 354 0.0 0.0 1014.0 3.2 30.3 30.3 0.0
02/01/19 10:25 30.8 39 15.2 1.8 3.2 1 0.0 0.0 1014.0 3.2 30.6 30.5 0.0
02/01/19 10:26 31.0 39 15.4 1.8 3.2 1 0.0 0.0 1014.0 3.2 30.8 30.8 0.0
02/01/19 10:27 31.2 38 15.2 1.8 3.2 1 0.0 0.0 1014.0 3.2 31.0 30.9 0.0
02/01/19 10:28 31.2 39 15.6 1.8 3.2 1 0.0 0.0 1014.0 3.2 31.2 31.0 0.0
02/01/19 10:29 30.9 39 15.3 1.8 3.2 1 0.0 0.0 1014.0 3.2 31.2 30.6 0.0
02/01/19 10:30 30.9 39 15.3 1.8 3.2 1 0.0 0.0 1014.0 3.2 30.9 30.6 0.0
02/01/19 10:32 31.4 38 15.4 0.0 4.0 347 0.0 0.0 1014.0 4.0 0.0 31.1 0.0
02/01/19 10:48 33.3 36 16.2 0.0 4.0 314 0.0 0.0 1015.0 4.0 0.0 33.4 0.0
02/01/19 10:49 33.4 36 16.3 0.0 4.0 314 0.0 0.0 1015.0 4.0 0.0 33.6 0.0
02/01/19 10:50 33.6 36 16.5 0.0 4.0 314 0.0 0.0 1015.0 4.0 0.0 33.9 0.0
02/01/19 10:51 33.8 36 16.6 0.0 4.0 314 0.0 0.0 1015.0 4.0 0.0 34.2 0.0
02/01/19 10:52 33.9 35 16.3 0.0 4.0 314 0.0 0.0 1015.0 4.0 0.0 34.1 0.0
02/01/19 10:53 33.9 35 16.3 0.0 4.0 314 0.0 0.0 1014.0 4.0 0.0 34.1 0.0
02/01/19 10:54 34.0 35 16.4 0.0 4.0 314 0.0 0.0 1014.0 4.0 0.0 34.3 0.0
02/01/19 10:55 34.0 35 16.4 0.0 4.0 314 0.0 0.0 1014.0 4.0 0.0 34.3 0.0
02/01/19 10:56 34.1 34 16.0 0.0 4.0 314 0.0 0.0 1014.0 4.0 0.0 34.2 0.0
02/01/19 10:57 34.0 34 15.9 0.0 4.0 314 0.0 0.0 1014.0 4.0 0.0 34.0 0.0
02/01/19 10:58 33.9 35 16.3 0.0 4.0 314 0.0 0.0 1014.0 4.0 0.0 34.1 0.0
02/01/19 11:03 34.3 35 16.6 0.0 0.0 0 0.0 0.0 1014.0 0.0 0.0 34.7 0.0
02/01/19 11:04 34.5 34 16.4 0.0 0.0 0 0.0 0.0 1014.0 0.0 0.0 34.8 0.0
02/01/19 11:05 34.6 34 16.4 0.0 0.0 0 0.0 0.0 1014.0 0.0 0.0 35.0 0.0
02/01/19 11:06 34.6 34 16.4 0.0 0.0 0 0.0 0.0 1014.0 0.0 0.0 35.0 0.0
02/01/19 11:07 34.7 33 16.1 0.0 0.0 0 0.0 0.0 1014.0 0.0 0.0 34.9 0.0
02/01/19 11:08 34.8 33 16.2 0.0 0.0 0 0.0 0.0 1015.0 0.0 0.0 35.0 0.0
02/01/19 11:09 34.8 33 16.2 0.0 0.0 0 0.0 0.0 1015.0 0.0 0.0 35.0 0.0
02/01/19 11:10 34.9 33 16.2 0.0 0.0 0 0.0 0.0 1015.0 0.0 0.0 35.2 0.0
02/01/19 11:11 34.8 33 16.2 0.0 0.0 0 0.0 0.0 1015.0 0.0 0.0 35.0 0.0
02/01/19 11:12 34.8 33 16.2 0.0 0.0 0 0.0 0.0 1015.0 0.0 0.0 35.0 0.0
02/01/19 11:18 34.1 32 15.1 2.5 1.4 314 0.0 0.0 1015.0 1.4 34.1 33.8 0.0
02/01/19 11:19 33.9 33 15.4 2.5 1.4 314 0.0 0.0 1015.0 1.4 34.1 33.7 0.0
02/01/19 11:20 33.6 33 15.1 2.5 1.4 314 0.0 0.0 1015.0 1.4 33.9 33.3 0.0
02/01/19 11:21 33.4 33 14.9 2.5 1.4 314 0.0 0.0 1015.0 1.4 33.6 33.0 0.0
02/01/19 11:22 33.1 33 14.7 2.5 1.4 314 0.0 0.0 1015.0 1.4 33.4 32.6 0.0
02/01/19 11:23 32.7 34 14.8 2.5 1.4 314 0.0 0.0 1015.0 1.4 33.1 32.2 0.0
02/01/19 11:24 31.8 34 14.0 2.5 1.4 314 0.0 0.0 1015.0 1.4 32.4 31.1 0.0
02/01/19 11:25 31.6 34 13.8 2.5 1.4 314 0.0 0.0 1015.0 1.4 31.8 30.8 0.0
02/01/19 11:26 31.4 34 13.6 2.5 1.4 314 0.0 0.0 1015.0 1.4 31.6 30.6 0.0
02/01/19 11:27 31.1 34 13.4 2.5 1.4 314 0.0 0.0 1015.0 1.4 31.4 30.3 0.0
02/01/19 11:28 30.9 35 13.7 2.5 1.4 314 0.0 0.0 1015.0 1.4 31.1 30.1 0.0
02/01/19 11:29 30.7 35 13.5 2.5 1.4 314 0.0 0.0 1015.0 1.4 30.9 29.9 0.0
02/01/19 11:30 30.5 35 13.3 2.5 1.4 314 0.0 0.0 1015.0 1.4 30.7 29.7 0.0
02/01/19 11:33 30.0 35 12.9 2.5 1.4 314 0.0 0.0 1015.0 1.4 30.1 29.2 0.0
02/01/19 11:34 30.0 36 13.3 2.5 1.4 314 0.0 0.0 1015.0 1.4 30.1 29.3 0.0
02/01/19 11:35 30.3 36 13.6 2.5 1.4 314 0.0 0.0 1015.0 1.4 30.1 29.6 0.0
02/01/19 11:36 30.7 36 13.9 2.5 1.4 314 0.0 0.0 1015.0 1.4 30.1 30.0 0.0
02/01/19 11:37 31.2 36 14.4 2.5 1.4 314 0.0 0.0 1015.0 1.4 30.1 30.6 0.0
02/01/19 11:38 31.5 36 14.6 2.5 1.4 314 0.0 0.0 1015.0 1.4 30.1 31.0 0.0
02/01/19 11:39 31.6 36 14.7 2.5 1.4 314 0.0 0.0 1015.0 1.4 30.1 31.1 0.0
02/01/19 11:40 32.1 36 15.1 2.5 1.4 314 0.0 0.0 1015.0 1.4 30.1 31.7 0.0
02/01/19 11:41 32.6 36 15.6 2.5 1.4 314 0.0 0.0 1015.0 1.4 30.1 32.4 0.0
02/01/19 11:42 33.1 36 16.0 2.5 1.4 314 0.0 0.0 1015.0 1.4 30.1 33.1 0.0
02/01/19 11:43 33.5 35 15.9 2.5 1.4 314 0.0 0.0 1015.0 1.4 30.1 33.5 0.0
02/01/19 11:44 33.7 35 16.1 2.5 1.4 314 0.0 0.0 1015.0 1.4 30.1 33.8 0.0
02/01/19 11:45 33.8 35 16.2 2.5 1.4 314 0.0 0.0 1015.0 1.4 30.1 34.0 0.0
02/01/19 11:48 34.6 33 16.0 0.0 1.4 313 0.0 0.0 1015.0 0.0 34.6 34.7 0.0
02/01/19 11:49 34.3 33 15.7 0.0 1.4 313 0.0 0.0 1015.0 0.0 34.6 34.3 0.0
02/01/19 11:50 34.3 33 15.7 0.0 1.4 313 0.0 0.0 1015.0 0.0 34.3 34.3 0.0
02/01/19 11:51 34.5 33 15.9 0.0 1.4 313 0.0 0.0 1015.0 0.0 34.3 34.6 0.0
02/01/19 11:52 34.6 33 16.0 0.0 1.4 313 0.0 0.0 1015.0 0.0 34.5 34.7 0.0
02/01/19 11:53 34.6 33 16.0 0.0 1.4 313 0.0 0.0 1015.0 0.0 34.5 34.7 0.0
02/01/19 11:54 34.7 33 16.1 0.0 1.4 313 0.0 0.0 1015.0 0.0 34.6 34.9 0.0
02/01/19 11:55 34.9 33 16.2 0.0 1.4 313 0.0 0.0 1015.0 0.0 34.7 35.2 0.0
02/01/19 11:56 35.1 32 15.9 0.0 0.0 0 0.0 0.0 1015.0 0.0 34.9 35.3 0.0
02/01/19 11:57 35.4 32 16.2 0.0 0.0 0 0.0 0.0 1015.0 0.0 35.1 35.7 0.0
02/01/19 11:58 35.7 33 16.9 0.0 0.0 0 0.0 0.0 1015.0 0.0 35.4 36.5 0.0
02/01/19 11:59 36.0 32 16.7 0.0 0.0 0 0.0 0.0 1015.0 0.0 35.7 36.7 0.0
02/01/19 12:00 36.2 31 16.4 0.0 0.0 0 0.0 0.0 1015.0 0.0 36.0 36.7 0.0
02/01/19 12:03 36.9 31 17.0 0.0 0.0 0 0.0 0.0 1015.0 0.0 0.0 37.9 0.0
02/01/19 12:04 37.0 30 16.6 0.0 0.0 0 0.0 0.0 1015.0 0.0 37.0 37.8 0.0
02/01/19 12:05 37.1 30 16.6 0.0 0.0 0 0.0 0.0 1015.0 0.0 37.0 37.9 0.0
02/01/19 12:06 37.2 30 16.7 0.0 0.0 0 0.0 0.0 1015.0 0.0 37.1 38.1 0.0
02/01/19 12:07 37.3 30 16.8 0.0 0.0 0 0.0 0.0 1015.0 0.0 37.2 38.2 0.0
02/01/19 12:08 37.2 30 16.7 0.0 0.0 0 0.0 0.0 1015.0 0.0 37.3 38.1 0.0
02/01/19 12:09 37.0 29 16.0 0.0 0.0 0 0.0 0.0 1015.0 0.0 37.2 37.5 0.0
02/01/19 12:10 36.9 30 16.5 0.0 0.0 0 0.0 0.0 1015.0 0.0 36.9 37.6 0.0
02/01/19 12:11 36.9 30 16.5 0.0 0.0 0 0.0 0.0 1015.0 0.0 36.9 37.6 0.0
02/01/19 12:12 36.7 29 15.8 0.0 0.0 0 0.0 0.0 1015.0 0.0 36.9 37.0 0.0
02/01/19 12:13 36.4 29 15.5 0.0 0.0 0 0.0 0.0 1015.0 0.0 36.7 36.5 0.0
02/01/19 12:14 36.3 29 15.4 0.0 0.0 0 0.0 0.0 1015.0 0.0 36.4 36.4 0.0
02/01/19 12:15 36.1 29 15.3 0.0 0.0 0 0.0 0.0 1015.0 0.0 36.3 36.1 0.0
02/01/19 12:17 36.6 30 16.2 0.0 0.0 0 0.0 0.0 1015.0 0.0 0.0 37.1 0.0
02/01/19 12:18 36.9 30 16.5 0.0 0.0 0 0.0 0.0 1015.0 0.0 36.6 37.6 0.0
02/01/19 12:19 36.8 29 15.9 0.0 0.0 0 0.0 0.0 1015.0 0.0 36.9 37.1 0.0
02/01/19 12:20 36.9 30 16.5 0.0 0.0 0 0.0 0.0 1015.0 0.0 36.8 37.6 0.0
02/01/19 12:21 37.1 29 16.1 0.0 0.0 0 0.0 0.0 1015.0 0.0 36.9 37.6 0.0
02/01/19 12:22 37.1 29 16.1 0.0 0.0 0 0.0 0.0 1015.0 0.0 37.1 37.6 0.0
02/01/19 12:23 37.2 29 16.2 0.0 0.0 0 0.0 0.0 1015.0 0.0 37.1 37.8 0.0
02/01/19 12:24 36.7 30 16.3 0.0 0.0 0 0.0 0.0 1015.0 0.0 36.9 37.3 0.0
02/01/19 12:25 36.8 29 15.9 0.0 0.0 0 0.0 0.0 1015.0 0.0 36.7 37.1 0.0
02/01/19 12:26 37.0 29 16.0 0.0 0.0 0 0.0 0.0 1015.0 0.0 36.8 37.5 0.0
02/01/19 12:27 37.1 29 16.1 0.0 0.0 0 0.0 0.0 1015.0 0.0 37.0 37.6 0.0
02/01/19 12:28 37.1 29 16.1 0.0 0.0 0 0.0 0.0 1015.0 0.0 37.1 37.6 0.0
02/01/19 12:29 37.2 29 16.2 0.0 0.0 0 0.0 0.0 1015.0 0.0 37.1 37.8 0.0
02/01/19 12:30 37.3 29 16.3 0.0 0.0 0 0.0 0.0 1015.0 0.0 37.3 38.0 0.0
02/01/19 12:32 37.0 28 15.5 0.0 0.0 0 0.0 0.0 1015.0 0.0 37.2 37.2 0.0
02/01/19 12:33 37.0 28 15.5 0.0 0.0 0 0.0 0.0 1015.0 0.0 37.0 37.2 0.0
02/01/19 12:34 36.8 28 15.3 0.0 0.0 0 0.0 0.0 1015.0 0.0 37.0 36.9 0.0
02/01/19 12:35 35.5 28 14.2 0.0 0.0 0 0.0 0.0 1015.0 0.0 36.8 35.0 0.0
02/01/19 12:36 34.9 29 14.2 0.0 0.0 0 0.0 0.0 1015.0 0.0 35.5 34.3 0.0
02/01/19 12:37 35.3 29 14.6 0.0 0.0 0 0.0 0.0 1015.0 0.0 34.9 34.9 0.0
02/01/19 12:38 35.3 29 14.6 0.0 0.0 0 0.0 0.0 1015.0 0.0 34.9 34.9 0.0
02/01/19 12:39 36.7 29 15.8 0.0 0.0 0 0.0 0.0 1015.0 0.0 36.3 37.0 0.0
02/01/19 12:40 36.9 28 15.4 0.0 0.0 0 0.0 0.0 1015.0 0.0 36.7 37.0 0.0
02/01/19 12:41 37.0 28 15.5 0.0 0.0 0 0.0 0.0 1015.0 0.0 36.9 37.2 0.0
02/01/19 12:42 37.1 28 15.6 0.0 0.0 0 0.0 0.0 1015.0 0.0 37.0 37.3 0.0
02/01/19 12:43 37.1 28 15.6 0.0 0.0 0 0.0 0.0 1015.0 0.0 37.1 37.3 0.0
02/01/19 12:44 37.1 28 15.6 0.0 0.0 0 0.0 0.0 1015.0 0.0 37.1 37.3 0.0
02/01/19 12:45 37.2 28 15.6 0.0 0.0 0 0.0 0.0 1015.0 0.0 37.1 37.5 0.0
02/01/19 12:47 37.3 28 15.7 0.0 0.0 0 0.0 0.0 1015.0 0.0 0.0 37.7 0.0
02/01/19 12:48 37.4 28 15.8 0.0 0.0 0 0.0 0.0 1015.0 0.0 37.3 37.8 0.0
02/01/19 12:49 37.4 28 15.8 0.0 0.0 0 0.0 0.0 1015.0 0.0 37.4 37.8 0.0
02/01/19 12:50 37.2 28 15.6 0.0 0.0 0 0.0 0.0 1015.0 0.0 37.4 37.5 0.0
02/01/19 12:51 36.9 28 15.4 0.0 0.0 0 0.0 0.0 1015.0 0.0 37.4 37.0 0.0
02/01/19 12:52 36.6 28 15.1 0.0 0.0 0 0.0 0.0 1015.0 0.0 37.4 36.6 0.0
02/01/19 12:53 36.8 28 15.3 0.0 0.0 0 0.0 0.0 1015.0 0.0 36.6 36.9 0.0
02/01/19 12:54 36.9 28 15.4 0.0 0.0 0 0.0 0.0 1015.0 0.0 36.8 37.0 0.0
02/01/19 12:55 36.9 28 15.4 0.0 0.0 0 0.0 0.0 1015.0 0.0 36.9 37.0 0.0
02/01/19 12:56 36.1 27 14.1 0.0 0.0 0 0.0 0.0 1015.0 0.0 36.9 35.6 0.0
02/01/19 12:57 35.2 28 13.9 0.0 0.0 0 0.0 0.0 1015.0 0.0 36.1 34.5 0.0
02/01/19 12:58 34.7 28 13.5 0.0 0.0 0 0.0 0.0 1015.0 0.0 35.2 33.9 0.0
02/01/19 12:59 34.8 29 14.1 0.0 0.0 0 0.0 0.0 1015.0 0.0 34.7 34.2 0.0
02/01/19 13:00 35.1 29 14.4 0.0 0.0 0 0.0 0.0 1015.0 0.0 34.8 34.6 0.0
02/01/19 13:02 36.2 28 14.8 0.0 0.0 0 0.0 0.0 1015.0 0.0 0.0 36.0 0.0
02/01/19 13:03 36.5 28 15.0 0.0 0.0 0 0.0 0.0 1015.0 0.0 36.2 36.4 0.0
02/01/19 13:04 36.5 28 15.0 0.0 0.0 0 0.0 0.0 1015.0 0.0 36.5 36.4 0.0
02/01/19 13:05 36.3 28 14.9 0.0 0.0 0 0.0 0.0 1015.0 0.0 36.5 36.1 0.0
02/01/19 13:06 36.0 28 14.6 0.0 0.0 0 0.0 0.0 1015.0 0.0 36.3 35.7 0.0
02/01/19 13:07 36.0 28 14.6 0.0 0.0 0 0.0 0.0 1015.0 0.0 36.3 35.7 0.0
02/01/19 13:08 35.2 28 13.9 0.0 0.0 0 0.0 0.0 1014.0 0.0 36.0 34.5 0.0
02/01/19 13:09 34.7 29 14.1 0.0 0.0 0 0.0 0.0 1014.0 0.0 36.0 34.1 0.0
02/01/19 13:10 34.1 29 13.5 0.0 0.0 0 0.0 0.0 1014.0 0.0 36.0 33.2 0.0
02/01/19 13:11 34.1 29 13.5 0.0 0.0 0 0.0 0.0 1014.0 0.0 36.0 33.2 0.0
02/01/19 13:12 34.3 29 13.7 0.0 0.0 0 0.0 0.0 1014.0 0.0 36.0 33.5 0.0
02/01/19 13:13 34.5 29 13.9 0.0 0.0 0 0.0 0.0 1014.0 0.0 36.0 33.8 0.0
02/01/19 13:14 34.8 29 14.1 0.0 0.0 0 0.0 0.0 1014.0 0.0 36.0 34.2 0.0
02/01/19 13:17 35.6 29 14.8 0.0 0.0 0 0.0 0.0 1014.0 0.0 0.0 35.3 0.0
02/01/19 13:18 35.9 28 14.5 0.0 0.0 0 0.0 0.0 1014.0 0.0 35.6 35.5 0.0
02/01/19 13:19 36.1 28 14.7 0.0 0.0 0 0.0 0.0 1014.0 0.0 35.9 35.8 0.0
02/01/19 13:20 36.1 28 14.7 0.0 0.0 0 0.0 0.0 1014.0 0.0 36.1 35.8 0.0
02/01/19 13:21 36.0 28 14.6 0.0 0.0 0 0.0 0.0 1014.0 0.0 36.1 35.7 0.0
02/01/19 13:22 36.1 28 14.7 0.0 0.0 0 0.0 0.0 1014.0 0.0 36.0 35.8 0.0
02/01/19 13:23 36.2 28 14.8 0.0 0.0 0 0.0 0.0 1014.0 0.0 36.1 36.0 0.0
02/01/19 13:24 36.3 28 14.9 0.0 0.0 0 0.0 0.0 1014.0 0.0 36.2 36.1 0.0
02/01/19 13:25 35.8 28 14.5 0.0 0.0 0 0.0 0.0 1014.0 0.0 36.1 35.4 0.0
02/01/19 13:26 35.5 28 14.2 0.0 0.0 0 0.0 0.0 1014.0 0.0 35.8 35.0 0.0
02/01/19 13:27 35.1 28 13.9 0.0 0.0 0 0.0 0.0 1014.0 0.0 35.5 34.4 0.0
02/01/19 13:28 34.8 29 14.1 0.0 0.0 0 0.0 0.0 1014.0 0.0 35.1 34.2 0.0
02/01/19 13:29 34.4 29 13.8 0.0 0.0 0 0.0 0.0 1014.0 0.0 34.8 33.6 0.0
02/01/19 13:30 34.1 29 13.5 0.0 0.0 0 0.0 0.0 1014.0 0.0 34.4 33.2 0.0
02/01/19 13:32 34.6 29 14.0 0.0 0.0 0 0.0 0.0 1014.0 0.0 0.0 33.9 0.0
02/01/19 13:33 34.8 29 14.1 0.0 0.0 0 0.0 0.0 1014.0 0.0 34.6 34.2 0.0
02/01/19 13:34 35.2 28 13.9 0.0 0.0 0 0.0 0.0 1014.0 0.0 34.8 34.5 0.0
02/01/19 13:35 35.2 28 13.9 0.0 0.0 0 0.0 0.0 1014.0 0.0 35.2 34.5 0.0
02/01/19 13:36 35.7 28 14.4 0.0 0.0 0 0.0 0.0 1014.0 0.0 35.2 35.3 0.0
02/01/19 13:37 35.7 27 13.8 0.0 0.0 0 0.0 0.0 1014.0 0.0 35.7 35.0 0.0
02/01/19 13:38 35.7 28 14.4 0.0 0.0 0 0.0 0.0 1014.0 0.0 35.7 35.3 0.0
02/01/19 13:39 36.0 27 14.1 0.0 0.0 0 0.0 0.0 1014.0 0.0 35.7 35.5 0.0
02/01/19 13:40 36.5 27 14.5 0.0 0.0 0 0.0 0.0 1014.0 0.0 36.2 36.2 0.0
02/01/19 13:41 36.5 27 14.5 0.0 0.0 0 0.0 0.0 1014.0 0.0 36.5 36.2 0.0
02/01/19 13:42 36.4 27 14.4 0.0 0.0 0 0.0 0.0 1014.0 0.0 36.4 36.0 0.0
02/01/19 13:43 36.4 27 14.4 0.0 0.0 0 0.0 0.0 1014.0 0.0 36.4 36.0 0.0
02/01/19 13:44 36.2 27 14.2 0.0 0.0 0 0.0 0.0 1014.0 0.0 36.4 35.8 0.0
02/01/19 13:47 34.9 28 13.7 0.0 0.0 0 0.0 0.0 1014.0 0.0 0.0 34.1 0.0
02/01/19 13:48 34.3 28 13.2 0.0 0.0 0 0.0 0.0 1014.0 0.0 34.9 33.3 0.0
02/01/19 13:49 34.0 28 12.9 0.0 0.0 0 0.0 0.0 1014.0 0.0 34.3 33.0 0.0
02/01/19 13:50 33.7 28 12.7 0.0 0.0 0 0.0 0.0 1014.0 0.0 34.0 32.6 0.0
02/01/19 13:51 33.8 28 12.7 0.0 0.0 0 0.0 0.0 1014.0 0.0 33.7 32.7 0.0
02/01/19 13:52 34.1 28 13.0 0.0 0.0 0 0.0 0.0 1014.0 0.0 34.1 33.1 0.0
02/01/19 13:53 34.3 28 13.2 0.0 0.0 0 0.0 0.0 1014.0 0.0 34.1 33.3 0.0
02/01/19 13:54 34.4 28 13.3 0.0 0.0 0 0.0 0.0 1014.0 0.0 34.3 33.5 0.0
02/01/19 13:55 34.1 28 13.0 0.0 0.0 0 0.0 0.0 1014.0 0.0 34.3 33.1 0.0
02/01/19 13:56 34.0 28 12.9 0.0 0.0 0 0.0 0.0 1014.0 0.0 34.1 33.0 0.0
02/01/19 13:57 34.2 28 13.1 0.0 0.0 0 0.0 0.0 1014.0 0.0 34.0 33.2 0.0
02/01/19 13:58 34.2 28 13.1 0.0 0.0 0 0.0 0.0 1014.0 0.0 34.2 33.2 0.0
02/01/19 13:59 34.2 28 13.1 0.0 0.0 0 0.0 0.0 1014.0 0.0 34.2 33.2 0.0
02/01/19 14:00 34.1 28 13.0 0.0 0.0 0 0.0 0.0 1014.0 0.0 34.2 33.1 0.0
02/01/19 14:02 34.4 28 13.3 0.0 0.0 0 0.0 0.0 1014.0 0.0 0.0 33.5 0.0
02/01/19 14:03 35.1 28 13.9 0.0 0.0 0 0.0 0.0 1014.0 0.0 34.8 34.4 0.0
02/01/19 14:04 35.2 28 13.9 0.0 0.0 0 0.0 0.0 1014.0 0.0 35.1 34.5 0.0
02/01/19 14:05 35.1 28 13.9 0.0 0.0 0 0.0 0.0 1014.0 0.0 35.2 34.4 0.0
02/01/19 14:06 35.1 28 13.9 0.0 0.0 0 0.0 0.0 1014.0 0.0 35.2 34.4 0.0
02/01/19 14:07 35.1 28 13.9 0.0 0.0 0 0.0 0.0 1014.0 0.0 35.2 34.4 0.0
02/01/19 14:08 35.0 28 13.8 0.0 0.0 0 0.0 0.0 1014.0 0.0 35.2 34.3 0.0
02/01/19 14:09 35.0 28 13.8 0.0 0.0 0 0.0 0.0 1014.0 0.0 35.2 34.3 0.0
02/01/19 14:10 35.5 28 14.2 0.0 0.0 0 0.0 0.0 1014.0 0.0 35.2 35.0 0.0
02/01/19 14:11 35.5 28 14.2 0.0 0.0 0 0.0 0.0 1014.0 0.0 35.2 35.0 0.0
02/01/19 14:12 35.5 28 14.2 0.0 0.0 0 0.0 0.0 1014.0 0.0 35.2 35.0 0.0
02/01/19 14:13 36.3 28 14.9 0.0 0.0 0 0.0 0.0 1014.0 0.0 35.2 36.1 0.0
02/01/19 14:14 36.4 27 14.4 0.0 0.0 0 0.0 0.0 1014.0 0.0 35.2 36.0 0.0
02/01/19 14:15 36.1 27 14.1 0.0 0.0 0 0.0 0.0 1014.0 0.0 35.2 35.6 0.0
02/01/19 14:18 33.0 28 12.1 0.0 0.0 0 0.0 0.0 1014.0 0.0 0.0 31.7 0.0
02/01/19 14:19 32.4 28 11.6 0.0 0.0 0 0.0 0.0 1014.0 0.0 0.0 31.0 0.0
02/01/19 14:20 32.3 29 12.0 0.0 0.0 0 0.0 0.0 1014.0 0.0 0.0 31.0 0.0
02/01/19 14:21 32.0 29 11.7 0.0 0.0 0 0.0 0.0 1014.0 0.0 0.0 30.7 0.0
02/01/19 14:22 31.9 29 11.7 0.0 0.0 0 0.0 0.0 1014.0 0.0 0.0 30.6 0.0
02/01/19 14:23 31.8 29 11.6 0.0 0.0 0 0.0 0.0 1014.0 0.0 0.0 30.5 0.0
02/01/19 14:24 31.9 29 11.7 0.0 0.0 0 0.0 0.0 1014.0 0.0 0.0 30.6 0.0
02/01/19 14:25 32.3 29 12.0 0.0 0.0 0 0.0 0.0 1014.0 0.0 0.0 31.0 0.0
02/01/19 14:26 32.6 29 12.3 0.0 0.0 0 0.0 0.0 1014.0 0.0 0.0 31.4 0.0
02/01/19 14:27 32.6 29 12.3 0.0 0.0 0 0.0 0.0 1014.0 0.0 0.0 31.4 0.0
02/01/19 14:28 32.6 29 12.3 0.0 0.0 0 0.0 0.0 1014.0 0.0 0.0 31.4 0.0
02/01/19 14:29 32.5 29 12.2 0.0 0.0 0 0.0 0.0 1014.0 0.0 0.0 31.3 0.0
02/01/19 14:30 32.5 29 12.2 0.0 0.0 0 0.0 0.0 1014.0 0.0 0.0 31.3 0.0
02/01/19 14:33 32.3 29 12.0 0.0 0.0 0 0.0 0.0 1014.0 0.0 0.0 31.0 0.0
02/01/19 14:34 32.3 29 12.0 0.0 0.0 0 0.0 0.0 1014.0 0.0 0.0 31.0 0.0
02/01/19 14:35 32.2 29 11.9 0.0 0.0 0 0.0 0.0 1014.0 0.0 0.0 30.9 0.0
02/01/19 14:36 32.1 29 11.8 0.0 0.0 0 0.0 0.0 1014.0 0.0 0.0 30.8 0.0
02/01/19 14:37 32.1 29 11.8 0.0 0.0 0 0.0 0.0 1014.0 0.0 0.0 30.8 0.0
02/01/19 14:38 32.0 29 11.7 0.0 0.0 0 0.0 0.0 1013.0 0.0 0.0 30.7 0.0
02/01/19 14:39 32.0 29 11.7 0.0 0.0 0 0.0 0.0 1013.0 0.0 0.0 30.7 0.0
02/01/19 14:40 31.9 30 12.2 0.0 0.0 0 0.0 0.0 1013.0 0.0 0.0 30.7 0.0
02/01/19 14:41 31.9 30 12.2 0.0 0.0 0 0.0 0.0 1013.0 0.0 0.0 30.7 0.0
02/01/19 14:42 31.9 30 12.2 0.0 0.0 0 0.0 0.0 1013.0 0.0 0.0 30.7 0.0
02/01/19 14:48 31.6 30 11.9 0.0 0.0 0 0.0 0.0 1013.0 0.0 0.0 30.4 0.0
02/01/19 14:49 31.6 30 11.9 0.0 0.0 0 0.0 0.0 1013.0 0.0 0.0 30.4 0.0
02/01/19 14:50 31.6 30 11.9 0.0 0.0 0 0.0 0.0 1013.0 0.0 0.0 30.4 0.0
02/01/19 14:51 31.5 30 11.8 0.0 0.0 0 0.0 0.0 1013.0 0.0 0.0 30.3 0.0
02/01/19 14:52 31.5 30 11.8 0.0 0.0 0 0.0 0.0 1013.0 0.0 0.0 30.3 0.0
02/01/19 14:53 31.4 30 11.7 0.0 0.0 0 0.0 0.0 1013.0 0.0 0.0 30.2 0.0
02/01/19 14:54 31.4 30 11.7 0.0 0.0 0 0.0 0.0 1013.0 0.0 0.0 30.2 0.0
02/01/19 14:55 31.5 31 12.3 0.0 0.0 0 0.0 0.0 1013.0 0.0 0.0 30.4 0.0
02/01/19 14:56 31.7 31 12.5 0.0 0.0 0 0.0 0.0 1013.0 0.0 0.0 30.6 0.0
02/01/19 14:57 32.0 30 12.3 0.0 0.0 0 0.0 0.0 1013.0 0.0 0.0 30.8 0.0
02/01/19 14:58 32.2 30 12.4 0.0 0.0 0 0.0 0.0 1013.0 0.0 32.0 31.0 0.0
02/01/19 14:59 32.4 30 12.6 0.0 0.0 0 0.0 0.0 1013.0 0.0 32.2 31.3 0.0
02/01/19 15:00 32.7 31 13.4 0.0 0.0 0 0.0 0.0 1013.0 0.0 32.4 31.8 0.0
02/01/19 15:02 33.6 30 13.6 0.0 0.0 0 0.0 0.0 1013.0 0.0 0.0 32.8 0.0
02/01/19 15:03 34.2 30 14.1 0.0 0.0 0 0.0 0.0 1013.0 0.0 34.0 33.6 0.0
02/01/19 15:04 34.0 29 13.5 0.0 0.0 0 0.0 0.0 1013.0 0.0 34.2 33.1 0.0
02/01/19 15:05 34.0 29 13.5 0.0 0.0 0 0.0 0.0 1013.0 0.0 34.0 33.1 0.0
02/01/19 15:06 33.8 29 13.3 0.0 0.0 0 0.0 0.0 1013.0 0.0 34.0 32.9 0.0
02/01/19 15:07 33.5 29 13.0 0.0 0.0 0 0.0 0.0 1013.0 0.0 33.8 32.5 0.0
02/01/19 15:08 33.5 29 13.0 0.0 0.0 0 0.0 0.0 1013.0 0.0 33.5 32.5 0.0
02/01/19 15:09 33.2 29 12.8 0.0 0.0 0 0.0 0.0 1013.0 0.0 33.5 32.1 0.0
02/01/19 15:10 33.1 29 12.7 0.0 0.0 0 0.0 0.0 1013.0 0.0 33.2 32.0 0.0
02/01/19 15:11 33.1 29 12.7 0.0 0.0 0 0.0 0.0 1013.0 0.0 33.1 32.0 0.0
02/01/19 15:18 33.0 29 12.6 0.0 0.0 0 0.0 0.0 1013.0 0.0 0.0 31.9 0.0
02/01/19 15:19 32.6 29 12.3 0.0 0.0 0 0.0 0.0 1013.0 0.0 0.0 31.4 0.0
02/01/19 15:20 32.6 29 12.3 0.0 0.0 0 0.0 0.0 1013.0 0.0 0.0 31.4 0.0
02/01/19 15:21 32.6 29 12.3 0.0 0.0 0 0.0 0.0 1013.0 0.0 0.0 31.4 0.0
02/01/19 15:22 32.6 29 12.3 0.0 0.0 0 0.0 0.0 1013.0 0.0 0.0 31.4 0.0
02/01/19 15:23 32.6 29 12.3 0.0 0.0 0 0.0 0.0 1014.0 0.0 0.0 31.4 0.0
02/01/19 15:24 32.8 29 12.4 0.0 0.0 0 0.0 0.0 1014.0 0.0 0.0 31.6 0.0
02/01/19 15:25 32.7 29 12.3 0.0 0.0 0 0.0 0.0 1014.0 0.0 0.0 31.5 0.0
02/01/19 15:26 32.5 29 12.2 0.0 0.0 0 0.0 0.0 1014.0 0.0 0.0 31.3 0.0
02/01/19 15:27 32.4 29 12.1 0.0 0.0 0 0.0 0.0 1014.0 0.0 0.0 31.2 0.0
02/01/19 15:28 32.4 29 12.1 0.0 0.0 0 0.0 0.0 1014.0 0.0 0.0 31.2 0.0
02/01/19 15:29 32.6 29 12.3 0.0 0.0 0 0.0 0.0 1014.0 0.0 0.0 31.4 0.0
02/01/19 15:30 32.7 29 12.3 0.0 0.0 0 0.0 0.0 1014.0 0.0 0.0 31.5 0.0
02/01/19 15:33 33.0 29 12.6 0.0 0.0 0 0.0 0.0 1014.0 0.0 0.0 31.9 0.0
02/01/19 15:34 33.1 29 12.7 0.0 0.0 0 0.0 0.0 1014.0 0.0 0.0 32.0 0.0
02/01/19 15:35 33.1 29 12.7 0.0 0.0 0 0.0 0.0 1014.0 0.0 0.0 32.0 0.0
02/01/19 15:36 33.2 29 12.8 0.0 0.0 0 0.0 0.0 1014.0 0.0 0.0 32.1 0.0
02/01/19 15:37 33.4 29 12.9 0.0 0.0 0 0.0 0.0 1014.0 0.0 0.0 32.4 0.0
02/01/19 15:38 33.7 29 13.2 0.0 0.0 0 0.0 0.0 1013.0 0.0 0.0 32.7 0.0
02/01/19 15:39 34.0 29 13.5 0.0 0.0 0 0.0 0.0 1013.0 0.0 0.0 33.1 0.0
02/01/19 15:40 34.3 29 13.7 0.0 0.0 0 0.0 0.0 1013.0 0.0 0.0 33.5 0.0
02/01/19 15:41 33.9 28 12.8 0.0 0.0 0 0.0 0.0 1013.0 0.0 0.0 32.8 0.0
02/01/19 15:42 33.5 28 12.5 0.0 0.0 0 0.0 0.0 1013.0 0.0 0.0 32.3 0.0
02/01/19 15:43 33.3 29 12.9 0.0 0.0 0 0.0 0.0 1013.0 0.0 0.0 32.2 0.0
02/01/19 15:44 32.9 29 12.5 0.0 0.0 0 0.0 0.0 1013.0 0.0 0.0 31.7 0.0
02/01/19 15:45 32.7 29 12.3 0.0 0.0 0 0.0 0.0 1013.0 0.0 0.0 31.5 0.0
02/01/19 16:03 33.1 29 12.7 0.0 0.0 0 0.0 0.0 1013.0 0.0 0.0 32.0 0.0
02/01/19 16:04 33.4 29 12.9 0.0 0.0 0 0.0 0.0 1013.0 0.0 0.0 32.4 0.0
02/01/19 16:05 33.4 29 12.9 0.0 0.0 0 0.0 0.0 1013.0 0.0 0.0 32.4 0.0
02/01/19 16:06 33.6 29 13.1 0.0 0.0 0 0.0 0.0 1013.0 0.0 0.0 32.6 0.0
02/01/19 16:07 33.4 29 12.9 0.0 0.0 0 0.0 0.0 1013.0 0.0 0.0 32.4 0.0
02/01/19 16:08 33.2 29 12.8 0.0 0.0 0 0.0 0.0 1012.0 0.0 0.0 32.1 0.0
02/01/19 16:09 33.1 29 12.7 0.0 0.0 0 0.0 0.0 1012.0 0.0 0.0 32.0 0.0
02/01/19 16:10 32.9 29 12.5 0.0 0.0 0 0.0 0.0 1012.0 0.0 0.0 31.7 0.0
02/01/19 16:11 32.8 29 12.4 0.0 0.0 0 0.0 0.0 1012.0 0.0 0.0 31.6 0.0
02/01/19 16:12 32.8 29 12.4 0.0 0.0 0 0.0 0.0 1012.0 0.0 0.0 31.6 0.0
02/01/19 16:13 32.1 29 11.8 0.0 0.0 0 0.0 0.0 1012.0 0.0 0.0 30.8 0.0
02/01/19 16:14 32.4 29 12.1 0.0 0.0 0 0.0 0.0 1012.0 0.0 0.0 31.2 0.0
02/01/19 16:15 32.4 29 12.1 0.0 0.0 0 0.0 0.0 1012.0 0.0 0.0 31.2 0.0
02/01/19 16:18 32.5 29 12.2 0.0 0.0 0 0.0 0.0 1012.0 0.0 0.0 31.3 0.0
02/01/19 16:19 32.5 29 12.2 0.0 0.0 0 0.0 0.0 1012.0 0.0 0.0 31.3 0.0
02/01/19 16:33 30.5 31 11.5 0.0 0.0 0 0.0 0.0 1012.0 0.0 0.0 29.3 0.0
02/01/19 16:34 30.1 30 10.6 0.0 0.0 0 0.0 0.0 1012.0 0.0 0.0 28.8 0.0
02/01/19 16:35 30.1 31 11.1 0.0 0.0 0 0.0 0.0 1012.0 0.0 0.0 28.9 0.0
02/01/19 16:36 30.1 31 11.1 0.0 0.0 0 0.0 0.0 1012.0 0.0 0.0 28.9 0.0
02/01/19 16:37 30.1 31 11.1 0.0 0.0 0 0.0 0.0 1012.0 0.0 0.0 28.9 0.0
02/01/19 16:38 29.8 31 10.9 0.0 0.0 0 0.0 0.0 1012.0 0.0 0.0 28.6 0.0
02/01/19 16:39 29.7 31 10.8 0.0 0.0 0 0.0 0.0 1012.0 0.0 0.0 28.5 0.0
02/01/19 16:40 29.7 31 10.8 0.0 0.0 0 0.0 0.0 1012.0 0.0 0.0 28.5 0.0
02/01/19 16:41 29.8 31 10.9 0.0 0.0 0 0.0 0.0 1012.0 0.0 0.0 28.6 0.0
02/01/19 16:42 30.0 31 11.0 0.0 0.0 0 0.0 0.0 1012.0 0.0 0.0 28.8 0.0
02/01/19 16:43 30.2 31 11.2 0.0 0.0 0 0.0 0.0 1012.0 0.0 0.0 29.0 0.0
02/01/19 16:44 30.3 31 11.3 0.0 0.0 0 0.0 0.0 1012.0 0.0 0.0 29.1 0.0
02/01/19 16:45 30.4 31 11.4 0.0 0.0 0 0.0 0.0 1012.0 0.0 0.0 29.2 0.0
02/01/19 16:48 30.6 31 11.5 0.0 0.0 0 0.0 0.0 1012.0 0.0 0.0 29.4 0.0
02/01/19 16:49 30.4 30 10.9 0.0 0.0 0 0.0 0.0 1012.0 0.0 0.0 29.1 0.0
02/01/19 16:50 30.5 31 11.5 0.0 0.0 0 0.0 0.0 1012.0 0.0 0.0 29.3 0.0
02/01/19 16:51 30.6 31 11.5 0.0 0.0 0 0.0 0.0 1012.0 0.0 0.0 29.4 0.0
02/01/19 16:52 30.6 31 11.5 0.0 0.0 0 0.0 0.0 1012.0 0.0 0.0 29.4 0.0
02/01/19 16:53 30.7 31 11.6 0.0 0.0 0 0.0 0.0 1012.0 0.0 0.0 29.5 0.0
02/01/19 16:54 30.7 31 11.6 0.0 0.0 0 0.0 0.0 1012.0 0.0 0.0 29.5 0.0
02/01/19 16:55 30.8 31 11.7 0.0 0.0 0 0.0 0.0 1012.0 0.0 0.0 29.6 0.0
02/01/19 16:56 30.9 31 11.8 0.0 0.0 0 0.0 0.0 1012.0 0.0 0.0 29.7 0.0
02/01/19 16:57 30.9 31 11.8 0.0 0.0 0 0.0 0.0 1012.0 0.0 0.0 29.7 0.0
02/01/19 16:58 31.0 31 11.9 0.0 0.0 0 0.0 0.0 1012.0 0.0 0.0 29.8 0.0
02/01/19 16:59 31.1 31 12.0 0.0 0.0 0 0.0 0.0 1012.0 0.0 0.0 29.9 0.0
02/01/19 17:00 31.1 31 12.0 0.0 0.0 0 0.0 0.0 1012.0 0.0 0.0 29.9 0.0
02/01/19 17:03 31.1 31 12.0 0.0 0.0 0 0.0 0.0 1012.0 0.0 0.0 29.9 0.0
02/01/19 17:04 31.1 31 12.0 0.0 0.0 0 0.0 0.0 1012.0 0.0 0.0 29.9 0.0
02/01/19 17:05 31.2 30 11.6 0.0 0.0 0 0.0 0.0 1012.0 0.0 0.0 29.9 0.0
02/01/19 17:06 31.2 30 11.6 0.0 0.0 0 0.0 0.0 1012.0 0.0 0.0 29.9 0.0
02/01/19 17:07 31.2 30 11.6 0.0 0.0 0 0.0 0.0 1012.0 0.0 0.0 29.9 0.0
02/01/19 17:08 31.2 30 11.6 0.0 0.0 0 0.0 0.0 1012.0 0.0 0.0 29.9 0.0
02/01/19 17:09 31.3 30 11.7 0.0 0.0 0 0.0 0.0 1012.0 0.0 0.0 30.0 0.0
02/01/19 17:10 31.3 30 11.7 0.0 0.0 0 0.0 0.0 1012.0 0.0 0.0 30.0 0.0
02/01/19 17:11 31.3 30 11.7 0.0 0.0 0 0.0 0.0 1012.0 0.0 0.0 30.0 0.0
02/01/19 17:12 31.4 30 11.7 0.0 0.0 0 0.0 0.0 1012.0 0.0 0.0 30.2 0.0
02/01/19 17:13 31.3 30 11.7 0.0 0.0 0 0.0 0.0 1012.0 0.0 0.0 30.0 0.0
02/01/19 17:18 30.9 31 11.8 0.0 0.0 0 0.0 0.0 1012.0 0.0 0.0 29.7 0.0
02/01/19 17:19 30.9 31 11.8 0.0 0.0 0 0.0 0.0 1012.0 0.0 0.0 29.7 0.0
02/01/19 17:20 30.7 31 11.6 0.0 0.0 0 0.0 0.0 1012.0 0.0 0.0 29.5 0.0
02/01/19 17:21 30.7 31 11.6 0.0 0.0 0 0.0 0.0 1012.0 0.0 0.0 29.5 0.0
02/01/19 17:22 30.8 31 11.7 0.0 0.0 0 0.0 0.0 1012.0 0.0 0.0 29.6 0.0
02/01/19 17:23 30.8 31 11.7 0.0 0.0 0 0.0 0.0 1012.0 0.0 0.0 29.6 0.0
02/01/19 17:24 30.7 31 11.6 0.0 0.0 0 0.0 0.0 1012.0 0.0 0.0 29.5 0.0
02/01/19 17:25 30.7 31 11.6 0.0 0.0 0 0.0 0.0 1012.0 0.0 0.0 29.5 0.0
02/01/19 17:26 30.8 31 11.7 0.0 0.0 0 0.0 0.0 1012.0 0.0 0.0 29.6 0.0
02/01/19 17:27 30.9 31 11.8 0.0 0.0 0 0.0 0.0 1012.0 0.0 0.0 29.7 0.0
02/01/19 17:28 30.6 31 11.5 0.0 0.0 0 0.0 0.0 1012.0 0.0 0.0 29.4 0.0
02/01/19 17:29 30.6 31 11.5 0.0 0.0 0 0.0 0.0 1012.0 0.0 0.0 29.4 0.0
02/01/19 17:30 30.6 31 11.5 0.0 0.0 0 0.0 0.0 1012.0 0.0 0.0 29.4 0.0
02/01/19 17:33 30.6 31 11.5 0.0 0.0 0 0.0 0.0 1012.0 0.0 0.0 29.4 0.0
02/01/19 17:34 30.5 31 11.5 0.0 0.0 0 0.0 0.0 1012.0 0.0 0.0 29.3 0.0
02/01/19 17:35 30.2 31 11.2 0.0 0.0 0 0.0 0.0 1012.0 0.0 0.0 29.0 0.0
02/01/19 17:36 30.1 31 11.1 0.0 0.0 0 0.0 0.0 1012.0 0.0 0.0 28.9 0.0
02/01/19 17:37 30.0 31 11.0 0.0 0.0 0 0.0 0.0 1012.0 0.0 0.0 28.8 0.0
02/01/19 17:38 30.0 32 11.5 0.0 0.0 0 0.0 0.0 1012.0 0.0 0.0 28.9 0.0
02/01/19 17:39 29.9 32 11.4 0.0 0.0 0 0.0 0.0 1012.0 0.0 0.0 28.8 0.0
02/01/19 17:40 29.8 32 11.3 0.0 0.0 0 0.0 0.0 1012.0 0.0 0.0 28.7 0.0
02/01/19 17:41 29.8 32 11.3 0.0 0.0 0 0.0 0.0 1012.0 0.0 0.0 28.7 0.0
02/01/19 17:42 29.8 32 11.3 0.0 0.0 0 0.0 0.0 1012.0 0.0 0.0 28.7 0.0
02/01/19 17:43 29.8 32 11.3 0.0 0.0 0 0.0 0.0 1012.0 0.0 0.0 28.7 0.0
02/01/19 17:44 29.8 32 11.3 0.0 0.0 0 0.0 0.0 1012.0 0.0 0.0 28.7 0.0
02/01/19 17:45 29.9 32 11.4 0.0 0.0 0 0.0 0.0 1012.0 0.0 0.0 28.8 0.0
02/01/19 17:48 30.0 32 11.5 0.0 0.0 0 0.0 0.0 1012.0 0.0 0.0 28.9 0.0
02/01/19 17:49 30.0 32 11.5 0.0 0.0 0 0.0 0.0 1012.0 0.0 0.0 28.9 0.0
02/01/19 17:50 29.9 32 11.4 0.0 0.0 0 0.0 0.0 1012.0 0.0 0.0 28.8 0.0
02/01/19 17:51 29.9 32 11.4 0.0 0.0 0 0.0 0.0 1012.0 0.0 0.0 28.8 0.0
02/01/19 17:52 30.0 32 11.5 0.0 0.0 0 0.0 0.0 1012.0 0.0 0.0 28.9 0.0
02/01/19 17:53 29.9 32 11.4 0.0 0.0 0 0.0 0.0 1012.0 0.0 0.0 28.8 0.0
02/01/19 17:54 29.9 32 11.4 0.0 0.0 0 0.0 0.0 1012.0 0.0 0.0 28.8 0.0
02/01/19 17:55 29.9 32 11.4 0.0 0.0 0 0.0 0.0 1012.0 0.0 0.0 28.8 0.0
02/01/19 17:56 29.7 32 11.2 0.0 0.0 0 0.0 0.0 1012.0 0.0 0.0 28.6 0.0
02/01/19 17:57 29.7 32 11.2 0.0 0.0 0 0.0 0.0 1012.0 0.0 0.0 28.6 0.0
02/01/19 17:58 29.6 32 11.2 0.0 0.0 0 0.0 0.0 1012.0 0.0 0.0 28.5 0.0
02/01/19 17:59 29.6 32 11.2 0.0 0.0 0 0.0 0.0 1012.0 0.0 0.0 28.5 0.0
02/01/19 18:00 29.5 33 11.5 0.0 0.0 0 0.0 0.0 1012.0 0.0 0.0 28.5 0.0
02/01/19 18:03 29.2 33 11.3 0.0 0.0 0 0.0 0.0 1012.0 0.0 0.0 28.2 0.0
02/01/19 18:04 29.2 33 11.3 0.0 0.0 0 0.0 0.0 1012.0 0.0 0.0 28.2 0.0
02/01/19 18:05 29.1 33 11.2 0.0 0.0 0 0.0 0.0 1012.0 0.0 0.0 28.1 0.0
02/01/19 18:06 29.1 33 11.2 0.0 0.0 0 0.0 0.0 1012.0 0.0 0.0 28.1 0.0
02/01/19 18:07 29.1 33 11.2 0.0 0.0 0 0.0 0.0 1012.0 0.0 0.0 28.1 0.0
02/01/19 18:08 29.1 33 11.2 0.0 0.0 0 0.0 0.0 1012.0 0.0 0.0 28.1 0.0
02/01/19 18:09 29.0 33 11.1 0.0 0.0 0 0.0 0.0 1012.0 0.0 0.0 28.1 0.0
02/01/19 18:10 29.0 33 11.1 0.0 0.0 0 0.0 0.0 1012.0 0.0 0.0 28.1 0.0
02/01/19 18:11 29.0 33 11.1 0.0 0.0 0 0.0 0.0 1012.0 0.0 0.0 28.1 0.0
02/01/19 18:12 28.9 34 11.5 0.0 0.0 0 0.0 0.0 1012.0 0.0 0.0 28.0 0.0
02/01/19 18:13 28.9 34 11.5 0.0 0.0 0 0.0 0.0 1012.0 0.0 0.0 28.0 0.0
02/01/19 18:14 28.9 33 11.0 0.0 0.0 0 0.0 0.0 1012.0 0.0 0.0 28.0 0.0
02/01/19 18:15 28.9 34 11.5 0.0 0.0 0 0.0 0.0 1012.0 0.0 0.0 28.0 0.0
02/01/19 18:18 28.8 34 11.4 0.0 0.0 0 0.0 0.0 1012.0 0.0 0.0 28.0 0.0
02/01/19 18:19 28.8 34 11.4 0.0 0.0 0 0.0 0.0 1012.0 0.0 0.0 28.0 0.0
02/01/19 18:20 28.7 34 11.3 0.0 0.0 0 0.0 0.0 1012.0 0.0 0.0 27.9 0.0
02/01/19 18:21 28.6 34 11.2 0.0 0.0 0 0.0 0.0 1012.0 0.0 0.0 27.8 0.0
02/01/19 18:22 28.6 34 11.2 0.0 0.0 0 0.0 0.0 1012.0 0.0 0.0 27.8 0.0
02/01/19 18:23 28.5 34 11.1 0.0 0.0 0 0.0 0.0 1013.0 0.0 0.0 27.7 0.0
02/01/19 18:24 28.5 34 11.1 0.0 0.0 0 0.0 0.0 1013.0 0.0 0.0 27.7 0.0
02/01/19 18:25 28.4 34 11.0 0.0 0.0 0 0.0 0.0 1013.0 0.0 0.0 27.6 0.0
02/01/19 18:26 28.4 34 11.0 0.0 0.0 0 0.0 0.0 1013.0 0.0 0.0 27.6 0.0
02/01/19 18:27 28.3 34 10.9 0.0 0.0 0 0.0 0.0 1013.0 0.0 0.0 27.5 0.0
02/01/19 18:28 28.2 34 10.8 0.0 0.0 0 0.0 0.0 1013.0 0.0 0.0 27.5 0.0
02/01/19 18:29 28.1 34 10.8 0.0 0.0 0 0.0 0.0 1013.0 0.0 0.0 27.4 0.0
02/01/19 18:30 28.1 34 10.8 0.0 0.0 0 0.0 0.0 1013.0 0.0 0.0 27.4 0.0
02/01/19 18:33 27.9 35 11.0 0.0 0.0 0 0.0 0.0 1013.0 0.0 0.0 27.3 0.0
02/01/19 18:34 27.8 35 10.9 0.0 0.0 0 0.0 0.0 1013.0 0.0 0.0 27.2 0.0
02/01/19 18:35 27.7 35 10.8 0.0 0.0 0 0.0 0.0 1013.0 0.0 0.0 27.1 0.0
02/01/19 18:36 27.7 35 10.8 0.0 0.0 0 0.0 0.0 1013.0 0.0 0.0 27.1 0.0
02/01/19 18:37 27.6 35 10.8 0.0 0.0 0 0.0 0.0 1013.0 0.0 0.0 27.0 0.0
02/01/19 18:38 27.5 35 10.7 0.0 0.0 0 0.0 0.0 1013.0 0.0 0.0 27.0 0.0
02/01/19 18:39 27.5 35 10.7 0.0 0.0 0 0.0 0.0 1013.0 0.0 0.0 27.0 0.0
02/01/19 18:40 27.4 35 10.6 0.0 0.0 0 0.0 0.0 1013.0 0.0 0.0 26.9 0.0
02/01/19 18:41 27.4 35 10.6 0.0 0.0 0 0.0 0.0 1013.0 0.0 0.0 26.9 0.0
02/01/19 18:42 27.3 36 10.9 0.0 0.0 0 0.0 0.0 1013.0 0.0 0.0 26.9 0.0
02/01/19 18:43 27.2 36 10.8 0.0 0.0 0 0.0 0.0 1013.0 0.0 0.0 26.8 0.0
02/01/19 18:44 27.2 36 10.8 0.0 0.0 0 0.0 0.0 1013.0 0.0 0.0 26.8 0.0
02/01/19 18:45 27.1 36 10.7 0.0 0.0 0 0.0 0.0 1013.0 0.0 0.0 26.7 0.0
02/01/19 18:48 27.1 37 11.2 0.0 0.0 0 0.0 0.0 1013.0 0.0 0.0 26.8 0.0
02/01/19 18:49 27.1 37 11.2 0.0 0.0 0 0.0 0.0 1013.0 0.0 0.0 26.8 0.0
02/01/19 18:50 27.1 37 11.2 0.0 0.0 0 0.0 0.0 1013.0 0.0 0.0 26.8 0.0
02/01/19 18:51 27.1 37 11.2 0.0 0.0 0 0.0 0.0 1013.0 0.0 0.0 26.8 0.0
02/01/19 18:52 27.1 37 11.2 0.0 0.0 0 0.0 0.0 1013.0 0.0 0.0 26.8 0.0
02/01/19 18:53 27.1 38 11.6 0.0 0.0 0 0.0 0.0 1013.0 0.0 0.0 26.8 0.0
02/01/19 18:54 27.1 37 11.2 0.0 0.0 0 0.0 0.0 1013.0 0.0 0.0 26.8 0.0
02/01/19 18:55 27.1 38 11.6 0.0 0.0 0 0.0 0.0 1013.0 0.0 0.0 26.8 0.0
02/01/19 18:56 27.0 38 11.5 0.0 0.0 0 0.0 0.0 1013.0 0.0 0.0 26.8 0.0
02/01/19 18:57 27.0 38 11.5 0.0 0.0 0 0.0 0.0 1013.0 0.0 0.0 26.8 0.0
02/01/19 18:58 27.0 37 11.1 0.0 0.0 0 0.0 0.0 1013.0 0.0 0.0 26.7 0.0
02/01/19 18:59 27.0 37 11.1 0.0 0.0 0 0.0 0.0 1013.0 0.0 0.0 26.7 0.0
02/01/19 19:00 26.9 38 11.4 0.0 0.0 0 0.0 0.0 1013.0 0.0 0.0 26.7 0.0
02/01/19 19:03 26.9 39 11.8 0.0 0.0 0 0.0 0.0 1013.0 0.0 0.0 26.7 0.0
02/01/19 19:04 26.8 39 11.7 0.0 0.0 0 0.0 0.0 1013.0 0.0 0.0 26.7 0.0
02/01/19 19:05 26.7 39 11.6 0.0 0.0 0 0.0 0.0 1013.0 0.0 0.0 26.6 0.0
02/01/19 19:06 26.7 39 11.6 0.0 0.0 0 0.0 0.0 1013.0 0.0 0.0 26.6 0.0
02/01/19 19:07 26.7 40 12.0 0.0 0.0 0 0.0 0.0 1013.0 0.0 0.0 26.7 0.0
02/01/19 19:08 26.7 40 12.0 0.0 0.0 0 0.0 0.0 1012.0 0.0 0.0 26.7 0.0
02/01/19 19:09 26.7 40 12.0 0.0 0.0 0 0.0 0.0 1012.0 0.0 0.0 26.7 0.0
02/01/19 19:10 26.7 40 12.0 0.0 0.0 0 0.0 0.0 1012.0 0.0 0.0 26.7 0.0
02/01/19 19:11 26.6 40 11.9 0.0 0.0 0 0.0 0.0 1012.0 0.0 0.0 26.6 0.0
02/01/19 19:12 26.6 40 11.9 0.0 0.0 0 0.0 0.0 1012.0 0.0 0.0 26.6 0.0
02/01/19 19:13 26.5 40 11.8 0.0 0.0 0 0.0 0.0 1012.0 0.0 0.0 26.5 0.0
02/01/19 19:14 26.5 40 11.8 0.0 0.0 0 0.0 0.0 1012.0 0.0 0.0 26.5 0.0
02/01/19 19:15 26.5 40 11.8 0.0 0.0 0 0.0 0.0 1012.0 0.0 0.0 26.5 0.0
02/01/19 19:18 26.4 40 11.7 0.0 0.0 0 0.0 0.0 1012.0 0.0 0.0 26.4 0.0
02/01/19 19:19 26.4 40 11.7 0.0 0.0 0 0.0 0.0 1012.0 0.0 0.0 26.4 0.0
02/01/19 19:20 26.3 41 12.0 0.0 0.0 0 0.0 0.0 1012.0 0.0 0.0 26.3 0.0
02/01/19 19:21 26.3 41 12.0 0.0 0.0 0 0.0 0.0 1012.0 0.0 0.0 26.3 0.0
02/01/19 19:22 26.3 41 12.0 0.0 0.0 0 0.0 0.0 1012.0 0.0 0.0 26.3 0.0
02/01/19 19:23 26.2 41 11.9 0.0 0.0 0 0.0 0.0 1013.0 0.0 0.0 26.2 0.0
02/01/19 19:24 26.2 41 11.9 0.0 0.0 0 0.0 0.0 1013.0 0.0 0.0 26.2 0.0
02/01/19 19:33 25.9 42 12.0 0.0 0.0 0 0.0 0.0 1013.0 0.0 0.0 25.9 0.0
02/01/19 19:34 25.8 43 12.3 0.0 0.0 0 0.0 0.0 1013.0 0.0 0.0 25.8 0.0
02/01/19 19:35 25.8 43 12.3 0.0 0.0 0 0.0 0.0 1013.0 0.0 0.0 25.8 0.0
02/01/19 19:48 25.3 46 12.8 0.0 0.0 0 0.0 0.0 1013.0 0.0 0.0 25.3 0.0
02/01/19 19:49 25.3 46 12.8 0.0 0.0 0 0.0 0.0 1013.0 0.0 0.0 25.3 0.0
02/01/19 19:50 25.2 46 12.8 0.0 0.0 0 0.0 0.0 1013.0 0.0 0.0 25.2 0.0
02/01/19 19:51 25.2 47 13.1 0.0 0.0 0 0.0 0.0 1013.0 0.0 0.0 25.2 0.0
02/01/19 19:52 25.1 48 13.3 0.0 0.0 0 0.0 0.0 1013.0 0.0 0.0 25.1 0.0
02/01/19 19:53 25.1 48 13.3 0.0 0.0 0 0.0 0.0 1013.0 0.0 0.0 25.1 0.0
02/01/19 19:54 25.1 48 13.3 0.0 0.0 0 0.0 0.0 1013.0 0.0 0.0 25.1 0.0
02/01/19 19:55 25.0 49 13.5 0.0 0.0 0 0.0 0.0 1013.0 0.0 0.0 25.0 0.0
02/01/19 19:56 25.0 49 13.5 0.0 0.0 0 0.0 0.0 1013.0 0.0 0.0 25.0 0.0
02/01/19 19:57 25.0 50 13.9 0.0 0.0 0 0.0 0.0 1013.0 0.0 0.0 25.0 0.0
02/01/19 19:58 24.9 52 14.4 0.0 0.0 0 0.0 0.0 1013.0 0.0 0.0 24.9 0.0
02/01/19 19:59 24.9 52 14.4 0.0 0.0 0 0.0 0.0 1013.0 0.0 0.0 24.9 0.0
02/01/19 20:03 24.8 54 14.9 0.0 0.0 0 0.0 0.0 1013.0 0.0 0.0 24.8 0.0
02/01/19 20:04 24.7 56 15.3 0.0 0.0 0 0.0 0.0 1013.0 0.0 0.0 24.7 0.0
02/01/19 20:05 24.7 56 15.3 0.0 0.0 0 0.0 0.0 1013.0 0.0 0.0 24.7 0.0
02/01/19 20:06 24.6 56 15.2 0.0 0.0 0 0.0 0.0 1013.0 0.0 0.0 24.6 0.0
02/01/19 20:07 24.6 57 15.5 0.0 0.0 0 0.0 0.0 1013.0 0.0 0.0 24.6 0.0
02/01/19 20:08 24.5 59 16.0 0.0 0.0 0 0.0 0.0 1014.0 0.0 0.0 24.5 0.0
02/01/19 20:09 24.5 59 16.0 0.0 0.0 0 0.0 0.0 1014.0 0.0 0.0 24.5 0.0
02/01/19 20:10 24.5 58 15.7 0.0 0.0 0 0.0 0.0 1014.0 0.0 0.0 24.5 0.0
02/01/19 20:11 24.5 60 16.2 0.0 0.0 0 0.0 0.0 1014.0 0.0 0.0 24.5 0.0
02/01/19 20:12 24.4 60 16.1 0.0 0.0 0 0.0 0.0 1014.0 0.0 0.0 24.4 0.0
02/01/19 20:13 24.4 61 16.4 0.0 0.0 0 0.0 0.0 1014.0 0.0 0.0 24.4 0.0
02/01/19 20:14 24.3 59 15.8 0.0 0.0 0 0.0 0.0 1014.0 0.0 0.0 24.3 0.0
02/01/19 20:15 24.3 59 15.8 0.0 0.0 0 0.0 0.0 1014.0 0.0 0.0 24.3 0.0
02/01/19 20:18 24.2 62 16.5 0.0 0.0 0 0.0 0.0 1014.0 0.0 0.0 24.2 0.0
02/01/19 20:19 24.1 63 16.6 0.0 0.0 0 0.0 0.0 1014.0 0.0 0.0 24.1 0.0
02/01/19 20:20 24.1 62 16.4 0.0 0.0 0 0.0 0.0 1014.0 0.0 0.0 24.1 0.0
02/01/19 20:21 24.0 61 16.0 0.0 0.0 0 0.0 0.0 1014.0 0.0 0.0 24.0 0.0
02/01/19 20:22 24.0 63 16.5 0.0 0.0 0 0.0 0.0 1014.0 0.0 0.0 24.0 0.0
02/01/19 20:23 24.0 63 16.5 0.0 0.0 0 0.0 0.0 1014.0 0.0 0.0 24.0 0.0
02/01/19 20:24 24.0 62 16.3 0.0 0.0 0 0.0 0.0 1014.0 0.0 0.0 24.0 0.0
02/01/19 20:25 23.9 64 16.7 0.0 0.0 0 0.0 0.0 1014.0 0.0 0.0 23.9 0.0
02/01/19 20:26 23.9 64 16.7 0.0 0.0 0 0.0 0.0 1014.0 0.0 0.0 23.9 0.0
02/01/19 20:27 23.9 65 16.9 0.0 0.0 0 0.0 0.0 1014.0 0.0 0.0 23.9 0.0
02/01/19 20:28 23.8 65 16.8 0.0 0.0 0 0.0 0.0 1014.0 0.0 0.0 23.8 0.0
02/01/19 20:29 23.8 65 16.8 0.0 0.0 0 0.0 0.0 1014.0 0.0 0.0 23.8 0.0
02/01/19 20:30 23.7 65 16.7 0.0 0.0 0 0.0 0.0 1014.0 0.0 0.0 23.7 0.0
02/01/19 20:33 23.7 65 16.7 0.0 0.0 0 0.0 0.0 1014.0 0.0 0.0 23.7 0.0
02/01/19 20:34 23.6 66 16.9 0.0 0.0 0 0.0 0.0 1014.0 0.0 0.0 23.6 0.0
02/01/19 20:35 23.6 65 16.6 0.0 0.0 0 0.0 0.0 1014.0 0.0 0.0 23.6 0.0
02/01/19 20:36 23.5 66 16.8 0.0 0.0 0 0.0 0.0 1014.0 0.0 0.0 23.5 0.0
02/01/19 20:37 23.5 67 17.0 0.0 0.0 0 0.0 0.0 1014.0 0.0 0.0 23.5 0.0
02/01/19 20:38 23.5 68 17.3 0.0 0.0 0 0.0 0.0 1014.0 0.0 0.0 23.5 0.0
02/01/19 20:39 23.4 68 17.2 0.0 0.0 0 0.0 0.0 1014.0 0.0 0.0 23.4 0.0
02/01/19 20:40 23.4 67 16.9 0.0 0.0 0 0.0 0.0 1014.0 0.0 0.0 23.4 0.0
02/01/19 20:41 23.4 67 16.9 0.0 0.0 0 0.0 0.0 1014.0 0.0 0.0 23.4 0.0
02/01/19 20:42 23.4 68 17.2 0.0 0.0 0 0.0 0.0 1014.0 0.0 0.0 23.4 0.0
02/01/19 20:43 23.3 68 17.1 0.0 0.0 0 0.0 0.0 1014.0 0.0 0.0 23.3 0.0
02/01/19 20:44 23.3 68 17.1 0.0 0.0 0 0.0 0.0 1014.0 0.0 0.0 23.3 0.0
02/01/19 20:45 23.2 69 17.2 0.0 0.0 0 0.0 0.0 1014.0 0.0 0.0 23.2 0.0
02/01/19 20:48 23.1 68 16.9 0.0 0.0 0 0.0 0.0 1014.0 0.0 0.0 23.1 0.0
02/01/19 20:49 23.1 68 16.9 0.0 0.0 0 0.0 0.0 1014.0 0.0 0.0 23.1 0.0
02/01/19 20:50 23.0 68 16.8 0.0 0.0 0 0.0 0.0 1014.0 0.0 0.0 23.0 0.0
02/01/19 20:51 23.0 68 16.8 0.0 0.0 0 0.0 0.0 1014.0 0.0 0.0 23.0 0.0
02/01/19 20:52 23.0 68 16.8 0.0 0.0 0 0.0 0.0 1014.0 0.0 0.0 23.0 0.0
02/01/19 20:53 23.0 68 16.8 0.0 0.0 0 0.0 0.0 1014.0 0.0 0.0 23.0 0.0
02/01/19 20:54 22.9 70 17.1 0.0 0.0 0 0.0 0.0 1014.0 0.0 0.0 22.9 0.0
02/01/19 20:55 22.9 70 17.1 0.0 0.0 0 0.0 0.0 1014.0 0.0 0.0 22.9 0.0
02/01/19 20:56 22.9 71 17.4 0.0 0.0 0 0.0 0.0 1014.0 0.0 0.0 22.9 0.0
02/01/19 20:57 22.9 71 17.4 0.0 0.0 0 0.0 0.0 1014.0 0.0 0.0 22.9 0.0
02/01/19 20:58 22.8 70 17.0 0.0 0.0 0 0.0 0.0 1014.0 0.0 0.0 22.8 0.0
02/01/19 20:59 22.8 70 17.0 0.0 0.0 0 0.0 0.0 1014.0 0.0 0.0 22.8 0.0
02/01/19 21:00 22.7 71 17.2 0.0 0.0 0 0.0 0.0 1014.0 0.0 0.0 22.7 0.0
02/01/19 21:03 22.7 71 17.2 0.0 0.0 0 0.0 0.0 1014.0 0.0 0.0 22.7 0.0
02/01/19 21:04 22.7 72 17.4 0.0 0.0 0 0.0 0.0 1014.0 0.0 0.0 22.7 0.0
02/01/19 21:05 22.6 71 17.1 0.0 0.0 0 0.0 0.0 1014.0 0.0 0.0 22.6 0.0
02/01/19 21:06 22.6 70 16.8 0.0 0.0 0 0.0 0.0 1014.0 0.0 0.0 22.6 0.0
02/01/19 21:07 22.6 72 17.3 0.0 0.0 0 0.0 0.0 1014.0 0.0 0.0 22.6 0.0
02/01/19 21:33 22.0 61 14.1 0.0 0.0 0 0.0 0.0 1014.0 0.0 0.0 22.0 0.0
02/01/19 21:34 22.0 61 14.1 0.0 0.0 0 0.0 0.0 1014.0 0.0 0.0 22.0 0.0
02/01/19 21:35 22.0 61 14.1 0.0 0.0 0 0.0 0.0 1014.0 0.0 0.0 22.0 0.0
02/01/19 21:36 22.0 61 14.1 0.0 0.0 0 0.0 0.0 1014.0 0.0 0.0 22.0 0.0
02/01/19 21:37 22.0 61 14.1 0.0 0.0 0 0.0 0.0 1014.0 0.0 0.0 22.0 0.0
02/01/19 21:38 21.9 61 14.0 0.0 0.0 0 0.0 0.0 1015.0 0.0 0.0 21.9 0.0
02/01/19 21:39 21.9 61 14.0 0.0 0.0 0 0.0 0.0 1015.0 0.0 0.0 21.9 0.0
02/01/19 21:40 21.9 61 14.0 0.0 0.0 0 0.0 0.0 1015.0 0.0 0.0 21.9 0.0
02/01/19 21:41 21.9 61 14.0 0.0 0.0 0 0.0 0.0 1015.0 0.0 0.0 21.9 0.0
02/01/19 21:42 21.9 62 14.3 0.0 0.0 0 0.0 0.0 1015.0 0.0 0.0 21.9 0.0
02/01/19 21:43 21.8 62 14.2 0.0 0.0 0 0.0 0.0 1015.0 0.0 0.0 21.8 0.0
02/01/19 21:44 21.8 61 13.9 0.0 0.0 0 0.0 0.0 1015.0 0.0 0.0 21.8 0.0
02/01/19 21:45 21.8 62 14.2 0.0 0.0 0 0.0 0.0 1015.0 0.0 0.0 21.8 0.0
02/01/19 21:48 21.8 62 14.2 0.0 0.0 0 0.0 0.0 1015.0 0.0 0.0 21.8 0.0
02/01/19 21:49 21.8 62 14.2 0.0 0.0 0 0.0 0.0 1015.0 0.0 0.0 21.8 0.0
02/01/19 21:50 21.7 63 14.3 0.0 0.0 0 0.0 0.0 1015.0 0.0 0.0 21.7 0.0
02/01/19 21:51 21.7 62 14.1 0.0 0.0 0 0.0 0.0 1015.0 0.0 0.0 21.7 0.0
02/01/19 21:52 21.7 63 14.3 0.0 0.0 0 0.0 0.0 1015.0 0.0 0.0 21.7 0.0
02/01/19 21:53 21.7 63 14.3 0.0 0.0 0 0.0 0.0 1015.0 0.0 0.0 21.7 0.0
02/01/19 21:54 21.6 63 14.3 0.0 0.0 0 0.0 0.0 1015.0 0.0 0.0 21.6 0.0
02/01/19 21:55 21.6 63 14.3 0.0 0.0 0 0.0 0.0 1015.0 0.0 0.0 21.6 0.0
02/01/19 21:56 21.6 63 14.3 0.0 0.0 0 0.0 0.0 1015.0 0.0 0.0 21.6 0.0
02/01/19 21:57 21.6 63 14.3 0.0 0.0 0 0.0 0.0 1015.0 0.0 0.0 21.6 0.0
02/01/19 21:58 21.6 63 14.3 0.0 0.0 0 0.0 0.0 1015.0 0.0 0.0 21.6 0.0
02/01/19 21:59 21.5 63 14.2 0.0 0.0 0 0.0 0.0 1015.0 0.0 0.0 21.5 0.0
02/01/19 22:00 21.5 64 14.4 0.0 0.0 0 0.0 0.0 1015.0 0.0 0.0 21.5 0.0
02/01/19 22:03 21.4 64 14.3 0.0 0.0 0 0.0 0.0 1015.0 0.0 0.0 21.4 0.0
02/01/19 22:04 21.4 64 14.3 0.0 0.0 0 0.0 0.0 1015.0 0.0 0.0 21.4 0.0
02/01/19 22:05 21.4 64 14.3 0.0 0.0 0 0.0 0.0 1015.0 0.0 0.0 21.4 0.0
02/01/19 22:06 21.3 64 14.2 0.0 0.0 0 0.0 0.0 1015.0 0.0 0.0 21.3 0.0
02/01/19 22:07 21.3 65 14.5 0.0 0.0 0 0.0 0.0 1015.0 0.0 0.0 21.3 0.0
02/01/19 22:08 21.3 65 14.5 0.0 0.0 0 0.0 0.0 1015.0 0.0 0.0 21.3 0.0
02/01/19 22:09 21.2 65 14.4 0.0 0.0 0 0.0 0.0 1015.0 0.0 0.0 21.2 0.0
02/01/19 22:10 21.2 65 14.4 0.0 0.0 0 0.0 0.0 1015.0 0.0 0.0 21.2 0.0
02/01/19 22:11 21.2 66 14.6 0.0 0.0 0 0.0 0.0 1015.0 0.0 0.0 21.2 0.0
02/01/19 22:12 21.2 66 14.6 0.0 0.0 0 0.0 0.0 1015.0 0.0 0.0 21.2 0.0
02/01/19 22:13 21.2 66 14.6 0.0 0.0 0 0.0 0.0 1015.0 0.0 0.0 21.2 0.0
02/01/19 22:14 21.2 65 14.4 0.0 0.0 0 0.0 0.0 1015.0 0.0 0.0 21.2 0.0
02/01/19 22:15 21.1 65 14.3 0.0 0.0 0 0.0 0.0 1015.0 0.0 0.0 21.1 0.0
02/01/19 22:18 21.0 65 14.2 0.0 0.0 0 0.0 0.0 1015.0 0.0 0.0 21.0 0.0
02/01/19 22:19 21.0 66 14.4 0.0 0.0 0 0.0 0.0 1015.0 0.0 0.0 21.0 0.0
02/01/19 22:20 21.0 66 14.4 0.0 0.0 0 0.0 0.0 1015.0 0.0 0.0 21.0 0.0
02/01/19 22:21 21.0 66 14.4 0.0 0.0 0 0.0 0.0 1015.0 0.0 0.0 21.0 0.0
02/01/19 22:22 20.9 68 14.8 0.0 0.0 0 0.0 0.0 1015.0 0.0 0.0 20.9 0.0
02/01/19 22:23 20.9 68 14.8 0.0 0.0 0 0.0 0.0 1015.0 0.0 0.0 20.9 0.0
02/01/19 22:24 20.9 67 14.5 0.0 0.0 0 0.0 0.0 1015.0 0.0 0.0 20.9 0.0
02/01/19 22:25 20.9 68 14.8 0.0 0.0 0 0.0 0.0 1015.0 0.0 0.0 20.9 0.0
02/01/19 22:26 20.8 68 14.7 0.0 0.0 0 0.0 0.0 1015.0 0.0 0.0 20.8 0.0
02/01/19 22:27 20.8 68 14.7 0.0 0.0 0 0.0 0.0 1015.0 0.0 0.0 20.8 0.0
02/01/19 22:28 20.8 68 14.7 0.0 0.0 0 0.0 0.0 1015.0 0.0 0.0 20.8 0.0
02/01/19 22:29 20.8 68 14.7 0.0 0.0 0 0.0 0.0 1015.0 0.0 0.0 20.8 0.0
02/01/19 22:30 20.8 69 14.9 0.0 0.0 0 0.0 0.0 1015.0 0.0 0.0 20.8 0.0
02/01/19 22:33 20.7 68 14.6 0.0 0.0 0 0.0 0.0 1015.0 0.0 0.0 20.7 0.0
02/01/19 22:34 20.7 68 14.6 0.0 0.0 0 0.0 0.0 1015.0 0.0 0.0 20.7 0.0
02/01/19 22:35 20.6 69 14.7 0.0 0.0 0 0.0 0.0 1015.0 0.0 0.0 20.6 0.0
02/01/19 22:36 20.6 70 14.9 0.0 0.0 0 0.0 0.0 1015.0 0.0 0.0 20.6 0.0
02/01/19 22:37 20.6 70 14.9 0.0 0.0 0 0.0 0.0 1015.0 0.0 0.0 20.6 0.0
02/01/19 22:38 20.6 70 14.9 0.0 0.0 0 0.0 0.0 1016.0 0.0 0.0 20.6 0.0
02/01/19 22:39 20.6 71 15.2 0.0 0.0 0 0.0 0.0 1016.0 0.0 0.0 20.6 0.0
02/01/19 22:40 20.6 71 15.2 0.0 0.0 0 0.0 0.0 1016.0 0.0 0.0 20.6 0.0
02/01/19 22:41 20.5 71 15.1 0.0 0.0 0 0.0 0.0 1016.0 0.0 0.0 20.5 0.0
02/01/19 22:42 20.5 70 14.8 0.0 0.0 0 0.0 0.0 1016.0 0.0 0.0 20.5 0.0
02/01/19 22:43 20.5 70 14.8 0.0 0.0 0 0.0 0.0 1016.0 0.0 0.0 20.5 0.0
02/01/19 22:44 20.5 70 14.8 0.0 0.0 0 0.0 0.0 1016.0 0.0 0.0 20.5 0.0
02/01/19 22:45 20.5 71 15.1 0.0 0.0 0 0.0 0.0 1016.0 0.0 0.0 20.5 0.0
02/01/19 22:48 20.4 72 15.2 0.0 0.0 0 0.0 0.0 1016.0 0.0 0.0 20.4 0.0
02/01/19 22:49 20.4 71 15.0 0.0 0.0 0 0.0 0.0 1016.0 0.0 0.0 20.4 0.0
02/01/19 22:50 20.4 72 15.2 0.0 0.0 0 0.0 0.0 1016.0 0.0 0.0 20.4 0.0
02/01/19 22:51 20.4 73 15.4 0.0 0.0 0 0.0 0.0 1016.0 0.0 0.0 20.4 0.0
02/01/19 22:52 20.3 72 15.1 0.0 0.0 0 0.0 0.0 1016.0 0.0 0.0 20.3 0.0
02/01/19 22:53 20.3 72 15.1 0.0 0.0 0 0.0 0.0 1015.0 0.0 0.0 20.3 0.0
02/01/19 22:54 20.3 72 15.1 0.0 0.0 0 0.0 0.0 1015.0 0.0 0.0 20.3 0.0
02/01/19 22:55 20.2 72 15.0 0.0 0.0 0 0.0 0.0 1015.0 0.0 0.0 20.2 0.0
02/01/19 22:56 20.2 72 15.0 0.0 0.0 0 0.0 0.0 1015.0 0.0 0.0 20.2 0.0
02/01/19 22:57 20.2 73 15.2 0.0 0.0 0 0.0 0.0 1015.0 0.0 0.0 20.2 0.0
02/01/19 22:58 20.2 74 15.4 0.0 0.0 0 0.0 0.0 1015.0 0.0 0.0 20.2 0.0
02/01/19 22:59 20.2 75 15.6 0.0 0.0 0 0.0 0.0 1015.0 0.0 0.0 20.2 0.0
02/01/19 23:18 19.9 78 15.9 0.0 0.0 0 0.0 0.0 1016.0 0.0 0.0 19.9 0.0
02/01/19 23:19 19.9 78 15.9 0.0 0.0 0 0.0 0.0 1016.0 0.0 0.0 19.9 0.0
02/01/19 23:20 19.9 78 15.9 0.0 0.0 0 0.0 0.0 1016.0 0.0 0.0 19.9 0.0
02/01/19 23:21 19.8 78 15.9 0.0 0.0 0 0.0 0.0 1016.0 0.0 0.0 19.8 0.0
02/01/19 23:22 19.8 78 15.9 0.0 0.0 0 0.0 0.0 1016.0 0.0 0.0 19.8 0.0
02/01/19 23:23 19.8 77 15.6 0.0 0.0 0 0.0 0.0 1015.0 0.0 0.0 19.8 0.0
02/01/19 23:24 19.7 77 15.6 0.0 0.0 0 0.0 0.0 1015.0 0.0 0.0 19.7 0.0
02/01/19 23:25 19.7 78 15.8 0.0 0.0 0 0.0 0.0 1015.0 0.0 0.0 19.7 0.0
02/01/19 23:26 19.7 77 15.6 0.0 0.0 0 0.0 0.0 1015.0 0.0 0.0 19.7 0.0
02/01/19 23:27 19.7 77 15.6 0.0 0.0 0 0.0 0.0 1015.0 0.0 0.0 19.7 0.0
02/01/19 23:28 19.7 77 15.6 0.0 0.0 0 0.0 0.0 1015.0 0.0 0.0 19.7 0.0
02/01/19 23:29 19.6 77 15.5 0.0 0.0 0 0.0 0.0 1015.0 0.0 0.0 19.6 0.0
02/01/19 23:30 19.6 79 15.9 0.0 0.0 0 0.0 0.0 1015.0 0.0 0.0 19.6 0.0
02/01/19 23:33 19.6 79 15.9 0.0 0.0 0 0.0 0.0 1015.0 0.0 0.0 19.6 0.0
02/01/19 23:34 19.5 78 15.6 0.0 0.0 0 0.0 0.0 1015.0 0.0 0.0 19.5 0.0
02/01/19 23:35 19.6 80 16.1 0.0 0.0 0 0.0 0.0 1015.0 0.0 0.0 19.6 0.0
02/01/19 23:36 19.5 79 15.8 0.0 0.0 0 0.0 0.0 1015.0 0.0 0.0 19.5 0.0
02/01/19 23:37 19.5 79 15.8 0.0 0.0 0 0.0 0.0 1015.0 0.0 0.0 19.5 0.0
02/01/19 23:38 19.5 80 16.0 0.0 0.0 0 0.0 0.0 1015.0 0.0 0.0 19.5 0.0
02/01/19 23:39 19.4 80 15.9 0.0 0.0 0 0.0 0.0 1015.0 0.0 0.0 19.4 0.0
02/01/19 23:40 19.4 80 15.9 0.0 0.0 0 0.0 0.0 1015.0 0.0 0.0 19.4 0.0
02/01/19 23:41 19.4 81 16.1 0.0 0.0 0 0.0 0.0 1015.0 0.0 0.0 19.4 0.0
02/01/19 23:42 19.4 80 15.9 0.0 0.0 0 0.0 0.0 1015.0 0.0 0.0 19.4 0.0
02/01/19 23:43 19.4 80 15.9 0.0 0.0 0 0.0 0.0 1015.0 0.0 0.0 19.4 0.0
02/01/19 23:44 19.3 79 15.6 0.0 0.0 0 0.0 0.0 1015.0 0.0 0.0 19.3 0.0
02/01/19 23:48 19.3 80 15.8 0.0 0.0 0 0.0 0.0 1015.0 0.0 0.0 19.3 0.0
02/01/19 23:49 19.2 79 15.5 0.0 0.0 0 0.0 0.0 1015.0 0.0 0.0 19.2 0.0
02/01/19 23:50 19.2 79 15.5 0.0 0.0 0 0.0 0.0 1015.0 0.0 0.0 19.2 0.0
02/01/19 23:51 19.2 80 15.7 0.0 0.0 0 0.0 0.0 1015.0 0.0 0.0 19.2 0.0
02/01/19 23:52 19.2 79 15.5 0.0 0.0 0 0.0 0.0 1015.0 0.0 0.0 19.2 0.0
02/01/19 23:53 19.2 80 15.7 0.0 0.0 0 0.0 0.0 1015.0 0.0 0.0 19.2 0.0
02/01/19 23:54 19.2 80 15.7 0.0 0.0 0 0.0 0.0 1015.0 0.0 0.0 19.2 0.0
02/01/19 23:55 19.2 80 15.7 0.0 0.0 0 0.0 0.0 1015.0 0.0 0.0 19.2 0.0
02/01/19 23:56 19.1 80 15.6 0.0 0.0 0 0.0 0.0 1015.0 0.0 0.0 19.1 0.0
02/01/19 23:57 19.1 79 15.4 0.0 0.0 0 0.0 0.0 1015.0 0.0 0.0 19.1 0.0
02/01/19 23:58 19.1 80 15.6 0.0 0.0 0 0.0 0.0 1015.0 0.0 0.0 19.1 0.0
02/01/19 23:59 19.0 80 15.5 0.0 0.0 0 0.0 0.0 1015.0 0.0 0.0 19.0 0.0
 
  Back to Top
Date Time Temperature Humidity Dewpoint Wind Speed High Gust Wind Bearing Rainfall Rate Total Rainfall Pressure Gust Wind Chill Heat Index UV Index
03/01/19 00:00 19.1 80 15.6 0.0 0.0 0 0.0 0.0 1015.0 0.0 0.0 19.1 0.0
03/01/19 00:03 19.0 81 15.7 0.0 0.0 0 0.0 0.0 1015.0 0.0 0.0 19.0 0.0
03/01/19 00:04 19.0 82 15.9 0.0 0.0 0 0.0 0.0 1015.0 0.0 0.0 19.0 0.0
03/01/19 00:05 18.9 83 15.9 0.0 0.0 0 0.0 0.0 1015.0 0.0 0.0 18.9 0.0
03/01/19 00:06 18.9 82 15.8 0.0 0.0 0 0.0 0.0 1015.0 0.0 0.0 18.9 0.0
03/01/19 00:07 18.9 83 15.9 0.0 0.0 0 0.0 0.0 1015.0 0.0 0.0 18.9 0.0
03/01/19 00:08 18.9 83 15.9 0.0 0.0 0 0.0 0.0 1014.0 0.0 0.0 18.9 0.0
03/01/19 00:09 18.9 83 15.9 0.0 0.0 0 0.0 0.0 1014.0 0.0 0.0 18.9 0.0
03/01/19 00:10 18.9 83 15.9 0.0 0.0 0 0.0 0.0 1014.0 0.0 0.0 18.9 0.0
03/01/19 00:11 18.9 82 15.8 0.0 0.0 0 0.0 0.0 1014.0 0.0 0.0 18.9 0.0
03/01/19 00:12 18.8 83 15.9 0.0 0.0 0 0.0 0.0 1014.0 0.0 0.0 18.8 0.0
03/01/19 00:13 18.8 82 15.7 0.0 0.0 0 0.0 0.0 1014.0 0.0 0.0 18.8 0.0
03/01/19 00:14 18.8 83 15.9 0.0 0.0 0 0.0 0.0 1014.0 0.0 0.0 18.8 0.0
03/01/19 00:15 18.8 83 15.9 0.0 0.0 0 0.0 0.0 1014.0 0.0 0.0 18.8 0.0
03/01/19 00:18 18.7 82 15.6 0.0 0.0 0 0.0 0.0 1014.0 0.0 0.0 18.7 0.0
03/01/19 00:19 18.8 83 15.9 0.0 0.0 0 0.0 0.0 1014.0 0.0 0.0 18.8 0.0
03/01/19 00:20 18.7 83 15.8 0.0 0.0 0 0.0 0.0 1014.0 0.0 0.0 18.7 0.0
03/01/19 00:21 18.6 83 15.7 0.0 0.0 0 0.0 0.0 1014.0 0.0 0.0 18.6 0.0
03/01/19 00:22 18.6 82 15.5 0.0 0.0 0 0.0 0.0 1014.0 0.0 0.0 18.6 0.0
03/01/19 00:23 18.6 82 15.5 0.0 0.0 0 0.0 0.0 1015.0 0.0 0.0 18.6 0.0
03/01/19 00:24 18.6 82 15.5 0.0 0.0 0 0.0 0.0 1015.0 0.0 0.0 18.6 0.0
03/01/19 00:25 18.6 83 15.7 0.0 0.0 0 0.0 0.0 1015.0 0.0 0.0 18.6 0.0
03/01/19 00:26 18.6 83 15.7 0.0 0.0 0 0.0 0.0 1015.0 0.0 0.0 18.6 0.0
03/01/19 00:27 18.5 83 15.6 0.0 0.0 0 0.0 0.0 1015.0 0.0 0.0 18.5 0.0
03/01/19 00:28 18.6 83 15.7 0.0 0.0 0 0.0 0.0 1015.0 0.0 0.0 18.6 0.0
03/01/19 00:29 18.5 83 15.6 0.0 0.0 0 0.0 0.0 1015.0 0.0 0.0 18.5 0.0
03/01/19 00:30 18.5 82 15.4 0.0 0.0 0 0.0 0.0 1015.0 0.0 0.0 18.5 0.0
03/01/19 00:33 18.4 82 15.3 0.0 0.0 0 0.0 0.0 1015.0 0.0 0.0 18.4 0.0
03/01/19 00:34 18.4 83 15.5 0.0 0.0 0 0.0 0.0 1015.0 0.0 0.0 18.4 0.0
03/01/19 00:35 18.4 83 15.5 0.0 0.0 0 0.0 0.0 1015.0 0.0 0.0 18.4 0.0
03/01/19 00:36 18.4 83 15.5 0.0 0.0 0 0.0 0.0 1015.0 0.0 0.0 18.4 0.0
03/01/19 00:37 18.4 84 15.6 0.0 0.0 0 0.0 0.0 1015.0 0.0 0.0 18.4 0.0
03/01/19 00:38 18.4 85 15.8 0.0 0.0 0 0.0 0.0 1014.0 0.0 0.0 18.4 0.0
03/01/19 00:39 18.4 85 15.8 0.0 0.0 0 0.0 0.0 1014.0 0.0 0.0 18.4 0.0
03/01/19 00:40 18.3 84 15.5 0.0 0.0 0 0.0 0.0 1014.0 0.0 0.0 18.3 0.0
03/01/19 00:41 18.3 84 15.5 0.0 0.0 0 0.0 0.0 1014.0 0.0 0.0 18.3 0.0
03/01/19 00:42 18.3 85 15.7 0.0 0.0 0 0.0 0.0 1014.0 0.0 0.0 18.3 0.0
03/01/19 00:43 18.3 85 15.7 0.0 0.0 0 0.0 0.0 1014.0 0.0 0.0 18.3 0.0
03/01/19 00:44 18.3 84 15.5 0.0 0.0 0 0.0 0.0 1014.0 0.0 0.0 18.3 0.0
03/01/19 00:45 18.3 84 15.5 0.0 0.0 0 0.0 0.0 1014.0 0.0 0.0 18.3 0.0
03/01/19 00:48 18.2 84 15.5 0.0 0.0 0 0.0 0.0 1014.0 0.0 0.0 18.2 0.0
03/01/19 00:49 18.2 84 15.5 0.0 0.0 0 0.0 0.0 1014.0 0.0 0.0 18.2 0.0
03/01/19 00:50 18.2 84 15.5 0.0 0.0 0 0.0 0.0 1014.0 0.0 0.0 18.2 0.0
03/01/19 00:51 18.2 85 15.6 0.0 0.0 0 0.0 0.0 1014.0 0.0 0.0 18.2 0.0
03/01/19 00:52 18.2 85 15.6 0.0 0.0 0 0.0 0.0 1014.0 0.0 0.0 18.2 0.0
03/01/19 00:53 18.1 85 15.5 0.0 0.0 0 0.0 0.0 1014.0 0.0 0.0 18.1 0.0
03/01/19 00:54 18.1 86 15.7 0.0 0.0 0 0.0 0.0 1014.0 0.0 0.0 18.1 0.0
03/01/19 00:55 18.1 86 15.7 0.0 0.0 0 0.0 0.0 1014.0 0.0 0.0 18.1 0.0
03/01/19 00:56 18.1 86 15.7 0.0 0.0 0 0.0 0.0 1014.0 0.0 0.0 18.1 0.0
03/01/19 00:57 18.0 86 15.6 0.0 0.0 0 0.0 0.0 1014.0 0.0 0.0 18.0 0.0
03/01/19 00:58 18.0 85 15.4 0.0 0.0 0 0.0 0.0 1014.0 0.0 0.0 18.0 0.0
03/01/19 00:59 18.0 85 15.4 0.0 0.0 0 0.0 0.0 1014.0 0.0 0.0 18.0 0.0
03/01/19 01:00 18.0 86 15.6 0.0 0.0 0 0.0 0.0 1014.0 0.0 0.0 18.0 0.0
03/01/19 01:20 17.6 87 15.4 0.0 0.0 0 0.0 0.0 1014.0 0.0 0.0 17.6 0.0
03/01/19 01:21 17.6 87 15.4 0.0 0.0 0 0.0 0.0 1014.0 0.0 0.0 17.6 0.0
03/01/19 01:22 17.7 87 15.5 0.0 0.0 0 0.0 0.0 1014.0 0.0 0.0 17.7 0.0
03/01/19 01:23 17.6 88 15.6 0.0 0.0 0 0.0 0.0 1014.0 0.0 0.0 17.6 0.0
03/01/19 01:24 17.5 88 15.5 0.0 0.0 0 0.0 0.0 1014.0 0.0 0.0 17.5 0.0
03/01/19 01:25 17.5 87 15.3 0.0 0.0 0 0.0 0.0 1014.0 0.0 0.0 17.5 0.0
03/01/19 01:26 17.5 87 15.3 0.0 0.0 0 0.0 0.0 1014.0 0.0 0.0 17.5 0.0
03/01/19 01:27 17.5 87 15.3 0.0 0.0 0 0.0 0.0 1014.0 0.0 0.0 17.5 0.0
03/01/19 01:28 17.5 87 15.3 0.0 0.0 0 0.0 0.0 1014.0 0.0 0.0 17.5 0.0
03/01/19 01:29 17.5 87 15.3 0.0 0.0 0 0.0 0.0 1014.0 0.0 0.0 17.5 0.0
03/01/19 01:33 17.4 87 15.2 0.0 0.0 0 0.0 0.0 1014.0 0.0 0.0 17.4 0.0
03/01/19 01:34 17.4 87 15.2 0.0 0.0 0 0.0 0.0 1014.0 0.0 0.0 17.4 0.0
03/01/19 01:35 17.4 87 15.2 0.0 0.0 0 0.0 0.0 1014.0 0.0 0.0 17.4 0.0
03/01/19 01:36 17.4 89 15.6 0.0 0.0 0 0.0 0.0 1014.0 0.0 0.0 17.4 0.0
03/01/19 01:37 17.4 89 15.6 0.0 0.0 0 0.0 0.0 1014.0 0.0 0.0 17.4 0.0
03/01/19 01:38 17.3 88 15.3 0.0 0.0 0 0.0 0.0 1014.0 0.0 0.0 17.3 0.0
03/01/19 01:39 17.4 89 15.6 0.0 0.0 0 0.0 0.0 1014.0 0.0 0.0 17.4 0.0
03/01/19 01:40 17.3 89 15.5 0.0 0.0 0 0.0 0.0 1014.0 0.0 0.0 17.3 0.0
03/01/19 01:41 17.3 88 15.3 0.0 0.0 0 0.0 0.0 1014.0 0.0 0.0 17.3 0.0
03/01/19 01:42 17.3 88 15.3 0.0 0.0 0 0.0 0.0 1014.0 0.0 0.0 17.3 0.0
03/01/19 01:43 17.3 88 15.3 0.0 0.0 0 0.0 0.0 1014.0 0.0 0.0 17.3 0.0
03/01/19 01:44 17.3 88 15.3 0.0 0.0 0 0.0 0.0 1014.0 0.0 0.0 17.3 0.0
03/01/19 01:45 17.3 89 15.5 0.0 0.0 0 0.0 0.0 1014.0 0.0 0.0 17.3 0.0
03/01/19 01:48 17.3 89 15.5 0.0 0.0 0 0.0 0.0 1014.0 0.0 0.0 17.3 0.0
03/01/19 01:49 17.2 89 15.4 0.0 0.0 0 0.0 0.0 1014.0 0.0 0.0 17.2 0.0
03/01/19 01:50 17.2 89 15.4 0.0 0.0 0 0.0 0.0 1014.0 0.0 0.0 17.2 0.0
03/01/19 01:51 17.2 89 15.4 0.0 0.0 0 0.0 0.0 1014.0 0.0 0.0 17.2 0.0
03/01/19 01:52 17.3 90 15.6 0.0 0.0 0 0.0 0.0 1014.0 0.0 0.0 17.3 0.0
03/01/19 01:53 17.2 90 15.5 0.0 0.0 0 0.0 0.0 1014.0 0.0 0.0 17.2 0.0
03/01/19 01:54 17.2 90 15.5 0.0 0.0 0 0.0 0.0 1014.0 0.0 0.0 17.2 0.0
03/01/19 01:55 17.2 90 15.5 0.0 0.0 0 0.0 0.0 1014.0 0.0 0.0 17.2 0.0
03/01/19 01:56 17.1 90 15.4 0.0 0.0 0 0.0 0.0 1014.0 0.0 0.0 17.1 0.0
03/01/19 01:57 17.2 89 15.4 0.0 0.0 0 0.0 0.0 1014.0 0.0 0.0 17.2 0.0
03/01/19 01:58 17.1 90 15.4 0.0 0.0 0 0.0 0.0 1014.0 0.0 0.0 17.1 0.0
03/01/19 02:03 17.0 90 15.3 0.0 0.0 0 0.0 0.0 1014.0 0.0 0.0 17.0 0.0
03/01/19 02:04 17.0 90 15.3 0.0 0.0 0 0.0 0.0 1014.0 0.0 0.0 17.0 0.0
03/01/19 02:05 17.1 90 15.4 0.0 0.0 0 0.0 0.0 1014.0 0.0 0.0 17.1 0.0
03/01/19 02:06 17.0 91 15.5 0.0 0.0 0 0.0 0.0 1014.0 0.0 0.0 17.0 0.0
03/01/19 02:07 17.0 91 15.5 0.0 0.0 0 0.0 0.0 1014.0 0.0 0.0 17.0 0.0
03/01/19 02:08 17.0 91 15.5 0.0 0.0 0 0.0 0.0 1014.0 0.0 0.0 17.0 0.0
03/01/19 02:09 17.0 91 15.5 0.0 0.0 0 0.0 0.0 1014.0 0.0 0.0 17.0 0.0
03/01/19 02:10 17.0 92 15.7 0.0 0.0 0 0.0 0.0 1014.0 0.0 0.0 17.0 0.0
03/01/19 02:11 16.9 92 15.6 0.0 0.0 0 0.0 0.0 1014.0 0.0 0.0 16.9 0.0
03/01/19 02:12 16.9 92 15.6 0.0 0.0 0 0.0 0.0 1014.0 0.0 0.0 16.9 0.0
03/01/19 02:13 17.0 91 15.5 0.0 0.0 0 0.0 0.0 1014.0 0.0 0.0 17.0 0.0
03/01/19 02:14 16.9 92 15.6 0.0 0.0 0 0.0 0.0 1014.0 0.0 0.0 16.9 0.0
03/01/19 02:15 16.9 92 15.6 0.0 0.0 0 0.0 0.0 1014.0 0.0 0.0 16.9 0.0
03/01/19 02:18 16.9 91 15.4 0.0 0.0 0 0.0 0.0 1014.0 0.0 0.0 16.9 0.0
03/01/19 02:19 16.9 92 15.6 0.0 0.0 0 0.0 0.0 1014.0 0.0 0.0 16.9 0.0
03/01/19 02:20 16.8 92 15.5 0.0 0.0 0 0.0 0.0 1014.0 0.0 0.0 16.8 0.0
03/01/19 02:21 16.8 92 15.5 0.0 0.0 0 0.0 0.0 1014.0 0.0 0.0 16.8 0.0
03/01/19 02:22 16.9 91 15.4 0.0 0.0 0 0.0 0.0 1014.0 0.0 0.0 16.9 0.0
03/01/19 02:23 16.8 92 15.5 0.0 0.0 0 0.0 0.0 1014.0 0.0 0.0 16.8 0.0
03/01/19 02:24 16.8 92 15.5 0.0 0.0 0 0.0 0.0 1014.0 0.0 0.0 16.8 0.0
03/01/19 02:25 16.8 92 15.5 0.0 0.0 0 0.0 0.0 1014.0 0.0 0.0 16.8 0.0
03/01/19 02:26 16.8 91 15.3 0.0 0.0 0 0.0 0.0 1014.0 0.0 0.0 16.8 0.0
03/01/19 02:27 16.8 91 15.3 0.0 0.0 0 0.0 0.0 1014.0 0.0 0.0 16.8 0.0
03/01/19 02:28 16.8 91 15.3 0.0 0.0 0 0.0 0.0 1014.0 0.0 0.0 16.8 0.0
03/01/19 02:29 16.8 91 15.3 0.0 0.0 0 0.0 0.0 1014.0 0.0 0.0 16.8 0.0
03/01/19 02:30 16.8 91 15.3 0.0 0.0 0 0.0 0.0 1014.0 0.0 0.0 16.8 0.0
03/01/19 02:33 16.8 90 15.1 0.0 0.0 0 0.0 0.0 1014.0 0.0 0.0 16.8 0.0
03/01/19 02:34 16.7 90 15.1 0.0 0.0 0 0.0 0.0 1014.0 0.0 0.0 16.7 0.0
03/01/19 02:35 16.7 90 15.1 0.0 0.0 0 0.0 0.0 1014.0 0.0 0.0 16.7 0.0
03/01/19 02:36 16.7 90 15.1 0.0 0.0 0 0.0 0.0 1014.0 0.0 0.0 16.7 0.0
03/01/19 02:37 16.8 91 15.3 0.0 0.0 0 0.0 0.0 1014.0 0.0 0.0 16.8 0.0
03/01/19 02:38 16.8 92 15.5 0.0 0.0 0 0.0 0.0 1014.0 0.0 0.0 16.8 0.0
03/01/19 02:39 16.7 92 15.4 0.0 0.0 0 0.0 0.0 1014.0 0.0 0.0 16.7 0.0
03/01/19 02:40 16.7 92 15.4 0.0 0.0 0 0.0 0.0 1014.0 0.0 0.0 16.7 0.0
03/01/19 02:41 16.7 91 15.2 0.0 0.0 0 0.0 0.0 1014.0 0.0 0.0 16.7 0.0
03/01/19 02:42 16.7 91 15.2 0.0 0.0 0 0.0 0.0 1014.0 0.0 0.0 16.7 0.0
03/01/19 02:43 16.7 91 15.2 0.0 0.0 0 0.0 0.0 1014.0 0.0 0.0 16.7 0.0
03/01/19 02:44 16.6 91 15.1 0.0 0.0 0 0.0 0.0 1014.0 0.0 0.0 16.6 0.0
03/01/19 02:45 16.7 91 15.2 0.0 0.0 0 0.0 0.0 1014.0 0.0 0.0 16.7 0.0
03/01/19 02:48 16.6 91 15.1 0.0 0.0 0 0.0 0.0 1014.0 0.0 0.0 16.6 0.0
03/01/19 02:49 16.6 91 15.1 0.0 0.0 0 0.0 0.0 1014.0 0.0 0.0 16.6 0.0
03/01/19 02:50 16.5 91 15.0 0.0 0.0 0 0.0 0.0 1014.0 0.0 0.0 16.5 0.0
03/01/19 02:51 16.5 91 15.0 0.0 0.0 0 0.0 0.0 1014.0 0.0 0.0 16.5 0.0
03/01/19 02:52 16.5 91 15.0 0.0 0.0 0 0.0 0.0 1014.0 0.0 0.0 16.5 0.0
03/01/19 02:53 16.5 91 15.0 0.0 0.0 0 0.0 0.0 1014.0 0.0 0.0 16.5 0.0
03/01/19 02:54 16.5 91 15.0 0.0 0.0 0 0.0 0.0 1014.0 0.0 0.0 16.5 0.0
03/01/19 02:55 16.5 91 15.0 0.0 0.0 0 0.0 0.0 1014.0 0.0 0.0 16.5 0.0
03/01/19 02:56 16.5 91 15.0 0.0 0.0 0 0.0 0.0 1014.0 0.0 0.0 16.5 0.0
03/01/19 02:57 16.5 91 15.0 0.0 0.0 0 0.0 0.0 1014.0 0.0 0.0 16.5 0.0
03/01/19 02:58 16.5 91 15.0 0.0 0.0 0 0.0 0.0 1014.0 0.0 0.0 16.5 0.0
03/01/19 02:59 16.5 90 14.9 0.0 0.0 0 0.0 0.0 1014.0 0.0 0.0 16.5 0.0
03/01/19 03:03 16.4 90 14.8 0.0 0.0 0 0.0 0.0 1014.0 0.0 0.0 16.4 0.0
03/01/19 03:04 16.4 90 14.8 0.0 0.0 0 0.0 0.0 1014.0 0.0 0.0 16.4 0.0
03/01/19 03:05 16.3 90 14.7 0.0 0.0 0 0.0 0.0 1014.0 0.0 0.0 16.3 0.0
03/01/19 03:06 16.4 91 14.9 0.0 0.0 0 0.0 0.0 1014.0 0.0 0.0 16.4 0.0
03/01/19 03:07 16.3 91 14.8 0.0 0.0 0 0.0 0.0 1014.0 0.0 0.0 16.3 0.0
03/01/19 03:08 16.3 91 14.8 0.0 0.0 0 0.0 0.0 1014.0 0.0 0.0 16.3 0.0
03/01/19 03:09 16.3 91 14.8 0.0 0.0 0 0.0 0.0 1014.0 0.0 0.0 16.3 0.0
03/01/19 03:10 16.3 91 14.8 0.0 0.0 0 0.0 0.0 1014.0 0.0 0.0 16.3 0.0
03/01/19 03:11 16.3 91 14.8 0.0 0.0 0 0.0 0.0 1014.0 0.0 0.0 16.3 0.0
03/01/19 03:12 16.3 91 14.8 0.0 0.0 0 0.0 0.0 1014.0 0.0 0.0 16.3 0.0
03/01/19 03:13 16.3 91 14.8 0.0 0.0 0 0.0 0.0 1014.0 0.0 0.0 16.3 0.0
03/01/19 03:14 16.3 91 14.8 0.0 0.0 0 0.0 0.0 1014.0 0.0 0.0 16.3 0.0
03/01/19 03:15 16.3 91 14.8 0.0 0.0 0 0.0 0.0 1014.0 0.0 0.0 16.3 0.0
03/01/19 03:18 16.3 91 14.8 0.0 0.0 0 0.0 0.0 1014.0 0.0 0.0 16.3 0.0
03/01/19 03:19 16.3 91 14.8 0.0 0.0 0 0.0 0.0 1014.0 0.0 0.0 16.3 0.0
03/01/19 03:20 16.3 91 14.8 0.0 0.0 0 0.0 0.0 1014.0 0.0 0.0 16.3 0.0
03/01/19 03:21 16.3 91 14.8 0.0 0.0 0 0.0 0.0 1014.0 0.0 0.0 16.3 0.0
03/01/19 03:22 16.3 91 14.8 0.0 0.0 0 0.0 0.0 1014.0 0.0 0.0 16.3 0.0
03/01/19 03:23 16.3 91 14.8 0.0 0.0 0 0.0 0.0 1013.0 0.0 0.0 16.3 0.0
03/01/19 03:24 16.3 91 14.8 0.0 0.0 0 0.0 0.0 1013.0 0.0 0.0 16.3 0.0
03/01/19 03:25 16.3 92 15.0 0.0 0.0 0 0.0 0.0 1013.0 0.0 0.0 16.3 0.0
03/01/19 03:26 16.3 92 15.0 0.0 0.0 0 0.0 0.0 1013.0 0.0 0.0 16.3 0.0
03/01/19 03:27 16.3 92 15.0 0.0 0.0 0 0.0 0.0 1013.0 0.0 0.0 16.3 0.0
03/01/19 03:28 16.3 92 15.0 0.0 0.0 0 0.0 0.0 1013.0 0.0 0.0 16.3 0.0
03/01/19 03:29 16.3 92 15.0 0.0 0.0 0 0.0 0.0 1013.0 0.0 0.0 16.3 0.0
03/01/19 03:30 16.2 91 14.7 0.0 0.0 0 0.0 0.0 1013.0 0.0 0.0 16.2 0.0
03/01/19 03:33 16.2 91 14.7 0.0 0.0 0 0.0 0.0 1013.0 0.0 0.0 16.2 0.0
03/01/19 03:34 16.2 91 14.7 0.0 0.0 0 0.0 0.0 1013.0 0.0 0.0 16.2 0.0
03/01/19 03:35 16.2 91 14.7 0.0 0.0 0 0.0 0.0 1013.0 0.0 0.0 16.2 0.0
03/01/19 03:36 16.2 91 14.7 0.0 0.0 0 0.0 0.0 1013.0 0.0 0.0 16.2 0.0
03/01/19 03:37 16.2 91 14.7 0.0 0.0 0 0.0 0.0 1013.0 0.0 0.0 16.2 0.0
03/01/19 03:38 16.1 91 14.6 0.0 0.0 0 0.0 0.0 1014.0 0.0 0.0 16.1 0.0
03/01/19 03:39 16.1 91 14.6 0.0 0.0 0 0.0 0.0 1014.0 0.0 0.0 16.1 0.0
03/01/19 03:40 16.1 91 14.6 0.0 0.0 0 0.0 0.0 1014.0 0.0 0.0 16.1 0.0
03/01/19 03:41 16.1 91 14.6 0.0 0.0 0 0.0 0.0 1014.0 0.0 0.0 16.1 0.0
03/01/19 03:42 16.1 91 14.6 0.0 0.0 0 0.0 0.0 1014.0 0.0 0.0 16.1 0.0
03/01/19 03:43 16.1 91 14.6 0.0 0.0 0 0.0 0.0 1014.0 0.0 0.0 16.1 0.0
03/01/19 03:44 16.1 91 14.6 0.0 0.0 0 0.0 0.0 1014.0 0.0 0.0 16.1 0.0
03/01/19 03:45 16.1 91 14.6 0.0 0.0 0 0.0 0.0 1014.0 0.0 0.0 16.1 0.0
03/01/19 03:48 16.0 91 14.5 0.0 0.0 0 0.0 0.0 1014.0 0.0 0.0 16.0 0.0
03/01/19 03:49 16.0 91 14.5 0.0 0.0 0 0.0 0.0 1014.0 0.0 0.0 16.0 0.0
03/01/19 03:50 16.0 91 14.5 0.0 0.0 0 0.0 0.0 1014.0 0.0 0.0 16.0 0.0
03/01/19 03:51 16.0 91 14.5 0.0 0.0 0 0.0 0.0 1014.0 0.0 0.0 16.0 0.0
03/01/19 03:52 16.0 91 14.5 0.0 0.0 0 0.0 0.0 1014.0 0.0 0.0 16.0 0.0
03/01/19 03:53 16.0 92 14.7 0.0 0.0 0 0.0 0.0 1013.0 0.0 0.0 16.0 0.0
03/01/19 03:54 16.0 92 14.7 0.0 0.0 0 0.0 0.0 1013.0 0.0 0.0 16.0 0.0
03/01/19 03:55 16.0 92 14.7 0.0 0.0 0 0.0 0.0 1013.0 0.0 0.0 16.0 0.0
03/01/19 03:56 16.0 92 14.7 0.0 0.0 0 0.0 0.0 1013.0 0.0 0.0 16.0 0.0
03/01/19 03:57 15.9 92 14.6 0.0 0.0 0 0.0 0.0 1013.0 0.0 0.0 15.9 0.0
03/01/19 03:58 16.0 92 14.7 0.0 0.0 0 0.0 0.0 1013.0 0.0 0.0 16.0 0.0
03/01/19 03:59 15.9 92 14.6 0.0 0.0 0 0.0 0.0 1013.0 0.0 0.0 15.9 0.0
03/01/19 04:00 15.9 92 14.6 0.0 0.0 0 0.0 0.0 1013.0 0.0 0.0 15.9 0.0
03/01/19 04:03 15.9 92 14.6 0.0 0.0 0 0.0 0.0 1013.0 0.0 0.0 15.9 0.0
03/01/19 04:04 15.9 92 14.6 0.0 0.0 0 0.0 0.0 1013.0 0.0 0.0 15.9 0.0
03/01/19 04:05 15.8 92 14.5 0.0 0.0 0 0.0 0.0 1013.0 0.0 0.0 15.8 0.0
03/01/19 04:06 15.8 92 14.5 0.0 0.0 0 0.0 0.0 1013.0 0.0 0.0 15.8 0.0
03/01/19 04:07 15.8 92 14.5 0.0 0.0 0 0.0 0.0 1013.0 0.0 0.0 15.8 0.0
03/01/19 04:08 15.8 92 14.5 0.0 0.0 0 0.0 0.0 1013.0 0.0 0.0 15.8 0.0
03/01/19 04:09 15.8 92 14.5 0.0 0.0 0 0.0 0.0 1013.0 0.0 0.0 15.8 0.0
03/01/19 04:10 15.8 92 14.5 0.0 0.0 0 0.0 0.0 1013.0 0.0 0.0 15.8 0.0
03/01/19 04:11 15.8 92 14.5 0.0 0.0 0 0.0 0.0 1013.0 0.0 0.0 15.8 0.0
03/01/19 04:12 15.8 92 14.5 0.0 0.0 0 0.0 0.0 1013.0 0.0 0.0 15.8 0.0
03/01/19 04:13 15.8 92 14.5 0.0 0.0 0 0.0 0.0 1013.0 0.0 0.0 15.8 0.0
03/01/19 04:14 15.8 92 14.5 0.0 0.0 0 0.0 0.0 1013.0 0.0 0.0 15.8 0.0
03/01/19 04:15 15.7 92 14.4 0.0 0.0 0 0.0 0.0 1013.0 0.0 0.0 15.7 0.0
03/01/19 04:18 15.7 92 14.4 0.0 0.0 0 0.0 0.0 1013.0 0.0 0.0 15.7 0.0
03/01/19 04:19 15.6 92 14.3 0.0 0.0 0 0.0 0.0 1013.0 0.0 0.0 15.6 0.0
03/01/19 04:20 15.6 92 14.3 0.0 0.0 0 0.0 0.0 1013.0 0.0 0.0 15.6 0.0
03/01/19 04:21 15.6 92 14.3 0.0 0.0 0 0.0 0.0 1013.0 0.0 0.0 15.6 0.0
03/01/19 04:22 15.6 92 14.3 0.0 0.0 0 0.0 0.0 1013.0 0.0 0.0 15.6 0.0
03/01/19 04:23 15.6 92 14.3 0.0 0.0 0 0.0 0.0 1014.0 0.0 0.0 15.6 0.0
03/01/19 04:24 15.6 92 14.3 0.0 0.0 0 0.0 0.0 1014.0 0.0 0.0 15.6 0.0
03/01/19 04:25 15.6 92 14.3 0.0 0.0 0 0.0 0.0 1014.0 0.0 0.0 15.6 0.0
03/01/19 04:26 15.6 92 14.3 0.0 0.0 0 0.0 0.0 1014.0 0.0 0.0 15.6 0.0
03/01/19 04:27 15.6 92 14.3 0.0 0.0 0 0.0 0.0 1014.0 0.0 0.0 15.6 0.0
03/01/19 04:28 15.6 93 14.5 0.0 0.0 0 0.0 0.0 1014.0 0.0 0.0 15.6 0.0
03/01/19 04:29 15.6 93 14.5 0.0 0.0 0 0.0 0.0 1014.0 0.0 0.0 15.6 0.0
03/01/19 04:30 15.6 93 14.5 0.0 0.0 0 0.0 0.0 1014.0 0.0 0.0 15.6 0.0
03/01/19 04:33 15.5 93 14.4 0.0 0.0 0 0.0 0.0 1014.0 0.0 0.0 15.5 0.0
03/01/19 04:34 15.5 93 14.4 0.0 0.0 0 0.0 0.0 1014.0 0.0 0.0 15.5 0.0
03/01/19 04:35 15.5 93 14.4 0.0 0.0 0 0.0 0.0 1014.0 0.0 0.0 15.5 0.0
03/01/19 04:36 15.5 93 14.4 0.0 0.0 0 0.0 0.0 1014.0 0.0 0.0 15.5 0.0
03/01/19 04:37 15.5 93 14.4 0.0 0.0 0 0.0 0.0 1014.0 0.0 0.0 15.5 0.0
03/01/19 04:38 15.5 93 14.4 0.0 0.0 0 0.0 0.0 1014.0 0.0 0.0 15.5 0.0
03/01/19 04:39 15.5 93 14.4 0.0 0.0 0 0.0 0.0 1014.0 0.0 0.0 15.5 0.0
03/01/19 04:40 15.5 93 14.4 0.0 0.0 0 0.0 0.0 1014.0 0.0 0.0 15.5 0.0
03/01/19 04:41 15.5 93 14.4 0.0 0.0 0 0.0 0.0 1014.0 0.0 0.0 15.5 0.0
03/01/19 04:42 15.5 93 14.4 0.0 0.0 0 0.0 0.0 1014.0 0.0 0.0 15.5 0.0
03/01/19 04:43 15.5 93 14.4 0.0 0.0 0 0.0 0.0 1014.0 0.0 0.0 15.5 0.0
03/01/19 04:44 15.5 93 14.4 0.0 0.0 0 0.0 0.0 1014.0 0.0 0.0 15.5 0.0
03/01/19 05:03 15.3 93 14.2 0.0 0.0 0 0.0 0.0 1014.0 0.0 0.0 15.3 0.0
03/01/19 05:04 15.3 93 14.2 0.0 0.0 0 0.0 0.0 1014.0 0.0 0.0 15.3 0.0
03/01/19 05:05 15.3 93 14.2 0.0 0.0 0 0.0 0.0 1014.0 0.0 0.0 15.3 0.0
03/01/19 05:06 15.3 93 14.2 0.0 0.0 0 0.0 0.0 1014.0 0.0 0.0 15.3 0.0
03/01/19 05:07 15.3 93 14.2 0.0 0.0 0 0.0 0.0 1014.0 0.0 0.0 15.3 0.0
03/01/19 05:08 15.2 93 14.1 0.0 0.0 0 0.0 0.0 1014.0 0.0 0.0 15.2 0.0
03/01/19 05:09 15.2 93 14.1 0.0 0.0 0 0.0 0.0 1014.0 0.0 0.0 15.2 0.0
03/01/19 05:10 15.2 93 14.1 0.0 0.0 0 0.0 0.0 1014.0 0.0 0.0 15.2 0.0
03/01/19 05:11 15.2 93 14.1 0.0 0.0 0 0.0 0.0 1014.0 0.0 0.0 15.2 0.0
03/01/19 05:12 15.2 93 14.1 0.0 0.0 0 0.0 0.0 1014.0 0.0 0.0 15.2 0.0
03/01/19 05:13 15.2 93 14.1 0.0 0.0 0 0.0 0.0 1014.0 0.0 0.0 15.2 0.0
03/01/19 05:14 15.2 93 14.1 0.0 0.0 0 0.0 0.0 1014.0 0.0 0.0 15.2 0.0
03/01/19 05:15 15.2 93 14.1 0.0 0.0 0 0.0 0.0 1014.0 0.0 0.0 15.2 0.0
03/01/19 05:18 15.2 93 14.1 0.0 0.0 0 0.0 0.0 1014.0 0.0 0.0 15.2 0.0
03/01/19 05:19 15.1 93 14.0 0.0 0.0 0 0.0 0.0 1014.0 0.0 0.0 15.1 0.0
03/01/19 05:20 15.1 93 14.0 0.0 0.0 0 0.0 0.0 1014.0 0.0 0.0 15.1 0.0
03/01/19 05:21 15.1 93 14.0 0.0 0.0 0 0.0 0.0 1014.0 0.0 0.0 15.1 0.0
03/01/19 05:22 15.1 93 14.0 0.0 0.0 0 0.0 0.0 1014.0 0.0 0.0 15.1 0.0
03/01/19 05:23 15.1 93 14.0 0.0 0.0 0 0.0 0.0 1014.0 0.0 0.0 15.1 0.0
03/01/19 05:24 15.1 93 14.0 0.0 0.0 0 0.0 0.0 1014.0 0.0 0.0 15.1 0.0
03/01/19 05:25 15.1 93 14.0 0.0 0.0 0 0.0 0.0 1014.0 0.0 0.0 15.1 0.0
03/01/19 05:26 15.1 93 14.0 0.0 0.0 0 0.0 0.0 1014.0 0.0 0.0 15.1 0.0
03/01/19 05:27 15.0 93 13.9 0.0 0.0 0 0.0 0.0 1014.0 0.0 0.0 15.0 0.0
03/01/19 05:28 15.0 94 14.0 0.0 0.0 0 0.0 0.0 1014.0 0.0 0.0 15.0 0.0
03/01/19 05:29 15.0 94 14.0 0.0 0.0 0 0.0 0.0 1014.0 0.0 0.0 15.0 0.0
03/01/19 05:30 15.0 94 14.0 0.0 0.0 0 0.0 0.0 1014.0 0.0 0.0 15.0 0.0
03/01/19 05:33 14.9 94 13.9 0.0 0.0 0 0.0 0.0 1014.0 0.0 0.0 14.9 0.0
03/01/19 05:34 14.9 94 13.9 0.0 0.0 0 0.0 0.0 1014.0 0.0 0.0 14.9 0.0
03/01/19 05:35 14.9 94 13.9 0.0 0.0 0 0.0 0.0 1014.0 0.0 0.0 14.9 0.0
03/01/19 05:36 14.9 94 13.9 0.0 0.0 0 0.0 0.0 1014.0 0.0 0.0 14.9 0.0
03/01/19 05:37 14.9 94 13.9 0.0 0.0 0 0.0 0.0 1014.0 0.0 0.0 14.9 0.0
03/01/19 05:38 14.9 94 13.9 0.0 0.0 0 0.0 0.0 1014.0 0.0 0.0 14.9 0.0
03/01/19 05:39 14.9 94 13.9 0.0 0.0 0 0.0 0.0 1014.0 0.0 0.0 14.9 0.0
03/01/19 05:40 14.9 94 13.9 0.0 0.0 0 0.0 0.0 1014.0 0.0 0.0 14.9 0.0
03/01/19 05:41 14.9 94 13.9 0.0 0.0 0 0.0 0.0 1014.0 0.0 0.0 14.9 0.0
03/01/19 05:42 14.9 94 13.9 0.0 0.0 0 0.0 0.0 1014.0 0.0 0.0 14.9 0.0
03/01/19 05:43 14.9 94 13.9 0.0 0.0 0 0.0 0.0 1014.0 0.0 0.0 14.9 0.0
03/01/19 05:44 14.9 94 13.9 0.0 0.0 0 0.0 0.0 1014.0 0.0 0.0 14.9 0.0
03/01/19 05:45 14.9 94 13.9 0.0 0.0 0 0.0 0.0 1014.0 0.0 0.0 14.9 0.0
03/01/19 05:48 14.8 94 13.8 0.0 0.0 0 0.0 0.0 1014.0 0.0 0.0 14.8 0.0
03/01/19 05:49 14.8 94 13.8 0.0 0.0 0 0.0 0.0 1014.0 0.0 0.0 14.8 0.0
03/01/19 05:50 14.8 94 13.8 0.0 0.0 0 0.0 0.0 1014.0 0.0 0.0 14.8 0.0
03/01/19 05:51 14.7 94 13.7 0.0 0.0 0 0.0 0.0 1014.0 0.0 0.0 14.7 0.0
03/01/19 05:52 14.7 94 13.7 0.0 0.0 0 0.0 0.0 1014.0 0.0 0.0 14.7 0.0
03/01/19 05:53 14.7 94 13.7 0.0 0.0 0 0.0 0.0 1015.0 0.0 0.0 14.7 0.0
03/01/19 05:54 14.7 94 13.7 0.0 0.0 0 0.0 0.0 1015.0 0.0 0.0 14.7 0.0
03/01/19 05:55 14.7 94 13.7 0.0 0.0 0 0.0 0.0 1015.0 0.0 0.0 14.7 0.0
03/01/19 05:56 14.7 94 13.7 0.0 0.0 0 0.0 0.0 1015.0 0.0 0.0 14.7 0.0
03/01/19 05:57 14.7 94 13.7 0.0 0.0 0 0.0 0.0 1015.0 0.0 0.0 14.7 0.0
03/01/19 05:58 14.7 94 13.7 0.0 0.0 0 0.0 0.0 1015.0 0.0 0.0 14.7 0.0
03/01/19 05:59 14.7 94 13.7 0.0 0.0 0 0.0 0.0 1015.0 0.0 0.0 14.7 0.0
03/01/19 06:03 14.6 94 13.6 0.0 0.0 0 0.0 0.0 1015.0 0.0 0.0 14.6 0.0
03/01/19 06:04 14.5 94 13.5 0.0 0.0 0 0.0 0.0 1015.0 0.0 0.0 14.5 0.0
03/01/19 06:05 14.5 94 13.5 0.0 0.0 0 0.0 0.0 1015.0 0.0 0.0 14.5 0.0
03/01/19 06:06 14.5 94 13.5 0.0 0.0 0 0.0 0.0 1015.0 0.0 0.0 14.5 0.0
03/01/19 06:07 14.5 94 13.5 0.0 0.0 0 0.0 0.0 1015.0 0.0 0.0 14.5 0.0
03/01/19 06:08 14.5 94 13.5 0.0 0.0 0 0.0 0.0 1015.0 0.0 0.0 14.5 0.0
03/01/19 06:09 14.5 94 13.5 0.0 0.0 0 0.0 0.0 1015.0 0.0 0.0 14.5 0.0
03/01/19 06:10 14.5 94 13.5 0.0 0.0 0 0.0 0.0 1015.0 0.0 0.0 14.5 0.0
03/01/19 06:11 14.5 94 13.5 0.0 0.0 0 0.0 0.0 1015.0 0.0 0.0 14.5 0.0
03/01/19 06:12 14.5 94 13.5 0.0 0.0 0 0.0 0.0 1015.0 0.0 0.0 14.5 0.0
03/01/19 06:13 14.6 94 13.6 0.0 0.0 0 0.0 0.0 1015.0 0.0 0.0 14.6 0.0
03/01/19 06:14 14.6 95 13.8 0.0 0.0 0 0.0 0.0 1015.0 0.0 0.0 14.6 0.0
03/01/19 06:15 14.6 95 13.8 0.0 0.0 0 0.0 0.0 1015.0 0.0 0.0 14.6 0.0
03/01/19 06:18 14.6 95 13.8 0.0 0.0 0 0.0 0.0 1015.0 0.0 0.0 14.6 0.0
03/01/19 06:33 14.8 95 14.0 0.0 0.0 0 0.0 0.0 1015.0 0.0 0.0 14.8 0.0
03/01/19 06:34 14.9 95 14.1 0.0 0.0 0 0.0 0.0 1015.0 0.0 0.0 14.9 0.0
03/01/19 06:35 14.9 95 14.1 0.0 0.0 0 0.0 0.0 1015.0 0.0 0.0 14.9 0.0
03/01/19 06:36 14.9 95 14.1 0.0 0.0 0 0.0 0.0 1015.0 0.0 0.0 14.9 0.0
03/01/19 06:37 14.9 95 14.1 0.0 0.0 0 0.0 0.0 1015.0 0.0 0.0 14.9 0.0
03/01/19 06:38 15.0 95 14.2 0.0 0.0 0 0.0 0.0 1015.0 0.0 0.0 15.0 0.0
03/01/19 06:39 15.0 95 14.2 0.0 0.0 0 0.0 0.0 1015.0 0.0 0.0 15.0 0.0
03/01/19 06:40 15.0 95 14.2 0.0 0.0 0 0.0 0.0 1015.0 0.0 0.0 15.0 0.0
03/01/19 06:41 15.0 95 14.2 0.0 0.0 0 0.0 0.0 1015.0 0.0 0.0 15.0 0.0
03/01/19 06:42 15.0 95 14.2 0.0 0.0 0 0.0 0.0 1015.0 0.0 0.0 15.0 0.0
03/01/19 06:43 15.0 95 14.2 0.0 0.0 0 0.0 0.0 1015.0 0.0 0.0 15.0 0.0
03/01/19 06:44 15.0 95 14.2 0.0 0.0 0 0.0 0.0 1015.0 0.0 0.0 15.0 0.0
03/01/19 06:45 15.1 95 14.3 0.0 0.0 0 0.0 0.0 1015.0 0.0 0.0 15.1 0.0
03/01/19 06:48 15.1 95 14.3 0.0 0.0 0 0.0 0.0 1015.0 0.0 0.0 15.1 0.0
03/01/19 06:49 15.2 95 14.4 0.0 0.0 0 0.0 0.0 1015.0 0.0 0.0 15.2 0.0
03/01/19 06:50 15.2 95 14.4 0.0 0.0 0 0.0 0.0 1015.0 0.0 0.0 15.2 0.0
03/01/19 06:51 15.2 95 14.4 0.0 0.0 0 0.0 0.0 1015.0 0.0 0.0 15.2 0.0
03/01/19 06:52 15.2 95 14.4 0.0 0.0 0 0.0 0.0 1015.0 0.0 0.0 15.2 0.0
03/01/19 06:53 15.3 95 14.5 0.0 0.0 0 0.0 0.0 1014.0 0.0 0.0 15.3 0.0
03/01/19 06:54 15.3 95 14.5 0.0 0.0 0 0.0 0.0 1014.0 0.0 0.0 15.3 0.0
03/01/19 06:55 15.3 95 14.5 0.0 0.0 0 0.0 0.0 1014.0 0.0 0.0 15.3 0.0
03/01/19 06:56 15.4 95 14.6 0.0 0.0 0 0.0 0.0 1014.0 0.0 0.0 15.4 0.0
03/01/19 06:57 15.4 95 14.6 0.0 0.0 0 0.0 0.0 1014.0 0.0 0.0 15.4 0.0
03/01/19 06:58 15.4 95 14.6 0.0 0.0 0 0.0 0.0 1014.0 0.0 0.0 15.4 0.0
03/01/19 06:59 15.5 95 14.7 0.0 0.0 0 0.0 0.0 1014.0 0.0 0.0 15.5 0.0
03/01/19 07:00 15.7 95 14.9 0.0 0.0 0 0.0 0.0 1014.0 0.0 0.0 15.7 0.0
03/01/19 07:03 16.0 94 15.0 0.0 0.0 0 0.0 0.0 1014.0 0.0 0.0 16.0 0.0
03/01/19 07:04 16.0 94 15.0 0.0 0.0 0 0.0 0.0 1014.0 0.0 0.0 16.0 0.0
03/01/19 07:05 16.1 94 15.1 0.0 0.0 0 0.0 0.0 1014.0 0.0 0.0 16.1 0.0
03/01/19 07:06 16.1 94 15.1 0.0 0.0 0 0.0 0.0 1014.0 0.0 0.0 16.1 0.0
03/01/19 07:07 16.2 94 15.2 0.0 0.0 0 0.0 0.0 1014.0 0.0 0.0 16.2 0.0
03/01/19 07:08 16.2 94 15.2 0.0 0.0 0 0.0 0.0 1014.0 0.0 0.0 16.2 0.0
03/01/19 07:09 16.3 94 15.3 0.0 0.0 0 0.0 0.0 1014.0 0.0 0.0 16.3 0.0
03/01/19 07:10 16.3 94 15.3 0.0 0.0 0 0.0 0.0 1014.0 0.0 0.0 16.3 0.0
03/01/19 07:11 16.4 94 15.4 0.0 0.0 0 0.0 0.0 1014.0 0.0 0.0 16.4 0.0
03/01/19 07:12 16.5 93 15.4 0.0 0.0 0 0.0 0.0 1014.0 0.0 0.0 16.5 0.0
03/01/19 07:13 16.5 93 15.4 0.0 0.0 0 0.0 0.0 1014.0 0.0 0.0 16.5 0.0
03/01/19 07:14 16.6 93 15.5 0.0 0.0 0 0.0 0.0 1014.0 0.0 0.0 16.6 0.0
03/01/19 07:15 16.6 93 15.5 0.0 0.0 0 0.0 0.0 1014.0 0.0 0.0 16.6 0.0
03/01/19 07:18 17.0 93 15.9 0.0 0.0 0 0.0 0.0 1014.0 0.0 0.0 17.0 0.0
03/01/19 07:19 17.1 93 16.0 0.0 0.0 0 0.0 0.0 1014.0 0.0 0.0 17.1 0.0
03/01/19 07:20 17.4 92 16.1 0.0 0.0 0 0.0 0.0 1014.0 0.0 0.0 17.4 0.0
03/01/19 07:21 17.6 92 16.3 0.0 0.0 0 0.0 0.0 1014.0 0.0 0.0 17.6 0.0
03/01/19 07:22 17.9 92 16.6 0.0 0.0 0 0.0 0.0 1014.0 0.0 0.0 17.9 0.0
03/01/19 07:23 18.2 91 16.7 0.0 0.0 0 0.0 0.0 1015.0 0.0 0.0 18.2 0.0
03/01/19 07:24 18.6 91 17.1 0.0 0.0 0 0.0 0.0 1015.0 0.0 0.0 18.6 0.0
03/01/19 07:25 18.9 91 17.4 0.0 0.0 0 0.0 0.0 1015.0 0.0 0.0 18.9 0.0
03/01/19 07:26 19.2 90 17.5 0.0 0.0 0 0.0 0.0 1015.0 0.0 0.0 19.2 0.0
03/01/19 07:27 19.5 89 17.6 0.0 0.0 0 0.0 0.0 1015.0 0.0 0.0 19.5 0.0
03/01/19 07:28 19.8 88 17.8 0.0 0.0 0 0.0 0.0 1015.0 0.0 0.0 19.8 0.0
03/01/19 07:29 20.0 87 17.8 0.0 0.0 0 0.0 0.0 1015.0 0.0 0.0 20.0 0.0
03/01/19 07:33 20.4 83 17.4 0.0 0.0 0 0.0 0.0 1015.0 0.0 0.0 20.4 0.0
03/01/19 07:34 20.6 83 17.6 0.0 0.0 0 0.0 0.0 1015.0 0.0 0.0 20.6 0.0
03/01/19 07:35 21.0 82 17.8 0.0 0.0 0 0.0 0.0 1015.0 0.0 0.0 21.0 0.0
03/01/19 07:36 21.0 81 17.6 0.0 0.0 0 0.0 0.0 1015.0 0.0 0.0 21.0 0.0
03/01/19 07:37 21.2 81 17.8 0.0 0.0 0 0.0 0.0 1015.0 0.0 0.0 21.2 0.0
03/01/19 07:38 21.2 80 17.6 0.0 0.0 0 0.0 0.0 1015.0 0.0 0.0 21.2 0.0
03/01/19 07:39 21.3 79 17.5 0.0 0.0 0 0.0 0.0 1015.0 0.0 0.0 21.3 0.0
03/01/19 07:40 21.3 77 17.1 0.0 0.0 0 0.0 0.0 1015.0 0.0 0.0 21.3 0.0
03/01/19 07:41 21.3 77 17.1 0.0 0.0 0 0.0 0.0 1015.0 0.0 0.0 21.3 0.0
03/01/19 07:42 21.1 76 16.7 0.0 0.0 0 0.0 0.0 1015.0 0.0 0.0 21.1 0.0
03/01/19 07:43 21.4 78 17.4 0.0 0.0 0 0.0 0.0 1015.0 0.0 0.0 21.4 0.0
03/01/19 07:44 21.5 78 17.5 0.0 0.0 0 0.0 0.0 1015.0 0.0 0.0 21.5 0.0
03/01/19 07:45 21.7 77 17.5 0.0 0.0 0 0.0 0.0 1015.0 0.0 0.0 21.7 0.0
03/01/19 07:48 21.9 76 17.5 0.0 0.0 0 0.0 0.0 1015.0 0.0 0.0 21.9 0.0
03/01/19 07:49 22.1 75 17.5 0.0 0.0 0 0.0 0.0 1015.0 0.0 0.0 22.1 0.0
03/01/19 07:50 22.3 74 17.4 0.0 0.0 0 0.0 0.0 1015.0 0.0 0.0 22.3 0.0
03/01/19 07:51 22.2 71 16.7 0.0 0.0 0 0.0 0.0 1015.0 0.0 0.0 22.2 0.0
03/01/19 07:52 22.2 71 16.7 0.0 0.0 0 0.0 0.0 1015.0 0.0 0.0 22.2 0.0
03/01/19 07:53 22.3 72 17.0 0.0 0.0 0 0.0 0.0 1015.0 0.0 0.0 22.3 0.0
03/01/19 07:54 22.4 72 17.1 0.0 0.0 0 0.0 0.0 1015.0 0.0 0.0 22.4 0.0
03/01/19 07:55 22.6 72 17.3 0.0 0.0 0 0.0 0.0 1015.0 0.0 0.0 22.6 0.0
03/01/19 07:56 22.8 72 17.5 0.0 0.0 0 0.0 0.0 1015.0 0.0 0.0 22.8 0.0
03/01/19 07:57 22.9 70 17.1 0.0 0.0 0 0.0 0.0 1015.0 0.0 0.0 22.9 0.0
03/01/19 07:58 23.1 68 16.9 0.0 0.0 0 0.0 0.0 1015.0 0.0 0.0 23.1 0.0
03/01/19 07:59 23.2 69 17.2 0.0 0.0 0 0.0 0.0 1015.0 0.0 0.0 23.2 0.0
03/01/19 08:00 23.2 69 17.2 0.0 0.0 0 0.0 0.0 1015.0 0.0 0.0 23.2 0.0
03/01/19 08:03 23.2 69 17.2 0.0 0.0 0 0.0 0.0 1015.0 0.0 0.0 23.2 0.0
03/01/19 08:04 23.4 68 17.2 0.0 0.0 0 0.0 0.0 1015.0 0.0 0.0 23.4 0.0
03/01/19 08:05 23.6 67 17.1 0.0 0.0 0 0.0 0.0 1015.0 0.0 0.0 23.6 0.0
03/01/19 08:06 23.7 67 17.2 0.0 0.0 0 0.0 0.0 1015.0 0.0 0.0 23.7 0.0
03/01/19 08:07 23.8 67 17.3 0.0 0.0 0 0.0 0.0 1015.0 0.0 0.0 23.8 0.0
03/01/19 08:08 23.8 65 16.8 0.0 0.0 0 0.0 0.0 1015.0 0.0 0.0 23.8 0.0
03/01/19 08:09 23.7 66 17.0 0.0 0.0 0 0.0 0.0 1015.0 0.0 0.0 23.7 0.0
03/01/19 08:10 23.7 66 17.0 0.0 0.0 0 0.0 0.0 1015.0 0.0 0.0 23.7 0.0
03/01/19 08:11 23.8 67 17.3 0.0 0.0 0 0.0 0.0 1015.0 0.0 0.0 23.8 0.0
03/01/19 08:12 23.8 66 17.1 0.0 0.0 0 0.0 0.0 1015.0 0.0 0.0 23.8 0.0
03/01/19 08:13 24.0 66 17.3 0.0 0.0 0 0.0 0.0 1015.0 0.0 0.0 24.0 0.0
03/01/19 08:14 24.1 65 17.1 0.0 0.0 0 0.0 0.0 1015.0 0.0 0.0 24.1 0.0
03/01/19 08:15 24.2 65 17.2 0.0 0.0 0 0.0 0.0 1015.0 0.0 0.0 24.2 0.0
03/01/19 08:18 24.6 63 17.1 0.0 0.0 0 0.0 0.0 1015.0 0.0 0.0 24.6 0.0
03/01/19 08:19 24.8 64 17.5 0.0 0.0 0 0.0 0.0 1015.0 0.0 0.0 24.8 0.0
03/01/19 08:20 24.9 63 17.4 0.0 0.0 0 0.0 0.0 1015.0 0.0 0.0 24.9 0.0
03/01/19 08:21 25.2 61 17.1 0.0 0.0 0 0.0 0.0 1015.0 0.0 0.0 25.2 0.0
03/01/19 08:22 25.3 61 17.2 0.0 0.0 0 0.0 0.0 1015.0 0.0 0.0 25.3 0.0
03/01/19 08:23 25.4 62 17.6 0.0 0.0 0 0.0 0.0 1015.0 0.0 0.0 25.4 0.0
03/01/19 08:24 25.3 61 17.2 0.0 0.0 0 0.0 0.0 1015.0 0.0 0.0 25.3 0.0
03/01/19 08:25 25.4 61 17.3 0.0 0.0 0 0.0 0.0 1015.0 0.0 0.0 25.4 0.0
03/01/19 08:26 25.3 60 17.0 0.0 0.0 0 0.0 0.0 1015.0 0.0 0.0 25.3 0.0
03/01/19 08:27 25.2 59 16.6 0.0 0.0 0 0.0 0.0 1015.0 0.0 0.0 25.2 0.0
03/01/19 08:28 25.4 60 17.1 0.0 0.0 0 0.0 0.0 1015.0 0.0 0.0 25.4 0.0
03/01/19 08:29 25.4 60 17.1 0.0 0.0 0 0.0 0.0 1015.0 0.0 0.0 25.4 0.0
03/01/19 08:33 26.1 59 17.5 0.0 0.0 0 0.0 0.0 1015.0 0.0 0.0 26.1 0.0
03/01/19 08:34 26.1 59 17.5 0.0 0.0 0 0.0 0.0 1015.0 0.0 0.0 26.1 0.0
03/01/19 08:35 26.4 58 17.5 0.0 0.0 0 0.0 0.0 1015.0 0.0 0.0 26.4 0.0
03/01/19 08:36 26.7 58 17.8 0.0 0.0 0 0.0 0.0 1015.0 0.0 0.0 27.6 0.0
03/01/19 08:37 26.9 58 17.9 0.0 0.0 0 0.0 0.0 1015.0 0.0 0.0 27.8 0.0
03/01/19 08:38 26.9 58 17.9 0.0 0.0 0 0.0 0.0 1015.0 0.0 0.0 27.8 0.0
03/01/19 08:39 27.2 56 17.7 0.0 0.0 0 0.0 0.0 1015.0 0.0 0.0 28.0 0.0
03/01/19 08:40 27.2 56 17.7 0.0 0.0 0 0.0 0.0 1015.0 0.0 0.0 28.0 0.0
03/01/19 08:41 27.2 55 17.4 0.0 0.0 0 0.0 0.0 1015.0 0.0 0.0 28.0 0.0
03/01/19 08:42 27.2 55 17.4 0.0 0.0 0 0.0 0.0 1015.0 0.0 0.0 28.0 0.0
03/01/19 08:43 27.5 54 17.4 0.0 0.0 0 0.0 0.0 1015.0 0.0 0.0 28.2 0.0
03/01/19 08:44 27.6 54 17.5 0.0 0.0 0 0.0 0.0 1015.0 0.0 0.0 28.3 0.0
03/01/19 08:45 27.8 54 17.6 0.0 0.0 0 0.0 0.0 1015.0 0.0 0.0 28.6 0.0
03/01/19 08:48 28.2 52 17.4 0.0 0.0 0 0.0 0.0 1015.0 0.0 0.0 28.9 0.0
03/01/19 08:49 28.3 52 17.5 0.0 0.0 0 0.0 0.0 1015.0 0.0 0.0 29.0 0.0
03/01/19 08:50 28.4 51 17.3 0.0 0.0 0 0.0 0.0 1015.0 0.0 0.0 29.0 0.0
03/01/19 08:51 28.5 51 17.4 0.0 0.0 0 0.0 0.0 1015.0 0.0 0.0 29.1 0.0
03/01/19 08:52 28.5 51 17.4 0.0 0.0 0 0.0 0.0 1015.0 0.0 0.0 29.1 0.0
03/01/19 08:53 28.6 51 17.5 0.0 0.0 0 0.0 0.0 1015.0 0.0 0.0 29.3 0.0
03/01/19 08:54 28.8 51 17.7 0.0 0.0 0 0.0 0.0 1015.0 0.0 0.0 29.5 0.0
03/01/19 08:55 29.0 50 17.5 0.0 0.0 0 0.0 0.0 1015.0 0.0 0.0 29.7 0.0
03/01/19 08:56 29.1 51 17.9 0.0 0.0 0 0.0 0.0 1015.0 0.0 0.0 29.9 0.0
03/01/19 08:57 29.2 49 17.4 0.0 0.0 0 0.0 0.0 1015.0 0.0 0.0 29.8 0.0
03/01/19 08:58 29.5 50 18.0 0.0 0.0 0 0.0 0.0 1015.0 0.0 0.0 30.3 0.0
03/01/19 08:59 29.5 49 17.7 0.0 0.0 0 0.0 0.0 1015.0 0.0 0.0 30.2 0.0
03/01/19 09:00 29.6 49 17.8 0.0 0.0 0 0.0 0.0 1015.0 0.0 0.0 30.3 0.0
03/01/19 09:03 29.7 48 17.5 0.0 0.0 0 0.0 0.0 1015.0 0.0 0.0 30.3 0.0
03/01/19 09:04 29.7 48 17.5 0.0 0.0 0 0.0 0.0 1015.0 0.0 0.0 30.3 0.0
03/01/19 09:05 29.7 47 17.2 0.0 0.0 0 0.0 0.0 1015.0 0.0 0.0 30.2 0.0
03/01/19 09:18 29.8 44 16.2 0.0 0.0 0 0.0 0.0 1015.0 0.0 0.0 29.9 0.0
03/01/19 09:19 29.8 45 16.6 0.0 0.0 0 0.0 0.0 1015.0 0.0 0.0 30.1 0.0
03/01/19 09:20 29.8 45 16.6 0.0 0.0 0 0.0 0.0 1015.0 0.0 0.0 30.1 0.0
03/01/19 09:21 29.9 44 16.3 0.0 0.0 0 0.0 0.0 1015.0 0.0 0.0 30.1 0.0
03/01/19 09:22 29.9 44 16.3 0.0 0.0 0 0.0 0.0 1015.0 0.0 0.0 30.1 0.0
03/01/19 09:23 30.0 43 16.1 0.0 0.0 0 0.0 0.0 1015.0 0.0 0.0 30.1 0.0
03/01/19 09:24 30.0 43 16.1 0.0 0.0 0 0.0 0.0 1015.0 0.0 0.0 30.1 0.0
03/01/19 09:25 29.9 44 16.3 0.0 0.0 0 0.0 0.0 1015.0 0.0 0.0 30.1 0.0
03/01/19 09:26 29.9 44 16.3 0.0 0.0 0 0.0 0.0 1015.0 0.0 0.0 30.1 0.0
03/01/19 09:27 30.0 43 16.1 0.0 0.0 0 0.0 0.0 1015.0 0.0 0.0 30.1 0.0
03/01/19 09:28 30.0 43 16.1 0.0 0.0 0 0.0 0.0 1015.0 0.0 0.0 30.1 0.0
03/01/19 09:29 30.1 43 16.1 0.0 0.0 0 0.0 0.0 1015.0 0.0 0.0 30.2 0.0
03/01/19 09:30 30.1 43 16.1 0.0 0.0 0 0.0 0.0 1015.0 0.0 0.0 30.2 0.0
03/01/19 09:33 30.4 42 16.0 0.0 0.0 0 0.0 0.0 1015.0 0.0 0.0 30.4 0.0
03/01/19 09:34 30.4 42 16.0 0.0 0.0 0 0.0 0.0 1015.0 0.0 0.0 30.4 0.0
03/01/19 09:35 30.5 42 16.1 0.0 0.0 0 0.0 0.0 1015.0 0.0 0.0 30.6 0.0
03/01/19 09:36 30.6 42 16.2 0.0 0.0 0 0.0 0.0 1015.0 0.0 0.0 30.7 0.0
03/01/19 09:37 30.6 42 16.2 0.0 0.0 0 0.0 0.0 1015.0 0.0 0.0 30.7 0.0
03/01/19 09:38 30.6 42 16.2 0.0 0.0 0 0.0 0.0 1015.0 0.0 0.0 30.7 0.0
03/01/19 09:39 30.8 42 16.4 0.0 0.0 0 0.0 0.0 1015.0 0.0 0.0 30.9 0.0
03/01/19 09:40 30.9 42 16.5 0.0 0.0 0 0.0 0.0 1015.0 0.0 0.0 31.1 0.0
03/01/19 09:41 30.9 42 16.5 0.0 0.0 0 0.0 0.0 1015.0 0.0 0.0 31.1 0.0
03/01/19 09:42 31.0 41 16.2 0.0 0.0 0 0.0 0.0 1015.0 0.0 0.0 31.1 0.0
03/01/19 09:43 31.1 41 16.3 0.0 0.0 0 0.0 0.0 1015.0 0.0 0.0 31.2 0.0
03/01/19 09:44 31.4 41 16.6 0.0 0.0 0 0.0 0.0 1015.0 0.0 0.0 31.6 0.0
03/01/19 09:45 31.4 41 16.6 0.0 0.0 0 0.0 0.0 1015.0 0.0 31.4 31.6 0.0
03/01/19 09:48 31.4 40 16.2 0.0 0.0 0 0.0 0.0 1015.0 0.0 31.3 31.4 0.0
03/01/19 09:49 31.4 40 16.2 0.0 0.0 0 0.0 0.0 1015.0 0.0 31.4 31.4 0.0
03/01/19 09:50 31.4 40 16.2 0.0 0.0 0 0.0 0.0 1015.0 0.0 31.4 31.4 0.0
03/01/19 09:51 31.5 40 16.3 0.0 0.0 0 0.0 0.0 1015.0 0.0 31.4 31.6 0.0
03/01/19 09:52 31.5 40 16.3 0.0 0.0 0 0.0 0.0 1015.0 0.0 31.5 31.6 0.0
03/01/19 09:53 31.6 40 16.4 0.0 0.0 0 0.0 0.0 1015.0 0.0 31.5 31.7 0.0
03/01/19 09:54 31.6 40 16.4 0.0 0.0 0 0.0 0.0 1015.0 0.0 31.5 31.7 0.0
03/01/19 09:55 31.5 40 16.3 0.0 0.0 0 0.0 0.0 1015.0 0.0 31.6 31.6 0.0
03/01/19 09:56 31.5 40 16.3 0.0 0.0 0 0.0 0.0 1015.0 0.0 31.5 31.6 0.0
03/01/19 09:57 31.5 40 16.3 0.0 0.0 0 0.0 0.0 1015.0 0.0 31.5 31.6 0.0
03/01/19 09:58 31.4 40 16.2 0.0 0.0 0 0.0 0.0 1015.0 0.0 31.5 31.4 0.0
03/01/19 09:59 31.5 40 16.3 0.0 0.0 0 0.0 0.0 1015.0 0.0 31.4 31.6 0.0
03/01/19 10:00 31.6 40 16.4 0.0 0.0 0 0.0 0.0 1015.0 0.0 31.4 31.7 0.0
03/01/19 10:03 31.6 40 16.4 0.0 0.0 0 0.0 0.0 1015.0 0.0 0.0 31.7 0.0
03/01/19 10:04 31.5 39 15.9 0.0 0.0 0 0.0 0.0 1015.0 0.0 0.0 31.4 0.0
03/01/19 10:05 31.5 40 16.3 0.0 0.0 0 0.0 0.0 1015.0 0.0 31.5 31.6 0.0
03/01/19 10:06 31.5 40 16.3 0.0 0.0 0 0.0 0.0 1015.0 0.0 31.5 31.6 0.0
03/01/19 10:07 31.4 39 15.8 0.0 0.0 0 0.0 0.0 1015.0 0.0 31.5 31.3 0.0
03/01/19 10:08 31.5 40 16.3 0.0 0.0 0 0.0 0.0 1015.0 0.0 31.4 31.6 0.0
03/01/19 10:09 31.6 40 16.4 0.0 0.0 0 0.0 0.0 1015.0 0.0 31.5 31.7 0.0
03/01/19 10:10 31.5 39 15.9 0.0 0.0 0 0.0 0.0 1015.0 0.0 31.6 31.4 0.0
03/01/19 10:11 31.6 39 16.0 0.0 0.0 0 0.0 0.0 1015.0 0.0 31.5 31.6 0.0
03/01/19 10:12 31.7 39 16.0 0.0 0.0 0 0.0 0.0 1015.0 0.0 31.6 31.7 0.0
03/01/19 10:13 31.6 39 16.0 0.0 0.0 0 0.0 0.0 1015.0 0.0 31.7 31.6 0.0
03/01/19 10:14 31.5 39 15.9 0.0 0.0 0 0.0 0.0 1015.0 0.0 31.5 31.4 0.0
03/01/19 10:15 31.6 39 16.0 0.0 0.0 0 0.0 0.0 1015.0 0.0 31.5 31.6 0.0
03/01/19 10:18 32.0 39 16.3 0.0 0.0 0 0.0 0.0 1015.0 0.0 31.8 32.1 0.0
03/01/19 10:19 32.0 39 16.3 0.0 0.0 0 0.0 0.0 1015.0 0.0 32.0 32.1 0.0
03/01/19 10:20 32.1 39 16.4 0.0 0.0 0 0.0 0.0 1015.0 0.0 32.0 32.2 0.0
03/01/19 10:21 32.2 39 16.5 0.0 0.0 0 0.0 0.0 1015.0 0.0 32.1 32.4 0.0
03/01/19 10:22 32.3 39 16.6 0.0 0.0 0 0.0 0.0 1015.0 0.0 32.3 32.5 0.0
03/01/19 10:23 32.4 39 16.7 0.0 0.0 0 0.0 0.0 1015.0 0.0 32.3 32.7 0.0
03/01/19 10:24 32.5 39 16.8 0.0 0.0 0 0.0 0.0 1015.0 0.0 32.4 32.8 0.0
03/01/19 10:25 32.6 39 16.8 0.0 0.0 0 0.0 0.0 1015.0 0.0 32.6 33.0 0.0
03/01/19 10:26 32.6 39 16.8 0.0 0.0 0 0.0 0.0 1015.0 0.0 32.6 33.0 0.0
03/01/19 10:27 32.7 39 16.9 0.0 0.0 0 0.0 0.0 1015.0 0.0 32.6 33.1 0.0
03/01/19 10:28 32.7 39 16.9 0.0 0.0 0 0.0 0.0 1015.0 0.0 32.7 33.1 0.0
03/01/19 10:29 32.9 39 17.1 0.0 0.0 0 0.0 0.0 1015.0 0.0 32.8 33.4 0.0
03/01/19 10:30 32.9 38 16.7 0.0 0.0 0 0.0 0.0 1015.0 0.0 32.9 33.2 0.0
03/01/19 10:33 33.0 38 16.8 0.0 0.0 0 0.0 0.0 1015.0 0.0 32.9 33.4 0.0
03/01/19 10:34 33.1 38 16.9 0.0 0.0 0 0.0 0.0 1015.0 0.0 33.0 33.5 0.0
03/01/19 10:35 33.2 38 17.0 0.0 0.0 0 0.0 0.0 1015.0 0.0 33.2 33.7 0.0
03/01/19 10:36 33.3 38 17.1 0.0 0.0 0 0.0 0.0 1015.0 0.0 33.2 33.8 0.0
03/01/19 10:37 33.3 38 17.1 0.0 0.0 0 0.0 0.0 1015.0 0.0 33.3 33.8 0.0
03/01/19 10:38 33.2 38 17.0 0.0 0.0 0 0.0 0.0 1015.0 0.0 33.3 33.7 0.0
03/01/19 10:39 33.2 38 17.0 0.0 0.0 0 0.0 0.0 1015.0 0.0 33.2 33.7 0.0
03/01/19 10:40 33.1 37 16.5 0.0 0.0 0 0.0 0.0 1015.0 0.0 33.2 33.3 0.0
03/01/19 10:41 33.2 37 16.5 0.0 0.0 0 0.0 0.0 1015.0 0.0 33.2 33.5 0.0
03/01/19 10:42 33.2 37 16.5 0.0 0.0 0 0.0 0.0 1015.0 0.0 33.2 33.5 0.0
03/01/19 10:43 33.2 37 16.5 0.0 0.0 0 0.0 0.0 1015.0 0.0 33.2 33.5 0.0
03/01/19 10:44 33.3 37 16.6 0.0 0.0 0 0.0 0.0 1015.0 0.0 33.2 33.6 0.0
03/01/19 10:45 33.3 37 16.6 0.0 0.0 0 0.0 0.0 1015.0 0.0 33.3 33.6 0.0
03/01/19 10:48 33.3 37 16.6 0.0 0.0 0 0.0 0.0 1015.0 0.0 33.2 33.6 0.0
03/01/19 10:49 33.4 37 16.7 0.0 0.0 0 0.0 0.0 1015.0 0.0 33.3 33.8 0.0
03/01/19 10:50 33.5 37 16.8 0.0 0.0 0 0.0 0.0 1015.0 0.0 33.4 33.9 0.0
03/01/19 10:51 33.4 37 16.7 0.0 0.0 0 0.0 0.0 1015.0 0.0 33.5 33.8 0.0
03/01/19 10:52 33.3 37 16.6 0.0 0.0 0 0.0 0.0 1015.0 0.0 33.3 33.6 0.0
03/01/19 10:53 33.2 37 16.5 0.0 0.0 0 0.0 0.0 1015.0 0.0 33.3 33.5 0.0
03/01/19 10:54 33.1 37 16.5 0.0 0.0 0 0.0 0.0 1015.0 0.0 33.2 33.3 0.0
03/01/19 10:55 33.2 37 16.5 0.0 0.0 0 0.0 0.0 1015.0 0.0 33.1 33.5 0.0
03/01/19 10:56 33.2 37 16.5 0.0 0.0 0 0.0 0.0 1015.0 0.0 33.2 33.5 0.0
03/01/19 10:57 33.1 37 16.5 0.0 0.0 0 0.0 0.0 1015.0 0.0 33.2 33.3 0.0
03/01/19 10:58 33.1 37 16.5 0.0 0.0 0 0.0 0.0 1015.0 0.0 33.2 33.3 0.0
03/01/19 10:59 33.2 37 16.5 0.0 0.0 0 0.0 0.0 1015.0 0.0 33.2 33.5 0.0
03/01/19 11:03 33.7 37 17.0 0.0 0.0 0 0.0 0.0 1015.0 0.0 0.0 34.2 0.0
03/01/19 11:04 33.8 37 17.1 0.0 0.0 0 0.0 0.0 1015.0 0.0 0.0 34.4 0.0
03/01/19 11:05 33.8 37 17.1 0.0 0.0 0 0.0 0.0 1015.0 0.0 0.0 34.4 0.0
03/01/19 11:06 33.8 37 17.1 1.8 0.0 0 0.0 0.0 1015.0 0.0 33.8 34.4 0.0
03/01/19 11:07 33.4 36 16.3 1.8 3.6 270 0.0 0.0 1015.0 3.6 33.6 33.6 0.0
03/01/19 11:08 33.5 37 16.8 1.8 3.6 270 0.0 0.0 1015.0 3.6 33.4 33.9 0.0
03/01/19 11:09 33.5 37 16.8 1.8 3.6 270 0.0 0.0 1015.0 3.6 33.5 33.9 0.0
03/01/19 11:10 33.5 37 16.8 0.0 3.6 270 0.0 0.0 1015.0 0.0 33.5 33.9 0.0
03/01/19 11:11 33.6 37 16.9 0.0 3.6 270 0.0 0.0 1015.0 0.0 33.5 34.1 0.0
03/01/19 11:12 33.6 37 16.9 0.0 3.6 270 0.0 0.0 1015.0 0.0 33.6 34.1 0.0
03/01/19 11:13 33.5 37 16.8 0.0 3.6 270 0.0 0.0 1015.0 0.0 33.6 33.9 0.0
03/01/19 11:14 33.5 37 16.8 0.0 3.6 270 0.0 0.0 1015.0 0.0 33.6 33.9 0.0
03/01/19 11:15 33.2 36 16.1 0.0 3.6 270 0.0 0.0 1015.0 0.0 33.2 33.3 0.0
03/01/19 11:18 33.5 37 16.8 0.0 3.6 270 0.0 0.0 1015.0 0.0 33.3 33.9 0.0
03/01/19 11:19 33.4 36 16.3 0.0 3.6 270 0.0 0.0 1015.0 0.0 33.5 33.6 0.0
03/01/19 11:20 33.3 36 16.2 0.0 0.0 0 0.0 0.0 1015.0 0.0 33.4 33.4 0.0
03/01/19 11:21 33.4 36 16.3 0.0 0.0 0 0.0 0.0 1015.0 0.0 33.3 33.6 0.0
03/01/19 11:22 33.4 36 16.3 0.0 0.0 0 0.0 0.0 1015.0 0.0 33.4 33.6 0.0
03/01/19 11:23 33.3 36 16.2 0.0 0.0 0 0.0 0.0 1014.0 0.0 33.4 33.4 0.0
03/01/19 11:24 33.2 36 16.1 0.0 0.0 0 0.0 0.0 1014.0 0.0 33.3 33.3 0.0
03/01/19 11:25 32.9 36 15.9 0.0 0.0 0 0.0 0.0 1014.0 0.0 33.2 32.8 0.0
03/01/19 11:26 32.8 36 15.8 0.0 0.0 0 0.0 0.0 1014.0 0.0 33.2 32.7 0.0
03/01/19 11:27 32.7 36 15.7 0.0 0.0 0 0.0 0.0 1014.0 0.0 33.2 32.6 0.0
03/01/19 11:28 32.7 37 16.1 2.2 1.8 270 0.0 0.0 1014.0 1.8 32.7 32.7 0.0
03/01/19 11:29 32.5 37 15.9 2.2 1.8 270 0.0 0.0 1014.0 1.8 32.7 32.5 0.0
03/01/19 11:30 32.2 37 15.7 2.2 1.8 270 0.0 0.0 1014.0 1.8 32.2 32.0 0.0
03/01/19 11:33 31.6 37 15.1 2.2 1.8 270 0.0 0.0 1014.0 1.8 31.8 31.3 0.0
03/01/19 11:34 31.4 37 15.0 0.0 1.8 270 0.0 0.0 1014.0 0.0 31.4 31.0 0.0
03/01/19 11:35 31.5 38 15.5 0.0 1.8 270 0.0 0.0 1014.0 0.0 31.4 31.3 0.0
03/01/19 11:36 31.8 38 15.7 0.0 1.8 270 0.0 0.0 1014.0 0.0 31.8 31.7 0.0
03/01/19 11:37 32.6 37 16.0 0.0 1.8 270 0.0 0.0 1014.0 0.0 32.3 32.6 0.0
03/01/19 11:38 32.7 37 16.1 0.0 1.8 270 0.0 0.0 1015.0 0.0 32.6 32.7 0.0
03/01/19 11:39 32.6 37 16.0 0.0 1.8 270 0.0 0.0 1015.0 0.0 32.7 32.6 0.0
03/01/19 11:40 32.4 37 15.8 0.0 1.8 270 0.0 0.0 1015.0 0.0 32.6 32.3 0.0
03/01/19 11:41 32.2 37 15.7 0.0 1.8 270 0.0 0.0 1015.0 0.0 32.4 32.0 0.0
03/01/19 11:42 31.9 37 15.4 0.0 1.8 270 0.0 0.0 1015.0 0.0 32.2 31.6 0.0
03/01/19 11:43 31.7 37 15.2 0.0 1.8 270 0.0 0.0 1015.0 0.0 31.9 31.4 0.0
03/01/19 11:44 31.6 37 15.1 0.0 1.8 270 0.0 0.0 1015.0 0.0 31.7 31.3 0.0
03/01/19 12:03 33.4 37 16.7 0.0 0.0 0 0.0 0.0 1016.0 0.0 33.3 33.8 0.0
03/01/19 12:04 33.6 37 16.9 0.0 0.0 0 0.0 0.0 1016.0 0.0 33.4 34.1 0.0
03/01/19 12:05 33.7 37 17.0 0.0 0.0 0 0.0 0.0 1016.0 0.0 33.6 34.2 0.0
03/01/19 12:06 33.6 37 16.9 0.0 0.0 0 0.0 0.0 1016.0 0.0 33.7 34.1 0.0
03/01/19 12:07 33.5 36 16.4 0.0 0.0 0 0.0 0.0 1016.0 0.0 33.6 33.7 0.0
03/01/19 12:08 33.6 36 16.5 0.0 0.0 0 0.0 0.0 1016.0 0.0 33.4 33.9 0.0
03/01/19 12:09 33.8 36 16.6 0.0 1.8 135 0.0 0.0 1016.0 0.0 33.6 34.2 0.0
03/01/19 12:10 34.1 36 16.9 0.0 1.8 135 0.0 0.0 1016.0 0.0 33.8 34.6 0.0
03/01/19 12:11 34.2 36 17.0 0.0 1.8 135 0.0 0.0 1016.0 0.0 34.1 34.8 0.0
03/01/19 12:12 34.4 36 17.2 0.0 1.8 135 0.0 0.0 1016.0 0.0 34.4 35.1 0.0
03/01/19 12:13 34.6 36 17.3 0.0 1.8 135 0.0 0.0 1016.0 0.0 34.4 35.4 0.0
03/01/19 12:14 34.9 36 17.6 0.0 1.8 135 0.0 0.0 1016.0 0.0 34.6 35.9 0.0
03/01/19 12:15 35.2 35 17.4 0.0 1.8 135 0.0 0.0 1016.0 0.0 35.1 36.2 0.0
03/01/19 12:17 35.6 35 17.8 0.0 0.0 0 0.0 0.0 1016.0 0.0 0.0 36.8 0.0
03/01/19 12:18 35.6 35 17.8 0.0 0.0 0 0.0 0.0 1016.0 0.0 0.0 36.8 0.0
03/01/19 12:19 35.6 35 17.8 1.4 0.0 0 0.0 0.0 1016.0 0.0 35.6 36.8 0.0
03/01/19 12:20 35.5 34 17.2 1.4 0.0 0 0.0 0.0 1016.0 0.0 35.6 36.4 0.0
03/01/19 12:21 35.5 34 17.2 1.4 0.0 0 0.0 0.0 1016.0 0.0 35.6 36.4 0.0
03/01/19 12:22 35.5 34 17.2 1.4 0.0 0 0.0 0.0 1016.0 0.0 35.6 36.4 0.0
03/01/19 12:23 34.6 34 16.4 1.4 0.0 0 0.0 0.0 1015.0 0.0 35.5 35.0 0.0
03/01/19 12:24 33.8 34 15.7 1.4 0.0 0 0.0 0.0 1015.0 0.0 34.6 33.8 0.0
03/01/19 12:25 33.8 35 16.2 1.4 0.0 0 0.0 0.0 1015.0 0.0 33.8 34.0 0.0
03/01/19 12:26 34.0 34 15.9 1.4 0.0 0 0.0 0.0 1015.0 0.0 33.8 34.0 0.0
03/01/19 12:27 34.2 35 16.6 1.4 0.0 0 0.0 0.0 1015.0 0.0 34.0 34.6 0.0
03/01/19 12:28 34.5 34 16.4 1.4 0.0 0 0.0 0.0 1015.0 0.0 34.2 34.8 0.0
03/01/19 12:29 34.7 34 16.5 1.4 0.0 0 0.0 0.0 1015.0 0.0 34.5 35.1 0.0
03/01/19 12:30 35.3 34 17.1 1.4 0.0 0 0.0 0.0 1015.0 0.0 35.0 36.1 0.0
03/01/19 12:33 35.9 34 17.6 1.4 0.0 0 0.0 0.0 1015.0 0.0 35.9 37.1 0.0
03/01/19 12:34 35.7 33 16.9 1.4 0.0 0 0.0 0.0 1015.0 0.0 35.9 36.5 0.0
03/01/19 12:35 35.3 33 16.6 1.4 0.0 0 0.0 0.0 1015.0 0.0 35.9 35.8 0.0
03/01/19 12:36 35.2 33 16.5 1.4 0.0 0 0.0 0.0 1015.0 0.0 35.9 35.7 0.0
03/01/19 12:37 35.4 33 16.7 1.4 0.0 0 0.0 0.0 1015.0 0.0 35.9 36.0 0.0
03/01/19 12:38 35.5 32 16.3 1.4 0.0 0 0.0 0.0 1015.0 0.0 35.9 35.9 0.0
03/01/19 12:39 35.7 32 16.5 1.4 0.0 0 0.0 0.0 1015.0 0.0 35.9 36.2 0.0
03/01/19 12:40 35.6 32 16.4 1.4 0.0 0 0.0 0.0 1015.0 0.0 35.9 36.0 0.0
03/01/19 12:41 35.7 32 16.5 1.4 0.0 0 0.0 0.0 1015.0 0.0 35.9 36.2 0.0
03/01/19 12:42 35.9 33 17.1 1.4 0.0 0 0.0 0.0 1015.0 0.0 35.9 36.8 0.0
03/01/19 12:43 35.8 32 16.5 1.4 0.0 0 0.0 0.0 1015.0 0.0 35.9 36.4 0.0
03/01/19 12:44 35.9 32 16.6 1.4 0.0 0 0.0 0.0 1015.0 0.0 35.9 36.5 0.0
03/01/19 12:47 36.8 32 17.4 0.0 0.0 0 0.0 0.0 1015.0 0.0 0.0 38.0 0.0
03/01/19 12:48 36.9 31 17.0 0.0 0.0 0 0.0 0.0 1015.0 0.0 36.8 37.9 0.0
03/01/19 12:49 36.7 31 16.8 0.0 0.0 0 0.0 0.0 1015.0 0.0 36.9 37.5 0.0
03/01/19 12:50 36.4 31 16.6 0.0 0.0 0 0.0 0.0 1015.0 0.0 36.7 37.1 0.0
03/01/19 12:51 36.0 30 15.7 0.0 0.0 0 0.0 0.0 1015.0 0.0 36.4 36.2 0.0
03/01/19 12:52 35.6 31 15.9 0.0 0.0 0 0.0 0.0 1015.0 0.0 36.0 35.8 0.0
03/01/19 12:53 35.6 31 15.9 0.0 0.0 0 0.0 0.0 1015.0 0.0 35.5 35.8 0.0
03/01/19 12:54 35.9 31 16.1 0.0 0.0 0 0.0 0.0 1015.0 0.0 35.6 36.3 0.0
03/01/19 12:55 36.2 30 15.9 0.0 0.0 0 0.0 0.0 1015.0 0.0 35.9 36.5 0.0
03/01/19 12:56 36.4 31 16.6 0.0 0.0 0 0.0 0.0 1015.0 0.0 36.2 37.1 0.0
03/01/19 12:57 36.5 31 16.6 0.0 0.0 0 0.0 0.0 1015.0 0.0 36.4 37.2 0.0
03/01/19 12:58 36.7 30 16.3 0.0 0.0 0 0.0 0.0 1015.0 0.0 36.5 37.3 0.0
03/01/19 12:59 36.5 30 16.1 0.0 0.0 0 0.0 0.0 1015.0 0.0 36.7 36.9 0.0
03/01/19 13:00 36.3 30 16.0 1.4 0.0 0 0.0 0.0 1015.0 0.0 36.3 36.6 0.0
03/01/19 13:03 36.6 30 16.2 1.4 0.0 0 0.0 0.0 1015.0 0.0 36.4 37.1 0.0
03/01/19 13:04 36.7 30 16.3 1.4 0.0 0 0.0 0.0 1015.0 0.0 36.6 37.3 0.0
03/01/19 13:05 36.9 30 16.5 1.4 0.0 0 0.0 0.0 1015.0 0.0 36.7 37.6 0.0
03/01/19 13:06 37.1 29 16.1 1.4 0.0 0 0.0 0.0 1015.0 0.0 36.9 37.6 0.0
03/01/19 13:07 37.3 29 16.3 1.4 0.0 0 0.0 0.0 1015.0 0.0 37.1 38.0 0.0
03/01/19 13:08 37.0 29 16.0 1.4 0.0 0 0.0 0.0 1015.0 0.0 37.4 37.5 0.0
03/01/19 13:09 36.7 29 15.8 1.4 0.0 0 0.0 0.0 1015.0 0.0 37.0 37.0 0.0
03/01/19 13:10 36.4 29 15.5 1.4 0.0 0 0.0 0.0 1015.0 0.0 36.7 36.5 0.0
03/01/19 13:11 36.1 29 15.3 1.4 0.0 0 0.0 0.0 1015.0 0.0 36.4 36.1 0.0
03/01/19 13:12 35.8 30 15.5 1.4 0.0 0 0.0 0.0 1015.0 0.0 36.1 35.9 0.0
03/01/19 13:13 35.4 30 15.2 1.4 0.0 0 0.0 0.0 1015.0 0.0 35.8 35.3 0.0
03/01/19 13:14 35.1 30 14.9 1.4 0.0 0 0.0 0.0 1015.0 0.0 35.4 34.8 0.0
03/01/19 13:15 34.9 30 14.8 1.4 0.0 0 0.0 0.0 1015.0 0.0 35.1 34.5 0.0
03/01/19 13:33 36.6 29 15.7 0.0 0.0 0 0.0 0.0 1015.0 0.0 0.0 36.8 0.0
03/01/19 13:34 36.8 28 15.3 0.0 0.0 0 0.0 0.0 1015.0 0.0 0.0 36.9 0.0
03/01/19 13:35 37.1 28 15.6 0.0 0.0 0 0.0 0.0 1015.0 0.0 0.0 37.3 0.0
03/01/19 13:36 37.4 28 15.8 0.0 0.0 0 0.0 0.0 1015.0 0.0 0.0 37.8 0.0
03/01/19 13:37 37.6 28 16.0 0.0 0.0 0 0.0 0.0 1015.0 0.0 0.0 38.1 0.0
03/01/19 13:38 37.7 28 16.1 0.0 0.0 0 0.0 0.0 1014.0 0.0 0.0 38.3 0.0
03/01/19 13:39 37.6 27 15.4 0.0 0.0 0 0.0 0.0 1014.0 0.0 0.0 37.9 0.0
03/01/19 13:40 37.7 27 15.5 0.0 0.0 0 0.0 0.0 1014.0 0.0 0.0 38.0 0.0
03/01/19 13:41 37.7 27 15.5 0.0 0.0 0 0.0 0.0 1014.0 0.0 0.0 38.0 0.0
03/01/19 13:42 37.6 27 15.4 0.0 0.0 0 0.0 0.0 1014.0 0.0 0.0 37.9 0.0
03/01/19 13:43 37.7 27 15.5 0.0 0.0 0 0.0 0.0 1014.0 0.0 0.0 38.0 0.0
03/01/19 13:44 37.7 27 15.5 0.0 0.0 0 0.0 0.0 1014.0 0.0 0.0 38.0 0.0
03/01/19 13:45 37.7 27 15.5 0.0 0.0 0 0.0 0.0 1014.0 0.0 0.0 38.0 0.0
03/01/19 13:48 38.1 27 15.8 0.0 0.0 0 0.0 0.0 1014.0 0.0 0.0 38.6 0.0
03/01/19 13:49 38.1 26 15.3 0.0 0.0 0 0.0 0.0 1014.0 0.0 0.0 38.3 0.0
03/01/19 13:50 38.1 26 15.3 0.0 0.0 0 0.0 0.0 1014.0 0.0 0.0 38.3 0.0
03/01/19 13:51 38.1 26 15.3 0.0 0.0 0 0.0 0.0 1014.0 0.0 0.0 38.3 0.0
03/01/19 13:52 38.1 26 15.3 0.0 0.0 0 0.0 0.0 1014.0 0.0 0.0 38.3 0.0
03/01/19 13:53 38.0 26 15.2 0.0 0.0 0 0.0 0.0 1014.0 0.0 0.0 38.2 0.0
03/01/19 13:54 38.0 26 15.2 0.0 0.0 0 0.0 0.0 1014.0 0.0 0.0 38.2 0.0
03/01/19 13:55 38.1 26 15.3 0.0 0.0 0 0.0 0.0 1014.0 0.0 0.0 38.3 0.0
03/01/19 13:56 38.2 26 15.3 0.0 0.0 0 0.0 0.0 1014.0 0.0 0.0 38.5 0.0
03/01/19 13:57 38.3 26 15.4 0.0 0.0 0 0.0 0.0 1014.0 0.0 0.0 38.7 0.0
03/01/19 13:58 38.5 26 15.6 0.0 0.0 0 0.0 0.0 1014.0 0.0 0.0 39.0 0.0
03/01/19 13:59 38.5 26 15.6 0.0 0.0 0 0.0 0.0 1014.0 0.0 0.0 39.0 0.0
03/01/19 14:03 38.4 25 14.9 0.0 0.0 0 0.0 0.0 1014.0 0.0 0.0 38.5 0.0
03/01/19 14:04 38.1 25 14.6 0.0 0.0 0 0.0 0.0 1014.0 0.0 0.0 38.1 0.0
03/01/19 14:05 37.9 26 15.1 0.0 0.0 0 0.0 0.0 1014.0 0.0 0.0 38.0 0.0
03/01/19 14:06 38.0 26 15.2 0.0 0.0 0 0.0 0.0 1014.0 0.0 0.0 38.2 0.0
03/01/19 14:07 38.1 26 15.3 0.0 0.0 0 0.0 0.0 1014.0 0.0 0.0 38.3 0.0
03/01/19 14:08 38.3 26 15.4 0.0 0.0 0 0.0 0.0 1014.0 0.0 0.0 38.7 0.0
03/01/19 14:09 38.6 26 15.7 0.0 0.0 0 0.0 0.0 1014.0 0.0 0.0 39.1 0.0
03/01/19 14:10 38.7 26 15.8 0.0 0.0 0 0.0 0.0 1014.0 0.0 0.0 39.3 0.0
03/01/19 14:11 38.8 26 15.8 0.0 0.0 0 0.0 0.0 1014.0 0.0 0.0 39.5 0.0
03/01/19 14:12 38.7 26 15.8 0.0 0.0 0 0.0 0.0 1014.0 0.0 0.0 39.3 0.0
03/01/19 14:13 38.7 26 15.8 0.0 0.0 0 0.0 0.0 1014.0 0.0 0.0 39.3 0.0
03/01/19 14:14 38.7 26 15.8 0.0 0.0 0 0.0 0.0 1014.0 0.0 0.0 39.3 0.0
03/01/19 14:15 38.6 26 15.7 0.0 0.0 0 0.0 0.0 1014.0 0.0 0.0 39.1 0.0
03/01/19 14:18 38.1 26 15.3 0.0 0.0 0 0.0 0.0 1014.0 0.0 0.0 38.3 0.0
03/01/19 14:19 38.2 26 15.3 0.0 0.0 0 0.0 0.0 1014.0 0.0 0.0 38.5 0.0
03/01/19 14:20 38.2 25 14.7 0.0 0.0 0 0.0 0.0 1014.0 0.0 0.0 38.2 0.0
03/01/19 14:21 38.3 26 15.4 0.0 0.0 0 0.0 0.0 1014.0 0.0 0.0 38.7 0.0
03/01/19 14:22 38.3 26 15.4 0.0 0.0 0 0.0 0.0 1014.0 0.0 0.0 38.7 0.0
03/01/19 14:23 37.8 26 15.0 0.0 0.0 0 0.0 0.0 1014.0 0.0 0.0 37.9 0.0
03/01/19 14:24 37.3 26 14.6 0.0 0.0 0 0.0 0.0 1014.0 0.0 0.0 37.1 0.0
03/01/19 14:25 37.0 26 14.3 0.0 0.0 0 0.0 0.0 1014.0 0.0 0.0 36.7 0.0
03/01/19 14:26 36.7 26 14.1 0.0 0.0 0 0.0 0.0 1014.0 0.0 0.0 36.2 0.0
03/01/19 14:27 36.0 26 13.5 0.0 0.0 0 0.0 0.0 1014.0 0.0 0.0 35.3 0.0
03/01/19 14:28 35.6 27 13.7 0.0 0.0 0 0.0 0.0 1014.0 0.0 0.0 34.9 0.0
03/01/19 14:29 35.3 27 13.5 0.0 0.0 0 0.0 0.0 1014.0 0.0 0.0 34.5 0.0
03/01/19 14:30 35.4 27 13.6 0.0 0.0 0 0.0 0.0 1014.0 0.0 0.0 34.6 0.0
03/01/19 14:33 36.5 26 13.9 0.0 0.0 0 0.0 0.0 1014.0 0.0 0.0 36.0 0.0
03/01/19 14:34 36.9 26 14.2 0.0 0.0 0 0.0 0.0 1014.0 0.0 0.0 36.5 0.0
03/01/19 14:35 37.2 26 14.5 0.0 0.0 0 0.0 0.0 1014.0 0.0 0.0 37.0 0.0
03/01/19 14:36 37.4 26 14.7 0.0 0.0 0 0.0 0.0 1014.0 0.0 0.0 37.3 0.0
03/01/19 14:37 37.5 26 14.7 0.0 0.0 0 0.0 0.0 1014.0 0.0 0.0 37.4 0.0
03/01/19 14:38 37.8 26 15.0 0.0 0.0 0 0.0 0.0 1014.0 0.0 0.0 37.9 0.0
03/01/19 14:39 38.1 25 14.6 0.0 0.0 0 0.0 0.0 1014.0 0.0 0.0 38.1 0.0
03/01/19 14:40 37.8 25 14.4 0.0 0.0 0 0.0 0.0 1014.0 0.0 0.0 37.6 0.0
03/01/19 14:41 37.4 25 14.1 0.0 0.0 0 0.0 0.0 1014.0 0.0 0.0 37.0 0.0
03/01/19 14:42 37.4 26 14.7 0.0 0.0 0 0.0 0.0 1014.0 0.0 0.0 37.3 0.0
03/01/19 14:43 37.6 26 14.8 0.0 0.0 0 0.0 0.0 1014.0 0.0 0.0 37.6 0.0
03/01/19 14:44 37.9 26 15.1 0.0 0.0 0 0.0 0.0 1014.0 0.0 0.0 38.0 0.0
03/01/19 14:45 38.1 25 14.6 0.0 0.0 0 0.0 0.0 1014.0 0.0 0.0 38.1 0.0
03/01/19 14:48 38.4 25 14.9 0.0 0.0 0 0.0 0.0 1014.0 0.0 0.0 38.5 0.0
03/01/19 14:49 38.5 25 15.0 0.0 0.0 0 0.0 0.0 1014.0 0.0 0.0 38.7 0.0
03/01/19 14:50 38.6 25 15.1 0.0 3.2 314 0.0 0.0 1014.0 3.2 38.5 38.8 0.0
03/01/19 14:51 38.6 25 15.1 0.0 3.2 314 0.0 0.0 1014.0 3.2 38.6 38.8 0.0
03/01/19 14:52 38.7 25 15.1 0.0 3.2 314 0.0 0.0 1014.0 0.0 38.7 39.0 0.0
03/01/19 14:53 38.6 25 15.1 0.0 3.2 314 0.0 0.0 1014.0 0.0 38.7 38.8 0.0
03/01/19 14:54 37.8 26 15.0 0.0 3.2 314 0.0 0.0 1014.0 0.0 37.9 37.9 0.0
03/01/19 14:55 37.4 25 14.1 0.0 3.2 314 0.0 0.0 1014.0 0.0 37.8 37.0 0.0
03/01/19 14:56 36.6 26 14.0 0.0 3.2 314 0.0 0.0 1014.0 0.0 37.4 36.1 0.0
03/01/19 14:57 34.9 27 13.1 6.1 6.1 314 0.0 0.0 1014.0 6.1 36.6 34.0 0.0
03/01/19 14:58 35.7 26 13.2 6.1 6.1 135 0.0 0.0 1014.0 6.1 34.9 34.8 0.0
03/01/19 14:59 36.0 26 13.5 1.8 6.1 135 0.0 0.0 1014.0 1.4 36.0 35.3 0.0
03/01/19 15:00 36.0 26 13.5 1.8 6.1 135 0.0 0.0 1014.0 1.4 36.0 35.3 0.0
03/01/19 15:02 36.6 26 14.0 1.8 6.1 136 0.0 0.0 1014.0 1.4 0.0 36.1 0.0
03/01/19 15:03 36.6 26 14.0 1.8 6.1 136 0.0 0.0 1014.0 1.4 36.6 36.1 0.0
03/01/19 15:04 36.2 26 13.6 1.8 6.1 135 0.0 0.0 1014.0 1.4 36.6 35.5 0.0
03/01/19 15:05 36.1 26 13.6 1.8 6.1 135 0.0 0.0 1014.0 1.4 36.2 35.4 0.0
03/01/19 15:06 36.3 26 13.7 1.8 6.1 135 0.0 0.0 1014.0 1.4 36.1 35.7 0.0
03/01/19 15:07 36.3 26 13.7 1.8 6.1 135 0.0 0.0 1014.0 1.4 36.1 35.7 0.0
03/01/19 15:08 36.6 26 14.0 1.8 6.1 135 0.0 0.0 1013.0 1.4 36.3 36.1 0.0
03/01/19 15:09 37.2 26 14.5 1.8 1.4 135 0.0 0.0 1013.0 1.4 37.0 37.0 0.0
03/01/19 15:10 37.4 26 14.7 1.8 1.4 135 0.0 0.0 1013.0 1.4 37.2 37.3 0.0
03/01/19 15:11 37.7 26 14.9 1.8 1.4 135 0.0 0.0 1013.0 1.4 37.4 37.7 0.0
03/01/19 15:12 37.9 26 15.1 1.8 1.4 135 0.0 0.0 1013.0 1.4 37.7 38.0 0.0
03/01/19 15:13 38.2 26 15.3 1.8 1.4 135 0.0 0.0 1013.0 1.4 37.9 38.5 0.0
03/01/19 15:14 38.5 26 15.6 1.8 1.4 135 0.0 0.0 1013.0 1.4 38.2 39.0 0.0
03/01/19 15:15 38.8 26 15.8 1.8 1.4 135 0.0 0.0 1013.0 1.4 38.2 39.5 0.0
03/01/19 15:18 38.7 25 15.1 0.0 0.0 0 0.0 0.0 1013.0 0.0 0.0 39.0 0.0
03/01/19 15:19 38.5 25 15.0 0.0 0.0 0 0.0 0.0 1013.0 0.0 0.0 38.7 0.0
03/01/19 15:20 38.3 25 14.8 0.0 0.0 0 0.0 0.0 1013.0 0.0 0.0 38.4 0.0
03/01/19 15:21 38.2 25 14.7 0.0 0.0 0 0.0 0.0 1013.0 0.0 0.0 38.2 0.0
03/01/19 15:22 38.1 25 14.6 0.0 0.0 0 0.0 0.0 1013.0 0.0 0.0 38.1 0.0
03/01/19 15:23 37.8 25 14.4 0.0 0.0 0 0.0 0.0 1013.0 0.0 0.0 37.6 0.0
03/01/19 15:24 37.7 26 14.9 0.0 0.0 0 0.0 0.0 1013.0 0.0 0.0 37.7 0.0
03/01/19 15:25 38.1 25 14.6 0.0 0.0 0 0.0 0.0 1013.0 0.0 0.0 38.1 0.0
03/01/19 15:26 38.4 25 14.9 0.0 0.0 0 0.0 0.0 1013.0 0.0 0.0 38.5 0.0
03/01/19 15:27 38.6 25 15.1 0.0 0.0 0 0.0 0.0 1013.0 0.0 0.0 38.8 0.0
03/01/19 15:28 38.7 25 15.1 0.0 0.0 0 0.0 0.0 1013.0 0.0 0.0 39.0 0.0
03/01/19 15:29 38.5 25 15.0 0.0 0.0 0 0.0 0.0 1013.0 0.0 0.0 38.7 0.0
03/01/19 15:30 38.2 25 14.7 0.0 0.0 0 0.0 0.0 1013.0 0.0 0.0 38.2 0.0
03/01/19 15:33 37.9 26 15.1 0.0 0.0 0 0.0 0.0 1013.0 0.0 0.0 38.0 0.0
03/01/19 15:34 38.1 25 14.6 0.0 0.0 0 0.0 0.0 1013.0 0.0 0.0 38.1 0.0
03/01/19 15:35 38.2 25 14.7 0.0 0.0 0 0.0 0.0 1013.0 0.0 0.0 38.2 0.0
03/01/19 15:36 38.4 25 14.9 0.0 0.0 0 0.0 0.0 1013.0 0.0 0.0 38.5 0.0
03/01/19 15:37 38.5 25 15.0 0.0 0.0 0 0.0 0.0 1013.0 0.0 0.0 38.7 0.0
03/01/19 15:38 38.3 25 14.8 0.0 0.0 0 0.0 0.0 1013.0 0.0 0.0 38.4 0.0
03/01/19 15:39 38.0 25 14.6 0.0 0.0 0 0.0 0.0 1013.0 0.0 0.0 37.9 0.0
03/01/19 15:40 37.5 25 14.1 0.0 0.0 0 0.0 0.0 1013.0 0.0 0.0 37.2 0.0
03/01/19 15:41 37.3 25 14.0 0.0 0.0 0 0.0 0.0 1013.0 0.0 0.0 36.9 0.0
03/01/19 15:42 37.1 25 13.8 0.0 0.0 0 0.0 0.0 1013.0 0.0 0.0 36.6 0.0
03/01/19 15:43 36.9 26 14.2 0.0 0.0 0 0.0 0.0 1013.0 0.0 0.0 36.5 0.0
03/01/19 15:44 36.6 26 14.0 0.0 0.0 0 0.0 0.0 1013.0 0.0 0.0 36.1 0.0
03/01/19 15:45 36.6 26 14.0 0.0 0.0 0 0.0 0.0 1013.0 0.0 0.0 36.1 0.0
03/01/19 15:48 37.0 26 14.3 0.0 0.0 0 0.0 0.0 1013.0 0.0 0.0 36.7 0.0
03/01/19 15:49 36.9 26 14.2 0.0 0.0 0 0.0 0.0 1013.0 0.0 0.0 36.5 0.0
03/01/19 15:50 36.9 26 14.2 0.0 0.0 0 0.0 0.0 1013.0 0.0 0.0 36.5 0.0
03/01/19 15:51 36.6 26 14.0 0.0 0.0 0 0.0 0.0 1013.0 0.0 0.0 36.1 0.0
03/01/19 15:52 36.5 26 13.9 0.0 0.0 0 0.0 0.0 1013.0 0.0 0.0 36.0 0.0
03/01/19 15:53 36.3 26 13.7 0.0 0.0 0 0.0 0.0 1012.0 0.0 0.0 35.7 0.0
03/01/19 15:54 36.1 26 13.6 0.0 0.0 0 0.0 0.0 1012.0 0.0 0.0 35.4 0.0
03/01/19 15:55 36.0 26 13.5 0.0 0.0 0 0.0 0.0 1012.0 0.0 0.0 35.3 0.0
03/01/19 15:56 36.2 26 13.6 0.0 0.0 0 0.0 0.0 1012.0 0.0 0.0 35.5 0.0
03/01/19 15:57 36.4 26 13.8 0.0 0.0 0 0.0 0.0 1012.0 0.0 0.0 35.8 0.0
03/01/19 15:58 36.5 26 13.9 0.0 0.0 0 0.0 0.0 1012.0 0.0 0.0 36.0 0.0
03/01/19 15:59 36.3 26 13.7 0.0 0.0 0 0.0 0.0 1012.0 0.0 0.0 35.7 0.0
03/01/19 16:00 36.2 26 13.6 0.0 0.0 0 0.0 0.0 1012.0 0.0 0.0 35.5 0.0
03/01/19 16:03 34.9 27 13.1 0.0 0.0 0 0.0 0.0 1012.0 0.0 0.0 34.0 0.0
03/01/19 16:04 34.7 27 13.0 0.0 0.0 0 0.0 0.0 1012.0 0.0 0.0 33.7 0.0
03/01/19 16:05 34.6 27 12.9 0.0 0.0 0 0.0 0.0 1012.0 0.0 0.0 33.6 0.0
03/01/19 16:06 34.5 28 13.3 0.0 0.0 0 0.0 0.0 1012.0 0.0 0.0 33.6 0.0
03/01/19 16:07 34.4 27 12.7 0.0 0.0 0 0.0 0.0 1012.0 0.0 0.0 33.3 0.0
03/01/19 16:08 34.3 27 12.6 0.0 0.0 0 0.0 0.0 1013.0 0.0 0.0 33.2 0.0
03/01/19 16:09 34.2 27 12.5 0.0 0.0 0 0.0 0.0 1013.0 0.0 0.0 33.1 0.0
03/01/19 16:10 33.8 28 12.7 0.0 0.0 0 0.0 0.0 1013.0 0.0 0.0 32.7 0.0
03/01/19 16:11 33.5 28 12.5 0.0 0.0 0 0.0 0.0 1013.0 0.0 0.0 32.3 0.0
03/01/19 16:12 33.2 28 12.2 0.0 0.0 0 0.0 0.0 1013.0 0.0 0.0 32.0 0.0
03/01/19 16:13 33.2 28 12.2 0.0 0.0 0 0.0 0.0 1013.0 0.0 0.0 32.0 0.0
03/01/19 16:14 33.2 28 12.2 0.0 0.0 0 0.0 0.0 1013.0 0.0 0.0 32.0 0.0
03/01/19 16:15 33.1 28 12.1 0.0 0.0 0 0.0 0.0 1013.0 0.0 0.0 31.8 0.0
03/01/19 16:18 33.2 28 12.2 0.0 0.0 0 0.0 0.0 1013.0 0.0 0.0 32.0 0.0
03/01/19 16:19 33.3 28 12.3 0.0 0.0 0 0.0 0.0 1013.0 0.0 0.0 32.1 0.0
03/01/19 16:20 33.3 28 12.3 0.0 0.0 0 0.0 0.0 1013.0 0.0 0.0 32.1 0.0
03/01/19 16:21 33.3 28 12.3 0.0 0.0 0 0.0 0.0 1013.0 0.0 0.0 32.1 0.0
03/01/19 16:22 33.0 28 12.1 0.0 0.0 0 0.0 0.0 1013.0 0.0 0.0 31.7 0.0
03/01/19 16:23 33.0 28 12.1 0.0 0.0 0 0.0 0.0 1013.0 0.0 0.0 31.7 0.0
03/01/19 16:24 33.0 29 12.6 0.0 0.0 0 0.0 0.0 1013.0 0.0 0.0 31.9 0.0
03/01/19 16:25 33.0 29 12.6 0.0 0.0 0 0.0 0.0 1013.0 0.0 0.0 31.9 0.0
03/01/19 16:26 33.0 29 12.6 0.0 0.0 0 0.0 0.0 1013.0 0.0 0.0 31.9 0.0
03/01/19 16:27 32.9 29 12.5 0.0 0.0 0 0.0 0.0 1013.0 0.0 0.0 31.7 0.0
03/01/19 16:28 32.9 29 12.5 0.0 0.0 0 0.0 0.0 1013.0 0.0 0.0 31.7 0.0
03/01/19 16:29 33.0 29 12.6 0.0 0.0 0 0.0 0.0 1013.0 0.0 0.0 31.9 0.0
03/01/19 16:30 32.9 30 13.0 0.0 0.0 0 0.0 0.0 1013.0 0.0 0.0 31.9 0.0
03/01/19 16:33 32.7 30 12.9 0.0 0.0 0 0.0 0.0 1013.0 0.0 0.0 31.6 0.0
03/01/19 16:34 32.7 30 12.9 0.0 0.0 0 0.0 0.0 1013.0 0.0 0.0 31.6 0.0
03/01/19 16:35 32.7 30 12.9 0.0 0.0 0 0.0 0.0 1013.0 0.0 0.0 31.6 0.0
03/01/19 16:36 32.8 30 12.9 0.0 0.0 0 0.0 0.0 1013.0 0.0 0.0 31.8 0.0
03/01/19 16:37 32.9 30 13.0 0.0 0.0 0 0.0 0.0 1013.0 0.0 0.0 31.9 0.0
03/01/19 16:38 32.8 30 12.9 0.0 0.0 0 0.0 0.0 1014.0 0.0 0.0 31.8 0.0
03/01/19 16:39 32.9 30 13.0 0.0 0.0 0 0.0 0.0 1014.0 0.0 0.0 31.9 0.0
03/01/19 16:40 32.9 31 13.5 0.0 0.0 0 0.0 0.0 1014.0 0.0 0.0 32.0 0.0
03/01/19 16:41 33.0 30 13.1 0.0 0.0 0 0.0 0.0 1014.0 0.0 0.0 32.0 0.0
03/01/19 16:42 33.0 31 13.6 0.0 0.0 0 0.0 0.0 1014.0 0.0 0.0 32.1 0.0
03/01/19 16:43 33.2 31 13.8 0.0 0.0 0 0.0 0.0 1014.0 0.0 0.0 32.4 0.0
03/01/19 16:44 33.1 31 13.7 0.0 0.0 0 0.0 0.0 1014.0 0.0 0.0 32.3 0.0
03/01/19 16:45 33.0 31 13.6 0.0 0.0 0 0.0 0.0 1014.0 0.0 0.0 32.1 0.0
03/01/19 16:48 32.4 33 14.1 0.0 0.0 0 0.0 0.0 1014.0 0.0 0.0 31.7 0.0
03/01/19 16:49 32.2 33 13.9 0.0 0.0 0 0.0 0.0 1014.0 0.0 0.0 31.4 0.0
03/01/19 16:50 32.0 33 13.7 0.0 0.0 0 0.0 0.0 1014.0 0.0 0.0 31.2 0.0
03/01/19 16:51 31.8 34 14.0 0.0 0.0 0 0.0 0.0 1014.0 0.0 0.0 31.1 0.0
03/01/19 17:03 30.7 36 13.9 0.0 0.0 0 0.0 0.0 1012.0 0.0 0.0 30.0 0.0
03/01/19 17:04 30.6 36 13.8 0.0 0.0 0 0.0 0.0 1012.0 0.0 0.0 29.9 0.0
03/01/19 17:05 30.6 37 14.3 0.0 0.0 0 0.0 0.0 1012.0 0.0 0.0 30.0 0.0
03/01/19 17:06 30.6 37 14.3 0.0 0.0 0 0.0 0.0 1012.0 0.0 0.0 30.0 0.0
03/01/19 17:07 30.6 37 14.3 0.0 0.0 0 0.0 0.0 1012.0 0.0 0.0 30.0 0.0
03/01/19 17:08 30.6 37 14.3 0.0 0.0 0 0.0 0.0 1012.0 0.0 0.0 30.0 0.0
03/01/19 17:09 30.6 38 14.7 0.0 0.0 0 0.0 0.0 1012.0 0.0 0.0 30.2 0.0
03/01/19 17:10 30.5 38 14.6 0.0 0.0 0 0.0 0.0 1012.0 0.0 0.0 30.0 0.0
03/01/19 17:11 30.5 38 14.6 0.0 0.0 0 0.0 0.0 1012.0 0.0 0.0 30.0 0.0
03/01/19 17:12 30.5 38 14.6 0.0 0.0 0 0.0 0.0 1012.0 0.0 0.0 30.0 0.0
03/01/19 17:13 30.4 39 14.9 0.0 0.0 0 0.0 0.0 1012.0 0.0 0.0 30.0 0.0
03/01/19 17:14 30.3 39 14.8 0.0 0.0 0 0.0 0.0 1012.0 0.0 0.0 29.9 0.0
03/01/19 17:15 29.9 39 14.4 0.0 0.0 0 0.0 0.0 1012.0 0.0 0.0 29.5 0.0
03/01/19 17:18 29.6 39 14.2 0.0 0.0 0 0.0 0.0 1012.0 0.0 0.0 29.1 0.0
03/01/19 17:19 29.5 40 14.5 0.0 0.0 0 0.0 0.0 1012.0 0.0 0.0 29.1 0.0
03/01/19 17:20 29.4 40 14.4 0.0 0.0 0 0.0 0.0 1012.0 0.0 0.0 29.0 0.0
03/01/19 17:21 29.4 40 14.4 0.0 0.0 0 0.0 0.0 1012.0 0.0 0.0 29.0 0.0
03/01/19 17:22 29.4 40 14.4 0.0 0.0 0 0.0 0.0 1012.0 0.0 0.0 29.0 0.0
03/01/19 17:23 29.4 40 14.4 0.0 0.0 0 0.0 0.0 1013.0 0.0 0.0 29.0 0.0
03/01/19 17:33 29.6 41 15.0 0.0 0.0 0 0.0 0.0 1013.0 0.0 0.0 29.3 0.0
03/01/19 17:34 29.6 40 14.6 0.0 0.0 0 0.0 0.0 1013.0 0.0 0.0 29.2 0.0
03/01/19 17:35 29.7 41 15.0 0.0 0.0 0 0.0 0.0 1013.0 0.0 0.0 29.5 0.0
03/01/19 17:36 29.7 41 15.0 0.0 0.0 0 0.0 0.0 1013.0 0.0 0.0 29.5 0.0
03/01/19 17:37 29.7 41 15.0 0.0 0.0 0 0.0 0.0 1013.0 0.0 0.0 29.5 0.0
03/01/19 17:38 29.6 41 15.0 0.0 0.0 0 0.0 0.0 1013.0 0.0 0.0 29.3 0.0
03/01/19 17:39 29.2 41 14.6 0.0 0.0 0 0.0 0.0 1013.0 0.0 0.0 28.9 0.0
03/01/19 17:40 29.2 41 14.6 0.0 0.0 0 0.0 0.0 1013.0 0.0 0.0 28.9 0.0
03/01/19 17:41 29.2 41 14.6 0.0 0.0 0 0.0 0.0 1013.0 0.0 0.0 28.9 0.0
03/01/19 17:42 29.3 41 14.7 0.0 0.0 0 0.0 0.0 1013.0 0.0 0.0 29.0 0.0
03/01/19 17:43 29.3 41 14.7 0.0 0.0 0 0.0 0.0 1013.0 0.0 0.0 29.0 0.0
03/01/19 17:44 29.4 41 14.8 0.0 0.0 0 0.0 0.0 1013.0 0.0 0.0 29.1 0.0
03/01/19 17:45 29.4 41 14.8 0.0 0.0 0 0.0 0.0 1013.0 0.0 0.0 29.1 0.0
03/01/19 17:48 29.5 41 14.9 0.0 0.0 0 0.0 0.0 1013.0 0.0 0.0 29.2 0.0
03/01/19 17:49 29.4 41 14.8 0.0 0.0 0 0.0 0.0 1013.0 0.0 0.0 29.1 0.0
03/01/19 17:50 29.3 41 14.7 0.0 0.0 0 0.0 0.0 1013.0 0.0 0.0 29.0 0.0
03/01/19 17:51 29.3 41 14.7 0.0 0.0 0 0.0 0.0 1013.0 0.0 0.0 29.0 0.0
03/01/19 17:52 29.2 42 15.0 0.0 0.0 0 0.0 0.0 1013.0 0.0 0.0 29.0 0.0
03/01/19 17:53 29.3 42 15.1 0.0 0.0 0 0.0 0.0 1013.0 0.0 0.0 29.1 0.0
03/01/19 17:54 29.2 42 15.0 0.0 0.0 0 0.0 0.0 1013.0 0.0 0.0 29.0 0.0
03/01/19 17:55 29.3 41 14.7 0.0 0.0 0 0.0 0.0 1013.0 0.0 0.0 29.0 0.0
03/01/19 17:56 29.2 42 15.0 0.0 0.0 0 0.0 0.0 1013.0 0.0 0.0 29.0 0.0
03/01/19 17:57 29.2 42 15.0 0.0 0.0 0 0.0 0.0 1013.0 0.0 0.0 29.0 0.0
03/01/19 17:58 29.2 41 14.6 0.0 0.0 0 0.0 0.0 1013.0 0.0 0.0 28.9 0.0
03/01/19 17:59 29.1 41 14.5 0.0 0.0 0 0.0 0.0 1013.0 0.0 0.0 28.8 0.0
03/01/19 18:00 29.0 41 14.4 0.0 0.0 0 0.0 0.0 1013.0 0.0 0.0 28.7 0.0
03/01/19 18:03 28.9 42 14.7 0.0 0.0 0 0.0 0.0 1013.0 0.0 0.0 28.7 0.0
03/01/19 18:04 28.8 42 14.6 0.0 0.0 0 0.0 0.0 1013.0 0.0 0.0 28.6 0.0
03/01/19 18:05 28.7 42 14.5 0.0 0.0 0 0.0 0.0 1013.0 0.0 0.0 28.5 0.0
03/01/19 18:06 28.6 42 14.4 0.0 0.0 0 0.0 0.0 1013.0 0.0 0.0 28.4 0.0
03/01/19 18:07 28.6 42 14.4 0.0 0.0 0 0.0 0.0 1013.0 0.0 0.0 28.4 0.0
03/01/19 18:08 28.6 42 14.4 0.0 0.0 0 0.0 0.0 1014.0 0.0 0.0 28.4 0.0
03/01/19 18:09 28.5 42 14.3 0.0 0.0 0 0.0 0.0 1014.0 0.0 0.0 28.3 0.0
03/01/19 18:10 28.4 42 14.2 0.0 0.0 0 0.0 0.0 1014.0 0.0 0.0 28.2 0.0
03/01/19 18:11 28.3 42 14.2 0.0 0.0 0 0.0 0.0 1014.0 0.0 0.0 28.1 0.0
03/01/19 18:12 28.2 42 14.1 0.0 0.0 0 0.0 0.0 1014.0 0.0 0.0 28.0 0.0
03/01/19 18:13 28.2 42 14.1 0.0 0.0 0 0.0 0.0 1014.0 0.0 0.0 28.0 0.0
03/01/19 18:14 28.1 42 14.0 0.0 0.0 0 0.0 0.0 1014.0 0.0 0.0 27.9 0.0
03/01/19 18:15 28.1 42 14.0 0.0 0.0 0 0.0 0.0 1014.0 0.0 0.0 27.9 0.0
03/01/19 18:18 27.9 44 14.5 0.0 0.0 0 0.0 0.0 1014.0 0.0 0.0 27.9 0.0
03/01/19 18:19 27.8 44 14.4 0.0 0.0 0 0.0 0.0 1014.0 0.0 0.0 27.8 0.0
03/01/19 18:20 27.8 44 14.4 0.0 0.0 0 0.0 0.0 1014.0 0.0 0.0 27.8 0.0
03/01/19 18:21 27.8 44 14.4 0.0 0.0 0 0.0 0.0 1014.0 0.0 0.0 27.8 0.0
03/01/19 18:22 27.8 44 14.4 0.0 0.0 0 0.0 0.0 1014.0 0.0 0.0 27.8 0.0
03/01/19 18:23 27.7 44 14.3 0.0 0.0 0 0.0 0.0 1013.0 0.0 0.0 27.7 0.0
03/01/19 18:24 27.7 44 14.3 0.0 0.0 0 0.0 0.0 1013.0 0.0 0.0 27.7 0.0
03/01/19 18:25 27.7 44 14.3 0.0 0.0 0 0.0 0.0 1013.0 0.0 0.0 27.7 0.0
03/01/19 18:26 27.6 44 14.2 0.0 0.0 0 0.0 0.0 1013.0 0.0 0.0 27.6 0.0
03/01/19 18:27 27.6 44 14.2 0.0 0.0 0 0.0 0.0 1013.0 0.0 0.0 27.6 0.0
03/01/19 18:28 27.5 45 14.5 0.0 0.0 0 0.0 0.0 1013.0 0.0 0.0 27.6 0.0
03/01/19 18:29 27.5 45 14.5 0.0 0.0 0 0.0 0.0 1013.0 0.0 0.0 27.6 0.0
03/01/19 18:30 27.5 45 14.5 0.0 0.0 0 0.0 0.0 1013.0 0.0 0.0 27.6 0.0
03/01/19 18:33 27.4 46 14.8 0.0 0.0 0 0.0 0.0 1013.0 0.0 0.0 27.5 0.0
03/01/19 18:34 27.3 46 14.7 0.0 0.0 0 0.0 0.0 1013.0 0.0 0.0 27.4 0.0
03/01/19 18:35 27.3 46 14.7 0.0 0.0 0 0.0 0.0 1013.0 0.0 0.0 27.4 0.0
03/01/19 18:36 27.3 46 14.7 0.0 0.0 0 0.0 0.0 1013.0 0.0 0.0 27.4 0.0
03/01/19 18:37 27.4 46 14.8 0.0 0.0 0 0.0 0.0 1013.0 0.0 0.0 27.5 0.0
03/01/19 18:38 27.4 46 14.8 0.0 0.0 0 0.0 0.0 1014.0 0.0 0.0 27.5 0.0
03/01/19 18:39 27.4 46 14.8 0.0 0.0 0 0.0 0.0 1014.0 0.0 0.0 27.5 0.0
03/01/19 18:40 27.3 47 15.0 0.0 0.0 0 0.0 0.0 1014.0 0.0 0.0 27.5 0.0
03/01/19 18:41 27.3 47 15.0 0.0 0.0 0 0.0 0.0 1014.0 0.0 0.0 27.5 0.0
03/01/19 18:42 27.3 47 15.0 0.0 0.0 0 0.0 0.0 1014.0 0.0 0.0 27.5 0.0
03/01/19 18:43 27.3 47 15.0 0.0 0.0 0 0.0 0.0 1014.0 0.0 0.0 27.5 0.0
03/01/19 18:44 27.3 47 15.0 0.0 0.0 0 0.0 0.0 1014.0 0.0 0.0 27.5 0.0
03/01/19 18:45 27.3 47 15.0 0.0 0.0 0 0.0 0.0 1014.0 0.0 0.0 27.5 0.0
03/01/19 18:48 27.2 48 15.2 0.0 0.0 0 0.0 0.0 1014.0 0.0 0.0 27.5 0.0
03/01/19 18:49 27.1 48 15.1 0.0 0.0 0 0.0 0.0 1014.0 0.0 0.0 27.4 0.0
03/01/19 18:50 27.1 47 14.8 0.0 0.0 0 0.0 0.0 1014.0 0.0 0.0 27.3 0.0
03/01/19 18:51 27.1 47 14.8 0.0 0.0 0 0.0 0.0 1014.0 0.0 0.0 27.3 0.0
03/01/19 18:52 27.1 48 15.1 0.0 0.0 0 0.0 0.0 1014.0 0.0 0.0 27.4 0.0
03/01/19 18:53 27.1 48 15.1 0.0 0.0 0 0.0 0.0 1014.0 0.0 0.0 27.4 0.0
03/01/19 18:54 27.1 48 15.1 0.0 0.0 0 0.0 0.0 1014.0 0.0 0.0 27.4 0.0
03/01/19 18:55 27.1 48 15.1 0.0 0.0 0 0.0 0.0 1014.0 0.0 0.0 27.4 0.0
03/01/19 18:56 27.1 48 15.1 0.0 0.0 0 0.0 0.0 1014.0 0.0 0.0 27.4 0.0
03/01/19 18:57 26.9 49 15.3 0.0 0.0 0 0.0 0.0 1014.0 0.0 0.0 27.3 0.0
03/01/19 18:58 26.9 49 15.3 0.0 0.0 0 0.0 0.0 1014.0 0.0 0.0 27.3 0.0
03/01/19 18:59 26.9 49 15.3 0.0 0.0 0 0.0 0.0 1014.0 0.0 0.0 27.3 0.0
03/01/19 19:00 26.9 50 15.6 0.0 0.0 0 0.0 0.0 1014.0 0.0 0.0 27.3 0.0
03/01/19 19:03 26.7 50 15.4 0.0 0.0 0 0.0 0.0 1014.0 0.0 0.0 27.1 0.0
03/01/19 19:04 26.6 50 15.3 0.0 0.0 0 0.0 0.0 1014.0 0.0 0.0 26.6 0.0
03/01/19 19:05 26.6 51 15.6 0.0 0.0 0 0.0 0.0 1014.0 0.0 0.0 26.6 0.0
03/01/19 19:06 26.5 51 15.5 0.0 0.0 0 0.0 0.0 1014.0 0.0 0.0 26.5 0.0
03/01/19 19:07 26.5 51 15.5 0.0 0.0 0 0.0 0.0 1014.0 0.0 0.0 26.5 0.0
03/01/19 19:08 26.5 51 15.5 0.0 0.0 0 0.0 0.0 1014.0 0.0 0.0 26.5 0.0
03/01/19 19:09 26.4 51 15.4 0.0 0.0 0 0.0 0.0 1014.0 0.0 0.0 26.4 0.0
03/01/19 19:10 26.4 51 15.4 0.0 0.0 0 0.0 0.0 1014.0 0.0 0.0 26.4 0.0
03/01/19 19:11 26.4 52 15.8 0.0 0.0 0 0.0 0.0 1014.0 0.0 0.0 26.4 0.0
03/01/19 19:12 26.3 53 16.0 0.0 0.0 0 0.0 0.0 1014.0 0.0 0.0 26.3 0.0
03/01/19 19:13 26.2 53 15.9 0.0 0.0 0 0.0 0.0 1014.0 0.0 0.0 26.2 0.0
03/01/19 19:14 26.2 54 16.2 0.0 0.0 0 0.0 0.0 1014.0 0.0 0.0 26.2 0.0
03/01/19 19:15 26.1 54 16.1 0.0 0.0 0 0.0 0.0 1014.0 0.0 0.0 26.1 0.0
03/01/19 19:18 26.0 56 16.5 0.0 0.0 0 0.0 0.0 1014.0 0.0 0.0 26.0 0.0
03/01/19 19:19 25.9 57 16.7 0.0 0.0 0 0.0 0.0 1014.0 0.0 0.0 25.9 0.0
03/01/19 19:20 25.8 57 16.6 0.0 0.0 0 0.0 0.0 1014.0 0.0 0.0 25.8 0.0
03/01/19 19:21 25.8 57 16.6 0.0 0.0 0 0.0 0.0 1014.0 0.0 0.0 25.8 0.0
03/01/19 19:22 25.8 57 16.6 0.0 0.0 0 0.0 0.0 1014.0 0.0 0.0 25.8 0.0
03/01/19 19:23 25.7 58 16.8 0.0 0.0 0 0.0 0.0 1015.0 0.0 0.0 25.7 0.0
03/01/19 19:24 25.7 58 16.8 0.0 0.0 0 0.0 0.0 1015.0 0.0 0.0 25.7 0.0
03/01/19 19:25 25.7 59 17.1 0.0 0.0 0 0.0 0.0 1015.0 0.0 0.0 25.7 0.0
03/01/19 19:26 25.6 59 17.0 0.0 0.0 0 0.0 0.0 1015.0 0.0 0.0 25.6 0.0
03/01/19 19:27 25.5 59 16.9 0.0 0.0 0 0.0 0.0 1015.0 0.0 0.0 25.5 0.0
03/01/19 19:28 25.5 60 17.2 0.0 0.0 0 0.0 0.0 1015.0 0.0 0.0 25.5 0.0
03/01/19 19:29 25.4 60 17.1 0.0 0.0 0 0.0 0.0 1015.0 0.0 0.0 25.4 0.0
03/01/19 19:30 25.4 60 17.1 0.0 0.0 0 0.0 0.0 1015.0 0.0 0.0 25.4 0.0
03/01/19 19:33 25.3 59 16.7 0.0 0.0 0 0.0 0.0 1015.0 0.0 0.0 25.3 0.0
03/01/19 19:34 25.2 60 16.9 0.0 0.0 0 0.0 0.0 1015.0 0.0 0.0 25.2 0.0
03/01/19 19:35 25.2 61 17.1 0.0 0.0 0 0.0 0.0 1015.0 0.0 0.0 25.2 0.0
03/01/19 19:36 25.2 61 17.1 0.0 0.0 0 0.0 0.0 1015.0 0.0 0.0 25.2 0.0
03/01/19 19:37 25.1 61 17.0 0.0 0.0 0 0.0 0.0 1015.0 0.0 0.0 25.1 0.0
03/01/19 19:38 25.1 62 17.3 0.0 0.0 0 0.0 0.0 1015.0 0.0 0.0 25.1 0.0
03/01/19 19:39 25.0 63 17.5 0.0 0.0 0 0.0 0.0 1015.0 0.0 0.0 25.0 0.0
03/01/19 19:40 25.0 63 17.5 0.0 0.0 0 0.0 0.0 1015.0 0.0 0.0 25.0 0.0
03/01/19 19:41 24.9 64 17.6 0.0 0.0 0 0.0 0.0 1015.0 0.0 0.0 24.9 0.0
03/01/19 19:42 24.8 63 17.3 0.0 0.0 0 0.0 0.0 1015.0 0.0 0.0 24.8 0.0
03/01/19 19:43 24.8 63 17.3 0.0 0.0 0 0.0 0.0 1015.0 0.0 0.0 24.8 0.0
03/01/19 19:44 24.8 64 17.5 0.0 0.0 0 0.0 0.0 1015.0 0.0 0.0 24.8 0.0
03/01/19 19:45 24.7 64 17.4 0.0 0.0 0 0.0 0.0 1015.0 0.0 0.0 24.7 0.0
03/01/19 19:48 24.6 64 17.3 0.0 0.0 0 0.0 0.0 1015.0 0.0 0.0 24.6 0.0
03/01/19 19:49 24.5 66 17.7 0.0 0.0 0 0.0 0.0 1015.0 0.0 0.0 24.5 0.0
03/01/19 19:50 24.5 66 17.7 0.0 0.0 0 0.0 0.0 1015.0 0.0 0.0 24.5 0.0
03/01/19 19:51 24.4 66 17.6 0.0 0.0 0 0.0 0.0 1015.0 0.0 0.0 24.4 0.0
03/01/19 19:52 24.4 66 17.6 0.0 0.0 0 0.0 0.0 1015.0 0.0 0.0 24.4 0.0
03/01/19 19:53 24.4 66 17.6 0.0 0.0 0 0.0 0.0 1015.0 0.0 0.0 24.4 0.0
03/01/19 19:54 24.4 67 17.9 0.0 0.0 0 0.0 0.0 1015.0 0.0 0.0 24.4 0.0
03/01/19 19:55 24.3 67 17.8 0.0 0.0 0 0.0 0.0 1015.0 0.0 0.0 24.3 0.0
03/01/19 19:56 24.3 67 17.8 0.0 0.0 0 0.0 0.0 1015.0 0.0 0.0 24.3 0.0
03/01/19 19:57 24.2 67 17.7 0.0 0.0 0 0.0 0.0 1015.0 0.0 0.0 24.2 0.0
03/01/19 19:58 24.2 67 17.7 0.0 0.0 0 0.0 0.0 1015.0 0.0 0.0 24.2 0.0
03/01/19 19:59 24.2 67 17.7 0.0 0.0 0 0.0 0.0 1015.0 0.0 0.0 24.2 0.0
03/01/19 20:03 24.1 68 17.8 0.0 0.0 0 0.0 0.0 1015.0 0.0 0.0 24.1 0.0
03/01/19 20:04 24.1 68 17.8 0.0 0.0 0 0.0 0.0 1015.0 0.0 0.0 24.1 0.0
03/01/19 20:05 24.0 68 17.7 0.0 0.0 0 0.0 0.0 1015.0 0.0 0.0 24.0 0.0
03/01/19 20:06 24.0 68 17.7 0.0 0.0 0 0.0 0.0 1015.0 0.0 0.0 24.0 0.0
03/01/19 20:07 24.0 68 17.7 0.0 0.0 0 0.0 0.0 1015.0 0.0 0.0 24.0 0.0
03/01/19 20:08 24.0 68 17.7 0.0 0.0 0 0.0 0.0 1015.0 0.0 0.0 24.0 0.0
03/01/19 20:09 24.0 69 18.0 0.0 0.0 0 0.0 0.0 1015.0 0.0 0.0 24.0 0.0
03/01/19 20:10 23.9 69 17.9 0.0 0.0 0 0.0 0.0 1015.0 0.0 0.0 23.9 0.0
03/01/19 20:11 23.9 69 17.9 0.0 0.0 0 0.0 0.0 1015.0 0.0 0.0 23.9 0.0
03/01/19 20:12 23.9 69 17.9 0.0 0.0 0 0.0 0.0 1015.0 0.0 0.0 23.9 0.0
03/01/19 20:13 23.9 69 17.9 0.0 0.0 0 0.0 0.0 1015.0 0.0 0.0 23.9 0.0
03/01/19 20:14 23.8 69 17.8 0.0 0.0 0 0.0 0.0 1015.0 0.0 0.0 23.8 0.0
03/01/19 20:15 23.8 68 17.5 0.0 0.0 0 0.0 0.0 1015.0 0.0 0.0 23.8 0.0
03/01/19 20:18 23.7 69 17.7 0.0 0.0 0 0.0 0.0 1015.0 0.0 0.0 23.7 0.0
03/01/19 20:19 23.7 69 17.7 0.0 0.0 0 0.0 0.0 1015.0 0.0 0.0 23.7 0.0
03/01/19 20:20 23.7 69 17.7 0.0 0.0 0 0.0 0.0 1015.0 0.0 0.0 23.7 0.0
03/01/19 20:21 23.6 69 17.6 0.0 0.0 0 0.0 0.0 1015.0 0.0 0.0 23.6 0.0
03/01/19 20:22 23.6 69 17.6 0.0 0.0 0 0.0 0.0 1015.0 0.0 0.0 23.6 0.0
03/01/19 20:23 23.6 69 17.6 0.0 0.0 0 0.0 0.0 1015.0 0.0 0.0 23.6 0.0
03/01/19 20:24 23.6 69 17.6 0.0 0.0 0 0.0 0.0 1015.0 0.0 0.0 23.6 0.0
03/01/19 20:25 23.5 69 17.5 0.0 0.0 0 0.0 0.0 1015.0 0.0 0.0 23.5 0.0
03/01/19 20:26 23.5 69 17.5 0.0 0.0 0 0.0 0.0 1015.0 0.0 0.0 23.5 0.0
03/01/19 20:27 23.5 70 17.7 0.0 0.0 0 0.0 0.0 1015.0 0.0 0.0 23.5 0.0
03/01/19 20:28 23.5 69 17.5 0.0 0.0 0 0.0 0.0 1015.0 0.0 0.0 23.5 0.0
03/01/19 20:29 23.5 69 17.5 0.0 0.0 0 0.0 0.0 1015.0 0.0 0.0 23.5 0.0
03/01/19 20:48 23.0 73 17.9 0.0 0.0 0 0.0 0.0 1015.0 0.0 0.0 23.0 0.0
03/01/19 20:49 23.0 74 18.1 0.0 0.0 0 0.0 0.0 1015.0 0.0 0.0 23.0 0.0
03/01/19 20:50 23.0 72 17.7 0.0 0.0 0 0.0 0.0 1015.0 0.0 0.0 23.0 0.0
03/01/19 20:51 22.9 72 17.6 0.0 0.0 0 0.0 0.0 1015.0 0.0 0.0 22.9 0.0
03/01/19 20:52 22.9 72 17.6 0.0 0.0 0 0.0 0.0 1015.0 0.0 0.0 22.9 0.0
03/01/19 20:53 22.9 73 17.8 0.0 0.0 0 0.0 0.0 1016.0 0.0 0.0 22.9 0.0
03/01/19 20:54 22.9 73 17.8 0.0 0.0 0 0.0 0.0 1016.0 0.0 0.0 22.9 0.0
03/01/19 20:55 22.9 72 17.6 0.0 0.0 0 0.0 0.0 1016.0 0.0 0.0 22.9 0.0
03/01/19 20:56 22.9 72 17.6 0.0 0.0 0 0.0 0.0 1016.0 0.0 0.0 22.9 0.0
03/01/19 20:57 22.8 72 17.5 0.0 0.0 0 0.0 0.0 1016.0 0.0 0.0 22.8 0.0
03/01/19 20:58 22.8 72 17.5 0.0 0.0 0 0.0 0.0 1016.0 0.0 0.0 22.8 0.0
03/01/19 20:59 22.8 74 17.9 0.0 0.0 0 0.0 0.0 1016.0 0.0 0.0 22.8 0.0
03/01/19 21:00 22.8 74 17.9 0.0 0.0 0 0.0 0.0 1016.0 0.0 0.0 22.8 0.0
03/01/19 21:03 22.7 73 17.6 0.0 0.0 0 0.0 0.0 1016.0 0.0 0.0 22.7 0.0
03/01/19 21:04 22.7 74 17.8 0.0 0.0 0 0.0 0.0 1016.0 0.0 0.0 22.7 0.0
03/01/19 21:05 22.7 74 17.8 0.0 0.0 0 0.0 0.0 1016.0 0.0 0.0 22.7 0.0
03/01/19 21:06 22.6 76 18.2 0.0 0.0 0 0.0 0.0 1016.0 0.0 0.0 22.6 0.0
03/01/19 21:07 22.6 75 17.9 0.0 0.0 0 0.0 0.0 1016.0 0.0 0.0 22.6 0.0
03/01/19 21:08 22.6 74 17.7 0.0 0.0 0 0.0 0.0 1016.0 0.0 0.0 22.6 0.0
03/01/19 21:09 22.6 75 17.9 0.0 0.0 0 0.0 0.0 1016.0 0.0 0.0 22.6 0.0
03/01/19 21:10 22.6 75 17.9 0.0 0.0 0 0.0 0.0 1016.0 0.0 0.0 22.6 0.0
03/01/19 21:11 22.5 75 17.8 0.0 0.0 0 0.0 0.0 1016.0 0.0 0.0 22.5 0.0
03/01/19 21:12 22.5 74 17.6 0.0 0.0 0 0.0 0.0 1016.0 0.0 0.0 22.5 0.0
03/01/19 21:13 22.4 74 17.5 0.0 0.0 0 0.0 0.0 1016.0 0.0 0.0 22.4 0.0
03/01/19 21:18 22.3 75 17.7 0.0 0.0 0 0.0 0.0 1016.0 0.0 0.0 22.3 0.0
03/01/19 21:19 22.3 76 17.9 0.0 0.0 0 0.0 0.0 1016.0 0.0 0.0 22.3 0.0
03/01/19 21:20 22.2 75 17.6 0.0 0.0 0 0.0 0.0 1016.0 0.0 0.0 22.2 0.0
03/01/19 21:21 22.2 75 17.6 0.0 0.0 0 0.0 0.0 1016.0 0.0 0.0 22.2 0.0
03/01/19 21:22 22.2 75 17.6 0.0 0.0 0 0.0 0.0 1016.0 0.0 0.0 22.2 0.0
03/01/19 21:23 22.2 76 17.8 0.0 0.0 0 0.0 0.0 1016.0 0.0 0.0 22.2 0.0
03/01/19 21:24 22.1 75 17.5 0.0 0.0 0 0.0 0.0 1016.0 0.0 0.0 22.1 0.0
03/01/19 21:25 22.1 76 17.7 0.0 0.0 0 0.0 0.0 1016.0 0.0 0.0 22.1 0.0
03/01/19 21:26 22.1 75 17.5 0.0 0.0 0 0.0 0.0 1016.0 0.0 0.0 22.1 0.0
03/01/19 21:27 22.1 75 17.5 0.0 0.0 0 0.0 0.0 1016.0 0.0 0.0 22.1 0.0
03/01/19 21:28 22.0 76 17.6 0.0 0.0 0 0.0 0.0 1016.0 0.0 0.0 22.0 0.0
03/01/19 21:29 22.0 76 17.6 0.0 0.0 0 0.0 0.0 1016.0 0.0 0.0 22.0 0.0
03/01/19 21:30 22.0 78 18.0 0.0 0.0 0 0.0 0.0 1016.0 0.0 0.0 22.0 0.0
03/01/19 21:33 21.9 77 17.7 0.0 0.0 0 0.0 0.0 1016.0 0.0 0.0 21.9 0.0
03/01/19 21:34 21.9 78 17.9 0.0 0.0 0 0.0 0.0 1016.0 0.0 0.0 21.9 0.0
03/01/19 21:35 21.9 79 18.1 0.0 0.0 0 0.0 0.0 1016.0 0.0 0.0 21.9 0.0
03/01/19 21:36 21.8 77 17.6 0.0 0.0 0 0.0 0.0 1016.0 0.0 0.0 21.8 0.0
03/01/19 21:37 21.8 77 17.6 0.0 0.0 0 0.0 0.0 1016.0 0.0 0.0 21.8 0.0
03/01/19 21:38 21.8 77 17.6 0.0 0.0 0 0.0 0.0 1017.0 0.0 0.0 21.8 0.0
03/01/19 21:39 21.8 77 17.6 0.0 0.0 0 0.0 0.0 1017.0 0.0 0.0 21.8 0.0
03/01/19 21:40 21.7 77 17.5 0.0 0.0 0 0.0 0.0 1017.0 0.0 0.0 21.7 0.0
03/01/19 21:41 21.7 77 17.5 0.0 0.0 0 0.0 0.0 1017.0 0.0 0.0 21.7 0.0
03/01/19 21:42 21.7 77 17.5 0.0 0.0 0 0.0 0.0 1017.0 0.0 0.0 21.7 0.0
03/01/19 21:43 21.6 78 17.6 0.0 0.0 0 0.0 0.0 1017.0 0.0 0.0 21.6 0.0
03/01/19 21:44 21.6 78 17.6 0.0 0.0 0 0.0 0.0 1017.0 0.0 0.0 21.6 0.0
03/01/19 21:45 21.6 78 17.6 0.0 0.0 0 0.0 0.0 1017.0 0.0 0.0 21.6 0.0
03/01/19 21:48 21.5 77 17.3 0.0 0.0 0 0.0 0.0 1017.0 0.0 0.0 21.5 0.0
03/01/19 21:49 21.6 79 17.8 0.0 0.0 0 0.0 0.0 1017.0 0.0 0.0 21.6 0.0
03/01/19 21:50 21.5 79 17.7 0.0 0.0 0 0.0 0.0 1017.0 0.0 0.0 21.5 0.0
03/01/19 21:51 21.4 78 17.4 0.0 0.0 0 0.0 0.0 1017.0 0.0 0.0 21.4 0.0
03/01/19 21:52 21.4 80 17.8 0.0 0.0 0 0.0 0.0 1017.0 0.0 0.0 21.4 0.0
03/01/19 21:53 21.4 79 17.6 0.0 0.0 0 0.0 0.0 1017.0 0.0 0.0 21.4 0.0
03/01/19 21:54 21.4 79 17.6 0.0 0.0 0 0.0 0.0 1017.0 0.0 0.0 21.4 0.0
03/01/19 21:55 21.4 79 17.6 0.0 0.0 0 0.0 0.0 1017.0 0.0 0.0 21.4 0.0
03/01/19 21:56 21.4 79 17.6 0.0 0.0 0 0.0 0.0 1017.0 0.0 0.0 21.4 0.0
03/01/19 21:57 21.3 79 17.5 0.0 0.0 0 0.0 0.0 1017.0 0.0 0.0 21.3 0.0
03/01/19 21:58 21.3 79 17.5 0.0 0.0 0 0.0 0.0 1017.0 0.0 0.0 21.3 0.0
03/01/19 21:59 21.3 80 17.7 0.0 0.0 0 0.0 0.0 1017.0 0.0 0.0 21.3 0.0
03/01/19 22:00 21.2 79 17.4 0.0 0.0 0 0.0 0.0 1017.0 0.0 0.0 21.2 0.0
03/01/19 22:03 21.2 79 17.4 0.0 0.0 0 0.0 0.0 1017.0 0.0 0.0 21.2 0.0
03/01/19 22:04 21.2 79 17.4 0.0 0.0 0 0.0 0.0 1017.0 0.0 0.0 21.2 0.0
03/01/19 22:05 21.1 79 17.3 0.0 0.0 0 0.0 0.0 1017.0 0.0 0.0 21.1 0.0
03/01/19 22:06 21.1 79 17.3 0.0 0.0 0 0.0 0.0 1017.0 0.0 0.0 21.1 0.0
03/01/19 22:07 21.1 79 17.3 0.0 0.0 0 0.0 0.0 1017.0 0.0 0.0 21.1 0.0
03/01/19 22:08 21.1 79 17.3 0.0 0.0 0 0.0 0.0 1018.0 0.0 0.0 21.1 0.0
03/01/19 22:09 21.1 80 17.5 0.0 0.0 0 0.0 0.0 1018.0 0.0 0.0 21.1 0.0
03/01/19 22:10 21.1 80 17.5 0.0 0.0 0 0.0 0.0 1018.0 0.0 0.0 21.1 0.0
03/01/19 22:11 21.1 79 17.3 0.0 0.0 0 0.0 0.0 1018.0 0.0 0.0 21.1 0.0
03/01/19 22:12 21.1 80 17.5 0.0 0.0 0 0.0 0.0 1018.0 0.0 0.0 21.1 0.0
03/01/19 22:13 21.0 79 17.2 0.0 0.0 0 0.0 0.0 1018.0 0.0 0.0 21.0 0.0
03/01/19 22:14 21.0 81 17.6 0.0 0.0 0 0.0 0.0 1018.0 0.0 0.0 21.0 0.0
03/01/19 22:15 20.9 81 17.5 0.0 0.0 0 0.0 0.0 1018.0 0.0 0.0 20.9 0.0
03/01/19 22:18 20.9 80 17.3 0.0 0.0 0 0.0 0.0 1018.0 0.0 0.0 20.9 0.0
03/01/19 22:19 20.9 80 17.3 0.0 0.0 0 0.0 0.0 1018.0 0.0 0.0 20.9 0.0
03/01/19 22:20 20.8 80 17.2 0.0 0.0 0 0.0 0.0 1018.0 0.0 0.0 20.8 0.0
03/01/19 22:21 20.8 80 17.2 0.0 0.0 0 0.0 0.0 1018.0 0.0 0.0 20.8 0.0
03/01/19 22:22 20.8 80 17.2 0.0 0.0 0 0.0 0.0 1018.0 0.0 0.0 20.8 0.0
03/01/19 22:23 20.8 81 17.4 0.0 0.0 0 0.0 0.0 1017.0 0.0 0.0 20.8 0.0
03/01/19 22:24 20.7 81 17.3 0.0 0.0 0 0.0 0.0 1017.0 0.0 0.0 20.7 0.0
03/01/19 22:25 20.7 82 17.5 0.0 0.0 0 0.0 0.0 1017.0 0.0 0.0 20.7 0.0
03/01/19 22:26 20.7 82 17.5 0.0 0.0 0 0.0 0.0 1017.0 0.0 0.0 20.7 0.0
03/01/19 22:27 20.7 82 17.5 0.0 0.0 0 0.0 0.0 1017.0 0.0 0.0 20.7 0.0
03/01/19 22:28 20.7 82 17.5 0.0 0.0 0 0.0 0.0 1017.0 0.0 0.0 20.7 0.0
03/01/19 22:29 20.6 81 17.2 0.0 0.0 0 0.0 0.0 1017.0 0.0 0.0 20.6 0.0
03/01/19 22:30 20.6 81 17.2 0.0 0.0 0 0.0 0.0 1017.0 0.0 0.0 20.6 0.0
03/01/19 22:33 20.5 81 17.1 0.0 0.0 0 0.0 0.0 1017.0 0.0 0.0 20.5 0.0
03/01/19 22:34 20.5 81 17.1 0.0 0.0 0 0.0 0.0 1017.0 0.0 0.0 20.5 0.0
03/01/19 22:35 20.5 81 17.1 0.0 0.0 0 0.0 0.0 1017.0 0.0 0.0 20.5 0.0
03/01/19 22:36 20.5 83 17.5 0.0 0.0 0 0.0 0.0 1017.0 0.0 0.0 20.5 0.0
03/01/19 22:37 20.5 82 17.3 0.0 0.0 0 0.0 0.0 1017.0 0.0 0.0 20.5 0.0
03/01/19 22:38 20.4 82 17.2 0.0 0.0 0 0.0 0.0 1017.0 0.0 0.0 20.4 0.0
03/01/19 22:39 20.4 81 17.0 0.0 0.0 0 0.0 0.0 1017.0 0.0 0.0 20.4 0.0
03/01/19 22:40 20.4 81 17.0 0.0 0.0 0 0.0 0.0 1017.0 0.0 0.0 20.4 0.0
03/01/19 22:41 20.4 82 17.2 0.0 0.0 0 0.0 0.0 1017.0 0.0 0.0 20.4 0.0
03/01/19 22:42 20.3 82 17.1 0.0 0.0 0 0.0 0.0 1017.0 0.0 0.0 20.3 0.0
03/01/19 22:43 20.3 82 17.1 0.0 0.0 0 0.0 0.0 1017.0 0.0 0.0 20.3 0.0
03/01/19 22:44 20.3 82 17.1 0.0 0.0 0 0.0 0.0 1017.0 0.0 0.0 20.3 0.0
03/01/19 22:45 20.3 82 17.1 0.0 0.0 0 0.0 0.0 1017.0 0.0 0.0 20.3 0.0
03/01/19 22:48 20.2 84 17.4 0.0 0.0 0 0.0 0.0 1017.0 0.0 0.0 20.2 0.0
03/01/19 22:49 20.2 83 17.2 0.0 0.0 0 0.0 0.0 1017.0 0.0 0.0 20.2 0.0
03/01/19 22:50 20.2 83 17.2 0.0 0.0 0 0.0 0.0 1017.0 0.0 0.0 20.2 0.0
03/01/19 22:51 20.2 83 17.2 0.0 0.0 0 0.0 0.0 1017.0 0.0 0.0 20.2 0.0
03/01/19 22:52 20.2 83 17.2 0.0 0.0 0 0.0 0.0 1017.0 0.0 0.0 20.2 0.0
03/01/19 22:53 20.2 83 17.2 0.0 0.0 0 0.0 0.0 1017.0 0.0 0.0 20.2 0.0
03/01/19 22:54 20.1 83 17.1 0.0 0.0 0 0.0 0.0 1017.0 0.0 0.0 20.1 0.0
03/01/19 23:03 20.0 84 17.2 0.0 0.0 0 0.0 0.0 1017.0 0.0 0.0 20.0 0.0
03/01/19 23:04 20.0 85 17.4 0.0 0.0 0 0.0 0.0 1017.0 0.0 0.0 20.0 0.0
03/01/19 23:18 19.7 85 17.1 0.0 0.0 0 0.0 0.0 1016.0 0.0 0.0 19.7 0.0
03/01/19 23:19 19.7 85 17.1 0.0 0.0 0 0.0 0.0 1016.0 0.0 0.0 19.7 0.0
03/01/19 23:20 19.7 85 17.1 0.0 0.0 0 0.0 0.0 1016.0 0.0 0.0 19.7 0.0
03/01/19 23:21 19.7 85 17.1 0.0 0.0 0 0.0 0.0 1016.0 0.0 0.0 19.7 0.0
03/01/19 23:22 19.7 86 17.3 0.0 0.0 0 0.0 0.0 1016.0 0.0 0.0 19.7 0.0
03/01/19 23:23 19.6 86 17.2 0.0 0.0 0 0.0 0.0 1017.0 0.0 0.0 19.6 0.0
03/01/19 23:24 19.6 87 17.4 0.0 0.0 0 0.0 0.0 1017.0 0.0 0.0 19.6 0.0
03/01/19 23:25 19.6 86 17.2 0.0 0.0 0 0.0 0.0 1017.0 0.0 0.0 19.6 0.0
03/01/19 23:26 19.6 86 17.2 0.0 0.0 0 0.0 0.0 1017.0 0.0 0.0 19.6 0.0
03/01/19 23:27 19.6 86 17.2 0.0 0.0 0 0.0 0.0 1017.0 0.0 0.0 19.6 0.0
03/01/19 23:28 19.6 86 17.2 0.0 0.0 0 0.0 0.0 1017.0 0.0 0.0 19.6 0.0
03/01/19 23:29 19.5 86 17.1 0.0 0.0 0 0.0 0.0 1017.0 0.0 0.0 19.5 0.0
03/01/19 23:30 19.5 86 17.1 0.0 0.0 0 0.0 0.0 1017.0 0.0 0.0 19.5 0.0
03/01/19 23:33 19.5 86 17.1 0.0 0.0 0 0.0 0.0 1017.0 0.0 0.0 19.5 0.0
03/01/19 23:34 19.4 86 17.0 0.0 0.0 0 0.0 0.0 1017.0 0.0 0.0 19.4 0.0
03/01/19 23:35 19.4 86 17.0 0.0 0.0 0 0.0 0.0 1017.0 0.0 0.0 19.4 0.0
03/01/19 23:36 19.4 86 17.0 0.0 0.0 0 0.0 0.0 1017.0 0.0 0.0 19.4 0.0
03/01/19 23:37 19.4 86 17.0 0.0 0.0 0 0.0 0.0 1017.0 0.0 0.0 19.4 0.0
03/01/19 23:38 19.3 86 16.9 0.0 0.0 0 0.0 0.0 1017.0 0.0 0.0 19.3 0.0
03/01/19 23:39 19.4 87 17.2 0.0 0.0 0 0.0 0.0 1017.0 0.0 0.0 19.4 0.0
03/01/19 23:40 19.3 87 17.1 0.0 0.0 0 0.0 0.0 1017.0 0.0 0.0 19.3 0.0
03/01/19 23:41 19.3 87 17.1 0.0 0.0 0 0.0 0.0 1017.0 0.0 0.0 19.3 0.0
03/01/19 23:42 19.3 87 17.1 0.0 0.0 0 0.0 0.0 1017.0 0.0 0.0 19.3 0.0
03/01/19 23:43 19.3 87 17.1 0.0 0.0 0 0.0 0.0 1017.0 0.0 0.0 19.3 0.0
03/01/19 23:44 19.2 87 17.0 0.0 0.0 0 0.0 0.0 1017.0 0.0 0.0 19.2 0.0
03/01/19 23:48 19.1 87 16.9 0.0 0.0 0 0.0 0.0 1017.0 0.0 0.0 19.1 0.0
03/01/19 23:49 19.1 87 16.9 0.0 0.0 0 0.0 0.0 1017.0 0.0 0.0 19.1 0.0
03/01/19 23:50 19.1 87 16.9 0.0 0.0 0 0.0 0.0 1017.0 0.0 0.0 19.1 0.0
03/01/19 23:51 19.1 87 16.9 0.0 0.0 0 0.0 0.0 1017.0 0.0 0.0 19.1 0.0
03/01/19 23:52 19.1 88 17.1 0.0 0.0 0 0.0 0.0 1017.0 0.0 0.0 19.1 0.0
03/01/19 23:53 19.0 88 17.0 0.0 0.0 0 0.0 0.0 1017.0 0.0 0.0 19.0 0.0
03/01/19 23:54 19.0 88 17.0 0.0 0.0 0 0.0 0.0 1017.0 0.0 0.0 19.0 0.0
03/01/19 23:55 19.0 88 17.0 0.0 0.0 0 0.0 0.0 1017.0 0.0 0.0 19.0 0.0
03/01/19 23:56 19.0 88 17.0 0.0 0.0 0 0.0 0.0 1017.0 0.0 0.0 19.0 0.0
03/01/19 23:57 19.0 88 17.0 0.0 0.0 0 0.0 0.0 1017.0 0.0 0.0 19.0 0.0
03/01/19 23:58 18.9 88 16.9 0.0 0.0 0 0.0 0.0 1017.0 0.0 0.0 18.9 0.0
03/01/19 23:59 18.9 88 16.9 0.0 0.0 0 0.0 0.0 1017.0 0.0 0.0 18.9 0.0
 
  Back to Top
Date Time Temperature Humidity Dewpoint Wind Speed High Gust Wind Bearing Rainfall Rate Total Rainfall Pressure Gust Wind Chill Heat Index UV Index
04/01/19 00:03 18.9 89 17.0 0.0 0.0 0 0.0 0.0 1017.0 0.0 0.0 18.9 0.0
04/01/19 00:04 18.9 89 17.0 0.0 0.0 0 0.0 0.0 1017.0 0.0 0.0 18.9 0.0
04/01/19 00:18 18.8 91 17.3 0.0 0.0 0 0.0 0.0 1018.0 0.0 0.0 18.8 0.0
04/01/19 00:19 18.8 91 17.3 0.0 0.0 0 0.0 0.0 1018.0 0.0 0.0 18.8 0.0
04/01/19 00:20 18.8 91 17.3 0.0 0.0 0 0.0 0.0 1018.0 0.0 0.0 18.8 0.0
04/01/19 00:21 18.8 91 17.3 0.0 0.0 0 0.0 0.0 1018.0 0.0 0.0 18.8 0.0
04/01/19 00:22 18.9 92 17.6 0.0 0.0 0 0.0 0.0 1018.0 0.0 0.0 18.9 0.0
04/01/19 00:23 18.9 92 17.6 0.0 0.0 0 0.0 0.0 1017.0 0.0 0.0 18.9 0.0
04/01/19 00:24 18.9 92 17.6 0.0 0.0 0 0.0 0.0 1017.0 0.0 0.0 18.9 0.0
04/01/19 00:25 18.8 92 17.5 0.0 0.0 0 0.0 0.0 1017.0 0.0 0.0 18.8 0.0
04/01/19 00:26 18.8 92 17.5 0.0 0.0 0 0.0 0.0 1017.0 0.0 0.0 18.8 0.0
04/01/19 00:27 18.8 92 17.5 0.0 0.0 0 0.0 0.0 1017.0 0.0 0.0 18.8 0.0
04/01/19 00:28 18.8 92 17.5 0.0 0.0 0 0.0 0.0 1017.0 0.0 0.0 18.8 0.0
04/01/19 00:29 18.8 91 17.3 0.0 0.0 0 0.0 0.0 1017.0 0.0 0.0 18.8 0.0
04/01/19 00:30 18.9 92 17.6 0.0 0.0 0 0.0 0.0 1017.0 0.0 0.0 18.9 0.0
04/01/19 00:33 18.8 92 17.5 0.0 0.0 0 0.0 0.0 1017.0 0.0 0.0 18.8 0.0
04/01/19 00:34 18.8 92 17.5 0.0 0.0 0 0.0 0.0 1017.0 0.0 0.0 18.8 0.0
04/01/19 00:35 18.9 92 17.6 0.0 0.0 0 0.0 0.0 1017.0 0.0 0.0 18.9 0.0
04/01/19 00:36 18.8 93 17.6 0.0 0.0 0 0.0 0.0 1017.0 0.0 0.0 18.8 0.0
04/01/19 00:37 18.9 93 17.7 0.0 0.0 0 0.0 0.0 1017.0 0.0 0.0 18.9 0.0
04/01/19 00:38 18.9 94 17.9 0.0 0.0 0 0.0 0.0 1017.0 0.0 0.0 18.9 0.0
04/01/19 00:39 18.8 94 17.8 0.0 0.0 0 0.0 0.0 1017.0 0.0 0.0 18.8 0.0
04/01/19 00:40 18.8 94 17.8 0.0 0.0 0 0.0 0.0 1017.0 0.0 0.0 18.8 0.0
04/01/19 00:41 18.8 93 17.6 0.0 0.0 0 0.0 0.0 1017.0 0.0 0.0 18.8 0.0
04/01/19 00:42 18.8 93 17.6 0.0 0.0 0 0.0 0.0 1017.0 0.0 0.0 18.8 0.0
04/01/19 00:43 18.8 93 17.6 0.0 0.0 0 0.0 0.0 1017.0 0.0 0.0 18.8 0.0
04/01/19 00:44 18.8 93 17.6 0.0 0.0 0 0.0 0.0 1017.0 0.0 0.0 18.8 0.0
04/01/19 00:45 18.8 93 17.6 0.0 0.0 0 0.0 0.0 1017.0 0.0 0.0 18.8 0.0
04/01/19 00:48 18.8 93 17.6 0.0 0.0 0 0.0 0.0 1017.0 0.0 0.0 18.8 0.0
04/01/19 00:49 18.7 93 17.5 0.0 0.0 0 0.0 0.0 1017.0 0.0 0.0 18.7 0.0
04/01/19 00:50 18.7 93 17.5 0.0 0.0 0 0.0 0.0 1017.0 0.0 0.0 18.7 0.0
04/01/19 00:51 18.7 93 17.5 0.0 0.0 0 0.0 0.0 1017.0 0.0 0.0 18.7 0.0
04/01/19 00:52 18.8 93 17.6 0.0 0.0 0 0.0 0.0 1017.0 0.0 0.0 18.8 0.0
04/01/19 00:53 18.7 94 17.7 0.0 0.0 0 0.0 0.0 1017.0 0.0 0.0 18.7 0.0
04/01/19 00:54 18.6 93 17.4 0.0 0.0 0 0.0 0.0 1017.0 0.0 0.0 18.6 0.0
04/01/19 00:55 18.7 93 17.5 0.0 0.0 0 0.0 0.0 1017.0 0.0 0.0 18.7 0.0
04/01/19 00:56 18.7 94 17.7 0.0 0.0 0 0.0 0.0 1017.0 0.0 0.0 18.7 0.0
04/01/19 00:57 18.7 94 17.7 0.0 0.0 0 0.0 0.0 1017.0 0.0 0.0 18.7 0.0
04/01/19 00:58 18.7 94 17.7 0.0 0.0 0 0.0 0.0 1017.0 0.0 0.0 18.7 0.0
04/01/19 00:59 18.7 94 17.7 0.0 0.0 0 0.0 0.0 1017.0 0.0 0.0 18.7 0.0
04/01/19 01:00 18.6 94 17.6 0.0 0.0 0 0.0 0.0 1017.0 0.0 0.0 18.6 0.0
04/01/19 01:03 18.6 93 17.4 0.0 0.0 0 0.0 0.0 1017.0 0.0 0.0 18.6 0.0
04/01/19 01:04 18.6 93 17.4 0.0 0.0 0 0.0 0.0 1017.0 0.0 0.0 18.6 0.0
04/01/19 01:05 18.6 93 17.4 0.0 0.0 0 0.0 0.0 1017.0 0.0 0.0 18.6 0.0
04/01/19 01:06 18.6 93 17.4 0.0 0.0 0 0.0 0.0 1017.0 0.0 0.0 18.6 0.0
04/01/19 01:07 18.6 93 17.4 0.0 0.0 0 0.0 0.0 1017.0 0.0 0.0 18.6 0.0
04/01/19 01:08 18.7 93 17.5 0.0 0.0 0 0.0 0.0 1016.0 0.0 0.0 18.7 0.0
04/01/19 01:09 18.7 94 17.7 0.0 0.0 0 0.0 0.0 1016.0 0.0 0.0 18.7 0.0
04/01/19 01:10 18.7 94 17.7 0.0 0.0 0 0.0 0.0 1016.0 0.0 0.0 18.7 0.0
04/01/19 01:11 18.6 94 17.6 0.0 0.0 0 0.0 0.0 1016.0 0.0 0.0 18.6 0.0
04/01/19 01:12 18.6 94 17.6 0.0 0.0 0 0.0 0.0 1016.0 0.0 0.0 18.6 0.0
04/01/19 01:13 18.6 94 17.6 0.0 0.0 0 0.0 0.0 1016.0 0.0 0.0 18.6 0.0
04/01/19 01:14 18.6 94 17.6 0.0 0.0 0 0.0 0.0 1016.0 0.0 0.0 18.6 0.0
04/01/19 01:15 18.6 95 17.8 0.0 0.0 0 0.0 0.0 1016.0 0.0 0.0 18.6 0.0
04/01/19 01:18 18.6 95 17.8 0.0 0.0 0 0.0 0.0 1016.0 0.0 0.0 18.6 0.0
04/01/19 01:19 18.6 94 17.6 0.0 0.0 0 0.0 0.0 1016.0 0.0 0.0 18.6 0.0
04/01/19 01:20 18.7 94 17.7 0.0 0.0 0 0.0 0.0 1016.0 0.0 0.0 18.7 0.0
04/01/19 01:21 18.6 95 17.8 0.0 0.0 0 0.0 0.0 1016.0 0.0 0.0 18.6 0.0
04/01/19 01:22 18.6 95 17.8 0.0 0.0 0 0.0 0.0 1016.0 0.0 0.0 18.6 0.0
04/01/19 01:23 18.6 94 17.6 0.0 0.0 0 0.0 0.0 1016.0 0.0 0.0 18.6 0.0
04/01/19 01:24 18.6 94 17.6 0.0 0.0 0 0.0 0.0 1016.0 0.0 0.0 18.6 0.0
04/01/19 01:25 18.6 94 17.6 0.0 0.0 0 0.0 0.0 1016.0 0.0 0.0 18.6 0.0
04/01/19 01:26 18.6 94 17.6 0.0 0.0 0 0.0 0.0 1016.0 0.0 0.0 18.6 0.0
04/01/19 01:27 18.7 95 17.9 0.0 0.0 0 0.0 0.0 1016.0 0.0 0.0 18.7 0.0
04/01/19 01:28 18.6 95 17.8 0.0 0.0 0 0.0 0.0 1016.0 0.0 0.0 18.6 0.0
04/01/19 01:29 18.6 95 17.8 0.0 0.0 0 0.0 0.0 1016.0 0.0 0.0 18.6 0.0
04/01/19 01:30 18.5 95 17.7 0.0 0.0 0 0.0 0.0 1016.0 0.0 0.0 18.5 0.0
04/01/19 01:33 18.5 94 17.5 0.0 0.0 0 0.0 0.0 1016.0 0.0 0.0 18.5 0.0
04/01/19 01:34 18.5 94 17.5 0.0 0.0 0 0.0 0.0 1016.0 0.0 0.0 18.5 0.0
04/01/19 01:35 18.5 94 17.5 0.0 0.0 0 0.0 0.0 1016.0 0.0 0.0 18.5 0.0
04/01/19 01:36 18.5 94 17.5 0.0 0.0 0 0.0 0.0 1016.0 0.0 0.0 18.5 0.0
04/01/19 01:37 18.5 94 17.5 0.0 0.0 0 0.0 0.0 1016.0 0.0 0.0 18.5 0.0
04/01/19 01:38 18.5 94 17.5 0.0 0.0 0 0.0 0.0 1016.0 0.0 0.0 18.5 0.0
04/01/19 01:39 18.5 94 17.5 0.0 0.0 0 0.0 0.0 1016.0 0.0 0.0 18.5 0.0
04/01/19 01:40 18.4 94 17.4 0.0 0.0 0 0.0 0.0 1016.0 0.0 0.0 18.4 0.0
04/01/19 01:41 18.4 94 17.4 0.0 0.0 0 0.0 0.0 1016.0 0.0 0.0 18.4 0.0
04/01/19 01:42 18.5 94 17.5 0.0 0.0 0 0.0 0.0 1016.0 0.0 0.0 18.5 0.0
04/01/19 01:43 18.5 94 17.5 0.0 0.0 0 0.0 0.0 1016.0 0.0 0.0 18.5 0.0
04/01/19 01:44 18.5 94 17.5 0.0 0.0 0 0.0 0.0 1016.0 0.0 0.0 18.5 0.0
04/01/19 01:45 18.4 94 17.4 0.0 0.0 0 0.0 0.0 1016.0 0.0 0.0 18.4 0.0
04/01/19 01:48 18.4 94 17.4 0.0 0.0 0 0.0 0.0 1016.0 0.0 0.0 18.4 0.0
04/01/19 01:49 18.4 94 17.4 0.0 0.0 0 0.0 0.0 1016.0 0.0 0.0 18.4 0.0
04/01/19 01:50 18.4 94 17.4 0.0 0.0 0 0.0 0.0 1016.0 0.0 0.0 18.4 0.0
04/01/19 01:51 18.4 94 17.4 0.0 0.0 0 0.0 0.0 1016.0 0.0 0.0 18.4 0.0
04/01/19 01:52 18.4 94 17.4 0.0 0.0 0 0.0 0.0 1016.0 0.0 0.0 18.4 0.0
04/01/19 01:53 18.3 94 17.3 0.0 0.0 0 0.0 0.0 1016.0 0.0 0.0 18.3 0.0
04/01/19 01:54 18.4 94 17.4 0.0 0.0 0 0.0 0.0 1016.0 0.0 0.0 18.4 0.0
04/01/19 01:55 18.3 94 17.3 0.0 0.0 0 0.0 0.0 1016.0 0.0 0.0 18.3 0.0
04/01/19 01:56 18.3 94 17.3 0.0 0.0 0 0.0 0.0 1016.0 0.0 0.0 18.3 0.0
04/01/19 01:57 18.2 94 17.2 0.0 0.0 0 0.0 0.0 1016.0 0.0 0.0 18.2 0.0
04/01/19 01:58 18.2 94 17.2 0.0 0.0 0 0.0 0.0 1016.0 0.0 0.0 18.2 0.0
04/01/19 01:59 18.2 94 17.2 0.0 0.0 0 0.0 0.0 1016.0 0.0 0.0 18.2 0.0
04/01/19 02:03 18.2 94 17.2 0.0 0.0 0 0.0 0.0 1016.0 0.0 0.0 18.2 0.0
04/01/19 02:04 18.2 94 17.2 0.0 0.0 0 0.0 0.0 1016.0 0.0 0.0 18.2 0.0
04/01/19 02:05 18.1 94 17.1 0.0 0.0 0 0.0 0.0 1016.0 0.0 0.0 18.1 0.0
04/01/19 02:06 18.1 94 17.1 0.0 0.0 0 0.0 0.0 1016.0 0.0 0.0 18.1 0.0
04/01/19 02:07 18.1 94 17.1 0.0 0.0 0 0.0 0.0 1016.0 0.0 0.0 18.1 0.0
04/01/19 02:08 18.1 94 17.1 0.0 0.0 0 0.0 0.0 1015.0 0.0 0.0 18.1 0.0
04/01/19 02:09 18.0 93 16.9 0.0 0.0 0 0.0 0.0 1015.0 0.0 0.0 18.0 0.0
04/01/19 02:10 18.0 93 16.9 0.0 0.0 0 0.0 0.0 1015.0 0.0 0.0 18.0 0.0
04/01/19 02:11 18.0 93 16.9 0.0 0.0 0 0.0 0.0 1015.0 0.0 0.0 18.0 0.0
04/01/19 02:12 18.0 93 16.9 0.0 0.0 0 0.0 0.0 1015.0 0.0 0.0 18.0 0.0
04/01/19 02:13 18.0 93 16.9 0.0 0.0 0 0.0 0.0 1015.0 0.0 0.0 18.0 0.0
04/01/19 02:14 18.0 93 16.9 0.0 0.0 0 0.0 0.0 1015.0 0.0 0.0 18.0 0.0
04/01/19 02:15 18.0 93 16.9 0.0 0.0 0 0.0 0.0 1015.0 0.0 0.0 18.0 0.0
04/01/19 02:18 18.0 94 17.0 0.0 0.0 0 0.0 0.0 1015.0 0.0 0.0 18.0 0.0
04/01/19 02:19 17.9 94 16.9 0.0 0.0 0 0.0 0.0 1015.0 0.0 0.0 17.9 0.0
04/01/19 02:20 17.9 94 16.9 0.0 0.0 0 0.0 0.0 1015.0 0.0 0.0 17.9 0.0
04/01/19 02:21 17.9 94 16.9 0.0 0.0 0 0.0 0.0 1015.0 0.0 0.0 17.9 0.0
04/01/19 02:22 17.9 94 16.9 0.0 0.0 0 0.0 0.0 1015.0 0.0 0.0 17.9 0.0
04/01/19 02:23 17.9 94 16.9 0.0 0.0 0 0.0 0.0 1015.0 0.0 0.0 17.9 0.0
04/01/19 02:24 17.9 94 16.9 0.0 0.0 0 0.0 0.0 1015.0 0.0 0.0 17.9 0.0
04/01/19 02:25 17.9 94 16.9 0.0 0.0 0 0.0 0.0 1015.0 0.0 0.0 17.9 0.0
04/01/19 02:26 18.0 94 17.0 0.0 0.0 0 0.0 0.0 1015.0 0.0 0.0 18.0 0.0
04/01/19 02:27 17.9 95 17.1 0.0 0.0 0 0.0 0.0 1015.0 0.0 0.0 17.9 0.0
04/01/19 02:28 17.9 95 17.1 0.0 0.0 0 0.0 0.0 1015.0 0.0 0.0 17.9 0.0
04/01/19 02:29 18.0 95 17.2 0.0 0.0 0 0.0 0.0 1015.0 0.0 0.0 18.0 0.0
04/01/19 02:30 17.9 95 17.1 0.0 0.0 0 0.0 0.0 1015.0 0.0 0.0 17.9 0.0
04/01/19 02:33 17.9 96 17.3 0.0 0.0 0 0.0 0.0 1015.0 0.0 0.0 17.9 0.0
04/01/19 02:34 17.9 96 17.3 0.0 0.0 0 0.0 0.0 1015.0 0.0 0.0 17.9 0.0
04/01/19 02:35 17.9 96 17.3 0.0 0.0 0 0.0 0.0 1015.0 0.0 0.0 17.9 0.0
04/01/19 02:36 18.0 95 17.2 0.0 0.0 0 0.0 0.0 1015.0 0.0 0.0 18.0 0.0
04/01/19 02:37 18.0 95 17.2 0.0 0.0 0 0.0 0.0 1015.0 0.0 0.0 18.0 0.0
04/01/19 02:38 17.9 96 17.3 0.0 0.0 0 0.0 0.0 1014.0 0.0 0.0 17.9 0.0
04/01/19 02:39 17.9 96 17.3 0.0 0.0 0 0.0 0.0 1014.0 0.0 0.0 17.9 0.0
04/01/19 02:40 17.9 96 17.3 0.0 0.0 0 0.0 0.0 1014.0 0.0 0.0 17.9 0.0
04/01/19 02:41 17.9 96 17.3 0.0 0.0 0 0.0 0.0 1014.0 0.0 0.0 17.9 0.0
04/01/19 02:42 17.9 96 17.3 0.0 0.0 0 0.0 0.0 1014.0 0.0 0.0 17.9 0.0
04/01/19 02:43 18.0 95 17.2 0.0 0.0 0 0.0 0.0 1014.0 0.0 0.0 18.0 0.0
04/01/19 02:44 17.9 96 17.3 0.0 0.0 0 0.0 0.0 1014.0 0.0 0.0 17.9 0.0
04/01/19 02:45 17.9 96 17.3 0.0 0.0 0 0.0 0.0 1014.0 0.0 0.0 17.9 0.0
04/01/19 02:48 17.9 96 17.3 0.0 0.0 0 0.0 0.0 1014.0 0.0 0.0 17.9 0.0
04/01/19 02:49 17.9 96 17.3 0.0 0.0 0 0.0 0.0 1014.0 0.0 0.0 17.9 0.0
04/01/19 02:50 17.9 96 17.3 0.0 0.0 0 0.0 0.0 1014.0 0.0 0.0 17.9 0.0
04/01/19 02:51 17.9 96 17.3 0.0 0.0 0 0.0 0.0 1014.0 0.0 0.0 17.9 0.0
04/01/19 02:52 17.8 96 17.2 0.0 0.0 0 0.0 0.0 1014.0 0.0 0.0 17.8 0.0
04/01/19 02:53 17.8 96 17.2 0.0 0.0 0 0.0 0.0 1014.0 0.0 0.0 17.8 0.0
04/01/19 02:54 17.9 96 17.3 0.0 0.0 0 0.0 0.0 1014.0 0.0 0.0 17.9 0.0
04/01/19 02:55 17.8 96 17.2 0.0 0.0 0 0.0 0.0 1014.0 0.0 0.0 17.8 0.0
04/01/19 02:56 17.8 96 17.2 0.0 0.0 0 0.0 0.0 1014.0 0.0 0.0 17.8 0.0
04/01/19 02:57 17.8 96 17.2 0.0 0.0 0 0.0 0.0 1014.0 0.0 0.0 17.8 0.0
04/01/19 02:58 17.8 96 17.2 0.0 0.0 0 0.0 0.0 1014.0 0.0 0.0 17.8 0.0
04/01/19 02:59 17.8 96 17.2 0.0 0.0 0 0.0 0.0 1014.0 0.0 0.0 17.8 0.0
04/01/19 03:00 17.8 96 17.2 0.0 0.0 0 0.0 0.0 1014.0 0.0 0.0 17.8 0.0
04/01/19 03:02 17.8 96 17.2 0.0 0.0 0 0.0 0.0 1014.0 0.0 0.0 17.8 0.0
04/01/19 03:03 17.9 96 17.3 0.0 0.0 0 0.0 0.0 1014.0 0.0 0.0 17.9 0.0
04/01/19 03:04 17.9 96 17.3 0.0 0.0 0 0.0 0.0 1014.0 0.0 0.0 17.9 0.0
04/01/19 03:05 17.9 96 17.3 0.0 0.0 0 0.0 0.0 1014.0 0.0 0.0 17.9 0.0
04/01/19 03:06 17.9 96 17.3 0.0 0.0 0 0.0 0.0 1014.0 0.0 0.0 17.9 0.0
04/01/19 03:07 17.8 96 17.2 0.0 0.0 0 0.0 0.0 1014.0 0.0 0.0 17.8 0.0
04/01/19 03:08 17.8 96 17.2 0.0 0.0 0 0.0 0.0 1015.0 0.0 0.0 17.8 0.0
04/01/19 03:09 17.8 96 17.2 0.0 0.0 0 0.0 0.0 1015.0 0.0 0.0 17.8 0.0
04/01/19 03:10 17.8 96 17.2 0.0 0.0 0 0.0 0.0 1015.0 0.0 0.0 17.8 0.0
04/01/19 03:11 17.8 96 17.2 0.0 0.0 0 0.0 0.0 1015.0 0.0 0.0 17.8 0.0
04/01/19 03:12 17.8 96 17.2 0.0 0.0 0 0.0 0.0 1015.0 0.0 0.0 17.8 0.0
04/01/19 03:13 17.7 96 17.1 0.0 0.0 0 0.0 0.0 1015.0 0.0 0.0 17.7 0.0
04/01/19 03:14 17.7 96 17.1 0.0 0.0 0 0.0 0.0 1015.0 0.0 0.0 17.7 0.0
04/01/19 03:17 17.7 95 16.9 0.0 0.0 0 0.0 0.0 1015.0 0.0 0.0 17.7 0.0
04/01/19 03:18 17.6 95 16.8 0.0 0.0 0 0.0 0.0 1015.0 0.0 0.0 17.6 0.0
04/01/19 03:19 17.6 95 16.8 0.0 0.0 0 0.0 0.0 1015.0 0.0 0.0 17.6 0.0
04/01/19 03:20 17.6 95 16.8 0.0 0.0 0 0.0 0.0 1015.0 0.0 0.0 17.6 0.0
04/01/19 03:21 17.6 95 16.8 0.0 0.0 0 0.0 0.0 1015.0 0.0 0.0 17.6 0.0
04/01/19 03:22 17.6 95 16.8 0.0 0.0 0 0.0 0.0 1015.0 0.0 0.0 17.6 0.0
04/01/19 03:23 17.6 95 16.8 0.0 0.0 0 0.0 0.0 1014.0 0.0 0.0 17.6 0.0
04/01/19 03:24 17.6 95 16.8 0.0 0.0 0 0.0 0.0 1014.0 0.0 0.0 17.6 0.0
04/01/19 03:25 17.6 95 16.8 0.0 0.0 0 0.0 0.0 1014.0 0.0 0.0 17.6 0.0
04/01/19 03:26 17.6 95 16.8 0.0 0.0 0 0.0 0.0 1014.0 0.0 0.0 17.6 0.0
04/01/19 03:27 17.6 96 17.0 0.0 0.0 0 0.0 0.0 1014.0 0.0 0.0 17.6 0.0
04/01/19 03:28 17.6 96 17.0 0.0 0.0 0 0.0 0.0 1014.0 0.0 0.0 17.6 0.0
04/01/19 03:29 17.6 96 17.0 0.0 0.0 0 0.0 0.0 1014.0 0.0 0.0 17.6 0.0
04/01/19 03:30 17.6 96 17.0 0.0 0.0 0 0.0 0.0 1014.0 0.0 0.0 17.6 0.0
04/01/19 03:32 17.6 96 17.0 0.0 0.0 0 0.0 0.0 1014.0 0.0 0.0 17.6 0.0
04/01/19 03:33 17.6 96 17.0 0.0 0.0 0 0.0 0.0 1014.0 0.0 0.0 17.6 0.0
04/01/19 03:34 17.7 96 17.1 0.0 0.0 0 0.0 0.0 1014.0 0.0 0.0 17.7 0.0
04/01/19 03:35 17.6 96 17.0 0.0 0.0 0 0.0 0.0 1014.0 0.0 0.0 17.6 0.0
04/01/19 03:36 17.7 96 17.1 0.0 0.0 0 0.0 0.0 1014.0 0.0 0.0 17.7 0.0
04/01/19 03:37 17.7 96 17.1 0.0 0.0 0 0.0 0.0 1014.0 0.0 0.0 17.7 0.0
04/01/19 03:38 17.7 96 17.1 0.0 0.0 0 0.0 0.0 1014.0 0.0 0.0 17.7 0.0
04/01/19 03:39 17.6 96 17.0 0.0 0.0 0 0.0 0.0 1014.0 0.0 0.0 17.6 0.0
04/01/19 03:40 17.6 96 17.0 0.0 0.0 0 0.0 0.0 1014.0 0.0 0.0 17.6 0.0
04/01/19 03:41 17.6 96 17.0 0.0 0.0 0 0.0 0.0 1014.0 0.0 0.0 17.6 0.0
04/01/19 03:42 17.5 96 16.9 0.0 0.0 0 0.0 0.0 1014.0 0.0 0.0 17.5 0.0
04/01/19 03:43 17.5 96 16.9 0.0 0.0 0 0.0 0.0 1014.0 0.0 0.0 17.5 0.0
04/01/19 03:44 17.5 96 16.9 0.0 0.0 0 0.0 0.0 1014.0 0.0 0.0 17.5 0.0
04/01/19 03:45 17.5 96 16.9 0.0 0.0 0 0.0 0.0 1014.0 0.0 0.0 17.5 0.0
04/01/19 03:47 17.5 96 16.9 0.0 0.0 0 0.0 0.0 1014.0 0.0 0.0 17.5 0.0
04/01/19 03:48 17.5 96 16.9 0.0 0.0 0 0.0 0.0 1014.0 0.0 0.0 17.5 0.0
04/01/19 03:49 17.5 96 16.9 0.0 0.0 0 0.0 0.0 1014.0 0.0 0.0 17.5 0.0
04/01/19 03:50 17.5 96 16.9 0.0 0.0 0 0.0 0.0 1014.0 0.0 0.0 17.5 0.0
04/01/19 03:51 17.5 96 16.9 0.0 0.0 0 0.0 0.0 1014.0 0.0 0.0 17.5 0.0
04/01/19 03:52 17.5 96 16.9 0.0 0.0 0 0.0 0.0 1014.0 0.0 0.0 17.5 0.0
04/01/19 03:53 17.5 96 16.9 0.0 0.0 0 0.0 0.0 1014.0 0.0 0.0 17.5 0.0
04/01/19 03:54 17.5 96 16.9 0.0 0.0 0 0.0 0.0 1014.0 0.0 0.0 17.5 0.0
04/01/19 03:55 17.5 96 16.9 0.0 0.0 0 0.0 0.0 1014.0 0.0 0.0 17.5 0.0
04/01/19 03:56 17.5 96 16.9 0.0 0.0 0 0.0 0.0 1014.0 0.0 0.0 17.5 0.0
04/01/19 03:57 17.5 96 16.9 0.0 0.0 0 0.0 0.0 1014.0 0.0 0.0 17.5 0.0
04/01/19 03:58 17.5 96 16.9 0.0 0.0 0 0.0 0.0 1014.0 0.0 0.0 17.5 0.0
04/01/19 03:59 17.5 96 16.9 0.0 0.0 0 0.0 0.0 1014.0 0.0 0.0 17.5 0.0
04/01/19 04:00 17.5 96 16.9 0.0 0.0 0 0.0 0.0 1014.0 0.0 0.0 17.5 0.0
04/01/19 04:02 17.5 96 16.9 0.0 0.0 0 0.0 0.0 1014.0 0.0 0.0 17.5 0.0
04/01/19 04:03 17.5 96 16.9 0.0 0.0 0 0.0 0.0 1014.0 0.0 0.0 17.5 0.0
04/01/19 04:04 17.5 96 16.9 0.0 0.0 0 0.0 0.0 1014.0 0.0 0.0 17.5 0.0
04/01/19 04:05 17.5 96 16.9 0.0 0.0 0 0.0 0.0 1014.0 0.0 0.0 17.5 0.0
04/01/19 04:06 17.5 96 16.9 0.0 0.0 0 0.0 0.0 1014.0 0.0 0.0 17.5 0.0
04/01/19 04:07 17.5 96 16.9 0.0 0.0 0 0.0 0.0 1014.0 0.0 0.0 17.5 0.0
04/01/19 04:08 17.5 96 16.9 0.0 0.0 0 0.0 0.0 1014.0 0.0 0.0 17.5 0.0
04/01/19 04:09 17.5 96 16.9 0.0 0.0 0 0.0 0.0 1014.0 0.0 0.0 17.5 0.0
04/01/19 04:10 17.4 96 16.8 0.0 0.0 0 0.0 0.0 1014.0 0.0 0.0 17.4 0.0
04/01/19 04:11 17.4 96 16.8 0.0 0.0 0 0.0 0.0 1014.0 0.0 0.0 17.4 0.0
04/01/19 04:12 17.4 96 16.8 0.0 0.0 0 0.0 0.0 1014.0 0.0 0.0 17.4 0.0
04/01/19 04:13 17.4 96 16.8 0.0 0.0 0 0.0 0.0 1014.0 0.0 0.0 17.4 0.0
04/01/19 04:14 17.3 96 16.7 0.0 0.0 0 0.0 0.0 1014.0 0.0 0.0 17.3 0.0
04/01/19 04:15 17.3 96 16.7 0.0 0.0 0 0.0 0.0 1014.0 0.0 0.0 17.3 0.0
04/01/19 04:17 17.3 96 16.7 0.0 0.0 0 0.0 0.0 1014.0 0.0 0.0 17.3 0.0
04/01/19 04:18 17.3 96 16.7 0.0 0.0 0 0.0 0.0 1014.0 0.0 0.0 17.3 0.0
04/01/19 04:19 17.3 96 16.7 0.0 0.0 0 0.0 0.0 1014.0 0.0 0.0 17.3 0.0
04/01/19 04:20 17.3 96 16.7 0.0 0.0 0 0.0 0.0 1014.0 0.0 0.0 17.3 0.0
04/01/19 04:21 17.3 96 16.7 0.0 0.0 0 0.0 0.0 1014.0 0.0 0.0 17.3 0.0
04/01/19 04:22 17.3 96 16.7 0.0 0.0 0 0.0 0.0 1014.0 0.0 0.0 17.3 0.0
04/01/19 04:23 17.3 96 16.7 0.0 0.0 0 0.0 0.0 1014.0 0.0 0.0 17.3 0.0
04/01/19 04:24 17.3 96 16.7 0.0 0.0 0 0.0 0.0 1014.0 0.0 0.0 17.3 0.0
04/01/19 04:25 17.2 96 16.6 0.0 0.0 0 0.0 0.0 1014.0 0.0 0.0 17.2 0.0
04/01/19 04:26 17.2 96 16.6 0.0 0.0 0 0.0 0.0 1014.0 0.0 0.0 17.2 0.0
04/01/19 04:27 17.2 96 16.6 0.0 0.0 0 0.0 0.0 1014.0 0.0 0.0 17.2 0.0
04/01/19 04:28 17.3 96 16.7 0.0 0.0 0 0.0 0.0 1014.0 0.0 0.0 17.3 0.0
04/01/19 04:29 17.2 96 16.6 0.0 0.0 0 0.0 0.0 1014.0 0.0 0.0 17.2 0.0
04/01/19 04:30 17.2 96 16.6 0.0 0.0 0 0.0 0.0 1014.0 0.0 0.0 17.2 0.0
04/01/19 04:32 17.2 96 16.6 0.0 0.0 0 0.0 0.0 1014.0 0.0 0.0 17.2 0.0
04/01/19 04:33 17.2 96 16.6 0.0 0.0 0 0.0 0.0 1014.0 0.0 0.0 17.2 0.0
04/01/19 04:34 17.2 96 16.6 0.0 0.0 0 0.0 0.0 1014.0 0.0 0.0 17.2 0.0
04/01/19 04:35 17.2 96 16.6 0.0 0.0 0 0.0 0.0 1014.0 0.0 0.0 17.2 0.0
04/01/19 04:36 17.2 96 16.6 0.0 0.0 0 0.0 0.0 1014.0 0.0 0.0 17.2 0.0
04/01/19 04:37 17.2 96 16.6 0.0 0.0 0 0.0 0.0 1014.0 0.0 0.0 17.2 0.0
04/01/19 04:38 17.2 96 16.6 0.0 0.0 0 0.0 0.0 1015.0 0.0 0.0 17.2 0.0
04/01/19 04:39 17.2 96 16.6 0.0 0.0 0 0.0 0.0 1015.0 0.0 0.0 17.2 0.0
04/01/19 04:40 17.1 96 16.5 0.0 0.0 0 0.0 0.0 1015.0 0.0 0.0 17.1 0.0
04/01/19 04:41 17.1 96 16.5 0.0 0.0 0 0.0 0.0 1015.0 0.0 0.0 17.1 0.0
04/01/19 04:42 17.2 96 16.6 0.0 0.0 0 0.0 0.0 1015.0 0.0 0.0 17.2 0.0
04/01/19 04:43 17.2 96 16.6 0.0 0.0 0 0.0 0.0 1015.0 0.0 0.0 17.2 0.0
04/01/19 04:44 17.1 96 16.5 0.0 0.0 0 0.0 0.0 1015.0 0.0 0.0 17.1 0.0
04/01/19 04:45 17.1 96 16.5 0.0 0.0 0 0.0 0.0 1015.0 0.0 0.0 17.1 0.0
04/01/19 04:48 17.1 96 16.5 0.0 0.0 0 0.0 0.0 1015.0 0.0 0.0 17.1 0.0
04/01/19 04:49 17.0 96 16.4 0.0 0.0 0 0.0 0.0 1015.0 0.0 0.0 17.0 0.0
04/01/19 04:50 17.1 96 16.5 0.0 0.0 0 0.0 0.0 1015.0 0.0 0.0 17.1 0.0
04/01/19 04:51 17.0 96 16.4 0.0 0.0 0 0.0 0.0 1015.0 0.0 0.0 17.0 0.0
04/01/19 04:52 17.0 96 16.4 0.0 0.0 0 0.0 0.0 1015.0 0.0 0.0 17.0 0.0
04/01/19 04:53 17.0 96 16.4 0.0 0.0 0 0.0 0.0 1015.0 0.0 0.0 17.0 0.0
04/01/19 04:54 17.0 96 16.4 0.0 0.0 0 0.0 0.0 1015.0 0.0 0.0 17.0 0.0
04/01/19 04:55 17.0 96 16.4 0.0 0.0 0 0.0 0.0 1015.0 0.0 0.0 17.0 0.0
04/01/19 04:56 17.0 96 16.4 0.0 0.0 0 0.0 0.0 1015.0 0.0 0.0 17.0 0.0
04/01/19 04:57 17.0 96 16.4 0.0 0.0 0 0.0 0.0 1015.0 0.0 0.0 17.0 0.0
04/01/19 04:58 17.0 96 16.4 0.0 0.0 0 0.0 0.0 1015.0 0.0 0.0 17.0 0.0
04/01/19 04:59 17.0 96 16.4 0.0 0.0 0 0.0 0.0 1015.0 0.0 0.0 17.0 0.0
04/01/19 05:00 17.0 96 16.4 0.0 0.0 0 0.0 0.0 1015.0 0.0 0.0 17.0 0.0
04/01/19 05:03 16.9 96 16.3 0.0 0.0 0 0.0 0.0 1015.0 0.0 0.0 16.9 0.0
04/01/19 05:04 16.9 96 16.3 0.0 0.0 0 0.0 0.0 1015.0 0.0 0.0 16.9 0.0
04/01/19 05:05 16.9 96 16.3 0.0 0.0 0 0.0 0.0 1015.0 0.0 0.0 16.9 0.0
04/01/19 05:06 16.9 96 16.3 0.0 0.0 0 0.0 0.0 1015.0 0.0 0.0 16.9 0.0
04/01/19 05:07 16.9 96 16.3 0.0 0.0 0 0.0 0.0 1015.0 0.0 0.0 16.9 0.0
04/01/19 05:08 16.8 96 16.2 0.0 0.0 0 0.0 0.0 1016.0 0.0 0.0 16.8 0.0
04/01/19 05:09 16.8 96 16.2 0.0 0.0 0 0.0 0.0 1016.0 0.0 0.0 16.8 0.0
04/01/19 05:10 16.8 96 16.2 0.0 0.0 0 0.0 0.0 1016.0 0.0 0.0 16.8 0.0
04/01/19 05:11 16.8 96 16.2 0.0 0.0 0 0.0 0.0 1016.0 0.0 0.0 16.8 0.0
04/01/19 05:12 16.8 96 16.2 0.0 0.0 0 0.0 0.0 1016.0 0.0 0.0 16.8 0.0
04/01/19 05:13 16.8 96 16.2 0.0 0.0 0 0.0 0.0 1016.0 0.0 0.0 16.8 0.0
04/01/19 05:14 16.8 96 16.2 0.0 0.0 0 0.0 0.0 1016.0 0.0 0.0 16.8 0.0
04/01/19 05:18 16.7 96 16.1 0.0 0.0 0 0.0 0.0 1016.0 0.0 0.0 16.7 0.0
04/01/19 05:19 16.8 96 16.2 0.0 0.0 0 0.0 0.0 1016.0 0.0 0.0 16.8 0.0
04/01/19 05:20 16.8 96 16.2 0.0 0.0 0 0.0 0.0 1016.0 0.0 0.0 16.8 0.0
04/01/19 05:21 16.8 96 16.2 0.0 0.0 0 0.0 0.0 1016.0 0.0 0.0 16.8 0.0
04/01/19 05:22 16.8 96 16.2 0.0 0.0 0 0.0 0.0 1016.0 0.0 0.0 16.8 0.0
04/01/19 05:23 16.8 96 16.2 0.0 0.0 0 0.0 0.0 1016.0 0.0 0.0 16.8 0.0
04/01/19 05:24 16.8 96 16.2 0.0 0.0 0 0.0 0.0 1016.0 0.0 0.0 16.8 0.0
04/01/19 05:25 16.8 96 16.2 0.0 0.0 0 0.0 0.0 1016.0 0.0 0.0 16.8 0.0
04/01/19 05:26 16.8 96 16.2 0.0 0.0 0 0.0 0.0 1016.0 0.0 0.0 16.8 0.0
04/01/19 05:27 16.8 97 16.3 0.0 0.0 0 0.0 0.0 1016.0 0.0 0.0 16.8 0.0
04/01/19 05:28 16.8 97 16.3 0.0 0.0 0 0.0 0.0 1016.0 0.0 0.0 16.8 0.0
04/01/19 05:29 16.8 97 16.3 0.0 0.0 0 0.0 0.0 1016.0 0.0 0.0 16.8 0.0
04/01/19 05:30 16.8 97 16.3 0.0 0.0 0 0.0 0.0 1016.0 0.0 0.0 16.8 0.0
04/01/19 05:33 16.8 97 16.3 0.0 0.0 0 0.0 0.0 1016.0 0.0 0.0 16.8 0.0
04/01/19 05:34 16.8 97 16.3 0.0 0.0 0 0.0 0.0 1016.0 0.0 0.0 16.8 0.0
04/01/19 05:35 16.8 97 16.3 0.0 0.0 0 0.0 0.0 1016.0 0.0 0.0 16.8 0.0
04/01/19 05:36 16.8 97 16.3 0.0 0.0 0 0.0 0.0 1016.0 0.0 0.0 16.8 0.0
04/01/19 05:37 16.8 97 16.3 0.0 0.0 0 0.0 0.0 1016.0 0.0 0.0 16.8 0.0
04/01/19 05:38 16.8 97 16.3 0.0 0.0 0 0.0 0.0 1016.0 0.0 0.0 16.8 0.0
04/01/19 05:39 16.8 97 16.3 0.0 0.0 0 0.0 0.0 1016.0 0.0 0.0 16.8 0.0
04/01/19 05:40 16.8 97 16.3 0.0 0.0 0 0.0 0.0 1016.0 0.0 0.0 16.8 0.0
04/01/19 05:41 16.8 97 16.3 0.0 0.0 0 0.0 0.0 1016.0 0.0 0.0 16.8 0.0
04/01/19 05:42 16.8 97 16.3 0.0 0.0 0 0.0 0.0 1016.0 0.0 0.0 16.8 0.0
04/01/19 05:43 16.8 97 16.3 0.0 0.0 0 0.0 0.0 1016.0 0.0 0.0 16.8 0.0
04/01/19 05:44 16.8 97 16.3 0.0 0.0 0 0.0 0.0 1016.0 0.0 0.0 16.8 0.0
04/01/19 05:45 16.8 97 16.3 0.0 0.0 0 0.0 0.0 1016.0 0.0 0.0 16.8 0.0
04/01/19 05:48 16.8 97 16.3 0.0 0.0 0 0.0 0.0 1016.0 0.0 0.0 16.8 0.0
04/01/19 05:49 16.8 97 16.3 0.0 0.0 0 0.0 0.0 1016.0 0.0 0.0 16.8 0.0
04/01/19 05:50 16.8 97 16.3 0.0 0.0 0 0.0 0.0 1016.0 0.0 0.0 16.8 0.0
04/01/19 05:51 16.8 97 16.3 0.0 0.0 0 0.0 0.0 1016.0 0.0 0.0 16.8 0.0
04/01/19 05:52 16.8 97 16.3 0.0 0.0 0 0.0 0.0 1016.0 0.0 0.0 16.8 0.0
04/01/19 05:53 16.8 97 16.3 0.0 0.0 0 0.0 0.0 1017.0 0.0 0.0 16.8 0.0
04/01/19 05:54 16.8 97 16.3 0.0 0.0 0 0.0 0.0 1017.0 0.0 0.0 16.8 0.0
04/01/19 05:55 16.8 97 16.3 0.0 0.0 0 0.0 0.0 1017.0 0.0 0.0 16.8 0.0
04/01/19 05:56 16.8 97 16.3 0.0 0.0 0 0.0 0.0 1017.0 0.0 0.0 16.8 0.0
04/01/19 05:57 16.8 97 16.3 0.0 0.0 0 0.0 0.0 1017.0 0.0 0.0 16.8 0.0
04/01/19 05:58 16.8 97 16.3 0.0 0.0 0 0.0 0.0 1017.0 0.0 0.0 16.8 0.0
04/01/19 05:59 16.8 97 16.3 0.0 0.0 0 0.0 0.0 1017.0 0.0 0.0 16.8 0.0
04/01/19 06:00 16.8 97 16.3 0.0 0.0 0 0.0 0.0 1017.0 0.0 0.0 16.8 0.0
04/01/19 06:03 16.8 97 16.3 0.0 0.0 0 0.0 0.0 1017.0 0.0 0.0 16.8 0.0
04/01/19 06:04 16.8 97 16.3 0.0 0.0 0 0.0 0.0 1017.0 0.0 0.0 16.8 0.0
04/01/19 06:05 16.7 97 16.2 0.0 0.0 0 0.0 0.0 1017.0 0.0 0.0 16.7 0.0
04/01/19 06:06 16.8 97 16.3 0.0 0.0 0 0.0 0.0 1017.0 0.0 0.0 16.8 0.0
04/01/19 06:07 16.7 97 16.2 0.0 0.0 0 0.0 0.0 1017.0 0.0 0.0 16.7 0.0
04/01/19 06:08 16.7 97 16.2 0.0 0.0 0 0.0 0.0 1017.0 0.0 0.0 16.7 0.0
04/01/19 06:09 16.7 97 16.2 0.0 0.0 0 0.0 0.0 1017.0 0.0 0.0 16.7 0.0
04/01/19 06:10 16.7 97 16.2 0.0 0.0 0 0.0 0.0 1017.0 0.0 0.0 16.7 0.0
04/01/19 06:11 16.7 97 16.2 0.0 0.0 0 0.0 0.0 1017.0 0.0 0.0 16.7 0.0
04/01/19 06:12 16.7 97 16.2 0.0 0.0 0 0.0 0.0 1017.0 0.0 0.0 16.7 0.0
04/01/19 06:13 16.6 97 16.1 0.0 0.0 0 0.0 0.0 1017.0 0.0 0.0 16.6 0.0
04/01/19 06:14 16.6 97 16.1 0.0 0.0 0 0.0 0.0 1017.0 0.0 0.0 16.6 0.0
04/01/19 06:15 16.6 97 16.1 0.0 0.0 0 0.0 0.0 1017.0 0.0 0.0 16.6 0.0
04/01/19 06:18 16.6 97 16.1 0.0 0.0 0 0.0 0.0 1017.0 0.0 0.0 16.6 0.0
04/01/19 06:19 16.7 97 16.2 0.0 0.0 0 0.0 0.0 1017.0 0.0 0.0 16.7 0.0
04/01/19 06:20 16.7 97 16.2 0.0 0.0 0 0.0 0.0 1017.0 0.0 0.0 16.7 0.0
04/01/19 06:21 16.7 97 16.2 0.0 0.0 0 0.0 0.0 1017.0 0.0 0.0 16.7 0.0
04/01/19 06:22 16.7 97 16.2 0.0 0.0 0 0.0 0.0 1017.0 0.0 0.0 16.7 0.0
04/01/19 06:23 16.7 97 16.2 0.0 0.0 0 0.0 0.0 1017.0 0.0 0.0 16.7 0.0
04/01/19 06:24 16.7 97 16.2 0.0 0.0 0 0.0 0.0 1017.0 0.0 0.0 16.7 0.0
04/01/19 06:25 16.7 97 16.2 0.0 0.0 0 0.0 0.0 1017.0 0.0 0.0 16.7 0.0
04/01/19 06:26 16.8 97 16.3 0.0 0.0 0 0.0 0.0 1017.0 0.0 0.0 16.8 0.0
04/01/19 06:27 16.8 97 16.3 0.0 0.0 0 0.0 0.0 1017.0 0.0 0.0 16.8 0.0
04/01/19 06:28 16.8 97 16.3 0.0 0.0 0 0.0 0.0 1017.0 0.0 0.0 16.8 0.0
04/01/19 06:29 16.8 97 16.3 0.0 0.0 0 0.0 0.0 1017.0 0.0 0.0 16.8 0.0
04/01/19 06:30 16.8 97 16.3 0.0 0.0 0 0.0 0.0 1017.0 0.0 0.0 16.8 0.0
04/01/19 06:33 16.9 97 16.4 0.0 0.0 0 0.0 0.0 1017.0 0.0 0.0 16.9 0.0
04/01/19 06:34 16.9 97 16.4 0.0 0.0 0 0.0 0.0 1017.0 0.0 0.0 16.9 0.0
04/01/19 06:35 16.9 97 16.4 0.0 0.0 0 0.0 0.0 1017.0 0.0 0.0 16.9 0.0
04/01/19 06:36 17.0 96 16.4 0.0 0.0 0 0.0 0.0 1017.0 0.0 0.0 17.0 0.0
04/01/19 06:37 17.0 96 16.4 0.0 0.0 0 0.0 0.0 1017.0 0.0 0.0 17.0 0.0
04/01/19 06:38 17.0 96 16.4 0.0 0.0 0 0.0 0.0 1018.0 0.0 0.0 17.0 0.0
04/01/19 06:39 17.0 96 16.4 0.0 0.0 0 0.0 0.0 1018.0 0.0 0.0 17.0 0.0
04/01/19 06:40 17.0 96 16.4 0.0 0.0 0 0.0 0.0 1018.0 0.0 0.0 17.0 0.0
04/01/19 06:41 17.1 96 16.5 0.0 0.0 0 0.0 0.0 1018.0 0.0 0.0 17.1 0.0
04/01/19 06:42 17.1 96 16.5 0.0 0.0 0 0.0 0.0 1018.0 0.0 0.0 17.1 0.0
04/01/19 06:43 17.1 96 16.5 0.0 0.0 0 0.0 0.0 1018.0 0.0 0.0 17.1 0.0
04/01/19 06:44 17.2 96 16.6 0.0 0.0 0 0.0 0.0 1018.0 0.0 0.0 17.2 0.0
04/01/19 06:48 17.2 96 16.6 0.0 0.0 0 0.0 0.0 1018.0 0.0 0.0 17.2 0.0
04/01/19 06:49 17.3 96 16.7 0.0 0.0 0 0.0 0.0 1018.0 0.0 0.0 17.3 0.0
04/01/19 06:50 17.3 96 16.7 0.0 0.0 0 0.0 0.0 1018.0 0.0 0.0 17.3 0.0
04/01/19 06:51 17.3 96 16.7 0.0 0.0 0 0.0 0.0 1018.0 0.0 0.0 17.3 0.0
04/01/19 06:52 17.3 96 16.7 0.0 0.0 0 0.0 0.0 1018.0 0.0 0.0 17.3 0.0
04/01/19 06:53 17.3 96 16.7 0.0 0.0 0 0.0 0.0 1018.0 0.0 0.0 17.3 0.0
04/01/19 06:54 17.3 96 16.7 0.0 0.0 0 0.0 0.0 1018.0 0.0 0.0 17.3 0.0
04/01/19 06:55 17.4 96 16.8 0.0 0.0 0 0.0 0.0 1018.0 0.0 0.0 17.4 0.0
04/01/19 06:56 17.4 96 16.8 0.0 0.0 0 0.0 0.0 1018.0 0.0 0.0 17.4 0.0
04/01/19 06:57 17.4 96 16.8 0.0 0.0 0 0.0 0.0 1018.0 0.0 0.0 17.4 0.0
04/01/19 06:58 17.4 96 16.8 0.0 0.0 0 0.0 0.0 1018.0 0.0 0.0 17.4 0.0
04/01/19 07:03 18.0 96 17.4 0.0 0.0 0 0.0 0.0 1018.0 0.0 0.0 18.0 0.0
04/01/19 07:04 18.2 96 17.6 0.0 0.0 0 0.0 0.0 1018.0 0.0 0.0 18.2 0.0
04/01/19 07:05 18.2 95 17.4 0.0 0.0 0 0.0 0.0 1018.0 0.0 0.0 18.2 0.0
04/01/19 07:06 18.3 95 17.5 0.0 0.0 0 0.0 0.0 1018.0 0.0 0.0 18.3 0.0
04/01/19 07:07 18.3 95 17.5 0.0 0.0 0 0.0 0.0 1018.0 0.0 0.0 18.3 0.0
04/01/19 07:08 18.4 95 17.6 0.0 0.0 0 0.0 0.0 1017.0 0.0 0.0 18.4 0.0
04/01/19 07:09 18.4 95 17.6 0.0 0.0 0 0.0 0.0 1017.0 0.0 0.0 18.4 0.0
04/01/19 07:10 18.5 95 17.7 0.0 0.0 0 0.0 0.0 1017.0 0.0 0.0 18.5 0.0
04/01/19 07:11 18.6 95 17.8 0.0 0.0 0 0.0 0.0 1017.0 0.0 0.0 18.6 0.0
04/01/19 07:12 18.7 95 17.9 0.0 0.0 0 0.0 0.0 1017.0 0.0 0.0 18.7 0.0
04/01/19 07:13 18.7 95 17.9 0.0 0.0 0 0.0 0.0 1017.0 0.0 0.0 18.7 0.0
04/01/19 07:14 18.8 95 18.0 0.0 0.0 0 0.0 0.0 1017.0 0.0 0.0 18.8 0.0
04/01/19 07:15 18.8 94 17.8 0.0 0.0 0 0.0 0.0 1017.0 0.0 0.0 18.8 0.0
04/01/19 07:18 19.1 94 18.1 0.0 0.0 0 0.0 0.0 1017.0 0.0 0.0 19.1 0.0
04/01/19 07:19 19.3 94 18.3 0.0 0.0 0 0.0 0.0 1017.0 0.0 0.0 19.3 0.0
04/01/19 07:20 19.5 94 18.5 0.0 0.0 0 0.0 0.0 1017.0 0.0 0.0 19.5 0.0
04/01/19 07:21 19.6 93 18.4 0.0 0.0 0 0.0 0.0 1017.0 0.0 0.0 19.6 0.0
04/01/19 07:22 19.6 93 18.4 0.0 0.0 0 0.0 0.0 1017.0 0.0 0.0 19.6 0.0
04/01/19 07:23 20.1 93 18.9 0.0 0.0 0 0.0 0.0 1016.0 0.0 0.0 20.1 0.0
04/01/19 07:24 20.3 92 19.0 0.0 0.0 0 0.0 0.0 1016.0 0.0 0.0 20.3 0.0
04/01/19 07:25 20.6 92 19.3 0.0 0.0 0 0.0 0.0 1016.0 0.0 0.0 20.6 0.0
04/01/19 07:26 20.9 92 19.6 0.0 0.0 0 0.0 0.0 1016.0 0.0 0.0 20.9 0.0
04/01/19 07:33 22.1 86 19.6 0.0 0.0 0 0.0 0.0 1016.0 0.0 0.0 22.1 0.0
04/01/19 07:34 22.4 86 19.9 0.0 0.0 0 0.0 0.0 1016.0 0.0 0.0 22.4 0.0
04/01/19 07:35 22.6 85 19.9 0.0 0.0 0 0.0 0.0 1016.0 0.0 0.0 22.6 0.0
04/01/19 07:36 22.8 85 20.1 0.0 0.0 0 0.0 0.0 1016.0 0.0 0.0 22.8 0.0
04/01/19 07:37 23.0 84 20.1 0.0 0.0 0 0.0 0.0 1016.0 0.0 0.0 23.0 0.0
04/01/19 07:38 23.1 83 20.1 0.0 0.0 0 0.0 0.0 1016.0 0.0 0.0 23.1 0.0
04/01/19 07:39 23.1 83 20.1 0.0 0.0 0 0.0 0.0 1016.0 0.0 0.0 23.1 0.0
04/01/19 07:40 23.1 83 20.1 0.0 0.0 0 0.0 0.0 1016.0 0.0 0.0 23.1 0.0
04/01/19 07:41 23.2 82 20.0 0.0 0.0 0 0.0 0.0 1016.0 0.0 0.0 23.2 0.0
04/01/19 07:42 23.0 80 19.4 0.0 0.0 0 0.0 0.0 1016.0 0.0 0.0 23.0 0.0
04/01/19 07:43 23.1 80 19.5 0.0 0.0 0 0.0 0.0 1016.0 0.0 0.0 23.1 0.0
04/01/19 07:44 23.2 79 19.4 0.0 0.0 0 0.0 0.0 1016.0 0.0 0.0 23.2 0.0
04/01/19 07:48 23.4 79 19.5 0.0 0.0 0 0.0 0.0 1016.0 0.0 0.0 23.4 0.0
04/01/19 07:49 23.4 79 19.5 0.0 0.0 0 0.0 0.0 1016.0 0.0 0.0 23.4 0.0
04/01/19 07:50 23.6 78 19.5 0.0 0.0 0 0.0 0.0 1016.0 0.0 0.0 23.6 0.0
04/01/19 07:51 23.9 78 19.8 0.0 0.0 0 0.0 0.0 1016.0 0.0 0.0 23.9 0.0
04/01/19 07:52 23.9 78 19.8 0.0 0.0 0 0.0 0.0 1016.0 0.0 0.0 23.9 0.0
04/01/19 07:53 24.0 77 19.7 0.0 0.0 0 0.0 0.0 1016.0 0.0 0.0 24.0 0.0
04/01/19 07:54 24.2 77 19.9 0.0 0.0 0 0.0 0.0 1016.0 0.0 0.0 24.2 0.0
04/01/19 07:55 24.3 76 19.8 0.0 0.0 0 0.0 0.0 1016.0 0.0 0.0 24.3 0.0
04/01/19 07:56 24.3 76 19.8 0.0 0.0 0 0.0 0.0 1016.0 0.0 0.0 24.3 0.0
04/01/19 07:57 24.8 74 19.8 0.0 0.0 0 0.0 0.0 1016.0 0.0 0.0 24.8 0.0
04/01/19 07:58 25.0 74 20.0 0.0 0.0 0 0.0 0.0 1016.0 0.0 0.0 25.0 0.0
04/01/19 07:59 25.1 73 19.9 0.0 0.0 0 0.0 0.0 1016.0 0.0 0.0 25.1 0.0
04/01/19 08:00 25.3 73 20.1 0.0 0.0 0 0.0 0.0 1016.0 0.0 0.0 25.3 0.0
04/01/19 08:03 25.7 71 20.0 0.0 0.0 0 0.0 0.0 1016.0 0.0 0.0 25.7 0.0
04/01/19 08:04 26.0 69 19.9 0.0 0.0 0 0.0 0.0 1016.0 0.0 0.0 26.0 0.0
04/01/19 08:05 25.9 69 19.8 0.0 0.0 0 0.0 0.0 1016.0 0.0 0.0 25.9 0.0
04/01/19 08:06 26.0 68 19.6 0.0 0.0 0 0.0 0.0 1016.0 0.0 0.0 26.0 0.0
04/01/19 08:07 26.1 68 19.7 0.0 0.0 0 0.0 0.0 1016.0 0.0 0.0 26.1 0.0
04/01/19 08:08 26.2 68 19.8 0.0 0.0 0 0.0 0.0 1016.0 0.0 0.0 26.2 0.0
04/01/19 08:09 26.4 68 20.0 0.0 0.0 0 0.0 0.0 1016.0 0.0 0.0 26.4 0.0
04/01/19 08:10 26.5 67 19.9 0.0 0.0 0 0.0 0.0 1016.0 0.0 0.0 26.5 0.0
04/01/19 08:11 26.5 65 19.4 0.0 0.0 0 0.0 0.0 1016.0 0.0 0.0 26.5 0.0
04/01/19 08:12 26.2 66 19.3 0.0 0.0 0 0.0 0.0 1016.0 0.0 0.0 26.2 0.0
04/01/19 08:13 26.1 66 19.2 0.0 0.0 0 0.0 0.0 1016.0 0.0 0.0 26.1 0.0
04/01/19 08:14 26.1 66 19.2 0.0 0.0 0 0.0 0.0 1016.0 0.0 0.0 26.1 0.0
04/01/19 08:18 26.2 65 19.1 0.0 0.0 0 0.0 0.0 1016.0 0.0 0.0 26.2 0.0
04/01/19 08:19 26.3 64 18.9 0.0 0.0 0 0.0 0.0 1016.0 0.0 0.0 26.3 0.0
04/01/19 08:20 26.5 65 19.4 0.0 0.0 0 0.0 0.0 1016.0 0.0 0.0 26.5 0.0
04/01/19 08:21 26.6 64 19.2 0.0 0.0 0 0.0 0.0 1016.0 0.0 0.0 26.6 0.0
04/01/19 08:22 26.7 64 19.3 0.0 0.0 0 0.0 0.0 1016.0 0.0 0.0 28.0 0.0
04/01/19 08:23 26.8 64 19.4 0.0 0.0 0 0.0 0.0 1017.0 0.0 0.0 28.1 0.0
04/01/19 08:24 27.0 63 19.4 0.0 0.0 0 0.0 0.0 1017.0 0.0 0.0 28.3 0.0
04/01/19 08:25 27.1 63 19.4 0.0 0.0 0 0.0 0.0 1017.0 0.0 0.0 28.4 0.0
04/01/19 08:26 27.2 63 19.5 0.0 0.0 0 0.0 0.0 1017.0 0.0 0.0 28.6 0.0
04/01/19 08:27 27.4 62 19.5 0.0 0.0 0 0.0 0.0 1017.0 0.0 0.0 28.8 0.0
04/01/19 08:28 27.4 62 19.5 0.0 0.0 0 0.0 0.0 1017.0 0.0 0.0 28.8 0.0
04/01/19 08:29 27.6 62 19.7 0.0 0.0 0 0.0 0.0 1017.0 0.0 0.0 29.1 0.0
04/01/19 08:30 27.7 62 19.8 0.0 0.0 0 0.0 0.0 1017.0 0.0 0.0 29.2 0.0
04/01/19 08:33 27.7 60 19.2 0.0 0.0 0 0.0 0.0 1017.0 0.0 0.0 29.0 0.0
04/01/19 08:34 27.8 60 19.3 0.0 0.0 0 0.0 0.0 1017.0 0.0 0.0 29.2 0.0
04/01/19 08:35 28.0 59 19.2 0.0 0.0 0 0.0 0.0 1017.0 0.0 0.0 29.3 0.0
04/01/19 08:36 28.1 59 19.3 0.0 0.0 0 0.0 0.0 1017.0 0.0 0.0 29.5 0.0
04/01/19 08:37 28.1 59 19.3 0.0 0.0 0 0.0 0.0 1017.0 0.0 0.0 29.5 0.0
04/01/19 08:38 28.2 59 19.4 0.0 0.0 0 0.0 0.0 1017.0 0.0 0.0 29.6 0.0
04/01/19 08:39 28.3 59 19.5 0.0 0.0 0 0.0 0.0 1017.0 0.0 0.0 29.8 0.0
04/01/19 08:40 28.5 59 19.7 0.0 0.0 0 0.0 0.0 1017.0 0.0 0.0 30.1 0.0
04/01/19 08:41 28.6 58 19.5 0.0 0.0 0 0.0 0.0 1017.0 0.0 0.0 30.1 0.0
04/01/19 08:42 28.7 57 19.3 0.0 0.0 0 0.0 0.0 1017.0 0.0 0.0 30.1 0.0
04/01/19 08:43 28.5 55 18.6 0.0 0.0 0 0.0 0.0 1017.0 0.0 0.0 29.6 0.0
04/01/19 08:44 28.4 56 18.8 0.0 0.0 0 0.0 0.0 1017.0 0.0 0.0 29.6 0.0
04/01/19 08:45 28.3 56 18.7 0.0 0.0 0 0.0 0.0 1017.0 0.0 0.0 29.4 0.0
04/01/19 08:48 28.2 56 18.6 0.0 0.0 0 0.0 0.0 1017.0 0.0 0.0 29.3 0.0
04/01/19 08:49 28.2 56 18.6 0.0 0.0 0 0.0 0.0 1017.0 0.0 0.0 29.3 0.0
04/01/19 08:50 28.4 56 18.8 0.0 0.0 0 0.0 0.0 1017.0 0.0 0.0 29.6 0.0
04/01/19 08:51 28.5 56 18.9 0.0 0.0 0 0.0 0.0 1017.0 0.0 0.0 29.7 0.0
04/01/19 08:52 28.6 55 18.7 0.0 0.0 0 0.0 0.0 1017.0 0.0 0.0 29.7 0.0
04/01/19 08:53 28.7 54 18.5 0.0 0.0 0 0.0 0.0 1017.0 0.0 0.0 29.7 0.0
04/01/19 08:54 28.8 55 18.9 0.0 0.0 0 0.0 0.0 1017.0 0.0 0.0 30.0 0.0
04/01/19 08:55 28.9 53 18.4 0.0 0.0 0 0.0 0.0 1017.0 0.0 0.0 29.9 0.0
04/01/19 08:56 28.9 54 18.7 0.0 0.0 0 0.0 0.0 1017.0 0.0 0.0 30.0 0.0
04/01/19 08:57 29.0 54 18.8 0.0 0.0 0 0.0 0.0 1017.0 0.0 0.0 30.2 0.0
04/01/19 08:58 28.8 54 18.6 0.0 0.0 0 0.0 0.0 1017.0 0.0 0.0 29.9 0.0
04/01/19 08:59 28.9 54 18.7 0.0 0.0 0 0.0 0.0 1017.0 0.0 0.0 30.0 0.0
04/01/19 09:03 28.8 54 18.6 0.0 0.0 0 0.0 0.0 1017.0 0.0 0.0 29.9 0.0
04/01/19 09:04 28.8 53 18.3 0.0 0.0 0 0.0 0.0 1017.0 0.0 0.0 29.8 0.0
04/01/19 09:05 29.1 54 18.8 0.0 0.0 0 0.0 0.0 1017.0 0.0 0.0 30.3 0.0
04/01/19 09:06 29.1 53 18.5 0.0 0.0 0 0.0 0.0 1017.0 0.0 0.0 30.2 0.0
04/01/19 09:07 29.1 53 18.5 0.0 0.0 0 0.0 0.0 1017.0 0.0 0.0 30.2 0.0
04/01/19 09:08 29.1 53 18.5 0.0 0.0 0 0.0 0.0 1016.0 0.0 0.0 30.2 0.0
04/01/19 09:09 28.6 52 17.8 0.0 0.0 0 0.0 0.0 1016.0 0.0 0.0 29.4 0.0
04/01/19 09:10 28.5 53 18.0 0.0 0.0 0 0.0 0.0 1016.0 0.0 0.0 29.4 0.0
04/01/19 09:11 28.5 53 18.0 0.0 0.0 0 0.0 0.0 1016.0 0.0 0.0 29.4 0.0
04/01/19 09:12 28.6 53 18.1 0.0 0.0 0 0.0 0.0 1016.0 0.0 0.0 29.5 0.0
04/01/19 09:13 28.9 53 18.4 0.0 0.0 0 0.0 0.0 1016.0 0.0 0.0 29.9 0.0
04/01/19 09:14 29.0 53 18.5 0.0 0.0 0 0.0 0.0 1016.0 0.0 0.0 30.0 0.0
04/01/19 09:15 29.1 52 18.2 0.0 0.0 0 0.0 0.0 1016.0 0.0 0.0 30.0 0.0
04/01/19 09:18 29.4 52 18.5 0.0 0.0 0 0.0 0.0 1016.0 0.0 0.0 30.5 0.0
04/01/19 09:19 29.5 52 18.6 0.0 0.0 0 0.0 0.0 1016.0 0.0 0.0 30.6 0.0
04/01/19 09:20 29.7 51 18.5 0.0 0.0 0 0.0 0.0 1016.0 0.0 0.0 30.8 0.0
04/01/19 09:21 29.8 52 18.9 0.0 0.0 0 0.0 0.0 1016.0 0.0 0.0 31.1 0.0
04/01/19 09:22 30.0 51 18.8 0.0 0.0 0 0.0 0.0 1016.0 0.0 0.0 31.2 0.0
04/01/19 09:23 30.1 51 18.9 0.0 0.0 0 0.0 0.0 1017.0 0.0 0.0 31.4 0.0
04/01/19 09:24 30.3 51 19.0 0.0 0.0 0 0.0 0.0 1017.0 0.0 0.0 31.7 0.0
04/01/19 09:33 29.7 48 17.5 0.0 0.0 0 0.0 0.0 1017.0 0.0 0.0 30.3 0.0
04/01/19 09:34 29.6 49 17.8 0.0 0.0 0 0.0 0.0 1017.0 0.0 0.0 30.3 0.0
04/01/19 09:35 29.8 49 17.9 0.0 0.0 0 0.0 0.0 1017.0 0.0 0.0 30.6 0.0
04/01/19 09:36 30.0 49 18.1 0.0 0.0 0 0.0 0.0 1017.0 0.0 0.0 30.9 0.0
04/01/19 09:37 30.2 48 18.0 0.0 0.0 0 0.0 0.0 1017.0 0.0 0.0 31.0 0.0
04/01/19 09:38 30.4 48 18.2 0.0 0.0 0 0.0 0.0 1017.0 0.0 0.0 31.3 0.0
04/01/19 09:39 30.5 49 18.6 0.0 0.0 0 0.0 0.0 1017.0 0.0 0.0 31.6 0.0
04/01/19 09:40 30.6 49 18.7 0.0 0.0 0 0.0 0.0 1017.0 0.0 0.0 31.8 0.0
04/01/19 09:41 30.9 49 18.9 0.0 0.0 0 0.0 0.0 1017.0 0.0 0.0 32.3 0.0
04/01/19 09:42 31.1 48 18.8 0.0 0.0 0 0.0 0.0 1017.0 0.0 0.0 32.4 0.0
04/01/19 09:43 31.3 47 18.6 0.0 0.0 0 0.0 0.0 1017.0 0.0 0.0 32.5 0.0
04/01/19 09:44 31.1 47 18.5 0.0 0.0 0 0.0 0.0 1017.0 0.0 0.0 32.2 0.0
04/01/19 09:48 30.3 47 17.7 0.0 0.0 0 0.0 0.0 1017.0 0.0 0.0 31.0 0.0
04/01/19 09:49 30.3 47 17.7 0.0 0.0 0 0.0 0.0 1017.0 0.0 0.0 31.0 0.0
04/01/19 09:50 30.5 47 17.9 0.0 0.0 0 0.0 0.0 1017.0 0.0 0.0 31.3 0.0
04/01/19 09:51 30.7 47 18.1 0.0 0.0 0 0.0 0.0 1017.0 0.0 0.0 31.6 0.0
04/01/19 09:52 30.6 46 17.7 0.0 0.0 0 0.0 0.0 1017.0 0.0 0.0 31.3 0.0
04/01/19 09:53 30.3 46 17.4 0.0 0.0 0 0.0 0.0 1017.0 0.0 0.0 30.9 0.0
04/01/19 09:54 30.0 46 17.1 0.0 0.0 0 0.0 0.0 1017.0 0.0 0.0 30.5 0.0
04/01/19 09:55 29.9 47 17.4 0.0 0.0 0 0.0 0.0 1017.0 0.0 0.0 30.5 0.0
04/01/19 09:56 29.8 47 17.3 0.0 0.0 0 0.0 0.0 1017.0 0.0 0.0 30.3 0.0
04/01/19 09:57 29.9 48 17.7 0.0 0.0 0 0.0 0.0 1017.0 0.0 0.0 30.6 0.0
04/01/19 09:58 30.4 48 18.2 0.0 0.0 0 0.0 0.0 1017.0 0.0 0.0 31.3 0.0
04/01/19 09:59 30.5 48 18.2 0.0 0.0 0 0.0 0.0 1017.0 0.0 0.0 31.5 0.0
04/01/19 10:00 30.3 47 17.7 0.0 0.0 0 0.0 0.0 1017.0 0.0 0.0 31.0 0.0
04/01/19 10:03 30.5 48 18.2 0.0 0.0 0 0.0 0.0 1017.0 0.0 0.0 31.5 0.0
04/01/19 10:04 30.4 47 17.8 0.0 0.0 0 0.0 0.0 1017.0 0.0 0.0 31.2 0.0
04/01/19 10:05 30.3 47 17.7 0.0 0.0 0 0.0 0.0 1017.0 0.0 0.0 31.0 0.0
04/01/19 10:06 30.6 47 18.0 0.0 0.0 0 0.0 0.0 1017.0 0.0 0.0 31.4 0.0
04/01/19 10:07 30.9 47 18.3 0.0 0.0 0 0.0 0.0 1017.0 0.0 0.0 31.9 0.0
04/01/19 10:08 31.1 47 18.5 0.0 0.0 0 0.0 0.0 1017.0 0.0 0.0 32.2 0.0
04/01/19 10:09 31.3 46 18.3 0.0 0.0 0 0.0 0.0 1017.0 0.0 0.0 32.3 0.0
04/01/19 10:10 31.6 46 18.6 0.0 0.0 0 0.0 0.0 1017.0 0.0 0.0 32.8 0.0
04/01/19 10:11 31.8 46 18.8 0.0 0.0 0 0.0 0.0 1017.0 0.0 0.0 33.1 0.0
04/01/19 10:12 32.1 46 19.0 0.0 0.0 0 0.0 0.0 1017.0 0.0 0.0 33.6 0.0
04/01/19 10:13 32.4 45 18.9 0.0 0.0 0 0.0 0.0 1017.0 0.0 0.0 33.9 0.0
04/01/19 10:14 32.5 45 19.0 0.0 0.0 0 0.0 0.0 1017.0 0.0 0.0 34.1 0.0
04/01/19 10:18 32.9 44 19.0 0.0 0.0 0 0.0 0.0 1017.0 0.0 0.0 34.5 0.0
04/01/19 10:19 32.8 44 18.9 0.0 0.0 0 0.0 0.0 1017.0 0.0 0.0 34.4 0.0
04/01/19 10:20 32.5 44 18.7 0.0 0.0 0 0.0 0.0 1017.0 0.0 0.0 33.8 0.0
04/01/19 10:21 32.3 44 18.5 0.0 0.0 0 0.0 0.0 1017.0 0.0 0.0 33.5 0.0
04/01/19 10:22 32.5 44 18.7 0.0 0.0 0 0.0 0.0 1017.0 0.0 0.0 33.8 0.0
04/01/19 10:23 32.7 45 19.2 1.4 3.2 314 0.0 0.0 1017.0 3.2 32.7 34.4 0.0
04/01/19 10:24 32.9 44 19.0 1.4 3.2 314 0.0 0.0 1017.0 3.2 32.7 34.5 0.0
04/01/19 10:25 33.2 43 18.9 1.4 3.2 314 0.0 0.0 1017.0 3.2 32.9 34.8 0.0
04/01/19 10:26 33.4 43 19.1 1.4 3.2 314 0.0 0.0 1017.0 3.2 33.2 35.1 0.0
04/01/19 10:27 33.0 42 18.4 1.4 3.2 314 0.0 0.0 1017.0 3.2 33.4 34.2 0.0
04/01/19 10:28 32.5 43 18.3 1.4 3.2 314 0.0 0.0 1017.0 3.2 32.6 33.6 0.0
04/01/19 10:29 32.5 43 18.3 1.4 3.2 314 0.0 0.0 1017.0 3.2 32.6 33.6 0.0
04/01/19 10:30 32.5 43 18.3 1.4 3.2 314 0.0 0.0 1017.0 3.2 32.6 33.6 0.0
04/01/19 10:33 33.4 42 18.7 1.4 3.2 314 0.0 0.0 1017.0 3.2 0.0 34.9 0.0
04/01/19 10:34 33.4 42 18.7 1.4 3.2 314 0.0 0.0 1017.0 3.2 0.0 34.9 0.0
04/01/19 10:35 33.4 42 18.7 1.4 3.2 314 0.0 0.0 1017.0 3.2 0.0 34.9 0.0
04/01/19 10:36 33.5 41 18.4 1.4 3.2 314 0.0 0.0 1017.0 3.2 33.6 34.8 0.0
04/01/19 10:37 33.3 41 18.3 1.4 3.2 314 0.0 0.0 1017.0 3.2 33.5 34.5 0.0
04/01/19 10:38 33.2 41 18.2 1.4 3.2 314 0.0 0.0 1016.0 3.2 33.3 34.3 0.0
04/01/19 10:39 33.2 41 18.2 1.4 3.2 314 0.0 0.0 1016.0 3.2 33.3 34.3 0.0
04/01/19 10:40 33.4 41 18.4 1.4 3.2 314 0.0 0.0 1016.0 3.2 33.3 34.7 0.0
04/01/19 10:41 33.5 41 18.4 1.4 3.2 314 0.0 0.0 1016.0 3.2 33.3 34.8 0.0
04/01/19 10:42 33.7 41 18.6 1.4 3.2 314 0.0 0.0 1016.0 3.2 33.3 35.2 0.0
04/01/19 10:43 33.8 40 18.3 1.4 3.2 314 0.0 0.0 1016.0 3.2 33.3 35.1 0.0
04/01/19 10:44 34.1 41 19.0 1.4 3.2 314 0.0 0.0 1016.0 3.2 33.3 35.9 0.0
04/01/19 10:45 34.2 40 18.7 1.4 3.2 314 0.0 0.0 1016.0 3.2 33.3 35.8 0.0
04/01/19 10:48 34.3 40 18.8 0.0 0.0 0 0.0 0.0 1016.0 0.0 0.0 36.0 0.0
04/01/19 10:49 34.5 40 18.9 0.0 0.0 0 0.0 0.0 1016.0 0.0 0.0 36.3 0.0
04/01/19 10:50 34.6 40 19.0 0.0 0.0 0 0.0 0.0 1016.0 0.0 0.0 36.5 0.0
04/01/19 10:51 34.2 40 18.7 0.0 0.0 0 0.0 0.0 1016.0 0.0 0.0 35.8 0.0
04/01/19 10:52 34.3 39 18.4 0.0 0.0 0 0.0 0.0 1016.0 0.0 0.0 35.7 0.0
04/01/19 10:53 34.4 40 18.9 0.0 0.0 0 0.0 0.0 1016.0 0.0 0.0 36.1 0.0
04/01/19 10:54 34.6 39 18.6 0.0 0.0 0 0.0 0.0 1016.0 0.0 0.0 36.2 0.0
04/01/19 10:55 34.9 40 19.3 0.0 0.0 0 0.0 0.0 1016.0 0.0 0.0 37.0 0.0
04/01/19 10:56 35.2 39 19.2 0.0 0.0 0 0.0 0.0 1016.0 0.0 0.0 37.3 0.0
04/01/19 10:57 35.5 39 19.4 0.0 0.0 0 0.0 0.0 1016.0 0.0 0.0 37.8 0.0
04/01/19 10:58 35.7 39 19.6 0.0 0.0 0 0.0 0.0 1016.0 0.0 0.0 38.2 0.0
04/01/19 10:59 35.5 39 19.4 0.0 0.0 0 0.0 0.0 1016.0 0.0 0.0 37.8 0.0
04/01/19 11:03 35.3 38 18.8 0.0 0.0 0 0.0 0.0 1016.0 0.0 0.0 37.2 0.0
04/01/19 11:04 35.1 38 18.7 0.0 0.0 0 0.0 0.0 1016.0 0.0 0.0 36.8 0.0
04/01/19 11:05 35.2 38 18.7 0.0 0.0 0 0.0 0.0 1016.0 0.0 0.0 37.0 0.0
04/01/19 11:18 32.9 39 17.1 0.0 0.0 0 0.0 0.0 1016.0 0.0 0.0 33.4 0.0
04/01/19 11:19 32.8 39 17.0 0.0 0.0 0 0.0 0.0 1016.0 0.0 0.0 33.3 0.0
04/01/19 11:20 32.7 39 16.9 0.0 0.0 0 0.0 0.0 1016.0 0.0 0.0 33.1 0.0
04/01/19 11:21 32.9 39 17.1 0.0 0.0 0 0.0 0.0 1016.0 0.0 0.0 33.4 0.0
04/01/19 11:22 33.2 39 17.4 0.0 0.0 0 0.0 0.0 1016.0 0.0 0.0 33.9 0.0
04/01/19 11:23 33.5 39 17.6 0.0 0.0 0 0.0 0.0 1016.0 0.0 0.0 34.4 0.0
04/01/19 11:24 33.8 39 17.9 0.0 0.0 0 0.0 0.0 1016.0 0.0 0.0 34.8 0.0
04/01/19 11:25 34.2 39 18.3 0.0 0.0 0 0.0 0.0 1016.0 0.0 0.0 35.5 0.0
04/01/19 11:26 34.5 38 18.1 0.0 0.0 0 0.0 0.0 1016.0 0.0 0.0 35.8 0.0
04/01/19 11:27 34.8 38 18.4 0.0 0.0 0 0.0 0.0 1016.0 0.0 0.0 36.3 0.0
04/01/19 11:28 35.0 38 18.6 0.0 0.0 0 0.0 0.0 1016.0 0.0 0.0 36.6 0.0
04/01/19 11:29 35.5 38 19.0 0.0 0.0 0 0.0 0.0 1016.0 0.0 0.0 37.5 0.0
04/01/19 11:30 35.6 38 19.1 0.0 0.0 0 0.0 0.0 1016.0 0.0 0.0 37.7 0.0
04/01/19 11:33 34.9 38 18.5 0.0 0.0 0 0.0 0.0 1016.0 0.0 0.0 36.5 0.0
04/01/19 11:34 34.4 38 18.0 0.0 0.0 0 0.0 0.0 1016.0 0.0 0.0 35.6 0.0
04/01/19 11:35 33.8 38 17.5 0.0 0.0 0 0.0 0.0 1016.0 0.0 0.0 34.6 0.0
04/01/19 11:36 33.3 38 17.1 0.0 0.0 0 0.0 0.0 1016.0 0.0 0.0 33.8 0.0
04/01/19 11:37 33.1 38 16.9 0.0 0.0 0 0.0 0.0 1016.0 0.0 0.0 33.5 0.0
04/01/19 11:38 33.3 38 17.1 0.0 0.0 0 0.0 0.0 1016.0 0.0 0.0 33.8 0.0
04/01/19 11:39 33.5 38 17.2 0.0 0.0 0 0.0 0.0 1016.0 0.0 0.0 34.1 0.0
04/01/19 11:40 33.8 38 17.5 0.0 0.0 0 0.0 0.0 1016.0 0.0 0.0 34.6 0.0
04/01/19 11:41 34.0 38 17.7 0.0 0.0 0 0.0 0.0 1016.0 0.0 0.0 34.9 0.0
04/01/19 11:42 34.2 38 17.9 0.0 0.0 0 0.0 0.0 1016.0 0.0 0.0 35.3 0.0
04/01/19 11:43 34.3 38 17.9 0.0 0.0 0 0.0 0.0 1016.0 0.0 0.0 35.4 0.0
04/01/19 11:44 33.8 38 17.5 0.0 0.0 0 0.0 0.0 1016.0 0.0 0.0 34.6 0.0
04/01/19 11:45 33.7 38 17.4 0.0 0.0 0 0.0 0.0 1016.0 0.0 0.0 34.5 0.0
04/01/19 11:48 34.2 38 17.9 0.0 0.0 0 0.0 0.0 1016.0 0.0 0.0 35.3 0.0
04/01/19 11:49 34.5 38 18.1 0.0 0.0 0 0.0 0.0 1016.0 0.0 0.0 35.8 0.0
04/01/19 11:50 34.8 37 18.0 0.0 0.0 0 0.0 0.0 1016.0 0.0 0.0 36.0 0.0
04/01/19 11:51 35.0 37 18.1 0.0 0.0 0 0.0 0.0 1016.0 0.0 0.0 36.4 0.0
04/01/19 11:52 35.2 37 18.3 0.0 0.0 0 0.0 0.0 1016.0 0.0 0.0 36.7 0.0
04/01/19 11:53 35.3 37 18.4 0.0 0.0 0 0.0 0.0 1017.0 0.0 0.0 36.9 0.0
04/01/19 11:54 35.6 37 18.7 0.0 0.0 0 0.0 0.0 1017.0 0.0 0.0 37.4 0.0
04/01/19 11:55 35.8 37 18.8 0.0 0.0 0 0.0 0.0 1017.0 0.0 0.0 37.8 0.0
04/01/19 11:56 36.1 36 18.7 0.0 0.0 0 0.0 0.0 1017.0 0.0 0.0 38.0 0.0
04/01/19 11:57 36.2 37 19.2 0.0 0.0 0 0.0 0.0 1017.0 0.0 0.0 38.5 0.0
04/01/19 11:58 36.4 37 19.4 0.0 0.0 0 0.0 0.0 1017.0 0.0 0.0 38.9 0.0
04/01/19 11:59 36.8 36 19.3 0.0 0.0 0 0.0 0.0 1017.0 0.0 0.0 39.3 0.0
04/01/19 12:03 37.3 35 19.3 0.0 0.0 0 0.0 0.0 1017.0 0.0 0.0 39.9 0.0
04/01/19 12:04 37.4 36 19.8 0.0 0.0 0 0.0 0.0 1017.0 0.0 0.0 40.5 0.0
04/01/19 12:05 37.4 35 19.4 0.0 0.0 0 0.0 0.0 1017.0 0.0 0.0 40.1 0.0
04/01/19 12:06 37.4 35 19.4 0.0 0.0 0 0.0 0.0 1017.0 0.0 0.0 40.1 0.0
04/01/19 12:07 37.3 34 18.8 0.0 0.0 0 0.0 0.0 1017.0 0.0 0.0 39.6 0.0
04/01/19 12:08 36.9 35 18.9 0.0 0.0 0 0.0 0.0 1017.0 0.0 0.0 39.2 0.0
04/01/19 12:09 36.7 34 18.3 0.0 0.0 0 0.0 0.0 1017.0 0.0 0.0 38.5 0.0
04/01/19 12:10 36.4 34 18.0 2.5 3.2 135 0.0 0.0 1017.0 3.2 36.7 37.9 0.0
04/01/19 12:11 36.4 34 18.0 2.5 3.2 135 0.0 0.0 1017.0 3.2 36.4 37.9 0.0
04/01/19 12:12 36.0 34 17.7 2.5 3.2 135 0.0 0.0 1017.0 3.2 36.4 37.2 0.0
04/01/19 12:13 35.5 34 17.2 2.5 3.2 135 0.0 0.0 1017.0 3.2 36.0 36.4 0.0
04/01/19 12:14 35.0 34 16.8 2.5 3.2 135 0.0 0.0 1017.0 3.2 35.2 35.6 0.0
04/01/19 12:15 35.0 34 16.8 2.5 3.2 135 0.0 0.0 1017.0 3.2 35.0 35.6 0.0
04/01/19 12:17 35.4 34 17.1 2.5 3.2 135 0.0 0.0 1017.0 3.2 0.0 36.2 0.0
04/01/19 12:18 35.6 35 17.8 2.5 3.2 135 0.0 0.0 1017.0 3.2 35.4 36.8 0.0
04/01/19 12:19 35.5 33 16.8 2.5 3.2 135 0.0 0.0 1017.0 3.2 35.6 36.1 0.0
04/01/19 12:20 35.0 33 16.3 2.5 3.2 135 0.0 0.0 1017.0 3.2 35.5 35.3 0.0
04/01/19 12:21 34.8 34 16.6 2.5 3.2 135 0.0 0.0 1017.0 3.2 35.0 35.3 0.0
04/01/19 12:22 34.3 35 16.6 2.5 3.2 135 0.0 0.0 1017.0 3.2 34.6 34.7 0.0
04/01/19 12:23 34.0 35 16.4 2.5 3.2 135 0.0 0.0 1017.0 3.2 34.3 34.3 0.0
04/01/19 12:24 33.6 35 16.0 2.5 3.2 135 0.0 0.0 1017.0 3.2 34.0 33.7 0.0
04/01/19 12:25 33.4 35 15.9 2.5 3.2 135 0.0 0.0 1017.0 3.2 34.0 33.4 0.0
04/01/19 12:26 33.1 35 15.6 2.5 3.2 135 0.0 0.0 1017.0 3.2 34.0 32.9 0.0
04/01/19 12:27 33.1 35 15.6 2.5 3.2 135 0.0 0.0 1017.0 3.2 34.0 32.9 0.0
04/01/19 12:28 33.2 36 16.1 2.5 3.2 135 0.0 0.0 1017.0 3.2 34.0 33.3 0.0
04/01/19 12:29 33.5 36 16.4 2.5 3.2 135 0.0 0.0 1017.0 3.2 34.0 33.7 0.0
04/01/19 12:30 34.1 36 16.9 2.5 3.2 135 0.0 0.0 1017.0 3.2 34.0 34.6 0.0
04/01/19 12:33 34.7 36 17.4 0.0 0.0 0 0.0 0.0 1017.0 0.0 0.0 35.6 0.0
04/01/19 12:34 34.7 36 17.4 0.0 0.0 0 0.0 0.0 1017.0 0.0 0.0 35.6 0.0
04/01/19 12:35 34.7 36 17.4 0.0 0.0 0 0.0 0.0 1017.0 0.0 0.0 35.6 0.0
04/01/19 12:36 34.4 36 17.2 0.0 0.0 0 0.0 0.0 1017.0 0.0 0.0 35.1 0.0
04/01/19 12:37 34.0 36 16.8 0.0 0.0 0 0.0 0.0 1017.0 0.0 0.0 34.5 0.0
04/01/19 12:38 33.9 37 17.2 0.0 0.0 0 0.0 0.0 1017.0 0.0 0.0 34.5 0.0
04/01/19 12:39 33.9 37 17.2 0.0 0.0 0 0.0 0.0 1017.0 0.0 0.0 34.5 0.0
04/01/19 12:40 34.3 36 17.1 0.0 0.0 0 0.0 0.0 1017.0 0.0 0.0 34.9 0.0
04/01/19 12:41 34.7 37 17.9 0.0 0.0 0 0.0 0.0 1017.0 0.0 0.0 35.8 0.0
04/01/19 12:42 34.9 37 18.0 0.0 0.0 0 0.0 0.0 1017.0 0.0 0.0 36.2 0.0
04/01/19 12:43 35.2 36 17.9 0.0 0.0 0 0.0 0.0 1017.0 0.0 0.0 36.4 0.0
04/01/19 12:44 35.3 36 18.0 0.0 0.0 0 0.0 0.0 1017.0 0.0 0.0 36.6 0.0
04/01/19 12:48 35.5 35 17.7 0.0 0.0 0 0.0 0.0 1017.0 0.0 0.0 36.7 0.0
04/01/19 12:49 35.7 35 17.9 0.0 0.0 0 0.0 0.0 1017.0 0.0 0.0 37.0 0.0
04/01/19 12:50 36.0 35 18.1 0.0 0.0 0 0.0 0.0 1017.0 0.0 0.0 37.5 0.0
04/01/19 12:51 36.3 34 17.9 0.0 0.0 0 0.0 0.0 1017.0 0.0 0.0 37.8 0.0
04/01/19 12:52 36.4 34 18.0 0.0 0.0 0 0.0 0.0 1017.0 0.0 0.0 37.9 0.0
04/01/19 12:53 36.5 34 18.1 0.0 0.0 0 0.0 0.0 1017.0 0.0 0.0 38.1 0.0
04/01/19 12:54 36.2 34 17.8 0.0 0.0 0 0.0 0.0 1017.0 0.0 0.0 37.6 0.0
04/01/19 12:55 35.8 34 17.5 0.0 0.0 0 0.0 0.0 1017.0 0.0 0.0 36.9 0.0
04/01/19 12:56 35.5 34 17.2 0.0 0.0 0 0.0 0.0 1017.0 0.0 0.0 36.4 0.0
04/01/19 12:57 35.5 34 17.2 0.0 0.0 0 0.0 0.0 1017.0 0.0 0.0 36.4 0.0
04/01/19 12:58 35.6 34 17.3 0.0 0.0 0 0.0 0.0 1017.0 0.0 0.0 36.6 0.0
04/01/19 12:59 35.5 34 17.2 0.0 0.0 0 0.0 0.0 1017.0 0.0 0.0 36.4 0.0
04/01/19 13:00 35.3 34 17.1 0.0 0.0 0 0.0 0.0 1017.0 0.0 0.0 36.1 0.0
04/01/19 13:03 35.0 34 16.8 0.0 0.0 0 0.0 0.0 1017.0 0.0 0.0 35.6 0.0
04/01/19 13:04 35.2 34 17.0 0.0 0.0 0 0.0 0.0 1017.0 0.0 0.0 35.9 0.0
04/01/19 13:05 35.4 34 17.1 0.0 0.0 0 0.0 0.0 1017.0 0.0 0.0 36.2 0.0
04/01/19 13:06 35.4 34 17.1 0.0 0.0 0 0.0 0.0 1017.0 0.0 0.0 36.2 0.0
04/01/19 13:07 35.2 33 16.5 0.0 0.0 0 0.0 0.0 1017.0 0.0 0.0 35.7 0.0
04/01/19 13:08 35.5 34 17.2 0.0 0.0 0 0.0 0.0 1017.0 0.0 0.0 36.4 0.0
04/01/19 13:09 35.8 34 17.5 0.0 0.0 0 0.0 0.0 1017.0 0.0 0.0 36.9 0.0
04/01/19 13:10 35.9 34 17.6 0.0 0.0 0 0.0 0.0 1017.0 0.0 0.0 37.1 0.0
04/01/19 13:11 36.1 33 17.3 0.0 0.0 0 0.0 0.0 1017.0 0.0 0.0 37.1 0.0
04/01/19 13:12 36.4 33 17.5 0.0 0.0 0 0.0 0.0 1017.0 0.0 0.0 37.6 0.0
04/01/19 13:13 36.3 32 17.0 0.0 0.0 0 0.0 0.0 1017.0 0.0 0.0 37.2 0.0
04/01/19 13:14 36.3 32 17.0 0.0 0.0 0 0.0 0.0 1017.0 0.0 0.0 37.2 0.0
04/01/19 13:18 35.5 32 16.3 0.0 0.0 0 0.0 0.0 1017.0 0.0 0.0 35.9 0.0
04/01/19 13:19 35.3 33 16.6 0.0 0.0 0 0.0 0.0 1017.0 0.0 0.0 35.8 0.0
04/01/19 13:20 35.1 33 16.4 0.0 0.0 0 0.0 0.0 1017.0 0.0 0.0 35.5 0.0
04/01/19 13:21 34.9 33 16.2 0.0 0.0 0 0.0 0.0 1017.0 0.0 0.0 35.2 0.0
04/01/19 13:22 34.7 33 16.1 0.0 0.0 0 0.0 0.0 1017.0 0.0 0.0 34.9 0.0
04/01/19 13:23 34.4 33 15.8 0.0 0.0 0 0.0 0.0 1017.0 0.0 0.0 34.4 0.0
04/01/19 13:24 34.3 33 15.7 0.0 0.0 0 0.0 0.0 1017.0 0.0 0.0 34.3 0.0
04/01/19 13:25 34.5 34 16.4 0.0 0.0 0 0.0 0.0 1017.0 0.0 0.0 34.8 0.0
04/01/19 13:26 34.6 34 16.4 0.0 0.0 0 0.0 0.0 1017.0 0.0 0.0 35.0 0.0
04/01/19 13:27 34.2 34 16.1 0.0 0.0 0 0.0 0.0 1017.0 0.0 0.0 34.3 0.0
04/01/19 13:28 34.5 34 16.4 0.0 0.0 0 0.0 0.0 1017.0 0.0 0.0 34.8 0.0
04/01/19 13:29 34.5 33 15.9 0.0 0.0 0 0.0 0.0 1017.0 0.0 0.0 34.6 0.0
04/01/19 13:30 34.7 33 16.1 0.0 0.0 0 0.0 0.0 1017.0 0.0 0.0 34.9 0.0
04/01/19 13:33 34.6 33 16.0 0.0 0.0 0 0.0 0.0 1017.0 0.0 0.0 34.7 0.0
04/01/19 13:34 34.5 33 15.9 0.0 0.0 0 0.0 0.0 1017.0 0.0 0.0 34.6 0.0
04/01/19 13:35 34.8 34 16.6 0.0 0.0 0 0.0 0.0 1017.0 0.0 0.0 35.3 0.0
04/01/19 13:36 35.0 34 16.8 0.0 0.0 0 0.0 0.0 1017.0 0.0 0.0 35.6 0.0
04/01/19 13:37 35.3 34 17.1 0.0 0.0 0 0.0 0.0 1017.0 0.0 0.0 36.1 0.0
04/01/19 13:38 35.6 33 16.8 0.0 0.0 0 0.0 0.0 1016.0 0.0 0.0 36.3 0.0
04/01/19 13:39 35.6 33 16.8 0.0 0.0 0 0.0 0.0 1016.0 0.0 0.0 36.3 0.0
04/01/19 13:40 35.6 33 16.8 0.0 0.0 0 0.0 0.0 1016.0 0.0 0.0 36.3 0.0
04/01/19 13:41 36.1 33 17.3 0.0 0.0 0 0.0 0.0 1016.0 0.0 0.0 37.1 0.0
04/01/19 13:42 36.3 33 17.5 0.0 0.0 0 0.0 0.0 1016.0 0.0 0.0 37.5 0.0
04/01/19 13:43 36.5 33 17.6 0.0 0.0 0 0.0 0.0 1016.0 0.0 0.0 37.8 0.0
04/01/19 13:44 36.8 33 17.9 0.0 0.0 0 0.0 0.0 1016.0 0.0 0.0 38.3 0.0
04/01/19 13:45 37.3 32 17.8 0.0 0.0 0 0.0 0.0 1016.0 0.0 0.0 38.9 0.0
04/01/19 13:48 37.6 31 17.6 0.0 0.0 0 0.0 0.0 1016.0 0.0 0.0 39.1 0.0
04/01/19 13:49 37.6 31 17.6 0.0 0.0 0 0.0 0.0 1016.0 0.0 0.0 39.1 0.0
04/01/19 13:50 37.3 31 17.3 0.0 0.0 0 0.0 0.0 1016.0 0.0 0.0 38.6 0.0
04/01/19 13:51 36.6 30 16.2 0.0 0.0 0 0.0 0.0 1016.0 0.0 0.0 37.1 0.0
04/01/19 13:52 36.3 31 16.5 0.0 0.0 0 0.0 0.0 1016.0 0.0 0.0 36.9 0.0
04/01/19 13:53 36.2 31 16.4 0.0 0.0 0 0.0 0.0 1016.0 0.0 0.0 36.7 0.0
04/01/19 13:54 36.0 31 16.2 0.0 0.0 0 0.0 0.0 1016.0 0.0 0.0 36.4 0.0
04/01/19 13:55 35.7 32 16.5 4.0 4.0 1 0.0 0.0 1016.0 4.0 35.7 36.2 0.0
04/01/19 13:56 35.4 31 15.7 4.0 4.0 1 0.0 0.0 1016.0 4.0 35.7 35.5 0.0
04/01/19 13:57 34.9 32 15.8 4.0 4.0 1 0.0 0.0 1016.0 4.0 35.4 35.0 0.0
04/01/19 13:58 34.8 32 15.7 4.0 4.0 1 0.0 0.0 1016.0 4.0 34.9 34.8 0.0
04/01/19 13:59 34.9 32 15.8 4.0 4.0 1 0.0 0.0 1016.0 4.0 34.8 35.0 0.0
04/01/19 14:00 34.6 32 15.5 4.0 4.0 1 0.0 0.0 1016.0 4.0 34.6 34.5 0.0
04/01/19 14:02 34.8 32 15.7 4.0 4.0 1 0.0 0.0 1016.0 4.0 0.0 34.8 0.0
04/01/19 14:03 34.9 32 15.8 4.0 4.0 1 0.0 0.0 1016.0 4.0 34.8 35.0 0.0
04/01/19 14:04 34.9 32 15.8 4.0 4.0 1 0.0 0.0 1016.0 4.0 34.9 35.0 0.0
04/01/19 14:05 34.8 32 15.7 4.0 4.0 1 0.0 0.0 1016.0 4.0 34.9 34.8 0.0
04/01/19 14:06 34.7 32 15.6 4.0 4.0 1 0.0 0.0 1016.0 4.0 34.8 34.7 0.0
04/01/19 14:07 34.6 32 15.5 4.0 4.0 1 0.0 0.0 1016.0 4.0 34.7 34.5 0.0
04/01/19 14:08 34.9 32 15.8 4.0 4.0 1 0.0 0.0 1015.0 4.0 34.7 35.0 0.0
04/01/19 14:09 35.2 31 15.5 4.0 4.0 1 0.0 0.0 1015.0 4.0 34.9 35.2 0.0
04/01/19 14:10 35.5 32 16.3 4.0 4.0 1 0.0 0.0 1015.0 4.0 35.2 35.9 0.0
04/01/19 14:11 35.8 32 16.5 4.0 4.0 1 0.0 0.0 1015.0 4.0 35.2 36.4 0.0
04/01/19 14:12 36.2 31 16.4 4.0 4.0 1 0.0 0.0 1015.0 4.0 35.2 36.7 0.0
04/01/19 14:13 36.5 31 16.6 4.0 4.0 1 0.0 0.0 1015.0 4.0 35.2 37.2 0.0
04/01/19 14:14 36.8 31 16.9 4.0 4.0 1 0.0 0.0 1015.0 4.0 35.2 37.7 0.0
04/01/19 14:15 37.1 30 16.6 4.0 4.0 1 0.0 0.0 1015.0 4.0 35.2 37.9 0.0
04/01/19 14:18 36.8 30 16.4 0.0 0.0 0 0.0 0.0 1015.0 0.0 0.0 37.4 0.0
04/01/19 14:19 36.3 29 15.4 0.0 0.0 0 0.0 0.0 1015.0 0.0 0.0 36.4 0.0
04/01/19 14:20 36.0 30 15.7 0.0 0.0 0 0.0 0.0 1015.0 0.0 0.0 36.2 0.0
04/01/19 14:21 35.8 30 15.5 0.0 0.0 0 0.0 0.0 1015.0 0.0 0.0 35.9 0.0
04/01/19 14:22 35.6 30 15.4 0.0 0.0 0 0.0 0.0 1015.0 0.0 0.0 35.6 0.0
04/01/19 14:23 35.2 30 15.0 0.0 0.0 0 0.0 0.0 1015.0 0.0 0.0 35.0 0.0
04/01/19 14:24 35.0 30 14.8 0.0 0.0 0 0.0 0.0 1015.0 0.0 0.0 34.7 0.0
04/01/19 14:25 34.9 31 15.3 0.0 0.0 0 0.0 0.0 1015.0 0.0 0.0 34.7 0.0
04/01/19 14:26 34.7 31 15.1 0.0 0.0 0 0.0 0.0 1015.0 0.0 0.0 34.4 0.0
04/01/19 14:27 34.6 31 15.0 0.0 0.0 0 0.0 0.0 1015.0 0.0 0.0 34.3 0.0
04/01/19 14:28 34.2 31 14.7 0.0 0.0 0 0.0 0.0 1015.0 0.0 0.0 33.7 0.0
04/01/19 14:29 33.5 32 14.5 0.0 0.0 0 0.0 0.0 1015.0 0.0 0.0 33.0 0.0
04/01/19 14:30 33.4 32 14.5 0.0 0.0 0 0.0 0.0 1015.0 0.0 0.0 32.8 0.0
04/01/19 14:33 33.8 32 14.8 0.0 0.0 0 0.0 0.0 1015.0 0.0 0.0 33.4 0.0
04/01/19 14:34 33.8 32 14.8 0.0 0.0 0 0.0 0.0 1015.0 0.0 0.0 33.4 0.0
04/01/19 14:35 33.7 32 14.7 0.0 0.0 0 0.0 0.0 1015.0 0.0 0.0 33.2 0.0
04/01/19 14:36 33.7 32 14.7 0.0 0.0 0 0.0 0.0 1015.0 0.0 0.0 33.2 0.0
04/01/19 14:37 33.7 32 14.7 0.0 0.0 0 0.0 0.0 1015.0 0.0 0.0 33.2 0.0
04/01/19 14:38 32.9 33 14.5 0.0 0.0 0 0.0 0.0 1015.0 0.0 0.0 32.3 0.0
04/01/19 14:39 32.8 33 14.4 0.0 0.0 0 0.0 0.0 1015.0 0.0 0.0 32.2 0.0
04/01/19 14:40 32.7 33 14.3 0.0 0.0 0 0.0 0.0 1015.0 0.0 0.0 32.1 0.0
04/01/19 14:41 32.7 33 14.3 0.0 0.0 0 0.0 0.0 1015.0 0.0 0.0 32.1 0.0
04/01/19 14:42 32.8 33 14.4 0.0 0.0 0 0.0 0.0 1015.0 0.0 0.0 32.2 0.0
04/01/19 14:43 33.1 33 14.7 0.0 0.0 0 0.0 0.0 1015.0 0.0 0.0 32.6 0.0
04/01/19 14:44 33.5 33 15.0 0.0 0.0 0 0.0 0.0 1015.0 0.0 0.0 33.1 0.0
04/01/19 14:45 33.8 33 15.3 0.0 0.0 0 0.0 0.0 1015.0 0.0 0.0 33.6 0.0
04/01/19 14:48 33.8 32 14.8 0.0 0.0 0 0.0 0.0 1015.0 0.0 0.0 33.4 0.0
04/01/19 14:49 33.6 32 14.6 0.0 0.0 0 0.0 0.0 1015.0 0.0 0.0 33.1 0.0
04/01/19 14:50 33.5 32 14.5 0.0 0.0 0 0.0 0.0 1015.0 0.0 0.0 33.0 0.0
04/01/19 14:51 33.3 32 14.4 0.0 0.0 0 0.0 0.0 1015.0 0.0 0.0 32.7 0.0
04/01/19 14:52 33.2 32 14.3 0.0 0.0 0 0.0 0.0 1015.0 0.0 0.0 32.6 0.0
04/01/19 14:53 33.9 33 15.4 0.0 0.0 0 0.0 0.0 1015.0 0.0 0.0 33.7 0.0
04/01/19 14:54 34.3 32 15.2 0.0 0.0 0 0.0 0.0 1015.0 0.0 0.0 34.1 0.0
04/01/19 14:55 34.8 32 15.7 0.0 0.0 0 0.0 0.0 1015.0 0.0 0.0 34.8 0.0
04/01/19 14:56 35.2 32 16.0 0.0 0.0 0 0.0 0.0 1015.0 0.0 0.0 35.4 0.0
04/01/19 14:57 35.5 32 16.3 0.0 0.0 0 0.0 0.0 1015.0 0.0 0.0 35.9 0.0
04/01/19 14:58 35.7 32 16.5 0.0 0.0 0 0.0 0.0 1015.0 0.0 0.0 36.2 0.0
04/01/19 14:59 36.0 31 16.2 0.0 0.0 0 0.0 0.0 1015.0 0.0 0.0 36.4 0.0
04/01/19 15:00 36.1 31 16.3 0.0 0.0 0 0.0 0.0 1015.0 0.0 0.0 36.6 0.0
04/01/19 15:03 36.8 31 16.9 0.0 0.0 0 0.0 0.0 1015.0 0.0 0.0 37.7 0.0
04/01/19 15:04 37.1 30 16.6 0.0 0.0 0 0.0 0.0 1015.0 0.0 0.0 37.9 0.0
04/01/19 15:05 37.4 30 16.9 0.0 0.0 0 0.0 0.0 1015.0 0.0 0.0 38.4 0.0
04/01/19 15:06 37.5 30 17.0 0.0 0.0 0 0.0 0.0 1015.0 0.0 0.0 38.6 0.0
04/01/19 15:07 37.5 29 16.5 0.0 0.0 0 0.0 0.0 1015.0 0.0 0.0 38.3 0.0
04/01/19 15:08 37.4 29 16.4 0.0 0.0 0 0.0 0.0 1015.0 0.0 0.0 38.1 0.0
04/01/19 15:09 37.3 29 16.3 0.0 0.0 0 0.0 0.0 1015.0 0.0 0.0 38.0 0.0
04/01/19 15:10 37.4 29 16.4 0.0 0.0 0 0.0 0.0 1015.0 0.0 0.0 38.1 0.0
04/01/19 15:11 37.7 29 16.6 0.0 0.0 0 0.0 0.0 1015.0 0.0 0.0 38.6 0.0
04/01/19 15:12 37.9 29 16.8 0.0 0.0 0 0.0 0.0 1015.0 0.0 0.0 38.9 0.0
04/01/19 15:13 38.1 29 17.0 0.0 0.0 0 0.0 0.0 1015.0 0.0 0.0 39.3 0.0
04/01/19 15:14 38.3 28 16.6 0.0 0.0 0 0.0 0.0 1015.0 0.0 0.0 39.3 0.0
04/01/19 15:15 38.1 27 15.8 0.0 0.0 0 0.0 0.0 1015.0 0.0 0.0 38.6 0.0
04/01/19 15:18 37.7 28 16.1 0.0 0.0 0 0.0 0.0 1015.0 0.0 0.0 38.3 0.0
04/01/19 15:19 37.4 28 15.8 0.0 0.0 0 0.0 0.0 1015.0 0.0 0.0 37.8 0.0
04/01/19 15:20 37.4 28 15.8 0.0 0.0 0 0.0 0.0 1015.0 0.0 0.0 37.8 0.0
04/01/19 15:21 36.9 28 15.4 0.0 0.0 0 0.0 0.0 1015.0 0.0 0.0 37.0 0.0
04/01/19 15:22 36.8 28 15.3 0.0 0.0 0 0.0 0.0 1015.0 0.0 0.0 36.9 0.0
04/01/19 15:23 37.2 28 15.6 0.0 0.0 0 0.0 0.0 1015.0 0.0 0.0 37.5 0.0
04/01/19 15:24 37.4 28 15.8 0.0 0.0 0 0.0 0.0 1015.0 0.0 0.0 37.8 0.0
04/01/19 15:25 37.3 28 15.7 0.0 0.0 0 0.0 0.0 1015.0 0.0 0.0 37.7 0.0
04/01/19 15:26 37.1 28 15.6 0.0 0.0 0 0.0 0.0 1015.0 0.0 0.0 37.3 0.0
04/01/19 15:27 37.4 28 15.8 0.0 0.0 0 0.0 0.0 1015.0 0.0 0.0 37.8 0.0
04/01/19 15:28 37.7 28 16.1 0.0 0.0 0 0.0 0.0 1015.0 0.0 0.0 38.3 0.0
04/01/19 15:29 38.1 28 16.4 0.0 0.0 0 0.0 0.0 1015.0 0.0 0.0 39.0 0.0
04/01/19 15:30 38.5 28 16.8 0.0 0.0 0 0.0 0.0 1015.0 0.0 0.0 39.6 0.0
04/01/19 15:33 39.0 27 16.6 0.0 0.0 0 0.0 0.0 1015.0 0.0 0.0 40.1 0.0
04/01/19 15:34 39.0 27 16.6 0.0 0.0 0 0.0 0.0 1015.0 0.0 0.0 40.1 0.0
04/01/19 15:35 38.8 27 16.4 0.0 0.0 0 0.0 0.0 1015.0 0.0 0.0 39.8 0.0
04/01/19 15:36 38.6 27 16.3 0.0 0.0 0 0.0 0.0 1015.0 0.0 0.0 39.5 0.0
04/01/19 15:37 38.0 27 15.8 0.0 0.0 0 0.0 0.0 1015.0 0.0 0.0 38.5 0.0
04/01/19 15:38 37.0 27 14.9 0.0 0.0 0 0.0 0.0 1015.0 0.0 0.0 36.9 0.0
04/01/19 15:39 36.1 28 14.7 0.0 0.0 0 0.0 0.0 1015.0 0.0 0.0 35.8 0.0
04/01/19 15:40 36.0 28 14.6 0.0 0.0 0 0.0 0.0 1015.0 0.0 0.0 35.7 0.0
04/01/19 15:41 35.9 29 15.1 0.0 0.0 0 0.0 0.0 1015.0 0.0 0.0 35.8 0.0
04/01/19 15:42 35.8 29 15.0 0.0 0.0 0 0.0 0.0 1015.0 0.0 0.0 35.6 0.0
04/01/19 15:43 35.6 29 14.8 0.0 0.0 0 0.0 0.0 1015.0 0.0 0.0 35.3 0.0
04/01/19 15:44 35.8 29 15.0 0.0 0.0 0 0.0 0.0 1015.0 0.0 0.0 35.6 0.0
04/01/19 15:45 36.1 28 14.7 0.0 0.0 0 0.0 0.0 1015.0 0.0 0.0 35.8 0.0
04/01/19 15:48 36.2 28 14.8 0.0 0.0 0 0.0 0.0 1015.0 0.0 0.0 36.0 0.0
04/01/19 15:49 36.2 28 14.8 0.0 0.0 0 0.0 0.0 1015.0 0.0 0.0 36.0 0.0
04/01/19 15:50 36.4 28 15.0 0.0 0.0 0 0.0 0.0 1015.0 0.0 0.0 36.3 0.0
04/01/19 15:51 36.7 28 15.2 0.0 0.0 0 0.0 0.0 1015.0 0.0 0.0 36.7 0.0
04/01/19 15:52 37.0 28 15.5 0.0 0.0 0 0.0 0.0 1015.0 0.0 0.0 37.2 0.0
04/01/19 15:53 37.3 28 15.7 0.0 0.0 0 0.0 0.0 1015.0 0.0 0.0 37.7 0.0
04/01/19 15:54 37.5 28 15.9 0.0 0.0 0 0.0 0.0 1015.0 0.0 0.0 38.0 0.0
04/01/19 15:55 37.6 28 16.0 0.0 0.0 0 0.0 0.0 1015.0 0.0 0.0 38.1 0.0
04/01/19 15:56 37.4 27 15.2 0.0 0.0 0 0.0 0.0 1015.0 0.0 0.0 37.5 0.0
04/01/19 15:57 37.2 28 15.6 0.0 0.0 0 0.0 0.0 1015.0 0.0 0.0 37.5 0.0
04/01/19 15:58 37.1 27 15.0 0.0 0.0 0 0.0 0.0 1015.0 0.0 0.0 37.1 0.0
04/01/19 15:59 37.1 28 15.6 0.0 0.0 0 0.0 0.0 1015.0 0.0 0.0 37.3 0.0
04/01/19 16:03 37.3 28 15.7 0.0 0.0 0 0.0 0.0 1015.0 0.0 0.0 37.7 0.0
04/01/19 16:04 37.2 28 15.6 0.0 0.0 0 0.0 0.0 1015.0 0.0 0.0 37.5 0.0
04/01/19 16:05 37.1 27 15.0 0.0 0.0 0 0.0 0.0 1015.0 0.0 0.0 37.1 0.0
04/01/19 16:06 37.0 27 14.9 0.0 0.0 0 0.0 0.0 1015.0 0.0 0.0 36.9 0.0
04/01/19 16:07 37.0 27 14.9 0.0 0.0 0 0.0 0.0 1015.0 0.0 0.0 36.9 0.0
04/01/19 16:08 37.1 27 15.0 0.0 0.0 0 0.0 0.0 1015.0 0.0 0.0 37.1 0.0
04/01/19 16:09 37.4 27 15.2 0.0 0.0 0 0.0 0.0 1015.0 0.0 0.0 37.5 0.0
04/01/19 16:10 37.5 27 15.3 0.0 0.0 0 0.0 0.0 1015.0 0.0 0.0 37.7 0.0
04/01/19 16:11 37.7 27 15.5 0.0 0.0 0 0.0 0.0 1015.0 0.0 0.0 38.0 0.0
04/01/19 16:12 37.8 27 15.6 0.0 0.0 0 0.0 0.0 1015.0 0.0 0.0 38.2 0.0
04/01/19 16:13 37.5 27 15.3 0.0 0.0 0 0.0 0.0 1015.0 0.0 0.0 37.7 0.0
04/01/19 16:14 37.2 27 15.1 0.0 0.0 0 0.0 0.0 1015.0 0.0 0.0 37.2 0.0
04/01/19 16:15 36.8 28 15.3 0.0 0.0 0 0.0 0.0 1015.0 0.0 0.0 36.9 0.0
04/01/19 16:17 36.1 28 14.7 0.0 0.0 0 0.0 0.0 1015.0 0.0 0.0 35.8 0.0
04/01/19 16:18 36.1 28 14.7 0.0 0.0 0 0.0 0.0 1015.0 0.0 0.0 35.8 0.0
04/01/19 16:19 36.0 27 14.1 0.0 0.0 0 0.0 0.0 1015.0 0.0 0.0 35.5 0.0
04/01/19 16:20 35.8 28 14.5 0.0 0.0 0 0.0 0.0 1015.0 0.0 0.0 35.4 0.0
04/01/19 16:21 35.8 28 14.5 0.0 0.0 0 0.0 0.0 1015.0 0.0 0.0 35.4 0.0
04/01/19 16:22 35.9 28 14.5 0.0 0.0 0 0.0 0.0 1015.0 0.0 0.0 35.5 0.0
04/01/19 16:23 35.9 28 14.5 0.0 0.0 0 0.0 0.0 1015.0 0.0 0.0 35.5 0.0
04/01/19 16:24 36.2 28 14.8 0.0 0.0 0 0.0 0.0 1015.0 0.0 0.0 36.0 0.0
04/01/19 16:25 36.2 28 14.8 0.0 0.0 0 0.0 0.0 1015.0 0.0 0.0 36.0 0.0
04/01/19 16:26 36.4 28 15.0 0.0 0.0 0 0.0 0.0 1015.0 0.0 0.0 36.3 0.0
04/01/19 16:27 36.4 28 15.0 0.0 0.0 0 0.0 0.0 1015.0 0.0 0.0 36.3 0.0
04/01/19 16:28 36.9 28 15.4 0.0 0.0 0 0.0 0.0 1015.0 0.0 0.0 37.0 0.0
04/01/19 16:29 37.1 28 15.6 0.0 0.0 0 0.0 0.0 1015.0 0.0 0.0 37.3 0.0
04/01/19 16:30 37.1 28 15.6 0.0 0.0 0 0.0 0.0 1015.0 0.0 0.0 37.3 0.0
04/01/19 16:32 37.4 28 15.8 0.0 0.0 0 0.0 0.0 1015.0 0.0 0.0 37.8 0.0
04/01/19 16:33 37.4 28 15.8 0.0 0.0 0 0.0 0.0 1015.0 0.0 0.0 37.8 0.0
04/01/19 16:34 37.6 28 16.0 0.0 0.0 0 0.0 0.0 1015.0 0.0 0.0 38.1 0.0
04/01/19 16:35 37.4 27 15.2 0.0 0.0 0 0.0 0.0 1015.0 0.0 0.0 37.5 0.0
04/01/19 16:36 36.9 27 14.8 0.0 0.0 0 0.0 0.0 1015.0 0.0 0.0 36.8 0.0
04/01/19 16:37 36.9 28 15.4 0.0 0.0 0 0.0 0.0 1015.0 0.0 0.0 37.0 0.0
04/01/19 16:38 36.8 27 14.7 0.0 0.0 0 0.0 0.0 1014.0 0.0 0.0 36.6 0.0
04/01/19 16:39 36.8 28 15.3 0.0 0.0 0 0.0 0.0 1014.0 0.0 0.0 36.9 0.0
04/01/19 16:40 36.7 28 15.2 0.0 0.0 0 0.0 0.0 1014.0 0.0 0.0 36.7 0.0
04/01/19 16:41 36.5 27 14.5 0.0 0.0 0 0.0 0.0 1014.0 0.0 0.0 36.2 0.0
04/01/19 16:42 36.4 27 14.4 0.0 0.0 0 0.0 0.0 1014.0 0.0 0.0 36.0 0.0
04/01/19 16:43 36.4 27 14.4 0.0 0.0 0 0.0 0.0 1014.0 0.0 0.0 36.0 0.0
04/01/19 16:44 36.5 28 15.0 0.0 0.0 0 0.0 0.0 1014.0 0.0 0.0 36.4 0.0
04/01/19 16:45 36.5 28 15.0 0.0 0.0 0 0.0 0.0 1014.0 0.0 0.0 36.4 0.0
04/01/19 16:47 36.4 28 15.0 0.0 0.0 0 0.0 0.0 1014.0 0.0 0.0 36.3 0.0
04/01/19 16:48 36.1 28 14.7 0.0 0.0 0 0.0 0.0 1014.0 0.0 0.0 35.8 0.0
04/01/19 16:49 36.0 28 14.6 0.0 0.0 0 0.0 0.0 1014.0 0.0 0.0 35.7 0.0
04/01/19 16:50 35.8 28 14.5 0.0 0.0 0 0.0 0.0 1014.0 0.0 0.0 35.4 0.0
04/01/19 16:51 35.6 28 14.3 0.0 0.0 0 0.0 0.0 1014.0 0.0 0.0 35.1 0.0
04/01/19 16:52 35.4 28 14.1 0.0 0.0 0 0.0 0.0 1014.0 0.0 0.0 34.8 0.0
04/01/19 16:53 35.4 28 14.1 0.0 0.0 0 0.0 0.0 1014.0 0.0 0.0 34.8 0.0
04/01/19 16:54 35.0 28 13.8 0.0 0.0 0 0.0 0.0 1014.0 0.0 0.0 34.3 0.0
04/01/19 16:55 34.9 28 13.7 0.0 0.0 0 0.0 0.0 1014.0 0.0 0.0 34.1 0.0
04/01/19 16:56 34.8 28 13.6 0.0 0.0 0 0.0 0.0 1014.0 0.0 0.0 34.0 0.0
04/01/19 16:57 34.6 28 13.4 0.0 0.0 0 0.0 0.0 1014.0 0.0 0.0 33.7 0.0
04/01/19 16:58 34.5 28 13.3 0.0 0.0 0 0.0 0.0 1014.0 0.0 0.0 33.6 0.0
04/01/19 16:59 34.2 28 13.1 0.0 0.0 0 0.0 0.0 1014.0 0.0 0.0 33.2 0.0
04/01/19 17:00 33.9 29 13.4 0.0 0.0 0 0.0 0.0 1014.0 0.0 0.0 33.0 0.0
04/01/19 17:02 33.5 29 13.0 0.0 0.0 0 0.0 0.0 1014.0 0.0 0.0 32.5 0.0
04/01/19 17:03 33.4 29 12.9 0.0 0.0 0 0.0 0.0 1014.0 0.0 0.0 32.4 0.0
04/01/19 17:04 33.3 29 12.9 0.0 0.0 0 0.0 0.0 1014.0 0.0 0.0 32.2 0.0
04/01/19 17:05 33.3 29 12.9 0.0 0.0 0 0.0 0.0 1014.0 0.0 0.0 32.2 0.0
04/01/19 17:06 33.2 29 12.8 0.0 0.0 0 0.0 0.0 1014.0 0.0 0.0 32.1 0.0
04/01/19 17:07 33.0 29 12.6 0.0 0.0 0 0.0 0.0 1014.0 0.0 0.0 31.9 0.0
04/01/19 17:08 32.9 30 13.0 0.0 0.0 0 0.0 0.0 1014.0 0.0 0.0 31.9 0.0
04/01/19 17:09 32.8 30 12.9 0.0 0.0 0 0.0 0.0 1014.0 0.0 0.0 31.8 0.0
04/01/19 17:10 32.5 30 12.7 0.0 0.0 0 0.0 0.0 1014.0 0.0 0.0 31.4 0.0
04/01/19 17:11 32.5 30 12.7 0.0 0.0 0 0.0 0.0 1014.0 0.0 0.0 31.4 0.0
04/01/19 17:12 32.5 30 12.7 0.0 0.0 0 0.0 0.0 1014.0 0.0 0.0 31.4 0.0
04/01/19 17:13 32.4 30 12.6 0.0 0.0 0 0.0 0.0 1014.0 0.0 0.0 31.3 0.0
04/01/19 17:14 32.4 30 12.6 0.0 0.0 0 0.0 0.0 1014.0 0.0 0.0 31.3 0.0
04/01/19 17:15 32.5 30 12.7 0.0 0.0 0 0.0 0.0 1014.0 0.0 0.0 31.4 0.0
04/01/19 17:17 32.6 30 12.8 0.0 0.0 0 0.0 0.0 1014.0 0.0 0.0 31.5 0.0
04/01/19 17:29 32.3 30 12.5 0.0 0.0 0 0.0 0.0 1014.0 0.0